<?xml version="1.0" encoding="UTF-8" standalone="no" ?>
<gpx xmlns="http://www.topografix.com/GPX/1/1" xmlns:xsi="http://www.w3.org/2001/XMLSchema-instance" xsi:schemaLocation="http://www.topografix.com/GPX/1/1 http://www.topografix.com/GPX/1/1/gpx.xsd" version="1.1" creator="VisuGPX - https://www.visugpx.com">
  <metadata>
    <name>Champagnat Cyclisme sur route</name>
  </metadata>
  <trk>
    <name><![CDATA[Champagnat Cyclisme sur route_1]]></name>
    <trkseg>
      <trkpt lat="46.48258" lon="5.36825">
        <ele>263.6</ele>
        <time>2022-02-24T13:06:19Z</time>
      </trkpt>
      <trkpt lat="46.48248" lon="5.36815">
        <ele>262.8</ele>
        <time>2022-02-24T13:06:20Z</time>
      </trkpt>
      <trkpt lat="46.48238" lon="5.36807">
        <ele>261.4</ele>
        <time>2022-02-24T13:06:21Z</time>
      </trkpt>
      <trkpt lat="46.48228" lon="5.36798">
        <ele>260.2</ele>
        <time>2022-02-24T13:06:22Z</time>
      </trkpt>
      <trkpt lat="46.48208" lon="5.36782">
        <ele>258.2</ele>
        <time>2022-02-24T13:06:24Z</time>
      </trkpt>
      <trkpt lat="46.48188" lon="5.36766">
        <ele>256.2</ele>
        <time>2022-02-24T13:06:26Z</time>
      </trkpt>
      <trkpt lat="46.48178" lon="5.36758">
        <ele>255.8</ele>
        <time>2022-02-24T13:06:27Z</time>
      </trkpt>
      <trkpt lat="46.48169" lon="5.3675">
        <ele>255</ele>
        <time>2022-02-24T13:06:28Z</time>
      </trkpt>
      <trkpt lat="46.4814" lon="5.36726">
        <ele>253.8</ele>
        <time>2022-02-24T13:06:31Z</time>
      </trkpt>
      <trkpt lat="46.48123" lon="5.36713">
        <ele>253</ele>
        <time>2022-02-24T13:06:33Z</time>
      </trkpt>
      <trkpt lat="46.48116" lon="5.36708">
        <ele>252.8</ele>
        <time>2022-02-24T13:06:34Z</time>
      </trkpt>
      <trkpt lat="46.48111" lon="5.36701">
        <ele>251.8</ele>
        <time>2022-02-24T13:06:35Z</time>
      </trkpt>
      <trkpt lat="46.48109" lon="5.36692">
        <ele>251.4</ele>
        <time>2022-02-24T13:06:36Z</time>
      </trkpt>
      <trkpt lat="46.48112" lon="5.36674">
        <ele>250.6</ele>
        <time>2022-02-24T13:06:38Z</time>
      </trkpt>
      <trkpt lat="46.48117" lon="5.36667">
        <ele>250.6</ele>
        <time>2022-02-24T13:06:39Z</time>
      </trkpt>
      <trkpt lat="46.48124" lon="5.3666">
        <ele>250.4</ele>
        <time>2022-02-24T13:06:40Z</time>
      </trkpt>
      <trkpt lat="46.48145" lon="5.36641">
        <ele>249.8</ele>
        <time>2022-02-24T13:06:43Z</time>
      </trkpt>
      <trkpt lat="46.48152" lon="5.36634">
        <ele>249.2</ele>
        <time>2022-02-24T13:06:44Z</time>
      </trkpt>
      <trkpt lat="46.48171" lon="5.36617">
        <ele>248.4</ele>
        <time>2022-02-24T13:06:46Z</time>
      </trkpt>
      <trkpt lat="46.4818" lon="5.36609">
        <ele>248.2</ele>
        <time>2022-02-24T13:06:47Z</time>
      </trkpt>
      <trkpt lat="46.48189" lon="5.36605">
        <ele>248</ele>
        <time>2022-02-24T13:06:48Z</time>
      </trkpt>
      <trkpt lat="46.48206" lon="5.366">
        <ele>247.8</ele>
        <time>2022-02-24T13:06:50Z</time>
      </trkpt>
      <trkpt lat="46.48213" lon="5.36594">
        <ele>247.6</ele>
        <time>2022-02-24T13:06:51Z</time>
      </trkpt>
      <trkpt lat="46.48218" lon="5.36585">
        <ele>247.4</ele>
        <time>2022-02-24T13:06:52Z</time>
      </trkpt>
      <trkpt lat="46.48221" lon="5.36575">
        <ele>247.4</ele>
        <time>2022-02-24T13:06:53Z</time>
      </trkpt>
      <trkpt lat="46.48225" lon="5.36564">
        <ele>247.2</ele>
        <time>2022-02-24T13:06:54Z</time>
      </trkpt>
      <trkpt lat="46.4823" lon="5.36554">
        <ele>247</ele>
        <time>2022-02-24T13:06:55Z</time>
      </trkpt>
      <trkpt lat="46.48236" lon="5.36546">
        <ele>246.8</ele>
        <time>2022-02-24T13:06:56Z</time>
      </trkpt>
      <trkpt lat="46.4828" lon="5.36499">
        <ele>246</ele>
        <time>2022-02-24T13:07:02Z</time>
      </trkpt>
      <trkpt lat="46.48288" lon="5.36491">
        <ele>245.8</ele>
        <time>2022-02-24T13:07:03Z</time>
      </trkpt>
      <trkpt lat="46.48303" lon="5.36474">
        <ele>245.4</ele>
        <time>2022-02-24T13:07:05Z</time>
      </trkpt>
      <trkpt lat="46.48327" lon="5.36448">
        <ele>244.8</ele>
        <time>2022-02-24T13:07:08Z</time>
      </trkpt>
      <trkpt lat="46.48359" lon="5.36414">
        <ele>243.6</ele>
        <time>2022-02-24T13:07:12Z</time>
      </trkpt>
      <trkpt lat="46.48374" lon="5.36397">
        <ele>243</ele>
        <time>2022-02-24T13:07:14Z</time>
      </trkpt>
      <trkpt lat="46.4839" lon="5.36379">
        <ele>242.4</ele>
        <time>2022-02-24T13:07:16Z</time>
      </trkpt>
      <trkpt lat="46.48416" lon="5.36358">
        <ele>241.6</ele>
        <time>2022-02-24T13:07:19Z</time>
      </trkpt>
      <trkpt lat="46.48435" lon="5.3635">
        <ele>241.4</ele>
        <time>2022-02-24T13:07:21Z</time>
      </trkpt>
      <trkpt lat="46.48454" lon="5.36346">
        <ele>241.2</ele>
        <time>2022-02-24T13:07:23Z</time>
      </trkpt>
      <trkpt lat="46.48508" lon="5.36338">
        <ele>240.6</ele>
        <time>2022-02-24T13:07:29Z</time>
      </trkpt>
      <trkpt lat="46.48526" lon="5.36335">
        <ele>240.6</ele>
        <time>2022-02-24T13:07:31Z</time>
      </trkpt>
      <trkpt lat="46.48544" lon="5.36332">
        <ele>240.4</ele>
        <time>2022-02-24T13:07:33Z</time>
      </trkpt>
      <trkpt lat="46.4857" lon="5.36327">
        <ele>240.4</ele>
        <time>2022-02-24T13:07:36Z</time>
      </trkpt>
      <trkpt lat="46.48579" lon="5.36326">
        <ele>240.2</ele>
        <time>2022-02-24T13:07:37Z</time>
      </trkpt>
      <trkpt lat="46.48608" lon="5.36322">
        <ele>239.6</ele>
        <time>2022-02-24T13:07:40Z</time>
      </trkpt>
      <trkpt lat="46.48617" lon="5.36317">
        <ele>239.4</ele>
        <time>2022-02-24T13:07:41Z</time>
      </trkpt>
      <trkpt lat="46.48626" lon="5.36309">
        <ele>239</ele>
        <time>2022-02-24T13:07:42Z</time>
      </trkpt>
      <trkpt lat="46.48632" lon="5.36297">
        <ele>238.8</ele>
        <time>2022-02-24T13:07:43Z</time>
      </trkpt>
      <trkpt lat="46.48636" lon="5.36284">
        <ele>237.8</ele>
        <time>2022-02-24T13:07:44Z</time>
      </trkpt>
      <trkpt lat="46.4864" lon="5.36254">
        <ele>236.8</ele>
        <time>2022-02-24T13:07:46Z</time>
      </trkpt>
      <trkpt lat="46.48644" lon="5.36209">
        <ele>235</ele>
        <time>2022-02-24T13:07:49Z</time>
      </trkpt>
      <trkpt lat="46.48648" lon="5.36151">
        <ele>234</ele>
        <time>2022-02-24T13:07:53Z</time>
      </trkpt>
      <trkpt lat="46.4865" lon="5.36137">
        <ele>234</ele>
        <time>2022-02-24T13:07:54Z</time>
      </trkpt>
      <trkpt lat="46.48666" lon="5.36058">
        <ele>233.2</ele>
        <time>2022-02-24T13:08:00Z</time>
      </trkpt>
      <trkpt lat="46.48676" lon="5.36005">
        <ele>233.8</ele>
        <time>2022-02-24T13:08:05Z</time>
      </trkpt>
      <trkpt lat="46.48683" lon="5.35947">
        <ele>235.2</ele>
        <time>2022-02-24T13:08:11Z</time>
      </trkpt>
      <trkpt lat="46.48684" lon="5.35936">
        <ele>235.4</ele>
        <time>2022-02-24T13:08:12Z</time>
      </trkpt>
      <trkpt lat="46.48691" lon="5.35905">
        <ele>235.4</ele>
        <time>2022-02-24T13:08:15Z</time>
      </trkpt>
      <trkpt lat="46.48699" lon="5.35885">
        <ele>235.4</ele>
        <time>2022-02-24T13:08:17Z</time>
      </trkpt>
      <trkpt lat="46.48723" lon="5.35823">
        <ele>234</ele>
        <time>2022-02-24T13:08:23Z</time>
      </trkpt>
      <trkpt lat="46.48746" lon="5.35775">
        <ele>233.4</ele>
        <time>2022-02-24T13:08:28Z</time>
      </trkpt>
      <trkpt lat="46.48762" lon="5.35735">
        <ele>233</ele>
        <time>2022-02-24T13:08:32Z</time>
      </trkpt>
      <trkpt lat="46.48774" lon="5.35707">
        <ele>232.6</ele>
        <time>2022-02-24T13:08:35Z</time>
      </trkpt>
      <trkpt lat="46.48803" lon="5.35643">
        <ele>232.2</ele>
        <time>2022-02-24T13:08:42Z</time>
      </trkpt>
      <trkpt lat="46.48832" lon="5.3558">
        <ele>232.8</ele>
        <time>2022-02-24T13:08:49Z</time>
      </trkpt>
      <trkpt lat="46.4886" lon="5.35518">
        <ele>233</ele>
        <time>2022-02-24T13:08:56Z</time>
      </trkpt>
      <trkpt lat="46.48881" lon="5.35474">
        <ele>233</ele>
        <time>2022-02-24T13:09:01Z</time>
      </trkpt>
      <trkpt lat="46.4889" lon="5.35456">
        <ele>233</ele>
        <time>2022-02-24T13:09:03Z</time>
      </trkpt>
      <trkpt lat="46.4892" lon="5.35383">
        <ele>232.2</ele>
        <time>2022-02-24T13:09:11Z</time>
      </trkpt>
      <trkpt lat="46.48929" lon="5.35365">
        <ele>231.8</ele>
        <time>2022-02-24T13:09:13Z</time>
      </trkpt>
      <trkpt lat="46.48934" lon="5.35354">
        <ele>231.8</ele>
        <time>2022-02-24T13:09:14Z</time>
      </trkpt>
      <trkpt lat="46.48957" lon="5.353">
        <ele>231.2</ele>
        <time>2022-02-24T13:09:20Z</time>
      </trkpt>
      <trkpt lat="46.48978" lon="5.35249">
        <ele>231.2</ele>
        <time>2022-02-24T13:09:26Z</time>
      </trkpt>
      <trkpt lat="46.49002" lon="5.352">
        <ele>231.6</ele>
        <time>2022-02-24T13:09:32Z</time>
      </trkpt>
      <trkpt lat="46.49005" lon="5.35192">
        <ele>231.6</ele>
        <time>2022-02-24T13:09:33Z</time>
      </trkpt>
      <trkpt lat="46.49017" lon="5.35161">
        <ele>232.2</ele>
        <time>2022-02-24T13:09:37Z</time>
      </trkpt>
      <trkpt lat="46.49024" lon="5.35146">
        <ele>232.4</ele>
        <time>2022-02-24T13:09:39Z</time>
      </trkpt>
      <trkpt lat="46.49035" lon="5.35112">
        <ele>232.4</ele>
        <time>2022-02-24T13:09:43Z</time>
      </trkpt>
      <trkpt lat="46.49047" lon="5.35065">
        <ele>232.6</ele>
        <time>2022-02-24T13:09:48Z</time>
      </trkpt>
      <trkpt lat="46.49062" lon="5.34993">
        <ele>232.2</ele>
        <time>2022-02-24T13:09:55Z</time>
      </trkpt>
      <trkpt lat="46.4908" lon="5.34925">
        <ele>231.4</ele>
        <time>2022-02-24T13:10:01Z</time>
      </trkpt>
      <trkpt lat="46.49091" lon="5.34879">
        <ele>230.4</ele>
        <time>2022-02-24T13:10:05Z</time>
      </trkpt>
      <trkpt lat="46.49098" lon="5.34843">
        <ele>229.6</ele>
        <time>2022-02-24T13:10:08Z</time>
      </trkpt>
      <trkpt lat="46.491" lon="5.34832">
        <ele>229.4</ele>
        <time>2022-02-24T13:10:09Z</time>
      </trkpt>
      <trkpt lat="46.49112" lon="5.34763">
        <ele>228.4</ele>
        <time>2022-02-24T13:10:15Z</time>
      </trkpt>
      <trkpt lat="46.49114" lon="5.34752">
        <ele>228.2</ele>
        <time>2022-02-24T13:10:16Z</time>
      </trkpt>
      <trkpt lat="46.49126" lon="5.34684">
        <ele>227.2</ele>
        <time>2022-02-24T13:10:22Z</time>
      </trkpt>
      <trkpt lat="46.49128" lon="5.34674">
        <ele>227.2</ele>
        <time>2022-02-24T13:10:23Z</time>
      </trkpt>
      <trkpt lat="46.49131" lon="5.34664">
        <ele>227.2</ele>
        <time>2022-02-24T13:10:24Z</time>
      </trkpt>
      <trkpt lat="46.49135" lon="5.34645">
        <ele>227.2</ele>
        <time>2022-02-24T13:10:26Z</time>
      </trkpt>
      <trkpt lat="46.49138" lon="5.34626">
        <ele>227.2</ele>
        <time>2022-02-24T13:10:28Z</time>
      </trkpt>
      <trkpt lat="46.49141" lon="5.34597">
        <ele>227.2</ele>
        <time>2022-02-24T13:10:31Z</time>
      </trkpt>
      <trkpt lat="46.4915" lon="5.3455">
        <ele>227.4</ele>
        <time>2022-02-24T13:10:36Z</time>
      </trkpt>
      <trkpt lat="46.49154" lon="5.34528">
        <ele>227.4</ele>
        <time>2022-02-24T13:10:38Z</time>
      </trkpt>
      <trkpt lat="46.49172" lon="5.34451">
        <ele>227</ele>
        <time>2022-02-24T13:10:45Z</time>
      </trkpt>
      <trkpt lat="46.49186" lon="5.34388">
        <ele>227</ele>
        <time>2022-02-24T13:10:51Z</time>
      </trkpt>
      <trkpt lat="46.49195" lon="5.34337">
        <ele>227.8</ele>
        <time>2022-02-24T13:10:57Z</time>
      </trkpt>
      <trkpt lat="46.49199" lon="5.3432">
        <ele>228.2</ele>
        <time>2022-02-24T13:10:59Z</time>
      </trkpt>
      <trkpt lat="46.49206" lon="5.34281">
        <ele>228.6</ele>
        <time>2022-02-24T13:11:03Z</time>
      </trkpt>
      <trkpt lat="46.49219" lon="5.34208">
        <ele>227.4</ele>
        <time>2022-02-24T13:11:10Z</time>
      </trkpt>
      <trkpt lat="46.49233" lon="5.34127">
        <ele>227.2</ele>
        <time>2022-02-24T13:11:18Z</time>
      </trkpt>
      <trkpt lat="46.49238" lon="5.34092">
        <ele>227.6</ele>
        <time>2022-02-24T13:11:22Z</time>
      </trkpt>
      <trkpt lat="46.4924" lon="5.34077">
        <ele>228</ele>
        <time>2022-02-24T13:11:24Z</time>
      </trkpt>
      <trkpt lat="46.49243" lon="5.34063">
        <ele>228.4</ele>
        <time>2022-02-24T13:11:26Z</time>
      </trkpt>
      <trkpt lat="46.49249" lon="5.34041">
        <ele>229.4</ele>
        <time>2022-02-24T13:11:29Z</time>
      </trkpt>
      <trkpt lat="46.49256" lon="5.34006">
        <ele>229.8</ele>
        <time>2022-02-24T13:11:33Z</time>
      </trkpt>
      <trkpt lat="46.49269" lon="5.33951">
        <ele>230</ele>
        <time>2022-02-24T13:11:39Z</time>
      </trkpt>
      <trkpt lat="46.49281" lon="5.33903">
        <ele>230.2</ele>
        <time>2022-02-24T13:11:44Z</time>
      </trkpt>
      <trkpt lat="46.49285" lon="5.33876">
        <ele>230.2</ele>
        <time>2022-02-24T13:11:47Z</time>
      </trkpt>
      <trkpt lat="46.49288" lon="5.33868">
        <ele>230.2</ele>
        <time>2022-02-24T13:11:48Z</time>
      </trkpt>
      <trkpt lat="46.49292" lon="5.33838">
        <ele>230.2</ele>
        <time>2022-02-24T13:11:51Z</time>
      </trkpt>
      <trkpt lat="46.49307" lon="5.33771">
        <ele>230</ele>
        <time>2022-02-24T13:11:58Z</time>
      </trkpt>
      <trkpt lat="46.4931" lon="5.33761">
        <ele>230</ele>
        <time>2022-02-24T13:11:59Z</time>
      </trkpt>
      <trkpt lat="46.49315" lon="5.33711">
        <ele>230</ele>
        <time>2022-02-24T13:12:04Z</time>
      </trkpt>
      <trkpt lat="46.49317" lon="5.33644">
        <ele>229.4</ele>
        <time>2022-02-24T13:12:10Z</time>
      </trkpt>
      <trkpt lat="46.4932" lon="5.33611">
        <ele>229</ele>
        <time>2022-02-24T13:12:13Z</time>
      </trkpt>
      <trkpt lat="46.49325" lon="5.33581">
        <ele>228.8</ele>
        <time>2022-02-24T13:12:16Z</time>
      </trkpt>
      <trkpt lat="46.49329" lon="5.3355">
        <ele>228.8</ele>
        <time>2022-02-24T13:12:19Z</time>
      </trkpt>
      <trkpt lat="46.49328" lon="5.33529">
        <ele>228.6</ele>
        <time>2022-02-24T13:12:21Z</time>
      </trkpt>
      <trkpt lat="46.49318" lon="5.33459">
        <ele>228.6</ele>
        <time>2022-02-24T13:12:28Z</time>
      </trkpt>
      <trkpt lat="46.49307" lon="5.334">
        <ele>228.2</ele>
        <time>2022-02-24T13:12:34Z</time>
      </trkpt>
      <trkpt lat="46.49304" lon="5.3339">
        <ele>228.2</ele>
        <time>2022-02-24T13:12:35Z</time>
      </trkpt>
      <trkpt lat="46.49291" lon="5.33328">
        <ele>227.8</ele>
        <time>2022-02-24T13:12:41Z</time>
      </trkpt>
      <trkpt lat="46.49279" lon="5.33264">
        <ele>227.2</ele>
        <time>2022-02-24T13:12:47Z</time>
      </trkpt>
      <trkpt lat="46.49273" lon="5.33243">
        <ele>227</ele>
        <time>2022-02-24T13:12:49Z</time>
      </trkpt>
      <trkpt lat="46.49269" lon="5.33234">
        <ele>226.8</ele>
        <time>2022-02-24T13:12:50Z</time>
      </trkpt>
      <trkpt lat="46.49255" lon="5.33207">
        <ele>226.2</ele>
        <time>2022-02-24T13:12:53Z</time>
      </trkpt>
      <trkpt lat="46.4925" lon="5.33201">
        <ele>226</ele>
        <time>2022-02-24T13:12:54Z</time>
      </trkpt>
      <trkpt lat="46.49244" lon="5.33195">
        <ele>225.8</ele>
        <time>2022-02-24T13:12:55Z</time>
      </trkpt>
      <trkpt lat="46.49237" lon="5.3319">
        <ele>225.4</ele>
        <time>2022-02-24T13:12:56Z</time>
      </trkpt>
      <trkpt lat="46.4923" lon="5.33185">
        <ele>225</ele>
        <time>2022-02-24T13:12:57Z</time>
      </trkpt>
      <trkpt lat="46.49204" lon="5.33165">
        <ele>224.6</ele>
        <time>2022-02-24T13:13:01Z</time>
      </trkpt>
      <trkpt lat="46.49198" lon="5.3316">
        <ele>224.4</ele>
        <time>2022-02-24T13:13:02Z</time>
      </trkpt>
      <trkpt lat="46.49184" lon="5.33147">
        <ele>224</ele>
        <time>2022-02-24T13:13:05Z</time>
      </trkpt>
      <trkpt lat="46.49179" lon="5.33141">
        <ele>223.8</ele>
        <time>2022-02-24T13:13:07Z</time>
      </trkpt>
      <trkpt lat="46.49162" lon="5.33116">
        <ele>223.6</ele>
        <time>2022-02-24T13:13:13Z</time>
      </trkpt>
      <trkpt lat="46.49145" lon="5.33069">
        <ele>223</ele>
        <time>2022-02-24T13:13:20Z</time>
      </trkpt>
      <trkpt lat="46.49142" lon="5.33053">
        <ele>223.2</ele>
        <time>2022-02-24T13:13:22Z</time>
      </trkpt>
      <trkpt lat="46.49137" lon="5.33032">
        <ele>223.4</ele>
        <time>2022-02-24T13:13:24Z</time>
      </trkpt>
      <trkpt lat="46.49135" lon="5.33024">
        <ele>223.4</ele>
        <time>2022-02-24T13:13:25Z</time>
      </trkpt>
      <trkpt lat="46.49132" lon="5.33004">
        <ele>223.4</ele>
        <time>2022-02-24T13:13:27Z</time>
      </trkpt>
      <trkpt lat="46.49129" lon="5.32979">
        <ele>223.4</ele>
        <time>2022-02-24T13:13:29Z</time>
      </trkpt>
      <trkpt lat="46.49126" lon="5.32958">
        <ele>222.8</ele>
        <time>2022-02-24T13:13:31Z</time>
      </trkpt>
      <trkpt lat="46.49126" lon="5.3292">
        <ele>222.2</ele>
        <time>2022-02-24T13:13:35Z</time>
      </trkpt>
      <trkpt lat="46.49126" lon="5.32909">
        <ele>222.2</ele>
        <time>2022-02-24T13:13:36Z</time>
      </trkpt>
      <trkpt lat="46.49128" lon="5.3289">
        <ele>221.6</ele>
        <time>2022-02-24T13:13:38Z</time>
      </trkpt>
      <trkpt lat="46.49129" lon="5.3288">
        <ele>221.6</ele>
        <time>2022-02-24T13:13:39Z</time>
      </trkpt>
      <trkpt lat="46.49139" lon="5.3284">
        <ele>221.6</ele>
        <time>2022-02-24T13:13:43Z</time>
      </trkpt>
      <trkpt lat="46.49142" lon="5.3282">
        <ele>221.6</ele>
        <time>2022-02-24T13:13:45Z</time>
      </trkpt>
      <trkpt lat="46.49142" lon="5.32801">
        <ele>221.8</ele>
        <time>2022-02-24T13:13:47Z</time>
      </trkpt>
      <trkpt lat="46.49132" lon="5.32739">
        <ele>222.6</ele>
        <time>2022-02-24T13:13:54Z</time>
      </trkpt>
      <trkpt lat="46.49126" lon="5.32722">
        <ele>222.6</ele>
        <time>2022-02-24T13:13:56Z</time>
      </trkpt>
      <trkpt lat="46.49117" lon="5.32708">
        <ele>222.8</ele>
        <time>2022-02-24T13:13:58Z</time>
      </trkpt>
      <trkpt lat="46.49104" lon="5.327">
        <ele>222.8</ele>
        <time>2022-02-24T13:14:00Z</time>
      </trkpt>
      <trkpt lat="46.49096" lon="5.32699">
        <ele>222.6</ele>
        <time>2022-02-24T13:14:01Z</time>
      </trkpt>
      <trkpt lat="46.49053" lon="5.32707">
        <ele>222</ele>
        <time>2022-02-24T13:14:06Z</time>
      </trkpt>
      <trkpt lat="46.49029" lon="5.32713">
        <ele>220.6</ele>
        <time>2022-02-24T13:14:09Z</time>
      </trkpt>
      <trkpt lat="46.49011" lon="5.32715">
        <ele>219.2</ele>
        <time>2022-02-24T13:14:11Z</time>
      </trkpt>
      <trkpt lat="46.48993" lon="5.32716">
        <ele>218.2</ele>
        <time>2022-02-24T13:14:13Z</time>
      </trkpt>
      <trkpt lat="46.48983" lon="5.32715">
        <ele>217.4</ele>
        <time>2022-02-24T13:14:14Z</time>
      </trkpt>
      <trkpt lat="46.48973" lon="5.32713">
        <ele>216.6</ele>
        <time>2022-02-24T13:14:15Z</time>
      </trkpt>
      <trkpt lat="46.48964" lon="5.32709">
        <ele>216.2</ele>
        <time>2022-02-24T13:14:16Z</time>
      </trkpt>
      <trkpt lat="46.48954" lon="5.32703">
        <ele>215.2</ele>
        <time>2022-02-24T13:14:17Z</time>
      </trkpt>
      <trkpt lat="46.48943" lon="5.32693">
        <ele>214.8</ele>
        <time>2022-02-24T13:14:18Z</time>
      </trkpt>
      <trkpt lat="46.48935" lon="5.32684">
        <ele>214.4</ele>
        <time>2022-02-24T13:14:19Z</time>
      </trkpt>
      <trkpt lat="46.48929" lon="5.32676">
        <ele>213.8</ele>
        <time>2022-02-24T13:14:20Z</time>
      </trkpt>
      <trkpt lat="46.48922" lon="5.32665">
        <ele>212.8</ele>
        <time>2022-02-24T13:14:21Z</time>
      </trkpt>
      <trkpt lat="46.48917" lon="5.32652">
        <ele>212.6</ele>
        <time>2022-02-24T13:14:22Z</time>
      </trkpt>
      <trkpt lat="46.48914" lon="5.32636">
        <ele>211.8</ele>
        <time>2022-02-24T13:14:23Z</time>
      </trkpt>
      <trkpt lat="46.48915" lon="5.32618">
        <ele>211</ele>
        <time>2022-02-24T13:14:24Z</time>
      </trkpt>
      <trkpt lat="46.48919" lon="5.32606">
        <ele>210.6</ele>
        <time>2022-02-24T13:14:25Z</time>
      </trkpt>
      <trkpt lat="46.48925" lon="5.32594">
        <ele>209.6</ele>
        <time>2022-02-24T13:14:26Z</time>
      </trkpt>
      <trkpt lat="46.48943" lon="5.3257">
        <ele>208.2</ele>
        <time>2022-02-24T13:14:28Z</time>
      </trkpt>
      <trkpt lat="46.48954" lon="5.32543">
        <ele>207.2</ele>
        <time>2022-02-24T13:14:30Z</time>
      </trkpt>
      <trkpt lat="46.48958" lon="5.3253">
        <ele>206.6</ele>
        <time>2022-02-24T13:14:31Z</time>
      </trkpt>
      <trkpt lat="46.48958" lon="5.32519">
        <ele>206.2</ele>
        <time>2022-02-24T13:14:32Z</time>
      </trkpt>
      <trkpt lat="46.48955" lon="5.32507">
        <ele>205.8</ele>
        <time>2022-02-24T13:14:33Z</time>
      </trkpt>
      <trkpt lat="46.48951" lon="5.32494">
        <ele>205.6</ele>
        <time>2022-02-24T13:14:34Z</time>
      </trkpt>
      <trkpt lat="46.48936" lon="5.32449">
        <ele>204.6</ele>
        <time>2022-02-24T13:14:38Z</time>
      </trkpt>
      <trkpt lat="46.48932" lon="5.32435">
        <ele>204.4</ele>
        <time>2022-02-24T13:14:39Z</time>
      </trkpt>
      <trkpt lat="46.48921" lon="5.324">
        <ele>204.4</ele>
        <time>2022-02-24T13:14:43Z</time>
      </trkpt>
      <trkpt lat="46.48908" lon="5.32358">
        <ele>204.6</ele>
        <time>2022-02-24T13:14:47Z</time>
      </trkpt>
      <trkpt lat="46.48888" lon="5.32323">
        <ele>205.6</ele>
        <time>2022-02-24T13:14:51Z</time>
      </trkpt>
      <trkpt lat="46.48883" lon="5.32315">
        <ele>205.8</ele>
        <time>2022-02-24T13:14:52Z</time>
      </trkpt>
      <trkpt lat="46.48872" lon="5.32298">
        <ele>206.8</ele>
        <time>2022-02-24T13:14:55Z</time>
      </trkpt>
      <trkpt lat="46.48869" lon="5.32293">
        <ele>207.2</ele>
        <time>2022-02-24T13:14:56Z</time>
      </trkpt>
      <trkpt lat="46.48865" lon="5.32288">
        <ele>207.4</ele>
        <time>2022-02-24T13:14:57Z</time>
      </trkpt>
      <trkpt lat="46.48861" lon="5.32283">
        <ele>207.8</ele>
        <time>2022-02-24T13:14:58Z</time>
      </trkpt>
      <trkpt lat="46.48854" lon="5.32272">
        <ele>208.8</ele>
        <time>2022-02-24T13:15:00Z</time>
      </trkpt>
      <trkpt lat="46.48852" lon="5.32268">
        <ele>209.2</ele>
        <time>2022-02-24T13:15:01Z</time>
      </trkpt>
      <trkpt lat="46.48848" lon="5.32263">
        <ele>209.8</ele>
        <time>2022-02-24T13:15:02Z</time>
      </trkpt>
      <trkpt lat="46.48846" lon="5.32259">
        <ele>210.2</ele>
        <time>2022-02-24T13:15:03Z</time>
      </trkpt>
      <trkpt lat="46.48841" lon="5.3225">
        <ele>210.8</ele>
        <time>2022-02-24T13:15:05Z</time>
      </trkpt>
      <trkpt lat="46.48838" lon="5.32241">
        <ele>211</ele>
        <time>2022-02-24T13:15:06Z</time>
      </trkpt>
      <trkpt lat="46.48836" lon="5.32236">
        <ele>211.6</ele>
        <time>2022-02-24T13:15:07Z</time>
      </trkpt>
      <trkpt lat="46.48834" lon="5.32229">
        <ele>211.8</ele>
        <time>2022-02-24T13:15:08Z</time>
      </trkpt>
      <trkpt lat="46.4883" lon="5.32206">
        <ele>212.4</ele>
        <time>2022-02-24T13:15:11Z</time>
      </trkpt>
      <trkpt lat="46.48826" lon="5.32149">
        <ele>211.8</ele>
        <time>2022-02-24T13:15:17Z</time>
      </trkpt>
      <trkpt lat="46.48835" lon="5.32095">
        <ele>210.4</ele>
        <time>2022-02-24T13:15:22Z</time>
      </trkpt>
      <trkpt lat="46.48837" lon="5.32085">
        <ele>210.2</ele>
        <time>2022-02-24T13:15:23Z</time>
      </trkpt>
      <trkpt lat="46.4885" lon="5.32">
        <ele>210.2</ele>
        <time>2022-02-24T13:15:31Z</time>
      </trkpt>
      <trkpt lat="46.48849" lon="5.31956">
        <ele>209.2</ele>
        <time>2022-02-24T13:15:35Z</time>
      </trkpt>
      <trkpt lat="46.48847" lon="5.31935">
        <ele>208.8</ele>
        <time>2022-02-24T13:15:37Z</time>
      </trkpt>
      <trkpt lat="46.48841" lon="5.3189">
        <ele>208</ele>
        <time>2022-02-24T13:15:41Z</time>
      </trkpt>
      <trkpt lat="46.48838" lon="5.3188">
        <ele>208</ele>
        <time>2022-02-24T13:15:42Z</time>
      </trkpt>
      <trkpt lat="46.48833" lon="5.31871">
        <ele>208</ele>
        <time>2022-02-24T13:15:43Z</time>
      </trkpt>
      <trkpt lat="46.4882" lon="5.31859">
        <ele>207.8</ele>
        <time>2022-02-24T13:15:45Z</time>
      </trkpt>
      <trkpt lat="46.48799" lon="5.31849">
        <ele>207.2</ele>
        <time>2022-02-24T13:15:48Z</time>
      </trkpt>
      <trkpt lat="46.48793" lon="5.31843">
        <ele>207</ele>
        <time>2022-02-24T13:15:49Z</time>
      </trkpt>
      <trkpt lat="46.48788" lon="5.31835">
        <ele>206.8</ele>
        <time>2022-02-24T13:15:50Z</time>
      </trkpt>
      <trkpt lat="46.48784" lon="5.31817">
        <ele>206.6</ele>
        <time>2022-02-24T13:15:52Z</time>
      </trkpt>
      <trkpt lat="46.48782" lon="5.31772">
        <ele>206.8</ele>
        <time>2022-02-24T13:15:57Z</time>
      </trkpt>
      <trkpt lat="46.48778" lon="5.31729">
        <ele>207.6</ele>
        <time>2022-02-24T13:16:02Z</time>
      </trkpt>
      <trkpt lat="46.48774" lon="5.3172">
        <ele>207.6</ele>
        <time>2022-02-24T13:16:03Z</time>
      </trkpt>
      <trkpt lat="46.48771" lon="5.31713">
        <ele>207.8</ele>
        <time>2022-02-24T13:16:04Z</time>
      </trkpt>
      <trkpt lat="46.48764" lon="5.31703">
        <ele>207.8</ele>
        <time>2022-02-24T13:16:06Z</time>
      </trkpt>
      <trkpt lat="46.48741" lon="5.31676">
        <ele>208</ele>
        <time>2022-02-24T13:16:11Z</time>
      </trkpt>
      <trkpt lat="46.48736" lon="5.31672">
        <ele>207.8</ele>
        <time>2022-02-24T13:16:12Z</time>
      </trkpt>
      <trkpt lat="46.48724" lon="5.31657">
        <ele>208.2</ele>
        <time>2022-02-24T13:16:15Z</time>
      </trkpt>
      <trkpt lat="46.48717" lon="5.31645">
        <ele>208.2</ele>
        <time>2022-02-24T13:16:17Z</time>
      </trkpt>
      <trkpt lat="46.48704" lon="5.31628">
        <ele>208.2</ele>
        <time>2022-02-24T13:16:20Z</time>
      </trkpt>
      <trkpt lat="46.48693" lon="5.31617">
        <ele>208.2</ele>
        <time>2022-02-24T13:16:22Z</time>
      </trkpt>
      <trkpt lat="46.48688" lon="5.31612">
        <ele>208</ele>
        <time>2022-02-24T13:16:23Z</time>
      </trkpt>
      <trkpt lat="46.48677" lon="5.316">
        <ele>207.8</ele>
        <time>2022-02-24T13:16:25Z</time>
      </trkpt>
      <trkpt lat="46.48661" lon="5.31583">
        <ele>207.6</ele>
        <time>2022-02-24T13:16:28Z</time>
      </trkpt>
      <trkpt lat="46.48656" lon="5.31575">
        <ele>207.6</ele>
        <time>2022-02-24T13:16:29Z</time>
      </trkpt>
      <trkpt lat="46.48646" lon="5.31563">
        <ele>207.4</ele>
        <time>2022-02-24T13:16:31Z</time>
      </trkpt>
      <trkpt lat="46.48632" lon="5.31543">
        <ele>207.2</ele>
        <time>2022-02-24T13:16:34Z</time>
      </trkpt>
      <trkpt lat="46.48627" lon="5.31536">
        <ele>207.2</ele>
        <time>2022-02-24T13:16:35Z</time>
      </trkpt>
      <trkpt lat="46.48617" lon="5.31519">
        <ele>207.2</ele>
        <time>2022-02-24T13:16:37Z</time>
      </trkpt>
      <trkpt lat="46.48613" lon="5.31507">
        <ele>207.2</ele>
        <time>2022-02-24T13:16:38Z</time>
      </trkpt>
      <trkpt lat="46.48611" lon="5.31496">
        <ele>207.2</ele>
        <time>2022-02-24T13:16:39Z</time>
      </trkpt>
      <trkpt lat="46.48608" lon="5.31475">
        <ele>207.2</ele>
        <time>2022-02-24T13:16:41Z</time>
      </trkpt>
      <trkpt lat="46.48607" lon="5.31464">
        <ele>207.2</ele>
        <time>2022-02-24T13:16:42Z</time>
      </trkpt>
      <trkpt lat="46.48608" lon="5.31456">
        <ele>207.4</ele>
        <time>2022-02-24T13:16:43Z</time>
      </trkpt>
      <trkpt lat="46.48607" lon="5.31439">
        <ele>207.8</ele>
        <time>2022-02-24T13:16:45Z</time>
      </trkpt>
      <trkpt lat="46.48602" lon="5.31422">
        <ele>208</ele>
        <time>2022-02-24T13:16:47Z</time>
      </trkpt>
      <trkpt lat="46.486" lon="5.31417">
        <ele>208.2</ele>
        <time>2022-02-24T13:16:48Z</time>
      </trkpt>
      <trkpt lat="46.48593" lon="5.31407">
        <ele>208.4</ele>
        <time>2022-02-24T13:16:50Z</time>
      </trkpt>
      <trkpt lat="46.48582" lon="5.31395">
        <ele>209.2</ele>
        <time>2022-02-24T13:16:53Z</time>
      </trkpt>
      <trkpt lat="46.48566" lon="5.31374">
        <ele>209.6</ele>
        <time>2022-02-24T13:16:58Z</time>
      </trkpt>
      <trkpt lat="46.48564" lon="5.31369">
        <ele>210</ele>
        <time>2022-02-24T13:16:59Z</time>
      </trkpt>
      <trkpt lat="46.48562" lon="5.31365">
        <ele>210.2</ele>
        <time>2022-02-24T13:17:00Z</time>
      </trkpt>
      <trkpt lat="46.4856" lon="5.31351">
        <ele>211</ele>
        <time>2022-02-24T13:17:03Z</time>
      </trkpt>
      <trkpt lat="46.48559" lon="5.31346">
        <ele>211.6</ele>
        <time>2022-02-24T13:17:04Z</time>
      </trkpt>
      <trkpt lat="46.48558" lon="5.3133">
        <ele>212.6</ele>
        <time>2022-02-24T13:17:07Z</time>
      </trkpt>
      <trkpt lat="46.48558" lon="5.31324">
        <ele>212.8</ele>
        <time>2022-02-24T13:17:08Z</time>
      </trkpt>
      <trkpt lat="46.48555" lon="5.31291">
        <ele>214</ele>
        <time>2022-02-24T13:17:13Z</time>
      </trkpt>
      <trkpt lat="46.48553" lon="5.31277">
        <ele>214.2</ele>
        <time>2022-02-24T13:17:15Z</time>
      </trkpt>
      <trkpt lat="46.48553" lon="5.31269">
        <ele>214.6</ele>
        <time>2022-02-24T13:17:16Z</time>
      </trkpt>
      <trkpt lat="46.48555" lon="5.31256">
        <ele>214.8</ele>
        <time>2022-02-24T13:17:18Z</time>
      </trkpt>
      <trkpt lat="46.48558" lon="5.31242">
        <ele>215</ele>
        <time>2022-02-24T13:17:20Z</time>
      </trkpt>
      <trkpt lat="46.48576" lon="5.312">
        <ele>215.8</ele>
        <time>2022-02-24T13:17:27Z</time>
      </trkpt>
      <trkpt lat="46.48582" lon="5.31189">
        <ele>216.2</ele>
        <time>2022-02-24T13:17:29Z</time>
      </trkpt>
      <trkpt lat="46.48593" lon="5.31164">
        <ele>217</ele>
        <time>2022-02-24T13:17:33Z</time>
      </trkpt>
      <trkpt lat="46.48598" lon="5.31153">
        <ele>217.2</ele>
        <time>2022-02-24T13:17:35Z</time>
      </trkpt>
      <trkpt lat="46.48604" lon="5.31142">
        <ele>217.4</ele>
        <time>2022-02-24T13:17:37Z</time>
      </trkpt>
      <trkpt lat="46.48623" lon="5.31101">
        <ele>218.2</ele>
        <time>2022-02-24T13:17:44Z</time>
      </trkpt>
      <trkpt lat="46.48632" lon="5.31083">
        <ele>218.6</ele>
        <time>2022-02-24T13:17:47Z</time>
      </trkpt>
      <trkpt lat="46.48642" lon="5.3106">
        <ele>219.4</ele>
        <time>2022-02-24T13:17:51Z</time>
      </trkpt>
      <trkpt lat="46.48653" lon="5.31036">
        <ele>219.8</ele>
        <time>2022-02-24T13:17:55Z</time>
      </trkpt>
      <trkpt lat="46.48664" lon="5.31014">
        <ele>220.4</ele>
        <time>2022-02-24T13:17:59Z</time>
      </trkpt>
      <trkpt lat="46.48688" lon="5.30964">
        <ele>221.2</ele>
        <time>2022-02-24T13:18:07Z</time>
      </trkpt>
      <trkpt lat="46.48707" lon="5.30928">
        <ele>221.2</ele>
        <time>2022-02-24T13:18:12Z</time>
      </trkpt>
      <trkpt lat="46.48712" lon="5.30921">
        <ele>221.2</ele>
        <time>2022-02-24T13:18:13Z</time>
      </trkpt>
      <trkpt lat="46.48718" lon="5.30914">
        <ele>221</ele>
        <time>2022-02-24T13:18:14Z</time>
      </trkpt>
      <trkpt lat="46.48724" lon="5.30893">
        <ele>220.4</ele>
        <time>2022-02-24T13:18:16Z</time>
      </trkpt>
      <trkpt lat="46.48722" lon="5.30873">
        <ele>219</ele>
        <time>2022-02-24T13:18:18Z</time>
      </trkpt>
      <trkpt lat="46.48719" lon="5.30863">
        <ele>219</ele>
        <time>2022-02-24T13:18:19Z</time>
      </trkpt>
      <trkpt lat="46.48714" lon="5.30855">
        <ele>218.2</ele>
        <time>2022-02-24T13:18:20Z</time>
      </trkpt>
      <trkpt lat="46.48709" lon="5.30847">
        <ele>218</ele>
        <time>2022-02-24T13:18:21Z</time>
      </trkpt>
      <trkpt lat="46.48702" lon="5.30841">
        <ele>217.6</ele>
        <time>2022-02-24T13:18:22Z</time>
      </trkpt>
      <trkpt lat="46.48674" lon="5.30821">
        <ele>216.8</ele>
        <time>2022-02-24T13:18:26Z</time>
      </trkpt>
      <trkpt lat="46.4865" lon="5.30808">
        <ele>216.2</ele>
        <time>2022-02-24T13:18:29Z</time>
      </trkpt>
      <trkpt lat="46.48633" lon="5.30798">
        <ele>215.8</ele>
        <time>2022-02-24T13:18:31Z</time>
      </trkpt>
      <trkpt lat="46.48611" lon="5.30784">
        <ele>215.6</ele>
        <time>2022-02-24T13:18:34Z</time>
      </trkpt>
      <trkpt lat="46.4858" lon="5.3076">
        <ele>215.6</ele>
        <time>2022-02-24T13:18:39Z</time>
      </trkpt>
      <trkpt lat="46.48575" lon="5.30755">
        <ele>215.6</ele>
        <time>2022-02-24T13:18:40Z</time>
      </trkpt>
      <trkpt lat="46.4857" lon="5.3075">
        <ele>215.8</ele>
        <time>2022-02-24T13:18:41Z</time>
      </trkpt>
      <trkpt lat="46.48559" lon="5.30734">
        <ele>216.4</ele>
        <time>2022-02-24T13:18:44Z</time>
      </trkpt>
      <trkpt lat="46.48553" lon="5.30721">
        <ele>217</ele>
        <time>2022-02-24T13:18:46Z</time>
      </trkpt>
      <trkpt lat="46.4855" lon="5.30714">
        <ele>217.4</ele>
        <time>2022-02-24T13:18:47Z</time>
      </trkpt>
      <trkpt lat="46.48546" lon="5.30701">
        <ele>217.8</ele>
        <time>2022-02-24T13:18:49Z</time>
      </trkpt>
      <trkpt lat="46.48543" lon="5.30682">
        <ele>218.2</ele>
        <time>2022-02-24T13:18:52Z</time>
      </trkpt>
      <trkpt lat="46.48543" lon="5.30676">
        <ele>218.4</ele>
        <time>2022-02-24T13:18:53Z</time>
      </trkpt>
      <trkpt lat="46.48545" lon="5.30644">
        <ele>219.2</ele>
        <time>2022-02-24T13:18:58Z</time>
      </trkpt>
      <trkpt lat="46.48546" lon="5.30638">
        <ele>219.4</ele>
        <time>2022-02-24T13:18:59Z</time>
      </trkpt>
      <trkpt lat="46.48547" lon="5.30632">
        <ele>219.6</ele>
        <time>2022-02-24T13:19:00Z</time>
      </trkpt>
      <trkpt lat="46.48547" lon="5.30615">
        <ele>220.6</ele>
        <time>2022-02-24T13:19:03Z</time>
      </trkpt>
      <trkpt lat="46.48548" lon="5.30607">
        <ele>221.2</ele>
        <time>2022-02-24T13:19:05Z</time>
      </trkpt>
      <trkpt lat="46.48551" lon="5.30594">
        <ele>221.6</ele>
        <time>2022-02-24T13:19:08Z</time>
      </trkpt>
      <trkpt lat="46.48551" lon="5.30584">
        <ele>221.8</ele>
        <time>2022-02-24T13:19:10Z</time>
      </trkpt>
      <trkpt lat="46.48554" lon="5.30555">
        <ele>222.4</ele>
        <time>2022-02-24T13:19:15Z</time>
      </trkpt>
      <trkpt lat="46.48559" lon="5.30527">
        <ele>222.8</ele>
        <time>2022-02-24T13:19:20Z</time>
      </trkpt>
      <trkpt lat="46.48564" lon="5.30498">
        <ele>223.8</ele>
        <time>2022-02-24T13:19:26Z</time>
      </trkpt>
      <trkpt lat="46.4856" lon="5.30494">
        <ele>223.8</ele>
        <time>2022-02-24T13:19:28Z</time>
      </trkpt>
      <trkpt lat="46.48557" lon="5.30495">
        <ele>223.8</ele>
        <time>2022-02-24T13:19:29Z</time>
      </trkpt>
      <trkpt lat="46.48549" lon="5.30498">
        <ele>224</ele>
        <time>2022-02-24T13:19:31Z</time>
      </trkpt>
      <trkpt lat="46.48536" lon="5.30506">
        <ele>224</ele>
        <time>2022-02-24T13:19:34Z</time>
      </trkpt>
      <trkpt lat="46.48506" lon="5.30528">
        <ele>224</ele>
        <time>2022-02-24T13:19:40Z</time>
      </trkpt>
      <trkpt lat="46.48475" lon="5.30555">
        <ele>224</ele>
        <time>2022-02-24T13:19:46Z</time>
      </trkpt>
      <trkpt lat="46.48434" lon="5.30592">
        <ele>223.4</ele>
        <time>2022-02-24T13:19:53Z</time>
      </trkpt>
      <trkpt lat="46.48388" lon="5.30634">
        <ele>222.8</ele>
        <time>2022-02-24T13:20:01Z</time>
      </trkpt>
      <trkpt lat="46.48376" lon="5.30645">
        <ele>222.4</ele>
        <time>2022-02-24T13:20:03Z</time>
      </trkpt>
      <trkpt lat="46.48329" lon="5.30686">
        <ele>222</ele>
        <time>2022-02-24T13:20:11Z</time>
      </trkpt>
      <trkpt lat="46.48309" lon="5.30695">
        <ele>221.8</ele>
        <time>2022-02-24T13:20:14Z</time>
      </trkpt>
      <trkpt lat="46.48296" lon="5.30697">
        <ele>221.6</ele>
        <time>2022-02-24T13:20:16Z</time>
      </trkpt>
      <trkpt lat="46.48264" lon="5.30691">
        <ele>221.6</ele>
        <time>2022-02-24T13:20:21Z</time>
      </trkpt>
      <trkpt lat="46.48229" lon="5.30683">
        <ele>221.6</ele>
        <time>2022-02-24T13:20:27Z</time>
      </trkpt>
      <trkpt lat="46.48212" lon="5.30684">
        <ele>222</ele>
        <time>2022-02-24T13:20:30Z</time>
      </trkpt>
      <trkpt lat="46.48198" lon="5.30689">
        <ele>222.8</ele>
        <time>2022-02-24T13:20:33Z</time>
      </trkpt>
      <trkpt lat="46.48173" lon="5.30701">
        <ele>224</ele>
        <time>2022-02-24T13:20:38Z</time>
      </trkpt>
      <trkpt lat="46.48162" lon="5.30706">
        <ele>224.4</ele>
        <time>2022-02-24T13:20:40Z</time>
      </trkpt>
      <trkpt lat="46.48139" lon="5.3072">
        <ele>225</ele>
        <time>2022-02-24T13:20:45Z</time>
      </trkpt>
      <trkpt lat="46.48113" lon="5.30735">
        <ele>225.4</ele>
        <time>2022-02-24T13:20:50Z</time>
      </trkpt>
      <trkpt lat="46.48098" lon="5.30743">
        <ele>226</ele>
        <time>2022-02-24T13:20:53Z</time>
      </trkpt>
      <trkpt lat="46.48068" lon="5.30759">
        <ele>226.8</ele>
        <time>2022-02-24T13:20:59Z</time>
      </trkpt>
      <trkpt lat="46.48026" lon="5.30782">
        <ele>226.6</ele>
        <time>2022-02-24T13:21:06Z</time>
      </trkpt>
      <trkpt lat="46.47979" lon="5.30808">
        <ele>225.4</ele>
        <time>2022-02-24T13:21:13Z</time>
      </trkpt>
      <trkpt lat="46.47972" lon="5.30811">
        <ele>225</ele>
        <time>2022-02-24T13:21:14Z</time>
      </trkpt>
      <trkpt lat="46.47943" lon="5.30817">
        <ele>224.2</ele>
        <time>2022-02-24T13:21:18Z</time>
      </trkpt>
      <trkpt lat="46.47938" lon="5.30816">
        <ele>224</ele>
        <time>2022-02-24T13:21:19Z</time>
      </trkpt>
      <trkpt lat="46.47915" lon="5.30813">
        <ele>223.8</ele>
        <time>2022-02-24T13:21:23Z</time>
      </trkpt>
      <trkpt lat="46.47893" lon="5.30804">
        <ele>225.6</ele>
        <time>2022-02-24T13:21:28Z</time>
      </trkpt>
      <trkpt lat="46.47889" lon="5.30802">
        <ele>225.8</ele>
        <time>2022-02-24T13:21:29Z</time>
      </trkpt>
      <trkpt lat="46.47877" lon="5.30798">
        <ele>226.8</ele>
        <time>2022-02-24T13:21:32Z</time>
      </trkpt>
      <trkpt lat="46.47864" lon="5.30797">
        <ele>227.4</ele>
        <time>2022-02-24T13:21:35Z</time>
      </trkpt>
      <trkpt lat="46.47857" lon="5.30796">
        <ele>228</ele>
        <time>2022-02-24T13:21:37Z</time>
      </trkpt>
      <trkpt lat="46.47845" lon="5.3079">
        <ele>228.4</ele>
        <time>2022-02-24T13:21:40Z</time>
      </trkpt>
      <trkpt lat="46.47839" lon="5.30783">
        <ele>228.6</ele>
        <time>2022-02-24T13:21:42Z</time>
      </trkpt>
      <trkpt lat="46.47831" lon="5.30775">
        <ele>229</ele>
        <time>2022-02-24T13:21:44Z</time>
      </trkpt>
      <trkpt lat="46.47825" lon="5.30772">
        <ele>229.2</ele>
        <time>2022-02-24T13:21:45Z</time>
      </trkpt>
      <trkpt lat="46.47819" lon="5.3077">
        <ele>229.2</ele>
        <time>2022-02-24T13:21:46Z</time>
      </trkpt>
      <trkpt lat="46.47805" lon="5.30769">
        <ele>229.2</ele>
        <time>2022-02-24T13:21:48Z</time>
      </trkpt>
      <trkpt lat="46.47764" lon="5.30774">
        <ele>228</ele>
        <time>2022-02-24T13:21:54Z</time>
      </trkpt>
      <trkpt lat="46.4771" lon="5.30782">
        <ele>227.8</ele>
        <time>2022-02-24T13:22:03Z</time>
      </trkpt>
      <trkpt lat="46.47667" lon="5.30788">
        <ele>228</ele>
        <time>2022-02-24T13:22:11Z</time>
      </trkpt>
      <trkpt lat="46.47618" lon="5.30796">
        <ele>228.6</ele>
        <time>2022-02-24T13:22:20Z</time>
      </trkpt>
      <trkpt lat="46.4756" lon="5.30806">
        <ele>228.8</ele>
        <time>2022-02-24T13:22:30Z</time>
      </trkpt>
      <trkpt lat="46.47505" lon="5.30822">
        <ele>228.4</ele>
        <time>2022-02-24T13:22:39Z</time>
      </trkpt>
      <trkpt lat="46.47455" lon="5.30848">
        <ele>227.8</ele>
        <time>2022-02-24T13:22:47Z</time>
      </trkpt>
      <trkpt lat="46.47409" lon="5.30871">
        <ele>227.4</ele>
        <time>2022-02-24T13:22:54Z</time>
      </trkpt>
      <trkpt lat="46.47373" lon="5.30887">
        <ele>227</ele>
        <time>2022-02-24T13:23:00Z</time>
      </trkpt>
      <trkpt lat="46.47365" lon="5.30889">
        <ele>227</ele>
        <time>2022-02-24T13:23:01Z</time>
      </trkpt>
      <trkpt lat="46.47347" lon="5.30894">
        <ele>226.8</ele>
        <time>2022-02-24T13:23:04Z</time>
      </trkpt>
      <trkpt lat="46.47336" lon="5.30889">
        <ele>226.8</ele>
        <time>2022-02-24T13:23:06Z</time>
      </trkpt>
      <trkpt lat="46.47329" lon="5.30877">
        <ele>226.8</ele>
        <time>2022-02-24T13:23:08Z</time>
      </trkpt>
      <trkpt lat="46.47328" lon="5.30871">
        <ele>226.8</ele>
        <time>2022-02-24T13:23:09Z</time>
      </trkpt>
      <trkpt lat="46.47326" lon="5.30861">
        <ele>226.8</ele>
        <time>2022-02-24T13:23:10Z</time>
      </trkpt>
      <trkpt lat="46.47324" lon="5.30843">
        <ele>226.8</ele>
        <time>2022-02-24T13:23:12Z</time>
      </trkpt>
      <trkpt lat="46.47323" lon="5.30824">
        <ele>226.8</ele>
        <time>2022-02-24T13:23:14Z</time>
      </trkpt>
      <trkpt lat="46.47318" lon="5.30757">
        <ele>226.6</ele>
        <time>2022-02-24T13:23:21Z</time>
      </trkpt>
      <trkpt lat="46.47316" lon="5.30697">
        <ele>226.6</ele>
        <time>2022-02-24T13:23:28Z</time>
      </trkpt>
      <trkpt lat="46.47314" lon="5.30665">
        <ele>227.2</ele>
        <time>2022-02-24T13:23:32Z</time>
      </trkpt>
      <trkpt lat="46.4731" lon="5.30646">
        <ele>227.4</ele>
        <time>2022-02-24T13:23:34Z</time>
      </trkpt>
      <trkpt lat="46.47302" lon="5.30634">
        <ele>227.2</ele>
        <time>2022-02-24T13:23:36Z</time>
      </trkpt>
      <trkpt lat="46.47292" lon="5.30622">
        <ele>227.2</ele>
        <time>2022-02-24T13:23:38Z</time>
      </trkpt>
      <trkpt lat="46.47261" lon="5.30583">
        <ele>227.2</ele>
        <time>2022-02-24T13:23:45Z</time>
      </trkpt>
      <trkpt lat="46.47255" lon="5.30577">
        <ele>227.4</ele>
        <time>2022-02-24T13:23:46Z</time>
      </trkpt>
      <trkpt lat="46.47239" lon="5.30565">
        <ele>227.6</ele>
        <time>2022-02-24T13:23:49Z</time>
      </trkpt>
      <trkpt lat="46.47228" lon="5.30559">
        <ele>227.8</ele>
        <time>2022-02-24T13:23:51Z</time>
      </trkpt>
      <trkpt lat="46.47216" lon="5.30557">
        <ele>227.8</ele>
        <time>2022-02-24T13:23:53Z</time>
      </trkpt>
      <trkpt lat="46.47211" lon="5.30557">
        <ele>227.8</ele>
        <time>2022-02-24T13:23:54Z</time>
      </trkpt>
      <trkpt lat="46.47167" lon="5.30558">
        <ele>227.6</ele>
        <time>2022-02-24T13:24:01Z</time>
      </trkpt>
      <trkpt lat="46.47133" lon="5.30547">
        <ele>228</ele>
        <time>2022-02-24T13:24:07Z</time>
      </trkpt>
      <trkpt lat="46.47083" lon="5.30516">
        <ele>228.2</ele>
        <time>2022-02-24T13:24:16Z</time>
      </trkpt>
      <trkpt lat="46.47034" lon="5.30473">
        <ele>227.8</ele>
        <time>2022-02-24T13:24:25Z</time>
      </trkpt>
      <trkpt lat="46.47023" lon="5.30463">
        <ele>227.6</ele>
        <time>2022-02-24T13:24:27Z</time>
      </trkpt>
      <trkpt lat="46.4698" lon="5.30426">
        <ele>227.2</ele>
        <time>2022-02-24T13:24:35Z</time>
      </trkpt>
      <trkpt lat="46.46973" lon="5.30421">
        <ele>227</ele>
        <time>2022-02-24T13:24:36Z</time>
      </trkpt>
      <trkpt lat="46.46931" lon="5.30395">
        <ele>226.4</ele>
        <time>2022-02-24T13:24:43Z</time>
      </trkpt>
      <trkpt lat="46.46878" lon="5.30372">
        <ele>226.6</ele>
        <time>2022-02-24T13:24:52Z</time>
      </trkpt>
      <trkpt lat="46.46873" lon="5.30369">
        <ele>226.8</ele>
        <time>2022-02-24T13:24:53Z</time>
      </trkpt>
      <trkpt lat="46.46844" lon="5.30338">
        <ele>227</ele>
        <time>2022-02-24T13:24:59Z</time>
      </trkpt>
      <trkpt lat="46.46802" lon="5.30287">
        <ele>227</ele>
        <time>2022-02-24T13:25:08Z</time>
      </trkpt>
      <trkpt lat="46.46792" lon="5.30274">
        <ele>226.8</ele>
        <time>2022-02-24T13:25:10Z</time>
      </trkpt>
      <trkpt lat="46.46747" lon="5.3022">
        <ele>227.4</ele>
        <time>2022-02-24T13:25:20Z</time>
      </trkpt>
      <trkpt lat="46.46739" lon="5.30207">
        <ele>227.4</ele>
        <time>2022-02-24T13:25:22Z</time>
      </trkpt>
      <trkpt lat="46.46733" lon="5.30191">
        <ele>227.6</ele>
        <time>2022-02-24T13:25:24Z</time>
      </trkpt>
      <trkpt lat="46.46717" lon="5.30129">
        <ele>227.4</ele>
        <time>2022-02-24T13:25:31Z</time>
      </trkpt>
      <trkpt lat="46.46698" lon="5.30054">
        <ele>226.4</ele>
        <time>2022-02-24T13:25:39Z</time>
      </trkpt>
      <trkpt lat="46.46687" lon="5.30009">
        <ele>226.4</ele>
        <time>2022-02-24T13:25:44Z</time>
      </trkpt>
      <trkpt lat="46.46672" lon="5.29962">
        <ele>226.6</ele>
        <time>2022-02-24T13:25:50Z</time>
      </trkpt>
      <trkpt lat="46.46669" lon="5.29947">
        <ele>226.8</ele>
        <time>2022-02-24T13:25:52Z</time>
      </trkpt>
      <trkpt lat="46.46661" lon="5.29925">
        <ele>227.4</ele>
        <time>2022-02-24T13:25:55Z</time>
      </trkpt>
      <trkpt lat="46.46652" lon="5.29892">
        <ele>228</ele>
        <time>2022-02-24T13:25:59Z</time>
      </trkpt>
      <trkpt lat="46.46647" lon="5.29867">
        <ele>228.2</ele>
        <time>2022-02-24T13:26:02Z</time>
      </trkpt>
      <trkpt lat="46.46643" lon="5.2985">
        <ele>228.4</ele>
        <time>2022-02-24T13:26:04Z</time>
      </trkpt>
      <trkpt lat="46.46639" lon="5.29833">
        <ele>228.4</ele>
        <time>2022-02-24T13:26:06Z</time>
      </trkpt>
      <trkpt lat="46.46638" lon="5.29825">
        <ele>228.4</ele>
        <time>2022-02-24T13:26:07Z</time>
      </trkpt>
      <trkpt lat="46.46636" lon="5.29816">
        <ele>228.4</ele>
        <time>2022-02-24T13:26:08Z</time>
      </trkpt>
      <trkpt lat="46.46631" lon="5.29799">
        <ele>228.6</ele>
        <time>2022-02-24T13:26:10Z</time>
      </trkpt>
      <trkpt lat="46.46618" lon="5.29753">
        <ele>228.6</ele>
        <time>2022-02-24T13:26:15Z</time>
      </trkpt>
      <trkpt lat="46.46598" lon="5.29675">
        <ele>227.8</ele>
        <time>2022-02-24T13:26:24Z</time>
      </trkpt>
      <trkpt lat="46.46577" lon="5.29601">
        <ele>227</ele>
        <time>2022-02-24T13:26:32Z</time>
      </trkpt>
      <trkpt lat="46.46574" lon="5.29592">
        <ele>226.8</ele>
        <time>2022-02-24T13:26:33Z</time>
      </trkpt>
      <trkpt lat="46.4656" lon="5.29544">
        <ele>225.8</ele>
        <time>2022-02-24T13:26:38Z</time>
      </trkpt>
      <trkpt lat="46.46552" lon="5.29508">
        <ele>224.6</ele>
        <time>2022-02-24T13:26:41Z</time>
      </trkpt>
      <trkpt lat="46.46545" lon="5.29478">
        <ele>224.4</ele>
        <time>2022-02-24T13:26:44Z</time>
      </trkpt>
      <trkpt lat="46.46528" lon="5.294">
        <ele>225.2</ele>
        <time>2022-02-24T13:26:52Z</time>
      </trkpt>
      <trkpt lat="46.46512" lon="5.29325">
        <ele>225.4</ele>
        <time>2022-02-24T13:27:00Z</time>
      </trkpt>
      <trkpt lat="46.4651" lon="5.29317">
        <ele>225.4</ele>
        <time>2022-02-24T13:27:01Z</time>
      </trkpt>
      <trkpt lat="46.46494" lon="5.29236">
        <ele>225.8</ele>
        <time>2022-02-24T13:27:10Z</time>
      </trkpt>
      <trkpt lat="46.46491" lon="5.29219">
        <ele>225.8</ele>
        <time>2022-02-24T13:27:12Z</time>
      </trkpt>
      <trkpt lat="46.46486" lon="5.29196">
        <ele>226.4</ele>
        <time>2022-02-24T13:27:15Z</time>
      </trkpt>
      <trkpt lat="46.4648" lon="5.2917">
        <ele>227</ele>
        <time>2022-02-24T13:27:18Z</time>
      </trkpt>
      <trkpt lat="46.46474" lon="5.29147">
        <ele>227.2</ele>
        <time>2022-02-24T13:27:21Z</time>
      </trkpt>
      <trkpt lat="46.46473" lon="5.29139">
        <ele>227.4</ele>
        <time>2022-02-24T13:27:22Z</time>
      </trkpt>
      <trkpt lat="46.46461" lon="5.29083">
        <ele>228</ele>
        <time>2022-02-24T13:27:29Z</time>
      </trkpt>
      <trkpt lat="46.46457" lon="5.29066">
        <ele>228.2</ele>
        <time>2022-02-24T13:27:31Z</time>
      </trkpt>
      <trkpt lat="46.46446" lon="5.29013">
        <ele>228.4</ele>
        <time>2022-02-24T13:27:37Z</time>
      </trkpt>
      <trkpt lat="46.46436" lon="5.2896">
        <ele>228.2</ele>
        <time>2022-02-24T13:27:43Z</time>
      </trkpt>
      <trkpt lat="46.46419" lon="5.28881">
        <ele>227.2</ele>
        <time>2022-02-24T13:27:51Z</time>
      </trkpt>
      <trkpt lat="46.46409" lon="5.28855">
        <ele>227</ele>
        <time>2022-02-24T13:27:54Z</time>
      </trkpt>
      <trkpt lat="46.46398" lon="5.28828">
        <ele>226.4</ele>
        <time>2022-02-24T13:27:57Z</time>
      </trkpt>
      <trkpt lat="46.46393" lon="5.2882">
        <ele>226.6</ele>
        <time>2022-02-24T13:27:58Z</time>
      </trkpt>
      <trkpt lat="46.46379" lon="5.28801">
        <ele>225.8</ele>
        <time>2022-02-24T13:28:01Z</time>
      </trkpt>
      <trkpt lat="46.46372" lon="5.28794">
        <ele>225.8</ele>
        <time>2022-02-24T13:28:02Z</time>
      </trkpt>
      <trkpt lat="46.46367" lon="5.28789">
        <ele>225.6</ele>
        <time>2022-02-24T13:28:03Z</time>
      </trkpt>
      <trkpt lat="46.46342" lon="5.2877">
        <ele>225.2</ele>
        <time>2022-02-24T13:28:07Z</time>
      </trkpt>
      <trkpt lat="46.4633" lon="5.28761">
        <ele>224.6</ele>
        <time>2022-02-24T13:28:09Z</time>
      </trkpt>
      <trkpt lat="46.46304" lon="5.28744">
        <ele>223.4</ele>
        <time>2022-02-24T13:28:13Z</time>
      </trkpt>
      <trkpt lat="46.46292" lon="5.28737">
        <ele>223</ele>
        <time>2022-02-24T13:28:15Z</time>
      </trkpt>
      <trkpt lat="46.46267" lon="5.28719">
        <ele>222.4</ele>
        <time>2022-02-24T13:28:19Z</time>
      </trkpt>
      <trkpt lat="46.46247" lon="5.28705">
        <ele>221.6</ele>
        <time>2022-02-24T13:28:22Z</time>
      </trkpt>
      <trkpt lat="46.46236" lon="5.28696">
        <ele>221.2</ele>
        <time>2022-02-24T13:28:24Z</time>
      </trkpt>
      <trkpt lat="46.4623" lon="5.28688">
        <ele>220.6</ele>
        <time>2022-02-24T13:28:25Z</time>
      </trkpt>
      <trkpt lat="46.46227" lon="5.28681">
        <ele>220.4</ele>
        <time>2022-02-24T13:28:26Z</time>
      </trkpt>
      <trkpt lat="46.46224" lon="5.28673">
        <ele>219.6</ele>
        <time>2022-02-24T13:28:27Z</time>
      </trkpt>
      <trkpt lat="46.46222" lon="5.28656">
        <ele>218.8</ele>
        <time>2022-02-24T13:28:29Z</time>
      </trkpt>
      <trkpt lat="46.46219" lon="5.28632">
        <ele>218.4</ele>
        <time>2022-02-24T13:28:31Z</time>
      </trkpt>
      <trkpt lat="46.46214" lon="5.28596">
        <ele>217</ele>
        <time>2022-02-24T13:28:34Z</time>
      </trkpt>
      <trkpt lat="46.4621" lon="5.2857">
        <ele>215.4</ele>
        <time>2022-02-24T13:28:36Z</time>
      </trkpt>
      <trkpt lat="46.46207" lon="5.28546">
        <ele>214.2</ele>
        <time>2022-02-24T13:28:38Z</time>
      </trkpt>
      <trkpt lat="46.46203" lon="5.28515">
        <ele>213.2</ele>
        <time>2022-02-24T13:28:40Z</time>
      </trkpt>
      <trkpt lat="46.46201" lon="5.28501">
        <ele>212.6</ele>
        <time>2022-02-24T13:28:41Z</time>
      </trkpt>
      <trkpt lat="46.46197" lon="5.28477">
        <ele>211.6</ele>
        <time>2022-02-24T13:28:43Z</time>
      </trkpt>
      <trkpt lat="46.46189" lon="5.2842">
        <ele>210</ele>
        <time>2022-02-24T13:28:47Z</time>
      </trkpt>
      <trkpt lat="46.46187" lon="5.28404">
        <ele>208.8</ele>
        <time>2022-02-24T13:28:48Z</time>
      </trkpt>
      <trkpt lat="46.46181" lon="5.28367">
        <ele>207.6</ele>
        <time>2022-02-24T13:28:51Z</time>
      </trkpt>
      <trkpt lat="46.46177" lon="5.28341">
        <ele>207.6</ele>
        <time>2022-02-24T13:28:53Z</time>
      </trkpt>
      <trkpt lat="46.46171" lon="5.28289">
        <ele>208</ele>
        <time>2022-02-24T13:28:58Z</time>
      </trkpt>
      <trkpt lat="46.4617" lon="5.28264">
        <ele>208.6</ele>
        <time>2022-02-24T13:29:01Z</time>
      </trkpt>
      <trkpt lat="46.46171" lon="5.28244">
        <ele>209.4</ele>
        <time>2022-02-24T13:29:03Z</time>
      </trkpt>
      <trkpt lat="46.46172" lon="5.28236">
        <ele>210</ele>
        <time>2022-02-24T13:29:04Z</time>
      </trkpt>
      <trkpt lat="46.46177" lon="5.28206">
        <ele>211.2</ele>
        <time>2022-02-24T13:29:08Z</time>
      </trkpt>
      <trkpt lat="46.46179" lon="5.28199">
        <ele>211.4</ele>
        <time>2022-02-24T13:29:09Z</time>
      </trkpt>
      <trkpt lat="46.46183" lon="5.28177">
        <ele>212.2</ele>
        <time>2022-02-24T13:29:12Z</time>
      </trkpt>
      <trkpt lat="46.46189" lon="5.28135">
        <ele>213</ele>
        <time>2022-02-24T13:29:17Z</time>
      </trkpt>
      <trkpt lat="46.46191" lon="5.28108">
        <ele>213.2</ele>
        <time>2022-02-24T13:29:20Z</time>
      </trkpt>
      <trkpt lat="46.46193" lon="5.28073">
        <ele>213.4</ele>
        <time>2022-02-24T13:29:24Z</time>
      </trkpt>
      <trkpt lat="46.46196" lon="5.28024">
        <ele>213.2</ele>
        <time>2022-02-24T13:29:30Z</time>
      </trkpt>
      <trkpt lat="46.46193" lon="5.28013">
        <ele>213.4</ele>
        <time>2022-02-24T13:29:32Z</time>
      </trkpt>
      <trkpt lat="46.46189" lon="5.28009">
        <ele>213.4</ele>
        <time>2022-02-24T13:29:33Z</time>
      </trkpt>
      <trkpt lat="46.46166" lon="5.2799">
        <ele>213.2</ele>
        <time>2022-02-24T13:29:37Z</time>
      </trkpt>
      <trkpt lat="46.46137" lon="5.27962">
        <ele>212.4</ele>
        <time>2022-02-24T13:29:41Z</time>
      </trkpt>
      <trkpt lat="46.46133" lon="5.27953">
        <ele>211.4</ele>
        <time>2022-02-24T13:29:42Z</time>
      </trkpt>
      <trkpt lat="46.46128" lon="5.27938">
        <ele>210.8</ele>
        <time>2022-02-24T13:29:43Z</time>
      </trkpt>
      <trkpt lat="46.46126" lon="5.27925">
        <ele>209.6</ele>
        <time>2022-02-24T13:29:44Z</time>
      </trkpt>
      <trkpt lat="46.46125" lon="5.27911">
        <ele>208.4</ele>
        <time>2022-02-24T13:29:45Z</time>
      </trkpt>
      <trkpt lat="46.46125" lon="5.27881">
        <ele>206.2</ele>
        <time>2022-02-24T13:29:47Z</time>
      </trkpt>
      <trkpt lat="46.46124" lon="5.27866">
        <ele>205.4</ele>
        <time>2022-02-24T13:29:48Z</time>
      </trkpt>
      <trkpt lat="46.46124" lon="5.2785">
        <ele>204.6</ele>
        <time>2022-02-24T13:29:49Z</time>
      </trkpt>
      <trkpt lat="46.46124" lon="5.27805">
        <ele>202.6</ele>
        <time>2022-02-24T13:29:52Z</time>
      </trkpt>
      <trkpt lat="46.46124" lon="5.27776">
        <ele>201</ele>
        <time>2022-02-24T13:29:54Z</time>
      </trkpt>
      <trkpt lat="46.46126" lon="5.27706">
        <ele>199.4</ele>
        <time>2022-02-24T13:29:59Z</time>
      </trkpt>
      <trkpt lat="46.46128" lon="5.2765">
        <ele>198</ele>
        <time>2022-02-24T13:30:03Z</time>
      </trkpt>
      <trkpt lat="46.46129" lon="5.27611">
        <ele>197.2</ele>
        <time>2022-02-24T13:30:06Z</time>
      </trkpt>
      <trkpt lat="46.4613" lon="5.27587">
        <ele>196.8</ele>
        <time>2022-02-24T13:30:08Z</time>
      </trkpt>
      <trkpt lat="46.46132" lon="5.27503">
        <ele>197</ele>
        <time>2022-02-24T13:30:15Z</time>
      </trkpt>
      <trkpt lat="46.46134" lon="5.27426">
        <ele>197.6</ele>
        <time>2022-02-24T13:30:22Z</time>
      </trkpt>
      <trkpt lat="46.46135" lon="5.27366">
        <ele>198</ele>
        <time>2022-02-24T13:30:28Z</time>
      </trkpt>
      <trkpt lat="46.46137" lon="5.27322">
        <ele>198</ele>
        <time>2022-02-24T13:30:32Z</time>
      </trkpt>
      <trkpt lat="46.46139" lon="5.27242">
        <ele>198</ele>
        <time>2022-02-24T13:30:40Z</time>
      </trkpt>
      <trkpt lat="46.46141" lon="5.27168">
        <ele>198.2</ele>
        <time>2022-02-24T13:30:48Z</time>
      </trkpt>
      <trkpt lat="46.46142" lon="5.27114">
        <ele>198.8</ele>
        <time>2022-02-24T13:30:54Z</time>
      </trkpt>
      <trkpt lat="46.46143" lon="5.27081">
        <ele>199.4</ele>
        <time>2022-02-24T13:30:58Z</time>
      </trkpt>
      <trkpt lat="46.46143" lon="5.27066">
        <ele>199.8</ele>
        <time>2022-02-24T13:31:00Z</time>
      </trkpt>
      <trkpt lat="46.46144" lon="5.27023">
        <ele>200.4</ele>
        <time>2022-02-24T13:31:05Z</time>
      </trkpt>
      <trkpt lat="46.46145" lon="5.26995">
        <ele>200.4</ele>
        <time>2022-02-24T13:31:08Z</time>
      </trkpt>
      <trkpt lat="46.46147" lon="5.2694">
        <ele>200.4</ele>
        <time>2022-02-24T13:31:14Z</time>
      </trkpt>
      <trkpt lat="46.46149" lon="5.26869">
        <ele>200.2</ele>
        <time>2022-02-24T13:31:21Z</time>
      </trkpt>
      <trkpt lat="46.46151" lon="5.26791">
        <ele>200.2</ele>
        <time>2022-02-24T13:31:30Z</time>
      </trkpt>
      <trkpt lat="46.46152" lon="5.26736">
        <ele>201.2</ele>
        <time>2022-02-24T13:31:37Z</time>
      </trkpt>
      <trkpt lat="46.46153" lon="5.26721">
        <ele>201.6</ele>
        <time>2022-02-24T13:31:39Z</time>
      </trkpt>
      <trkpt lat="46.46154" lon="5.26679">
        <ele>202.2</ele>
        <time>2022-02-24T13:31:45Z</time>
      </trkpt>
      <trkpt lat="46.46155" lon="5.26659">
        <ele>202.6</ele>
        <time>2022-02-24T13:31:48Z</time>
      </trkpt>
      <trkpt lat="46.46157" lon="5.26636">
        <ele>203.4</ele>
        <time>2022-02-24T13:31:52Z</time>
      </trkpt>
      <trkpt lat="46.46158" lon="5.26624">
        <ele>203.6</ele>
        <time>2022-02-24T13:31:54Z</time>
      </trkpt>
      <trkpt lat="46.4616" lon="5.26607">
        <ele>205</ele>
        <time>2022-02-24T13:31:57Z</time>
      </trkpt>
      <trkpt lat="46.4616" lon="5.26592">
        <ele>206.2</ele>
        <time>2022-02-24T13:32:00Z</time>
      </trkpt>
      <trkpt lat="46.46161" lon="5.26586">
        <ele>206.2</ele>
        <time>2022-02-24T13:32:01Z</time>
      </trkpt>
      <trkpt lat="46.46163" lon="5.26559">
        <ele>207.2</ele>
        <time>2022-02-24T13:32:06Z</time>
      </trkpt>
      <trkpt lat="46.46164" lon="5.26547">
        <ele>207.4</ele>
        <time>2022-02-24T13:32:08Z</time>
      </trkpt>
      <trkpt lat="46.46164" lon="5.2653">
        <ele>208.4</ele>
        <time>2022-02-24T13:32:11Z</time>
      </trkpt>
      <trkpt lat="46.46166" lon="5.2651">
        <ele>209.4</ele>
        <time>2022-02-24T13:32:15Z</time>
      </trkpt>
      <trkpt lat="46.46167" lon="5.26504">
        <ele>209.8</ele>
        <time>2022-02-24T13:32:16Z</time>
      </trkpt>
      <trkpt lat="46.46169" lon="5.26478">
        <ele>210.6</ele>
        <time>2022-02-24T13:32:21Z</time>
      </trkpt>
      <trkpt lat="46.46172" lon="5.26448">
        <ele>212</ele>
        <time>2022-02-24T13:32:27Z</time>
      </trkpt>
      <trkpt lat="46.46176" lon="5.26413">
        <ele>213.2</ele>
        <time>2022-02-24T13:32:34Z</time>
      </trkpt>
      <trkpt lat="46.46177" lon="5.26388">
        <ele>214.4</ele>
        <time>2022-02-24T13:32:39Z</time>
      </trkpt>
      <trkpt lat="46.4618" lon="5.26359">
        <ele>215</ele>
        <time>2022-02-24T13:32:45Z</time>
      </trkpt>
      <trkpt lat="46.46182" lon="5.26345">
        <ele>215.6</ele>
        <time>2022-02-24T13:32:48Z</time>
      </trkpt>
      <trkpt lat="46.46184" lon="5.26315">
        <ele>216.6</ele>
        <time>2022-02-24T13:32:54Z</time>
      </trkpt>
      <trkpt lat="46.46186" lon="5.26296">
        <ele>217.4</ele>
        <time>2022-02-24T13:32:58Z</time>
      </trkpt>
      <trkpt lat="46.46187" lon="5.26292">
        <ele>217.8</ele>
        <time>2022-02-24T13:32:59Z</time>
      </trkpt>
      <trkpt lat="46.46189" lon="5.26264">
        <ele>218.8</ele>
        <time>2022-02-24T13:33:05Z</time>
      </trkpt>
      <trkpt lat="46.46189" lon="5.26259">
        <ele>219.2</ele>
        <time>2022-02-24T13:33:06Z</time>
      </trkpt>
      <trkpt lat="46.46189" lon="5.26251">
        <ele>219.8</ele>
        <time>2022-02-24T13:33:08Z</time>
      </trkpt>
      <trkpt lat="46.46187" lon="5.26248">
        <ele>220.2</ele>
        <time>2022-02-24T13:33:09Z</time>
      </trkpt>
      <trkpt lat="46.46183" lon="5.26246">
        <ele>220.2</ele>
        <time>2022-02-24T13:33:10Z</time>
      </trkpt>
      <trkpt lat="46.46155" lon="5.26228">
        <ele>221</ele>
        <time>2022-02-24T13:33:17Z</time>
      </trkpt>
      <trkpt lat="46.46142" lon="5.26222">
        <ele>221.2</ele>
        <time>2022-02-24T13:33:20Z</time>
      </trkpt>
      <trkpt lat="46.46116" lon="5.26207">
        <ele>221.4</ele>
        <time>2022-02-24T13:33:26Z</time>
      </trkpt>
      <trkpt lat="46.46094" lon="5.26195">
        <ele>222.2</ele>
        <time>2022-02-24T13:33:31Z</time>
      </trkpt>
      <trkpt lat="46.46077" lon="5.26186">
        <ele>222.6</ele>
        <time>2022-02-24T13:33:35Z</time>
      </trkpt>
      <trkpt lat="46.46052" lon="5.26174">
        <ele>223</ele>
        <time>2022-02-24T13:33:41Z</time>
      </trkpt>
      <trkpt lat="46.46043" lon="5.26169">
        <ele>223</ele>
        <time>2022-02-24T13:33:43Z</time>
      </trkpt>
      <trkpt lat="46.46035" lon="5.26166">
        <ele>223.2</ele>
        <time>2022-02-24T13:33:45Z</time>
      </trkpt>
      <trkpt lat="46.46012" lon="5.26163">
        <ele>224</ele>
        <time>2022-02-24T13:33:50Z</time>
      </trkpt>
      <trkpt lat="46.46002" lon="5.26162">
        <ele>224.2</ele>
        <time>2022-02-24T13:33:52Z</time>
      </trkpt>
      <trkpt lat="46.45965" lon="5.26162">
        <ele>225</ele>
        <time>2022-02-24T13:34:00Z</time>
      </trkpt>
      <trkpt lat="46.45936" lon="5.26162">
        <ele>225.6</ele>
        <time>2022-02-24T13:34:06Z</time>
      </trkpt>
      <trkpt lat="46.45922" lon="5.26162">
        <ele>225.8</ele>
        <time>2022-02-24T13:34:09Z</time>
      </trkpt>
      <trkpt lat="46.4587" lon="5.26161">
        <ele>226.8</ele>
        <time>2022-02-24T13:34:19Z</time>
      </trkpt>
      <trkpt lat="46.45824" lon="5.2616">
        <ele>226.4</ele>
        <time>2022-02-24T13:34:27Z</time>
      </trkpt>
      <trkpt lat="46.45782" lon="5.26161">
        <ele>226</ele>
        <time>2022-02-24T13:34:34Z</time>
      </trkpt>
      <trkpt lat="46.45769" lon="5.26167">
        <ele>226</ele>
        <time>2022-02-24T13:34:36Z</time>
      </trkpt>
      <trkpt lat="46.4576" lon="5.26178">
        <ele>226</ele>
        <time>2022-02-24T13:34:38Z</time>
      </trkpt>
      <trkpt lat="46.45753" lon="5.26194">
        <ele>226</ele>
        <time>2022-02-24T13:34:40Z</time>
      </trkpt>
      <trkpt lat="46.45749" lon="5.2621">
        <ele>226.2</ele>
        <time>2022-02-24T13:34:42Z</time>
      </trkpt>
      <trkpt lat="46.45735" lon="5.26265">
        <ele>226</ele>
        <time>2022-02-24T13:34:48Z</time>
      </trkpt>
      <trkpt lat="46.45725" lon="5.26306">
        <ele>226</ele>
        <time>2022-02-24T13:34:52Z</time>
      </trkpt>
      <trkpt lat="46.45714" lon="5.26353">
        <ele>225.4</ele>
        <time>2022-02-24T13:34:57Z</time>
      </trkpt>
      <trkpt lat="46.45701" lon="5.26436">
        <ele>225</ele>
        <time>2022-02-24T13:35:05Z</time>
      </trkpt>
      <trkpt lat="46.45689" lon="5.26519">
        <ele>224.6</ele>
        <time>2022-02-24T13:35:13Z</time>
      </trkpt>
      <trkpt lat="46.45687" lon="5.2653">
        <ele>224.6</ele>
        <time>2022-02-24T13:35:14Z</time>
      </trkpt>
      <trkpt lat="46.45685" lon="5.26541">
        <ele>224.2</ele>
        <time>2022-02-24T13:35:15Z</time>
      </trkpt>
      <trkpt lat="46.45678" lon="5.26563">
        <ele>223.6</ele>
        <time>2022-02-24T13:35:17Z</time>
      </trkpt>
      <trkpt lat="46.45674" lon="5.26573">
        <ele>223.4</ele>
        <time>2022-02-24T13:35:18Z</time>
      </trkpt>
      <trkpt lat="46.45669" lon="5.26583">
        <ele>223.2</ele>
        <time>2022-02-24T13:35:19Z</time>
      </trkpt>
      <trkpt lat="46.45658" lon="5.26604">
        <ele>222.8</ele>
        <time>2022-02-24T13:35:21Z</time>
      </trkpt>
      <trkpt lat="46.45652" lon="5.26613">
        <ele>222</ele>
        <time>2022-02-24T13:35:22Z</time>
      </trkpt>
      <trkpt lat="46.45646" lon="5.26619">
        <ele>221.6</ele>
        <time>2022-02-24T13:35:23Z</time>
      </trkpt>
      <trkpt lat="46.45628" lon="5.26631">
        <ele>220.8</ele>
        <time>2022-02-24T13:35:25Z</time>
      </trkpt>
      <trkpt lat="46.4562" lon="5.26634">
        <ele>220</ele>
        <time>2022-02-24T13:35:26Z</time>
      </trkpt>
      <trkpt lat="46.45612" lon="5.26636">
        <ele>219.8</ele>
        <time>2022-02-24T13:35:27Z</time>
      </trkpt>
      <trkpt lat="46.45574" lon="5.26646">
        <ele>219.2</ele>
        <time>2022-02-24T13:35:32Z</time>
      </trkpt>
      <trkpt lat="46.45567" lon="5.26646">
        <ele>219</ele>
        <time>2022-02-24T13:35:33Z</time>
      </trkpt>
      <trkpt lat="46.45551" lon="5.26644">
        <ele>219</ele>
        <time>2022-02-24T13:35:35Z</time>
      </trkpt>
      <trkpt lat="46.45546" lon="5.26642">
        <ele>219</ele>
        <time>2022-02-24T13:35:36Z</time>
      </trkpt>
      <trkpt lat="46.45494" lon="5.2662">
        <ele>219.8</ele>
        <time>2022-02-24T13:35:44Z</time>
      </trkpt>
      <trkpt lat="46.45443" lon="5.26596">
        <ele>220.6</ele>
        <time>2022-02-24T13:35:53Z</time>
      </trkpt>
      <trkpt lat="46.45438" lon="5.26594">
        <ele>220.8</ele>
        <time>2022-02-24T13:35:54Z</time>
      </trkpt>
      <trkpt lat="46.45413" lon="5.2658">
        <ele>222</ele>
        <time>2022-02-24T13:35:59Z</time>
      </trkpt>
      <trkpt lat="46.45401" lon="5.26574">
        <ele>222</ele>
        <time>2022-02-24T13:36:01Z</time>
      </trkpt>
      <trkpt lat="46.4537" lon="5.2656">
        <ele>223</ele>
        <time>2022-02-24T13:36:07Z</time>
      </trkpt>
      <trkpt lat="46.4536" lon="5.26557">
        <ele>223.4</ele>
        <time>2022-02-24T13:36:09Z</time>
      </trkpt>
      <trkpt lat="46.45308" lon="5.26546">
        <ele>223.6</ele>
        <time>2022-02-24T13:36:18Z</time>
      </trkpt>
      <trkpt lat="46.4526" lon="5.26554">
        <ele>223.4</ele>
        <time>2022-02-24T13:36:26Z</time>
      </trkpt>
      <trkpt lat="46.45236" lon="5.26557">
        <ele>223.4</ele>
        <time>2022-02-24T13:36:30Z</time>
      </trkpt>
      <trkpt lat="46.45207" lon="5.26558">
        <ele>223.6</ele>
        <time>2022-02-24T13:36:35Z</time>
      </trkpt>
      <trkpt lat="46.45167" lon="5.26547">
        <ele>223.6</ele>
        <time>2022-02-24T13:36:42Z</time>
      </trkpt>
      <trkpt lat="46.45119" lon="5.26527">
        <ele>223.4</ele>
        <time>2022-02-24T13:36:51Z</time>
      </trkpt>
      <trkpt lat="46.4508" lon="5.26516">
        <ele>223.6</ele>
        <time>2022-02-24T13:36:58Z</time>
      </trkpt>
      <trkpt lat="46.45049" lon="5.26514">
        <ele>224.2</ele>
        <time>2022-02-24T13:37:03Z</time>
      </trkpt>
      <trkpt lat="46.45022" lon="5.26514">
        <ele>224.4</ele>
        <time>2022-02-24T13:37:07Z</time>
      </trkpt>
      <trkpt lat="46.44987" lon="5.26515">
        <ele>223.6</ele>
        <time>2022-02-24T13:37:12Z</time>
      </trkpt>
      <trkpt lat="46.44974" lon="5.26516">
        <ele>223.2</ele>
        <time>2022-02-24T13:37:14Z</time>
      </trkpt>
      <trkpt lat="46.44945" lon="5.26522">
        <ele>222.4</ele>
        <time>2022-02-24T13:37:18Z</time>
      </trkpt>
      <trkpt lat="46.44917" lon="5.26535">
        <ele>222.2</ele>
        <time>2022-02-24T13:37:22Z</time>
      </trkpt>
      <trkpt lat="46.44888" lon="5.26548">
        <ele>222.2</ele>
        <time>2022-02-24T13:37:26Z</time>
      </trkpt>
      <trkpt lat="46.44876" lon="5.26557">
        <ele>222.2</ele>
        <time>2022-02-24T13:37:28Z</time>
      </trkpt>
      <trkpt lat="46.44865" lon="5.26568">
        <ele>222.4</ele>
        <time>2022-02-24T13:37:30Z</time>
      </trkpt>
      <trkpt lat="46.44851" lon="5.26588">
        <ele>223</ele>
        <time>2022-02-24T13:37:33Z</time>
      </trkpt>
      <trkpt lat="46.44844" lon="5.26603">
        <ele>223.2</ele>
        <time>2022-02-24T13:37:35Z</time>
      </trkpt>
      <trkpt lat="46.44842" lon="5.26609">
        <ele>223.2</ele>
        <time>2022-02-24T13:37:36Z</time>
      </trkpt>
      <trkpt lat="46.44835" lon="5.26641">
        <ele>224.2</ele>
        <time>2022-02-24T13:37:40Z</time>
      </trkpt>
      <trkpt lat="46.44833" lon="5.26646">
        <ele>224.4</ele>
        <time>2022-02-24T13:37:41Z</time>
      </trkpt>
      <trkpt lat="46.44829" lon="5.26653">
        <ele>225</ele>
        <time>2022-02-24T13:37:42Z</time>
      </trkpt>
      <trkpt lat="46.44825" lon="5.26658">
        <ele>225</ele>
        <time>2022-02-24T13:37:43Z</time>
      </trkpt>
      <trkpt lat="46.4482" lon="5.26661">
        <ele>225.4</ele>
        <time>2022-02-24T13:37:44Z</time>
      </trkpt>
      <trkpt lat="46.44815" lon="5.26662">
        <ele>225.6</ele>
        <time>2022-02-24T13:37:45Z</time>
      </trkpt>
      <trkpt lat="46.44809" lon="5.26663">
        <ele>225.6</ele>
        <time>2022-02-24T13:37:46Z</time>
      </trkpt>
      <trkpt lat="46.44787" lon="5.26669">
        <ele>226</ele>
        <time>2022-02-24T13:37:50Z</time>
      </trkpt>
      <trkpt lat="46.44775" lon="5.26678">
        <ele>226</ele>
        <time>2022-02-24T13:37:52Z</time>
      </trkpt>
      <trkpt lat="46.44762" lon="5.26687">
        <ele>226</ele>
        <time>2022-02-24T13:37:54Z</time>
      </trkpt>
      <trkpt lat="46.44749" lon="5.26694">
        <ele>225.8</ele>
        <time>2022-02-24T13:37:56Z</time>
      </trkpt>
      <trkpt lat="46.44708" lon="5.26705">
        <ele>224.2</ele>
        <time>2022-02-24T13:38:01Z</time>
      </trkpt>
      <trkpt lat="46.4469" lon="5.26706">
        <ele>222.8</ele>
        <time>2022-02-24T13:38:03Z</time>
      </trkpt>
      <trkpt lat="46.44681" lon="5.26704">
        <ele>222.4</ele>
        <time>2022-02-24T13:38:04Z</time>
      </trkpt>
      <trkpt lat="46.44673" lon="5.26701">
        <ele>221.6</ele>
        <time>2022-02-24T13:38:05Z</time>
      </trkpt>
      <trkpt lat="46.44651" lon="5.26689">
        <ele>220.4</ele>
        <time>2022-02-24T13:38:08Z</time>
      </trkpt>
      <trkpt lat="46.44635" lon="5.26678">
        <ele>220</ele>
        <time>2022-02-24T13:38:10Z</time>
      </trkpt>
      <trkpt lat="46.44604" lon="5.26654">
        <ele>219.8</ele>
        <time>2022-02-24T13:38:15Z</time>
      </trkpt>
      <trkpt lat="46.44599" lon="5.26652">
        <ele>220</ele>
        <time>2022-02-24T13:38:16Z</time>
      </trkpt>
      <trkpt lat="46.44579" lon="5.26642">
        <ele>221.4</ele>
        <time>2022-02-24T13:38:20Z</time>
      </trkpt>
      <trkpt lat="46.44569" lon="5.26639">
        <ele>222.2</ele>
        <time>2022-02-24T13:38:22Z</time>
      </trkpt>
      <trkpt lat="46.44564" lon="5.26639">
        <ele>222.6</ele>
        <time>2022-02-24T13:38:23Z</time>
      </trkpt>
      <trkpt lat="46.44559" lon="5.26639">
        <ele>222.8</ele>
        <time>2022-02-24T13:38:24Z</time>
      </trkpt>
      <trkpt lat="46.4455" lon="5.26642">
        <ele>223.2</ele>
        <time>2022-02-24T13:38:26Z</time>
      </trkpt>
      <trkpt lat="46.44543" lon="5.26644">
        <ele>223.4</ele>
        <time>2022-02-24T13:38:27Z</time>
      </trkpt>
      <trkpt lat="46.44537" lon="5.26647">
        <ele>223.8</ele>
        <time>2022-02-24T13:38:28Z</time>
      </trkpt>
      <trkpt lat="46.44525" lon="5.26654">
        <ele>224.2</ele>
        <time>2022-02-24T13:38:30Z</time>
      </trkpt>
      <trkpt lat="46.4452" lon="5.26658">
        <ele>224.2</ele>
        <time>2022-02-24T13:38:31Z</time>
      </trkpt>
      <trkpt lat="46.44508" lon="5.2667">
        <ele>224.4</ele>
        <time>2022-02-24T13:38:33Z</time>
      </trkpt>
      <trkpt lat="46.44503" lon="5.26677">
        <ele>224.2</ele>
        <time>2022-02-24T13:38:34Z</time>
      </trkpt>
      <trkpt lat="46.4447" lon="5.26715">
        <ele>222.8</ele>
        <time>2022-02-24T13:38:39Z</time>
      </trkpt>
      <trkpt lat="46.44453" lon="5.26723">
        <ele>221.4</ele>
        <time>2022-02-24T13:38:41Z</time>
      </trkpt>
      <trkpt lat="46.44444" lon="5.26725">
        <ele>220.6</ele>
        <time>2022-02-24T13:38:42Z</time>
      </trkpt>
      <trkpt lat="46.44435" lon="5.26728">
        <ele>220</ele>
        <time>2022-02-24T13:38:43Z</time>
      </trkpt>
      <trkpt lat="46.44417" lon="5.26733">
        <ele>219</ele>
        <time>2022-02-24T13:38:45Z</time>
      </trkpt>
      <trkpt lat="46.44392" lon="5.26741">
        <ele>217.8</ele>
        <time>2022-02-24T13:38:48Z</time>
      </trkpt>
      <trkpt lat="46.44383" lon="5.26745">
        <ele>216.8</ele>
        <time>2022-02-24T13:38:49Z</time>
      </trkpt>
      <trkpt lat="46.44373" lon="5.26754">
        <ele>216.6</ele>
        <time>2022-02-24T13:38:50Z</time>
      </trkpt>
      <trkpt lat="46.44367" lon="5.26764">
        <ele>216.2</ele>
        <time>2022-02-24T13:38:51Z</time>
      </trkpt>
      <trkpt lat="46.44352" lon="5.26797">
        <ele>215.4</ele>
        <time>2022-02-24T13:38:54Z</time>
      </trkpt>
      <trkpt lat="46.44346" lon="5.26811">
        <ele>214.4</ele>
        <time>2022-02-24T13:38:55Z</time>
      </trkpt>
      <trkpt lat="46.4434" lon="5.26819">
        <ele>213.6</ele>
        <time>2022-02-24T13:38:56Z</time>
      </trkpt>
      <trkpt lat="46.44332" lon="5.26825">
        <ele>213.4</ele>
        <time>2022-02-24T13:38:57Z</time>
      </trkpt>
      <trkpt lat="46.44323" lon="5.26829">
        <ele>212.8</ele>
        <time>2022-02-24T13:38:58Z</time>
      </trkpt>
      <trkpt lat="46.44306" lon="5.26835">
        <ele>212.4</ele>
        <time>2022-02-24T13:39:00Z</time>
      </trkpt>
      <trkpt lat="46.44269" lon="5.26847">
        <ele>211.8</ele>
        <time>2022-02-24T13:39:04Z</time>
      </trkpt>
      <trkpt lat="46.44252" lon="5.26856">
        <ele>211.4</ele>
        <time>2022-02-24T13:39:06Z</time>
      </trkpt>
      <trkpt lat="46.44224" lon="5.26875">
        <ele>210</ele>
        <time>2022-02-24T13:39:09Z</time>
      </trkpt>
      <trkpt lat="46.44199" lon="5.26897">
        <ele>208.4</ele>
        <time>2022-02-24T13:39:12Z</time>
      </trkpt>
      <trkpt lat="46.44191" lon="5.26908">
        <ele>208.2</ele>
        <time>2022-02-24T13:39:13Z</time>
      </trkpt>
      <trkpt lat="46.44183" lon="5.26919">
        <ele>207.4</ele>
        <time>2022-02-24T13:39:14Z</time>
      </trkpt>
      <trkpt lat="46.44174" lon="5.26928">
        <ele>206.8</ele>
        <time>2022-02-24T13:39:15Z</time>
      </trkpt>
      <trkpt lat="46.44165" lon="5.26935">
        <ele>206</ele>
        <time>2022-02-24T13:39:16Z</time>
      </trkpt>
      <trkpt lat="46.44152" lon="5.26938">
        <ele>205.8</ele>
        <time>2022-02-24T13:39:17Z</time>
      </trkpt>
      <trkpt lat="46.44143" lon="5.26936">
        <ele>205.2</ele>
        <time>2022-02-24T13:39:18Z</time>
      </trkpt>
      <trkpt lat="46.44134" lon="5.26931">
        <ele>204.8</ele>
        <time>2022-02-24T13:39:19Z</time>
      </trkpt>
      <trkpt lat="46.44126" lon="5.26924">
        <ele>204.6</ele>
        <time>2022-02-24T13:39:20Z</time>
      </trkpt>
      <trkpt lat="46.44105" lon="5.26902">
        <ele>203.4</ele>
        <time>2022-02-24T13:39:23Z</time>
      </trkpt>
      <trkpt lat="46.44079" lon="5.26876">
        <ele>203</ele>
        <time>2022-02-24T13:39:27Z</time>
      </trkpt>
      <trkpt lat="46.44038" lon="5.26838">
        <ele>203.2</ele>
        <time>2022-02-24T13:39:34Z</time>
      </trkpt>
      <trkpt lat="46.4401" lon="5.26812">
        <ele>204</ele>
        <time>2022-02-24T13:39:40Z</time>
      </trkpt>
      <trkpt lat="46.44002" lon="5.26804">
        <ele>204.4</ele>
        <time>2022-02-24T13:39:42Z</time>
      </trkpt>
      <trkpt lat="46.43988" lon="5.26792">
        <ele>205.2</ele>
        <time>2022-02-24T13:39:45Z</time>
      </trkpt>
      <trkpt lat="46.43983" lon="5.26789">
        <ele>205.8</ele>
        <time>2022-02-24T13:39:46Z</time>
      </trkpt>
      <trkpt lat="46.43977" lon="5.26788">
        <ele>205.8</ele>
        <time>2022-02-24T13:39:47Z</time>
      </trkpt>
      <trkpt lat="46.4396" lon="5.26784">
        <ele>206.2</ele>
        <time>2022-02-24T13:39:50Z</time>
      </trkpt>
      <trkpt lat="46.43952" lon="5.26776">
        <ele>206.2</ele>
        <time>2022-02-24T13:39:52Z</time>
      </trkpt>
      <trkpt lat="46.43948" lon="5.26771">
        <ele>206.2</ele>
        <time>2022-02-24T13:39:53Z</time>
      </trkpt>
      <trkpt lat="46.43937" lon="5.26763">
        <ele>206.2</ele>
        <time>2022-02-24T13:39:55Z</time>
      </trkpt>
      <trkpt lat="46.43931" lon="5.26761">
        <ele>206.2</ele>
        <time>2022-02-24T13:39:56Z</time>
      </trkpt>
      <trkpt lat="46.43927" lon="5.26762">
        <ele>206.2</ele>
        <time>2022-02-24T13:39:57Z</time>
      </trkpt>
      <trkpt lat="46.43916" lon="5.26767">
        <ele>206.4</ele>
        <time>2022-02-24T13:39:59Z</time>
      </trkpt>
      <trkpt lat="46.43907" lon="5.26778">
        <ele>206.6</ele>
        <time>2022-02-24T13:40:01Z</time>
      </trkpt>
      <trkpt lat="46.43901" lon="5.26792">
        <ele>207</ele>
        <time>2022-02-24T13:40:03Z</time>
      </trkpt>
      <trkpt lat="46.43892" lon="5.26803">
        <ele>207.4</ele>
        <time>2022-02-24T13:40:05Z</time>
      </trkpt>
      <trkpt lat="46.43884" lon="5.26811">
        <ele>207.4</ele>
        <time>2022-02-24T13:40:07Z</time>
      </trkpt>
      <trkpt lat="46.43878" lon="5.26816">
        <ele>207.6</ele>
        <time>2022-02-24T13:40:08Z</time>
      </trkpt>
      <trkpt lat="46.43871" lon="5.26827">
        <ele>207.8</ele>
        <time>2022-02-24T13:40:10Z</time>
      </trkpt>
      <trkpt lat="46.43868" lon="5.26833">
        <ele>207.8</ele>
        <time>2022-02-24T13:40:11Z</time>
      </trkpt>
      <trkpt lat="46.43866" lon="5.26841">
        <ele>208.2</ele>
        <time>2022-02-24T13:40:12Z</time>
      </trkpt>
      <trkpt lat="46.43864" lon="5.26861">
        <ele>208.4</ele>
        <time>2022-02-24T13:40:15Z</time>
      </trkpt>
      <trkpt lat="46.43862" lon="5.26893">
        <ele>209</ele>
        <time>2022-02-24T13:40:19Z</time>
      </trkpt>
      <trkpt lat="46.43856" lon="5.26924">
        <ele>209.4</ele>
        <time>2022-02-24T13:40:23Z</time>
      </trkpt>
      <trkpt lat="46.43838" lon="5.2696">
        <ele>209.6</ele>
        <time>2022-02-24T13:40:28Z</time>
      </trkpt>
      <trkpt lat="46.43827" lon="5.26972">
        <ele>209.6</ele>
        <time>2022-02-24T13:40:30Z</time>
      </trkpt>
      <trkpt lat="46.43814" lon="5.26982">
        <ele>209.6</ele>
        <time>2022-02-24T13:40:32Z</time>
      </trkpt>
      <trkpt lat="46.43801" lon="5.26987">
        <ele>209</ele>
        <time>2022-02-24T13:40:34Z</time>
      </trkpt>
      <trkpt lat="46.43785" lon="5.2699">
        <ele>208.6</ele>
        <time>2022-02-24T13:40:36Z</time>
      </trkpt>
      <trkpt lat="46.43771" lon="5.26988">
        <ele>207.8</ele>
        <time>2022-02-24T13:40:38Z</time>
      </trkpt>
      <trkpt lat="46.4375" lon="5.2698">
        <ele>207.2</ele>
        <time>2022-02-24T13:40:41Z</time>
      </trkpt>
      <trkpt lat="46.43719" lon="5.26969">
        <ele>207</ele>
        <time>2022-02-24T13:40:46Z</time>
      </trkpt>
      <trkpt lat="46.43665" lon="5.26948">
        <ele>207.6</ele>
        <time>2022-02-24T13:40:55Z</time>
      </trkpt>
      <trkpt lat="46.43661" lon="5.26947">
        <ele>207.6</ele>
        <time>2022-02-24T13:40:56Z</time>
      </trkpt>
      <trkpt lat="46.43637" lon="5.26938">
        <ele>208</ele>
        <time>2022-02-24T13:41:00Z</time>
      </trkpt>
      <trkpt lat="46.43603" lon="5.26926">
        <ele>208.4</ele>
        <time>2022-02-24T13:41:06Z</time>
      </trkpt>
      <trkpt lat="46.43559" lon="5.26913">
        <ele>208.8</ele>
        <time>2022-02-24T13:41:14Z</time>
      </trkpt>
      <trkpt lat="46.43554" lon="5.26912">
        <ele>208.8</ele>
        <time>2022-02-24T13:41:15Z</time>
      </trkpt>
      <trkpt lat="46.43503" lon="5.26903">
        <ele>209.6</ele>
        <time>2022-02-24T13:41:24Z</time>
      </trkpt>
      <trkpt lat="46.4348" lon="5.26899">
        <ele>209.8</ele>
        <time>2022-02-24T13:41:28Z</time>
      </trkpt>
      <trkpt lat="46.43448" lon="5.26893">
        <ele>209.8</ele>
        <time>2022-02-24T13:41:34Z</time>
      </trkpt>
      <trkpt lat="46.43417" lon="5.26887">
        <ele>210</ele>
        <time>2022-02-24T13:41:40Z</time>
      </trkpt>
      <trkpt lat="46.43407" lon="5.26884">
        <ele>210.2</ele>
        <time>2022-02-24T13:41:42Z</time>
      </trkpt>
      <trkpt lat="46.43387" lon="5.26879">
        <ele>211</ele>
        <time>2022-02-24T13:41:46Z</time>
      </trkpt>
      <trkpt lat="46.43363" lon="5.26874">
        <ele>211.6</ele>
        <time>2022-02-24T13:41:51Z</time>
      </trkpt>
      <trkpt lat="46.43341" lon="5.26873">
        <ele>212</ele>
        <time>2022-02-24T13:41:55Z</time>
      </trkpt>
      <trkpt lat="46.43303" lon="5.26871">
        <ele>212.8</ele>
        <time>2022-02-24T13:42:01Z</time>
      </trkpt>
      <trkpt lat="46.43247" lon="5.26873">
        <ele>213</ele>
        <time>2022-02-24T13:42:11Z</time>
      </trkpt>
      <trkpt lat="46.43237" lon="5.26873">
        <ele>213</ele>
        <time>2022-02-24T13:42:13Z</time>
      </trkpt>
      <trkpt lat="46.43204" lon="5.2687">
        <ele>213.2</ele>
        <time>2022-02-24T13:42:19Z</time>
      </trkpt>
      <trkpt lat="46.43179" lon="5.26865">
        <ele>213.4</ele>
        <time>2022-02-24T13:42:24Z</time>
      </trkpt>
      <trkpt lat="46.43158" lon="5.26859">
        <ele>214.4</ele>
        <time>2022-02-24T13:42:29Z</time>
      </trkpt>
      <trkpt lat="46.43155" lon="5.26858">
        <ele>214.6</ele>
        <time>2022-02-24T13:42:30Z</time>
      </trkpt>
      <trkpt lat="46.43137" lon="5.26852">
        <ele>215.6</ele>
        <time>2022-02-24T13:42:35Z</time>
      </trkpt>
      <trkpt lat="46.43126" lon="5.26848">
        <ele>216.2</ele>
        <time>2022-02-24T13:42:38Z</time>
      </trkpt>
      <trkpt lat="46.4312" lon="5.26846">
        <ele>216.6</ele>
        <time>2022-02-24T13:42:40Z</time>
      </trkpt>
      <trkpt lat="46.43101" lon="5.26843">
        <ele>217.8</ele>
        <time>2022-02-24T13:42:45Z</time>
      </trkpt>
      <trkpt lat="46.43098" lon="5.26842">
        <ele>218</ele>
        <time>2022-02-24T13:42:46Z</time>
      </trkpt>
      <trkpt lat="46.43088" lon="5.2684">
        <ele>219</ele>
        <time>2022-02-24T13:42:49Z</time>
      </trkpt>
      <trkpt lat="46.43078" lon="5.26839">
        <ele>219.4</ele>
        <time>2022-02-24T13:42:52Z</time>
      </trkpt>
      <trkpt lat="46.43068" lon="5.26838">
        <ele>220.2</ele>
        <time>2022-02-24T13:42:55Z</time>
      </trkpt>
      <trkpt lat="46.43046" lon="5.26837">
        <ele>221.2</ele>
        <time>2022-02-24T13:43:01Z</time>
      </trkpt>
      <trkpt lat="46.43043" lon="5.26837">
        <ele>221.6</ele>
        <time>2022-02-24T13:43:02Z</time>
      </trkpt>
      <trkpt lat="46.43033" lon="5.26838">
        <ele>222.4</ele>
        <time>2022-02-24T13:43:05Z</time>
      </trkpt>
      <trkpt lat="46.43015" lon="5.26838">
        <ele>223</ele>
        <time>2022-02-24T13:43:10Z</time>
      </trkpt>
      <trkpt lat="46.43012" lon="5.26838">
        <ele>223.4</ele>
        <time>2022-02-24T13:43:12Z</time>
      </trkpt>
      <trkpt lat="46.4299" lon="5.2684">
        <ele>224.6</ele>
        <time>2022-02-24T13:43:17Z</time>
      </trkpt>
      <trkpt lat="46.4299" lon="5.2684">
        <ele>224.6</ele>
        <time>2022-02-24T13:43:18Z</time>
      </trkpt>
      <trkpt lat="46.42947" lon="5.26846">
        <ele>225.2</ele>
        <time>2022-02-24T13:43:28Z</time>
      </trkpt>
      <trkpt lat="46.42939" lon="5.26848">
        <ele>225.6</ele>
        <time>2022-02-24T13:43:30Z</time>
      </trkpt>
      <trkpt lat="46.42908" lon="5.26851">
        <ele>226</ele>
        <time>2022-02-24T13:43:37Z</time>
      </trkpt>
      <trkpt lat="46.42863" lon="5.26855">
        <ele>226.2</ele>
        <time>2022-02-24T13:43:46Z</time>
      </trkpt>
      <trkpt lat="46.42825" lon="5.26853">
        <ele>225</ele>
        <time>2022-02-24T13:43:53Z</time>
      </trkpt>
      <trkpt lat="46.42792" lon="5.26846">
        <ele>224.4</ele>
        <time>2022-02-24T13:43:57Z</time>
      </trkpt>
      <trkpt lat="46.4277" lon="5.26841">
        <ele>223.6</ele>
        <time>2022-02-24T13:44:00Z</time>
      </trkpt>
      <trkpt lat="46.42763" lon="5.26839">
        <ele>223</ele>
        <time>2022-02-24T13:44:01Z</time>
      </trkpt>
      <trkpt lat="46.42739" lon="5.26834">
        <ele>221.4</ele>
        <time>2022-02-24T13:44:04Z</time>
      </trkpt>
      <trkpt lat="46.42724" lon="5.2683">
        <ele>220.4</ele>
        <time>2022-02-24T13:44:06Z</time>
      </trkpt>
      <trkpt lat="46.42699" lon="5.26823">
        <ele>219.4</ele>
        <time>2022-02-24T13:44:09Z</time>
      </trkpt>
      <trkpt lat="46.42682" lon="5.26819">
        <ele>217.6</ele>
        <time>2022-02-24T13:44:11Z</time>
      </trkpt>
      <trkpt lat="46.42656" lon="5.26813">
        <ele>216.6</ele>
        <time>2022-02-24T13:44:14Z</time>
      </trkpt>
      <trkpt lat="46.42647" lon="5.26811">
        <ele>216</ele>
        <time>2022-02-24T13:44:15Z</time>
      </trkpt>
      <trkpt lat="46.4264" lon="5.26809">
        <ele>214.6</ele>
        <time>2022-02-24T13:44:17Z</time>
      </trkpt>
      <trkpt lat="46.42611" lon="5.26802">
        <ele>213.4</ele>
        <time>2022-02-24T13:44:19Z</time>
      </trkpt>
      <trkpt lat="46.42601" lon="5.268">
        <ele>212.4</ele>
        <time>2022-02-24T13:44:20Z</time>
      </trkpt>
      <trkpt lat="46.42582" lon="5.26795">
        <ele>211.4</ele>
        <time>2022-02-24T13:44:22Z</time>
      </trkpt>
      <trkpt lat="46.42563" lon="5.2679">
        <ele>210.6</ele>
        <time>2022-02-24T13:44:24Z</time>
      </trkpt>
      <trkpt lat="46.42556" lon="5.26789">
        <ele>209.8</ele>
        <time>2022-02-24T13:44:26Z</time>
      </trkpt>
      <trkpt lat="46.42519" lon="5.26779">
        <ele>208</ele>
        <time>2022-02-24T13:44:29Z</time>
      </trkpt>
      <trkpt lat="46.42495" lon="5.26774">
        <ele>207</ele>
        <time>2022-02-24T13:44:32Z</time>
      </trkpt>
      <trkpt lat="46.42447" lon="5.26762">
        <ele>207</ele>
        <time>2022-02-24T13:44:39Z</time>
      </trkpt>
      <trkpt lat="46.42423" lon="5.26755">
        <ele>208</ele>
        <time>2022-02-24T13:44:43Z</time>
      </trkpt>
      <trkpt lat="46.424" lon="5.26749">
        <ele>208.6</ele>
        <time>2022-02-24T13:44:47Z</time>
      </trkpt>
      <trkpt lat="46.42383" lon="5.26745">
        <ele>209.2</ele>
        <time>2022-02-24T13:44:50Z</time>
      </trkpt>
      <trkpt lat="46.42355" lon="5.26737">
        <ele>210.4</ele>
        <time>2022-02-24T13:44:55Z</time>
      </trkpt>
      <trkpt lat="46.42345" lon="5.26735">
        <ele>211</ele>
        <time>2022-02-24T13:44:57Z</time>
      </trkpt>
      <trkpt lat="46.42327" lon="5.2673">
        <ele>211.4</ele>
        <time>2022-02-24T13:45:00Z</time>
      </trkpt>
      <trkpt lat="46.42299" lon="5.26723">
        <ele>212</ele>
        <time>2022-02-24T13:45:05Z</time>
      </trkpt>
      <trkpt lat="46.42278" lon="5.26717">
        <ele>212.4</ele>
        <time>2022-02-24T13:45:09Z</time>
      </trkpt>
      <trkpt lat="46.42273" lon="5.26715">
        <ele>212.4</ele>
        <time>2022-02-24T13:45:10Z</time>
      </trkpt>
      <trkpt lat="46.42264" lon="5.26713">
        <ele>212.8</ele>
        <time>2022-02-24T13:45:12Z</time>
      </trkpt>
      <trkpt lat="46.42244" lon="5.26708">
        <ele>213.8</ele>
        <time>2022-02-24T13:45:16Z</time>
      </trkpt>
      <trkpt lat="46.42227" lon="5.26703">
        <ele>214.8</ele>
        <time>2022-02-24T13:45:19Z</time>
      </trkpt>
      <trkpt lat="46.42211" lon="5.26697">
        <ele>215.6</ele>
        <time>2022-02-24T13:45:22Z</time>
      </trkpt>
      <trkpt lat="46.42199" lon="5.26694">
        <ele>216</ele>
        <time>2022-02-24T13:45:24Z</time>
      </trkpt>
      <trkpt lat="46.42159" lon="5.26679">
        <ele>216.4</ele>
        <time>2022-02-24T13:45:31Z</time>
      </trkpt>
      <trkpt lat="46.42105" lon="5.26661">
        <ele>215.4</ele>
        <time>2022-02-24T13:45:40Z</time>
      </trkpt>
      <trkpt lat="46.42091" lon="5.26655">
        <ele>214.8</ele>
        <time>2022-02-24T13:45:42Z</time>
      </trkpt>
      <trkpt lat="46.42048" lon="5.26639">
        <ele>214</ele>
        <time>2022-02-24T13:45:49Z</time>
      </trkpt>
      <trkpt lat="46.42031" lon="5.26633">
        <ele>213.8</ele>
        <time>2022-02-24T13:45:52Z</time>
      </trkpt>
      <trkpt lat="46.42" lon="5.26621">
        <ele>214</ele>
        <time>2022-02-24T13:45:58Z</time>
      </trkpt>
      <trkpt lat="46.41962" lon="5.26608">
        <ele>214</ele>
        <time>2022-02-24T13:46:04Z</time>
      </trkpt>
      <trkpt lat="46.41904" lon="5.26584">
        <ele>214</ele>
        <time>2022-02-24T13:46:12Z</time>
      </trkpt>
      <trkpt lat="46.41845" lon="5.26559">
        <ele>213.4</ele>
        <time>2022-02-24T13:46:21Z</time>
      </trkpt>
      <trkpt lat="46.41806" lon="5.26543">
        <ele>212.8</ele>
        <time>2022-02-24T13:46:27Z</time>
      </trkpt>
      <trkpt lat="46.41795" lon="5.26538">
        <ele>212.8</ele>
        <time>2022-02-24T13:46:29Z</time>
      </trkpt>
      <trkpt lat="46.41753" lon="5.26521">
        <ele>212.2</ele>
        <time>2022-02-24T13:46:36Z</time>
      </trkpt>
      <trkpt lat="46.41706" lon="5.26506">
        <ele>212</ele>
        <time>2022-02-24T13:46:44Z</time>
      </trkpt>
      <trkpt lat="46.4166" lon="5.26503">
        <ele>212.8</ele>
        <time>2022-02-24T13:46:52Z</time>
      </trkpt>
      <trkpt lat="46.41652" lon="5.26503">
        <ele>213</ele>
        <time>2022-02-24T13:46:53Z</time>
      </trkpt>
      <trkpt lat="46.41604" lon="5.26516">
        <ele>213</ele>
        <time>2022-02-24T13:47:01Z</time>
      </trkpt>
      <trkpt lat="46.41566" lon="5.26537">
        <ele>213</ele>
        <time>2022-02-24T13:47:07Z</time>
      </trkpt>
      <trkpt lat="46.41523" lon="5.26578">
        <ele>212.8</ele>
        <time>2022-02-24T13:47:15Z</time>
      </trkpt>
      <trkpt lat="46.41477" lon="5.26624">
        <ele>212.4</ele>
        <time>2022-02-24T13:47:24Z</time>
      </trkpt>
      <trkpt lat="46.41472" lon="5.2663">
        <ele>212.8</ele>
        <time>2022-02-24T13:47:26Z</time>
      </trkpt>
      <trkpt lat="46.41438" lon="5.26665">
        <ele>213.8</ele>
        <time>2022-02-24T13:47:33Z</time>
      </trkpt>
      <trkpt lat="46.41433" lon="5.26671">
        <ele>214</ele>
        <time>2022-02-24T13:47:34Z</time>
      </trkpt>
      <trkpt lat="46.41425" lon="5.26679">
        <ele>214.4</ele>
        <time>2022-02-24T13:47:36Z</time>
      </trkpt>
      <trkpt lat="46.4141" lon="5.26696">
        <ele>214.8</ele>
        <time>2022-02-24T13:47:40Z</time>
      </trkpt>
      <trkpt lat="46.41407" lon="5.267">
        <ele>215</ele>
        <time>2022-02-24T13:47:41Z</time>
      </trkpt>
      <trkpt lat="46.4139" lon="5.26718">
        <ele>215.8</ele>
        <time>2022-02-24T13:47:46Z</time>
      </trkpt>
      <trkpt lat="46.41382" lon="5.26726">
        <ele>216.4</ele>
        <time>2022-02-24T13:47:48Z</time>
      </trkpt>
      <trkpt lat="46.41371" lon="5.26737">
        <ele>217.6</ele>
        <time>2022-02-24T13:47:51Z</time>
      </trkpt>
      <trkpt lat="46.41367" lon="5.2674">
        <ele>217.6</ele>
        <time>2022-02-24T13:47:52Z</time>
      </trkpt>
      <trkpt lat="46.41359" lon="5.26748">
        <ele>218</ele>
        <time>2022-02-24T13:47:54Z</time>
      </trkpt>
      <trkpt lat="46.41349" lon="5.2676">
        <ele>218.6</ele>
        <time>2022-02-24T13:47:57Z</time>
      </trkpt>
      <trkpt lat="46.4134" lon="5.2677">
        <ele>219.6</ele>
        <time>2022-02-24T13:48:00Z</time>
      </trkpt>
      <trkpt lat="46.41336" lon="5.26773">
        <ele>219.8</ele>
        <time>2022-02-24T13:48:01Z</time>
      </trkpt>
      <trkpt lat="46.41322" lon="5.26785">
        <ele>220.8</ele>
        <time>2022-02-24T13:48:05Z</time>
      </trkpt>
      <trkpt lat="46.4131" lon="5.26795">
        <ele>221.4</ele>
        <time>2022-02-24T13:48:09Z</time>
      </trkpt>
      <trkpt lat="46.41302" lon="5.26801">
        <ele>221.8</ele>
        <time>2022-02-24T13:48:11Z</time>
      </trkpt>
      <trkpt lat="46.41292" lon="5.26806">
        <ele>223</ele>
        <time>2022-02-24T13:48:14Z</time>
      </trkpt>
      <trkpt lat="46.41278" lon="5.26811">
        <ele>223.8</ele>
        <time>2022-02-24T13:48:18Z</time>
      </trkpt>
      <trkpt lat="46.41275" lon="5.26812">
        <ele>224.2</ele>
        <time>2022-02-24T13:48:19Z</time>
      </trkpt>
      <trkpt lat="46.41253" lon="5.26818">
        <ele>225.6</ele>
        <time>2022-02-24T13:48:25Z</time>
      </trkpt>
      <trkpt lat="46.41238" lon="5.26826">
        <ele>226.6</ele>
        <time>2022-02-24T13:48:29Z</time>
      </trkpt>
      <trkpt lat="46.41223" lon="5.26837">
        <ele>227.4</ele>
        <time>2022-02-24T13:48:33Z</time>
      </trkpt>
      <trkpt lat="46.4122" lon="5.2684">
        <ele>227.6</ele>
        <time>2022-02-24T13:48:34Z</time>
      </trkpt>
      <trkpt lat="46.41204" lon="5.2685">
        <ele>228.4</ele>
        <time>2022-02-24T13:48:38Z</time>
      </trkpt>
      <trkpt lat="46.41195" lon="5.2685">
        <ele>228.4</ele>
        <time>2022-02-24T13:48:40Z</time>
      </trkpt>
      <trkpt lat="46.41186" lon="5.26853">
        <ele>228.6</ele>
        <time>2022-02-24T13:48:42Z</time>
      </trkpt>
      <trkpt lat="46.41177" lon="5.26861">
        <ele>228.6</ele>
        <time>2022-02-24T13:48:44Z</time>
      </trkpt>
      <trkpt lat="46.41177" lon="5.26861">
        <ele>228.6</ele>
        <time>2022-02-24T13:48:45Z</time>
      </trkpt>
      <trkpt lat="46.41171" lon="5.26871">
        <ele>228.6</ele>
        <time>2022-02-24T13:48:46Z</time>
      </trkpt>
      <trkpt lat="46.4116" lon="5.26885">
        <ele>228.8</ele>
        <time>2022-02-24T13:48:49Z</time>
      </trkpt>
      <trkpt lat="46.41141" lon="5.26894">
        <ele>229</ele>
        <time>2022-02-24T13:48:53Z</time>
      </trkpt>
      <trkpt lat="46.41127" lon="5.26899">
        <ele>229.2</ele>
        <time>2022-02-24T13:48:57Z</time>
      </trkpt>
      <trkpt lat="46.41083" lon="5.26905">
        <ele>229.6</ele>
        <time>2022-02-24T13:49:04Z</time>
      </trkpt>
      <trkpt lat="46.41038" lon="5.26903">
        <ele>229.2</ele>
        <time>2022-02-24T13:49:11Z</time>
      </trkpt>
      <trkpt lat="46.40981" lon="5.26909">
        <ele>228.2</ele>
        <time>2022-02-24T13:49:19Z</time>
      </trkpt>
      <trkpt lat="46.40966" lon="5.26912">
        <ele>227.4</ele>
        <time>2022-02-24T13:49:21Z</time>
      </trkpt>
      <trkpt lat="46.40923" lon="5.26922">
        <ele>226.6</ele>
        <time>2022-02-24T13:49:27Z</time>
      </trkpt>
      <trkpt lat="46.40901" lon="5.2693">
        <ele>226.4</ele>
        <time>2022-02-24T13:49:30Z</time>
      </trkpt>
      <trkpt lat="46.4088" lon="5.2694">
        <ele>226</ele>
        <time>2022-02-24T13:49:33Z</time>
      </trkpt>
      <trkpt lat="46.40824" lon="5.26969">
        <ele>225.6</ele>
        <time>2022-02-24T13:49:41Z</time>
      </trkpt>
      <trkpt lat="46.40803" lon="5.26978">
        <ele>225.6</ele>
        <time>2022-02-24T13:49:44Z</time>
      </trkpt>
      <trkpt lat="46.4078" lon="5.26982">
        <ele>225.2</ele>
        <time>2022-02-24T13:49:47Z</time>
      </trkpt>
      <trkpt lat="46.40738" lon="5.26976">
        <ele>224.2</ele>
        <time>2022-02-24T13:49:53Z</time>
      </trkpt>
      <trkpt lat="46.40707" lon="5.26971">
        <ele>223.8</ele>
        <time>2022-02-24T13:49:58Z</time>
      </trkpt>
      <trkpt lat="46.40674" lon="5.26963">
        <ele>224.4</ele>
        <time>2022-02-24T13:50:04Z</time>
      </trkpt>
      <trkpt lat="46.40657" lon="5.26958">
        <ele>225</ele>
        <time>2022-02-24T13:50:07Z</time>
      </trkpt>
      <trkpt lat="46.40651" lon="5.26955">
        <ele>225.4</ele>
        <time>2022-02-24T13:50:08Z</time>
      </trkpt>
      <trkpt lat="46.40645" lon="5.26953">
        <ele>225.4</ele>
        <time>2022-02-24T13:50:09Z</time>
      </trkpt>
      <trkpt lat="46.40628" lon="5.26943">
        <ele>225.6</ele>
        <time>2022-02-24T13:50:12Z</time>
      </trkpt>
      <trkpt lat="46.40577" lon="5.26913">
        <ele>225</ele>
        <time>2022-02-24T13:50:21Z</time>
      </trkpt>
      <trkpt lat="46.40554" lon="5.26902">
        <ele>224.6</ele>
        <time>2022-02-24T13:50:25Z</time>
      </trkpt>
      <trkpt lat="46.40541" lon="5.26897">
        <ele>224.2</ele>
        <time>2022-02-24T13:50:27Z</time>
      </trkpt>
      <trkpt lat="46.40504" lon="5.26888">
        <ele>224</ele>
        <time>2022-02-24T13:50:33Z</time>
      </trkpt>
      <trkpt lat="46.40445" lon="5.26881">
        <ele>224.6</ele>
        <time>2022-02-24T13:50:43Z</time>
      </trkpt>
      <trkpt lat="46.40391" lon="5.26875">
        <ele>225</ele>
        <time>2022-02-24T13:50:52Z</time>
      </trkpt>
      <trkpt lat="46.40384" lon="5.26876">
        <ele>225.4</ele>
        <time>2022-02-24T13:50:53Z</time>
      </trkpt>
      <trkpt lat="46.4034" lon="5.26886">
        <ele>226</ele>
        <time>2022-02-24T13:51:00Z</time>
      </trkpt>
      <trkpt lat="46.40291" lon="5.26889">
        <ele>226.2</ele>
        <time>2022-02-24T13:51:08Z</time>
      </trkpt>
      <trkpt lat="46.40278" lon="5.2689">
        <ele>226.4</ele>
        <time>2022-02-24T13:51:10Z</time>
      </trkpt>
      <trkpt lat="46.40223" lon="5.26893">
        <ele>226.8</ele>
        <time>2022-02-24T13:51:19Z</time>
      </trkpt>
      <trkpt lat="46.40181" lon="5.26896">
        <ele>227.4</ele>
        <time>2022-02-24T13:51:26Z</time>
      </trkpt>
      <trkpt lat="46.40163" lon="5.26898">
        <ele>227.8</ele>
        <time>2022-02-24T13:51:29Z</time>
      </trkpt>
      <trkpt lat="46.40107" lon="5.26901">
        <ele>228.2</ele>
        <time>2022-02-24T13:51:39Z</time>
      </trkpt>
      <trkpt lat="46.40091" lon="5.26899">
        <ele>228.4</ele>
        <time>2022-02-24T13:51:42Z</time>
      </trkpt>
      <trkpt lat="46.40071" lon="5.26892">
        <ele>229.2</ele>
        <time>2022-02-24T13:51:46Z</time>
      </trkpt>
      <trkpt lat="46.40061" lon="5.26888">
        <ele>229.4</ele>
        <time>2022-02-24T13:51:48Z</time>
      </trkpt>
      <trkpt lat="46.40028" lon="5.26875">
        <ele>230.2</ele>
        <time>2022-02-24T13:51:55Z</time>
      </trkpt>
      <trkpt lat="46.40017" lon="5.26871">
        <ele>230.6</ele>
        <time>2022-02-24T13:51:57Z</time>
      </trkpt>
      <trkpt lat="46.39977" lon="5.26851">
        <ele>231.2</ele>
        <time>2022-02-24T13:52:05Z</time>
      </trkpt>
      <trkpt lat="46.39939" lon="5.26834">
        <ele>231</ele>
        <time>2022-02-24T13:52:11Z</time>
      </trkpt>
      <trkpt lat="46.39889" lon="5.26811">
        <ele>229.6</ele>
        <time>2022-02-24T13:52:18Z</time>
      </trkpt>
      <trkpt lat="46.39882" lon="5.26809">
        <ele>229.4</ele>
        <time>2022-02-24T13:52:19Z</time>
      </trkpt>
      <trkpt lat="46.39857" lon="5.26808">
        <ele>228</ele>
        <time>2022-02-24T13:52:22Z</time>
      </trkpt>
      <trkpt lat="46.39849" lon="5.26809">
        <ele>227.8</ele>
        <time>2022-02-24T13:52:23Z</time>
      </trkpt>
      <trkpt lat="46.39825" lon="5.26811">
        <ele>226.2</ele>
        <time>2022-02-24T13:52:26Z</time>
      </trkpt>
      <trkpt lat="46.3981" lon="5.26813">
        <ele>225.2</ele>
        <time>2022-02-24T13:52:28Z</time>
      </trkpt>
      <trkpt lat="46.39787" lon="5.26817">
        <ele>224.4</ele>
        <time>2022-02-24T13:52:31Z</time>
      </trkpt>
      <trkpt lat="46.39741" lon="5.26834">
        <ele>224.4</ele>
        <time>2022-02-24T13:52:38Z</time>
      </trkpt>
      <trkpt lat="46.39706" lon="5.26841">
        <ele>225.4</ele>
        <time>2022-02-24T13:52:44Z</time>
      </trkpt>
      <trkpt lat="46.3969" lon="5.2684">
        <ele>226.2</ele>
        <time>2022-02-24T13:52:47Z</time>
      </trkpt>
      <trkpt lat="46.39673" lon="5.26838">
        <ele>226.6</ele>
        <time>2022-02-24T13:52:50Z</time>
      </trkpt>
      <trkpt lat="46.39654" lon="5.26834">
        <ele>227.2</ele>
        <time>2022-02-24T13:52:54Z</time>
      </trkpt>
      <trkpt lat="46.39634" lon="5.26828">
        <ele>227.8</ele>
        <time>2022-02-24T13:52:59Z</time>
      </trkpt>
      <trkpt lat="46.39624" lon="5.26828">
        <ele>228</ele>
        <time>2022-02-24T13:53:00Z</time>
      </trkpt>
      <trkpt lat="46.39619" lon="5.26828">
        <ele>228.2</ele>
        <time>2022-02-24T13:53:01Z</time>
      </trkpt>
      <trkpt lat="46.39614" lon="5.26829">
        <ele>228.4</ele>
        <time>2022-02-24T13:53:02Z</time>
      </trkpt>
      <trkpt lat="46.39609" lon="5.26831">
        <ele>228.6</ele>
        <time>2022-02-24T13:53:03Z</time>
      </trkpt>
      <trkpt lat="46.39603" lon="5.26834">
        <ele>228.8</ele>
        <time>2022-02-24T13:53:04Z</time>
      </trkpt>
      <trkpt lat="46.39595" lon="5.26843">
        <ele>229</ele>
        <time>2022-02-24T13:53:06Z</time>
      </trkpt>
      <trkpt lat="46.39592" lon="5.26849">
        <ele>229.2</ele>
        <time>2022-02-24T13:53:07Z</time>
      </trkpt>
      <trkpt lat="46.3959" lon="5.26856">
        <ele>229.4</ele>
        <time>2022-02-24T13:53:08Z</time>
      </trkpt>
      <trkpt lat="46.39588" lon="5.26862">
        <ele>229.6</ele>
        <time>2022-02-24T13:53:09Z</time>
      </trkpt>
      <trkpt lat="46.39583" lon="5.26876">
        <ele>229.8</ele>
        <time>2022-02-24T13:53:11Z</time>
      </trkpt>
      <trkpt lat="46.3958" lon="5.26881">
        <ele>230.4</ele>
        <time>2022-02-24T13:53:12Z</time>
      </trkpt>
      <trkpt lat="46.39576" lon="5.26887">
        <ele>230.6</ele>
        <time>2022-02-24T13:53:13Z</time>
      </trkpt>
      <trkpt lat="46.39567" lon="5.26897">
        <ele>231</ele>
        <time>2022-02-24T13:53:15Z</time>
      </trkpt>
      <trkpt lat="46.39554" lon="5.26907">
        <ele>231.6</ele>
        <time>2022-02-24T13:53:18Z</time>
      </trkpt>
      <trkpt lat="46.39549" lon="5.2691">
        <ele>231.8</ele>
        <time>2022-02-24T13:53:19Z</time>
      </trkpt>
      <trkpt lat="46.39516" lon="5.26924">
        <ele>232.2</ele>
        <time>2022-02-24T13:53:25Z</time>
      </trkpt>
      <trkpt lat="46.39505" lon="5.2693">
        <ele>232.2</ele>
        <time>2022-02-24T13:53:27Z</time>
      </trkpt>
      <trkpt lat="46.39495" lon="5.2694">
        <ele>232</ele>
        <time>2022-02-24T13:53:29Z</time>
      </trkpt>
      <trkpt lat="46.39477" lon="5.26977">
        <ele>231.8</ele>
        <time>2022-02-24T13:53:34Z</time>
      </trkpt>
      <trkpt lat="46.39453" lon="5.2704">
        <ele>230.8</ele>
        <time>2022-02-24T13:53:41Z</time>
      </trkpt>
      <trkpt lat="46.39439" lon="5.2709">
        <ele>230.2</ele>
        <time>2022-02-24T13:53:46Z</time>
      </trkpt>
      <trkpt lat="46.39434" lon="5.27099">
        <ele>230.2</ele>
        <time>2022-02-24T13:53:47Z</time>
      </trkpt>
      <trkpt lat="46.39429" lon="5.27106">
        <ele>230.2</ele>
        <time>2022-02-24T13:53:48Z</time>
      </trkpt>
      <trkpt lat="46.39416" lon="5.27117">
        <ele>230</ele>
        <time>2022-02-24T13:53:50Z</time>
      </trkpt>
      <trkpt lat="46.3939" lon="5.27132">
        <ele>229.8</ele>
        <time>2022-02-24T13:53:54Z</time>
      </trkpt>
      <trkpt lat="46.39372" lon="5.27145">
        <ele>229.6</ele>
        <time>2022-02-24T13:53:57Z</time>
      </trkpt>
      <trkpt lat="46.39331" lon="5.27173">
        <ele>229.6</ele>
        <time>2022-02-24T13:54:04Z</time>
      </trkpt>
      <trkpt lat="46.39314" lon="5.27182">
        <ele>229.8</ele>
        <time>2022-02-24T13:54:07Z</time>
      </trkpt>
      <trkpt lat="46.39302" lon="5.27188">
        <ele>229.8</ele>
        <time>2022-02-24T13:54:09Z</time>
      </trkpt>
      <trkpt lat="46.39263" lon="5.27208">
        <ele>230.8</ele>
        <time>2022-02-24T13:54:16Z</time>
      </trkpt>
      <trkpt lat="46.39257" lon="5.27211">
        <ele>231</ele>
        <time>2022-02-24T13:54:17Z</time>
      </trkpt>
      <trkpt lat="46.39237" lon="5.27228">
        <ele>231.6</ele>
        <time>2022-02-24T13:54:21Z</time>
      </trkpt>
      <trkpt lat="46.39233" lon="5.27233">
        <ele>231.6</ele>
        <time>2022-02-24T13:54:22Z</time>
      </trkpt>
      <trkpt lat="46.39225" lon="5.27245">
        <ele>231.6</ele>
        <time>2022-02-24T13:54:24Z</time>
      </trkpt>
      <trkpt lat="46.39216" lon="5.27267">
        <ele>232</ele>
        <time>2022-02-24T13:54:27Z</time>
      </trkpt>
      <trkpt lat="46.3921" lon="5.2729">
        <ele>232.2</ele>
        <time>2022-02-24T13:54:30Z</time>
      </trkpt>
      <trkpt lat="46.39199" lon="5.27331">
        <ele>233</ele>
        <time>2022-02-24T13:54:35Z</time>
      </trkpt>
      <trkpt lat="46.39195" lon="5.27347">
        <ele>233.2</ele>
        <time>2022-02-24T13:54:37Z</time>
      </trkpt>
      <trkpt lat="46.3919" lon="5.27364">
        <ele>233.4</ele>
        <time>2022-02-24T13:54:39Z</time>
      </trkpt>
      <trkpt lat="46.39184" lon="5.27378">
        <ele>233.6</ele>
        <time>2022-02-24T13:54:41Z</time>
      </trkpt>
      <trkpt lat="46.39154" lon="5.27414">
        <ele>233.6</ele>
        <time>2022-02-24T13:54:47Z</time>
      </trkpt>
      <trkpt lat="46.39126" lon="5.27432">
        <ele>233.6</ele>
        <time>2022-02-24T13:54:52Z</time>
      </trkpt>
      <trkpt lat="46.39115" lon="5.27439">
        <ele>233.6</ele>
        <time>2022-02-24T13:54:54Z</time>
      </trkpt>
      <trkpt lat="46.39111" lon="5.27442">
        <ele>233.4</ele>
        <time>2022-02-24T13:54:55Z</time>
      </trkpt>
      <trkpt lat="46.39099" lon="5.27453">
        <ele>233.4</ele>
        <time>2022-02-24T13:54:58Z</time>
      </trkpt>
      <trkpt lat="46.3909" lon="5.27468">
        <ele>233.6</ele>
        <time>2022-02-24T13:55:02Z</time>
      </trkpt>
      <trkpt lat="46.39089" lon="5.27472">
        <ele>233.6</ele>
        <time>2022-02-24T13:55:03Z</time>
      </trkpt>
      <trkpt lat="46.39081" lon="5.27479">
        <ele>233.4</ele>
        <time>2022-02-24T13:55:05Z</time>
      </trkpt>
      <trkpt lat="46.39069" lon="5.27488">
        <ele>233.2</ele>
        <time>2022-02-24T13:55:07Z</time>
      </trkpt>
      <trkpt lat="46.39057" lon="5.27497">
        <ele>233.4</ele>
        <time>2022-02-24T13:55:09Z</time>
      </trkpt>
      <trkpt lat="46.39041" lon="5.27507">
        <ele>233.4</ele>
        <time>2022-02-24T13:55:11Z</time>
      </trkpt>
      <trkpt lat="46.39021" lon="5.27519">
        <ele>233.8</ele>
        <time>2022-02-24T13:55:14Z</time>
      </trkpt>
      <trkpt lat="46.38992" lon="5.27537">
        <ele>234</ele>
        <time>2022-02-24T13:55:19Z</time>
      </trkpt>
      <trkpt lat="46.38986" lon="5.2754">
        <ele>234</ele>
        <time>2022-02-24T13:55:20Z</time>
      </trkpt>
      <trkpt lat="46.38968" lon="5.27548">
        <ele>234.2</ele>
        <time>2022-02-24T13:55:23Z</time>
      </trkpt>
      <trkpt lat="46.38962" lon="5.2755">
        <ele>234.4</ele>
        <time>2022-02-24T13:55:24Z</time>
      </trkpt>
      <trkpt lat="46.38928" lon="5.27562">
        <ele>235</ele>
        <time>2022-02-24T13:55:30Z</time>
      </trkpt>
      <trkpt lat="46.38908" lon="5.27565">
        <ele>234.8</ele>
        <time>2022-02-24T13:55:33Z</time>
      </trkpt>
      <trkpt lat="46.38897" lon="5.27562">
        <ele>234.8</ele>
        <time>2022-02-24T13:55:35Z</time>
      </trkpt>
      <trkpt lat="46.38862" lon="5.27543">
        <ele>234.8</ele>
        <time>2022-02-24T13:55:41Z</time>
      </trkpt>
      <trkpt lat="46.38841" lon="5.27531">
        <ele>235.2</ele>
        <time>2022-02-24T13:55:45Z</time>
      </trkpt>
      <trkpt lat="46.38829" lon="5.27524">
        <ele>235.4</ele>
        <time>2022-02-24T13:55:47Z</time>
      </trkpt>
      <trkpt lat="46.38803" lon="5.27508">
        <ele>235.2</ele>
        <time>2022-02-24T13:55:51Z</time>
      </trkpt>
      <trkpt lat="46.38797" lon="5.27505">
        <ele>235.2</ele>
        <time>2022-02-24T13:55:52Z</time>
      </trkpt>
      <trkpt lat="46.38751" lon="5.2748">
        <ele>235.6</ele>
        <time>2022-02-24T13:56:00Z</time>
      </trkpt>
      <trkpt lat="46.38726" lon="5.27461">
        <ele>235.8</ele>
        <time>2022-02-24T13:56:05Z</time>
      </trkpt>
      <trkpt lat="46.38702" lon="5.27441">
        <ele>236</ele>
        <time>2022-02-24T13:56:10Z</time>
      </trkpt>
      <trkpt lat="46.38686" lon="5.27429">
        <ele>236.4</ele>
        <time>2022-02-24T13:56:13Z</time>
      </trkpt>
      <trkpt lat="46.38656" lon="5.27406">
        <ele>237</ele>
        <time>2022-02-24T13:56:19Z</time>
      </trkpt>
      <trkpt lat="46.38652" lon="5.27403">
        <ele>237</ele>
        <time>2022-02-24T13:56:20Z</time>
      </trkpt>
      <trkpt lat="46.38642" lon="5.27401">
        <ele>237.2</ele>
        <time>2022-02-24T13:56:22Z</time>
      </trkpt>
      <trkpt lat="46.3863" lon="5.27407">
        <ele>237.2</ele>
        <time>2022-02-24T13:56:24Z</time>
      </trkpt>
      <trkpt lat="46.38627" lon="5.27411">
        <ele>237.2</ele>
        <time>2022-02-24T13:56:25Z</time>
      </trkpt>
      <trkpt lat="46.38623" lon="5.27418">
        <ele>237.2</ele>
        <time>2022-02-24T13:56:26Z</time>
      </trkpt>
      <trkpt lat="46.38605" lon="5.27447">
        <ele>236.6</ele>
        <time>2022-02-24T13:56:30Z</time>
      </trkpt>
      <trkpt lat="46.38592" lon="5.27464">
        <ele>236</ele>
        <time>2022-02-24T13:56:32Z</time>
      </trkpt>
      <trkpt lat="46.38577" lon="5.27478">
        <ele>235.4</ele>
        <time>2022-02-24T13:56:34Z</time>
      </trkpt>
      <trkpt lat="46.38561" lon="5.27489">
        <ele>235</ele>
        <time>2022-02-24T13:56:36Z</time>
      </trkpt>
      <trkpt lat="46.38543" lon="5.27499">
        <ele>233.8</ele>
        <time>2022-02-24T13:56:38Z</time>
      </trkpt>
      <trkpt lat="46.38525" lon="5.2751">
        <ele>232.6</ele>
        <time>2022-02-24T13:56:40Z</time>
      </trkpt>
      <trkpt lat="46.38513" lon="5.27518">
        <ele>231</ele>
        <time>2022-02-24T13:56:41Z</time>
      </trkpt>
      <trkpt lat="46.38495" lon="5.27536">
        <ele>229.4</ele>
        <time>2022-02-24T13:56:43Z</time>
      </trkpt>
      <trkpt lat="46.38478" lon="5.27555">
        <ele>226.8</ele>
        <time>2022-02-24T13:56:45Z</time>
      </trkpt>
      <trkpt lat="46.38467" lon="5.27568">
        <ele>225.4</ele>
        <time>2022-02-24T13:56:46Z</time>
      </trkpt>
      <trkpt lat="46.3846" lon="5.27577">
        <ele>225</ele>
        <time>2022-02-24T13:56:47Z</time>
      </trkpt>
      <trkpt lat="46.38452" lon="5.27588">
        <ele>223.6</ele>
        <time>2022-02-24T13:56:48Z</time>
      </trkpt>
      <trkpt lat="46.38434" lon="5.2761">
        <ele>222</ele>
        <time>2022-02-24T13:56:50Z</time>
      </trkpt>
      <trkpt lat="46.38415" lon="5.27634">
        <ele>220.4</ele>
        <time>2022-02-24T13:56:52Z</time>
      </trkpt>
      <trkpt lat="46.38399" lon="5.27652">
        <ele>219.6</ele>
        <time>2022-02-24T13:56:54Z</time>
      </trkpt>
      <trkpt lat="46.38387" lon="5.27662">
        <ele>219</ele>
        <time>2022-02-24T13:56:55Z</time>
      </trkpt>
      <trkpt lat="46.38358" lon="5.27682">
        <ele>217.8</ele>
        <time>2022-02-24T13:56:58Z</time>
      </trkpt>
      <trkpt lat="46.38338" lon="5.27696">
        <ele>216.6</ele>
        <time>2022-02-24T13:57:00Z</time>
      </trkpt>
      <trkpt lat="46.38311" lon="5.27716">
        <ele>215.6</ele>
        <time>2022-02-24T13:57:03Z</time>
      </trkpt>
      <trkpt lat="46.38299" lon="5.27721">
        <ele>215.2</ele>
        <time>2022-02-24T13:57:04Z</time>
      </trkpt>
      <trkpt lat="46.38272" lon="5.27729">
        <ele>215</ele>
        <time>2022-02-24T13:57:07Z</time>
      </trkpt>
      <trkpt lat="46.38228" lon="5.27746">
        <ele>214.4</ele>
        <time>2022-02-24T13:57:12Z</time>
      </trkpt>
      <trkpt lat="46.3822" lon="5.27752">
        <ele>214</ele>
        <time>2022-02-24T13:57:13Z</time>
      </trkpt>
      <trkpt lat="46.38197" lon="5.2777">
        <ele>213.6</ele>
        <time>2022-02-24T13:57:16Z</time>
      </trkpt>
      <trkpt lat="46.38189" lon="5.27777">
        <ele>213.4</ele>
        <time>2022-02-24T13:57:17Z</time>
      </trkpt>
      <trkpt lat="46.38178" lon="5.27799">
        <ele>213.2</ele>
        <time>2022-02-24T13:57:19Z</time>
      </trkpt>
      <trkpt lat="46.38174" lon="5.27832">
        <ele>213.2</ele>
        <time>2022-02-24T13:57:22Z</time>
      </trkpt>
      <trkpt lat="46.38166" lon="5.27914">
        <ele>213.2</ele>
        <time>2022-02-24T13:57:29Z</time>
      </trkpt>
      <trkpt lat="46.38165" lon="5.27923">
        <ele>213.6</ele>
        <time>2022-02-24T13:57:30Z</time>
      </trkpt>
      <trkpt lat="46.38158" lon="5.27967">
        <ele>213.8</ele>
        <time>2022-02-24T13:57:34Z</time>
      </trkpt>
      <trkpt lat="46.38156" lon="5.27974">
        <ele>213.8</ele>
        <time>2022-02-24T13:57:35Z</time>
      </trkpt>
      <trkpt lat="46.38153" lon="5.27983">
        <ele>213.8</ele>
        <time>2022-02-24T13:57:36Z</time>
      </trkpt>
      <trkpt lat="46.3814" lon="5.28005">
        <ele>213.8</ele>
        <time>2022-02-24T13:57:39Z</time>
      </trkpt>
      <trkpt lat="46.38103" lon="5.28057">
        <ele>214.4</ele>
        <time>2022-02-24T13:57:46Z</time>
      </trkpt>
      <trkpt lat="46.38089" lon="5.28078">
        <ele>215</ele>
        <time>2022-02-24T13:57:50Z</time>
      </trkpt>
      <trkpt lat="46.3808" lon="5.28091">
        <ele>215.2</ele>
        <time>2022-02-24T13:57:52Z</time>
      </trkpt>
      <trkpt lat="46.38068" lon="5.28108">
        <ele>215.8</ele>
        <time>2022-02-24T13:57:55Z</time>
      </trkpt>
      <trkpt lat="46.3805" lon="5.28137">
        <ele>216.6</ele>
        <time>2022-02-24T13:58:00Z</time>
      </trkpt>
      <trkpt lat="46.38036" lon="5.28157">
        <ele>217.2</ele>
        <time>2022-02-24T13:58:04Z</time>
      </trkpt>
      <trkpt lat="46.38029" lon="5.28167">
        <ele>217.6</ele>
        <time>2022-02-24T13:58:06Z</time>
      </trkpt>
      <trkpt lat="46.38016" lon="5.2818">
        <ele>218.2</ele>
        <time>2022-02-24T13:58:10Z</time>
      </trkpt>
      <trkpt lat="46.38012" lon="5.28183">
        <ele>218.2</ele>
        <time>2022-02-24T13:58:11Z</time>
      </trkpt>
      <trkpt lat="46.38006" lon="5.28187">
        <ele>219</ele>
        <time>2022-02-24T13:58:13Z</time>
      </trkpt>
      <trkpt lat="46.38" lon="5.28193">
        <ele>220.4</ele>
        <time>2022-02-24T13:58:15Z</time>
      </trkpt>
      <trkpt lat="46.37996" lon="5.28196">
        <ele>220.6</ele>
        <time>2022-02-24T13:58:16Z</time>
      </trkpt>
      <trkpt lat="46.37984" lon="5.28205">
        <ele>221.6</ele>
        <time>2022-02-24T13:58:19Z</time>
      </trkpt>
      <trkpt lat="46.3798" lon="5.28208">
        <ele>222</ele>
        <time>2022-02-24T13:58:20Z</time>
      </trkpt>
      <trkpt lat="46.37975" lon="5.28214">
        <ele>222.4</ele>
        <time>2022-02-24T13:58:22Z</time>
      </trkpt>
      <trkpt lat="46.37973" lon="5.28218">
        <ele>222.6</ele>
        <time>2022-02-24T13:58:23Z</time>
      </trkpt>
      <trkpt lat="46.3797" lon="5.28222">
        <ele>222.8</ele>
        <time>2022-02-24T13:58:24Z</time>
      </trkpt>
      <trkpt lat="46.37958" lon="5.28243">
        <ele>224.2</ele>
        <time>2022-02-24T13:58:29Z</time>
      </trkpt>
      <trkpt lat="46.37954" lon="5.28249">
        <ele>225</ele>
        <time>2022-02-24T13:58:31Z</time>
      </trkpt>
      <trkpt lat="46.37952" lon="5.28253">
        <ele>225.2</ele>
        <time>2022-02-24T13:58:32Z</time>
      </trkpt>
      <trkpt lat="46.37945" lon="5.28265">
        <ele>226.6</ele>
        <time>2022-02-24T13:58:35Z</time>
      </trkpt>
      <trkpt lat="46.37939" lon="5.28276">
        <ele>227.8</ele>
        <time>2022-02-24T13:58:38Z</time>
      </trkpt>
      <trkpt lat="46.37937" lon="5.28281">
        <ele>228</ele>
        <time>2022-02-24T13:58:39Z</time>
      </trkpt>
      <trkpt lat="46.37928" lon="5.28304">
        <ele>229</ele>
        <time>2022-02-24T13:58:44Z</time>
      </trkpt>
      <trkpt lat="46.37917" lon="5.28325">
        <ele>229.4</ele>
        <time>2022-02-24T13:58:48Z</time>
      </trkpt>
      <trkpt lat="46.37896" lon="5.28361">
        <ele>229.4</ele>
        <time>2022-02-24T13:58:53Z</time>
      </trkpt>
      <trkpt lat="46.37878" lon="5.28401">
        <ele>228.6</ele>
        <time>2022-02-24T13:58:57Z</time>
      </trkpt>
      <trkpt lat="46.37873" lon="5.28414">
        <ele>227.6</ele>
        <time>2022-02-24T13:58:58Z</time>
      </trkpt>
      <trkpt lat="46.37858" lon="5.28458">
        <ele>225.8</ele>
        <time>2022-02-24T13:59:01Z</time>
      </trkpt>
      <trkpt lat="46.37851" lon="5.28486">
        <ele>223.6</ele>
        <time>2022-02-24T13:59:03Z</time>
      </trkpt>
      <trkpt lat="46.37845" lon="5.28518">
        <ele>220.6</ele>
        <time>2022-02-24T13:59:05Z</time>
      </trkpt>
      <trkpt lat="46.3784" lon="5.28553">
        <ele>219.2</ele>
        <time>2022-02-24T13:59:07Z</time>
      </trkpt>
      <trkpt lat="46.37837" lon="5.28581">
        <ele>217.8</ele>
        <time>2022-02-24T13:59:09Z</time>
      </trkpt>
      <trkpt lat="46.37833" lon="5.28598">
        <ele>216.8</ele>
        <time>2022-02-24T13:59:10Z</time>
      </trkpt>
      <trkpt lat="46.37829" lon="5.28611">
        <ele>216.4</ele>
        <time>2022-02-24T13:59:11Z</time>
      </trkpt>
      <trkpt lat="46.37815" lon="5.28642">
        <ele>215.4</ele>
        <time>2022-02-24T13:59:14Z</time>
      </trkpt>
      <trkpt lat="46.37805" lon="5.28666">
        <ele>215.2</ele>
        <time>2022-02-24T13:59:16Z</time>
      </trkpt>
      <trkpt lat="46.37789" lon="5.28716">
        <ele>215.2</ele>
        <time>2022-02-24T13:59:21Z</time>
      </trkpt>
      <trkpt lat="46.3778" lon="5.28754">
        <ele>216.4</ele>
        <time>2022-02-24T13:59:26Z</time>
      </trkpt>
      <trkpt lat="46.37777" lon="5.28765">
        <ele>217.6</ele>
        <time>2022-02-24T13:59:28Z</time>
      </trkpt>
      <trkpt lat="46.37773" lon="5.28778">
        <ele>219</ele>
        <time>2022-02-24T13:59:30Z</time>
      </trkpt>
      <trkpt lat="46.37768" lon="5.28795">
        <ele>220.2</ele>
        <time>2022-02-24T13:59:33Z</time>
      </trkpt>
      <trkpt lat="46.37761" lon="5.28816">
        <ele>221.6</ele>
        <time>2022-02-24T13:59:37Z</time>
      </trkpt>
      <trkpt lat="46.37754" lon="5.28839">
        <ele>222.6</ele>
        <time>2022-02-24T13:59:41Z</time>
      </trkpt>
      <trkpt lat="46.37749" lon="5.28851">
        <ele>223.2</ele>
        <time>2022-02-24T13:59:43Z</time>
      </trkpt>
      <trkpt lat="46.37742" lon="5.28867">
        <ele>224</ele>
        <time>2022-02-24T13:59:46Z</time>
      </trkpt>
      <trkpt lat="46.37736" lon="5.28878">
        <ele>224.4</ele>
        <time>2022-02-24T13:59:48Z</time>
      </trkpt>
      <trkpt lat="46.37733" lon="5.28881">
        <ele>224.6</ele>
        <time>2022-02-24T13:59:49Z</time>
      </trkpt>
      <trkpt lat="46.37723" lon="5.28892">
        <ele>225</ele>
        <time>2022-02-24T13:59:52Z</time>
      </trkpt>
      <trkpt lat="46.37717" lon="5.28898">
        <ele>225.2</ele>
        <time>2022-02-24T13:59:54Z</time>
      </trkpt>
      <trkpt lat="46.37705" lon="5.28907">
        <ele>226.4</ele>
        <time>2022-02-24T13:59:58Z</time>
      </trkpt>
      <trkpt lat="46.37697" lon="5.28913">
        <ele>227</ele>
        <time>2022-02-24T14:00:01Z</time>
      </trkpt>
      <trkpt lat="46.37694" lon="5.28915">
        <ele>227.6</ele>
        <time>2022-02-24T14:00:02Z</time>
      </trkpt>
      <trkpt lat="46.37684" lon="5.28919">
        <ele>228.8</ele>
        <time>2022-02-24T14:00:05Z</time>
      </trkpt>
      <trkpt lat="46.37671" lon="5.28927">
        <ele>230.2</ele>
        <time>2022-02-24T14:00:09Z</time>
      </trkpt>
      <trkpt lat="46.37661" lon="5.28934">
        <ele>230.8</ele>
        <time>2022-02-24T14:00:12Z</time>
      </trkpt>
      <trkpt lat="46.37654" lon="5.2894">
        <ele>231.4</ele>
        <time>2022-02-24T14:00:14Z</time>
      </trkpt>
      <trkpt lat="46.37637" lon="5.28959">
        <ele>232</ele>
        <time>2022-02-24T14:00:19Z</time>
      </trkpt>
      <trkpt lat="46.37608" lon="5.28993">
        <ele>232.2</ele>
        <time>2022-02-24T14:00:25Z</time>
      </trkpt>
      <trkpt lat="46.37575" lon="5.29032">
        <ele>231.4</ele>
        <time>2022-02-24T14:00:32Z</time>
      </trkpt>
      <trkpt lat="46.37531" lon="5.29079">
        <ele>230.4</ele>
        <time>2022-02-24T14:00:40Z</time>
      </trkpt>
      <trkpt lat="46.37526" lon="5.29085">
        <ele>230.2</ele>
        <time>2022-02-24T14:00:41Z</time>
      </trkpt>
      <trkpt lat="46.37492" lon="5.29133">
        <ele>229.8</ele>
        <time>2022-02-24T14:00:48Z</time>
      </trkpt>
      <trkpt lat="46.37479" lon="5.29174">
        <ele>229.8</ele>
        <time>2022-02-24T14:00:53Z</time>
      </trkpt>
      <trkpt lat="46.37469" lon="5.29217">
        <ele>230.4</ele>
        <time>2022-02-24T14:00:59Z</time>
      </trkpt>
      <trkpt lat="46.37465" lon="5.29233">
        <ele>231.4</ele>
        <time>2022-02-24T14:01:02Z</time>
      </trkpt>
      <trkpt lat="46.3746" lon="5.2925">
        <ele>232.2</ele>
        <time>2022-02-24T14:01:05Z</time>
      </trkpt>
      <trkpt lat="46.37459" lon="5.29255">
        <ele>232.4</ele>
        <time>2022-02-24T14:01:06Z</time>
      </trkpt>
      <trkpt lat="46.37455" lon="5.29265">
        <ele>233.2</ele>
        <time>2022-02-24T14:01:08Z</time>
      </trkpt>
      <trkpt lat="46.37448" lon="5.29271">
        <ele>233.6</ele>
        <time>2022-02-24T14:01:10Z</time>
      </trkpt>
      <trkpt lat="46.37436" lon="5.29264">
        <ele>234</ele>
        <time>2022-02-24T14:01:13Z</time>
      </trkpt>
      <trkpt lat="46.37429" lon="5.29254">
        <ele>234.6</ele>
        <time>2022-02-24T14:01:15Z</time>
      </trkpt>
      <trkpt lat="46.37417" lon="5.29233">
        <ele>235.2</ele>
        <time>2022-02-24T14:01:19Z</time>
      </trkpt>
      <trkpt lat="46.37407" lon="5.29197">
        <ele>235.8</ele>
        <time>2022-02-24T14:01:24Z</time>
      </trkpt>
      <trkpt lat="46.37404" lon="5.2919">
        <ele>235.8</ele>
        <time>2022-02-24T14:01:25Z</time>
      </trkpt>
      <trkpt lat="46.37401" lon="5.29183">
        <ele>236</ele>
        <time>2022-02-24T14:01:26Z</time>
      </trkpt>
      <trkpt lat="46.37391" lon="5.29164">
        <ele>236</ele>
        <time>2022-02-24T14:01:29Z</time>
      </trkpt>
      <trkpt lat="46.37364" lon="5.29123">
        <ele>236.4</ele>
        <time>2022-02-24T14:01:36Z</time>
      </trkpt>
      <trkpt lat="46.37362" lon="5.29118">
        <ele>236.6</ele>
        <time>2022-02-24T14:01:37Z</time>
      </trkpt>
      <trkpt lat="46.37358" lon="5.29104">
        <ele>237</ele>
        <time>2022-02-24T14:01:39Z</time>
      </trkpt>
      <trkpt lat="46.37355" lon="5.29087">
        <ele>237.2</ele>
        <time>2022-02-24T14:01:41Z</time>
      </trkpt>
      <trkpt lat="46.37351" lon="5.29073">
        <ele>237.6</ele>
        <time>2022-02-24T14:01:43Z</time>
      </trkpt>
      <trkpt lat="46.37345" lon="5.29059">
        <ele>237.6</ele>
        <time>2022-02-24T14:01:45Z</time>
      </trkpt>
      <trkpt lat="46.37341" lon="5.29055">
        <ele>237.8</ele>
        <time>2022-02-24T14:01:46Z</time>
      </trkpt>
      <trkpt lat="46.37337" lon="5.2905">
        <ele>237.8</ele>
        <time>2022-02-24T14:01:47Z</time>
      </trkpt>
      <trkpt lat="46.37327" lon="5.29043">
        <ele>237.8</ele>
        <time>2022-02-24T14:01:49Z</time>
      </trkpt>
      <trkpt lat="46.37322" lon="5.2904">
        <ele>237.8</ele>
        <time>2022-02-24T14:01:50Z</time>
      </trkpt>
      <trkpt lat="46.37294" lon="5.29028">
        <ele>238.2</ele>
        <time>2022-02-24T14:01:56Z</time>
      </trkpt>
      <trkpt lat="46.37289" lon="5.29028">
        <ele>238.4</ele>
        <time>2022-02-24T14:01:57Z</time>
      </trkpt>
      <trkpt lat="46.37283" lon="5.29028">
        <ele>238.4</ele>
        <time>2022-02-24T14:01:58Z</time>
      </trkpt>
      <trkpt lat="46.37268" lon="5.29031">
        <ele>238.8</ele>
        <time>2022-02-24T14:02:01Z</time>
      </trkpt>
      <trkpt lat="46.37263" lon="5.29034">
        <ele>239</ele>
        <time>2022-02-24T14:02:02Z</time>
      </trkpt>
      <trkpt lat="46.37255" lon="5.2904">
        <ele>239.6</ele>
        <time>2022-02-24T14:02:04Z</time>
      </trkpt>
      <trkpt lat="46.37241" lon="5.29052">
        <ele>239.8</ele>
        <time>2022-02-24T14:02:07Z</time>
      </trkpt>
      <trkpt lat="46.37236" lon="5.29055">
        <ele>240</ele>
        <time>2022-02-24T14:02:08Z</time>
      </trkpt>
      <trkpt lat="46.37231" lon="5.29058">
        <ele>240.4</ele>
        <time>2022-02-24T14:02:09Z</time>
      </trkpt>
      <trkpt lat="46.3722" lon="5.29061">
        <ele>240.6</ele>
        <time>2022-02-24T14:02:11Z</time>
      </trkpt>
      <trkpt lat="46.37215" lon="5.29062">
        <ele>240.6</ele>
        <time>2022-02-24T14:02:12Z</time>
      </trkpt>
      <trkpt lat="46.3721" lon="5.29062">
        <ele>240.8</ele>
        <time>2022-02-24T14:02:13Z</time>
      </trkpt>
      <trkpt lat="46.37178" lon="5.29062">
        <ele>241</ele>
        <time>2022-02-24T14:02:19Z</time>
      </trkpt>
      <trkpt lat="46.37167" lon="5.29057">
        <ele>241</ele>
        <time>2022-02-24T14:02:21Z</time>
      </trkpt>
      <trkpt lat="46.37161" lon="5.29046">
        <ele>241</ele>
        <time>2022-02-24T14:02:23Z</time>
      </trkpt>
      <trkpt lat="46.37159" lon="5.29038">
        <ele>241</ele>
        <time>2022-02-24T14:02:24Z</time>
      </trkpt>
      <trkpt lat="46.37157" lon="5.29028">
        <ele>241</ele>
        <time>2022-02-24T14:02:25Z</time>
      </trkpt>
      <trkpt lat="46.37151" lon="5.29016">
        <ele>241</ele>
        <time>2022-02-24T14:02:27Z</time>
      </trkpt>
      <trkpt lat="46.37145" lon="5.29011">
        <ele>241</ele>
        <time>2022-02-24T14:02:28Z</time>
      </trkpt>
      <trkpt lat="46.37139" lon="5.29007">
        <ele>241</ele>
        <time>2022-02-24T14:02:29Z</time>
      </trkpt>
      <trkpt lat="46.37122" lon="5.29004">
        <ele>240.8</ele>
        <time>2022-02-24T14:02:32Z</time>
      </trkpt>
      <trkpt lat="46.37072" lon="5.29013">
        <ele>240.4</ele>
        <time>2022-02-24T14:02:40Z</time>
      </trkpt>
      <trkpt lat="46.37043" lon="5.29019">
        <ele>240.2</ele>
        <time>2022-02-24T14:02:45Z</time>
      </trkpt>
      <trkpt lat="46.37038" lon="5.29023">
        <ele>240.2</ele>
        <time>2022-02-24T14:02:46Z</time>
      </trkpt>
      <trkpt lat="46.37034" lon="5.29031">
        <ele>240.2</ele>
        <time>2022-02-24T14:02:47Z</time>
      </trkpt>
      <trkpt lat="46.37033" lon="5.29038">
        <ele>240.2</ele>
        <time>2022-02-24T14:02:48Z</time>
      </trkpt>
      <trkpt lat="46.37033" lon="5.29047">
        <ele>240.2</ele>
        <time>2022-02-24T14:02:49Z</time>
      </trkpt>
      <trkpt lat="46.37038" lon="5.29073">
        <ele>240.4</ele>
        <time>2022-02-24T14:02:52Z</time>
      </trkpt>
      <trkpt lat="46.37052" lon="5.29137">
        <ele>241</ele>
        <time>2022-02-24T14:02:59Z</time>
      </trkpt>
      <trkpt lat="46.37049" lon="5.29153">
        <ele>241</ele>
        <time>2022-02-24T14:03:01Z</time>
      </trkpt>
      <trkpt lat="46.37044" lon="5.29161">
        <ele>241</ele>
        <time>2022-02-24T14:03:02Z</time>
      </trkpt>
      <trkpt lat="46.37038" lon="5.29165">
        <ele>241</ele>
        <time>2022-02-24T14:03:03Z</time>
      </trkpt>
      <trkpt lat="46.37033" lon="5.29165">
        <ele>240.8</ele>
        <time>2022-02-24T14:03:04Z</time>
      </trkpt>
      <trkpt lat="46.36994" lon="5.29165">
        <ele>239.6</ele>
        <time>2022-02-24T14:03:10Z</time>
      </trkpt>
      <trkpt lat="46.36981" lon="5.29164">
        <ele>239.2</ele>
        <time>2022-02-24T14:03:12Z</time>
      </trkpt>
      <trkpt lat="46.36948" lon="5.29156">
        <ele>238.6</ele>
        <time>2022-02-24T14:03:17Z</time>
      </trkpt>
      <trkpt lat="46.36941" lon="5.29152">
        <ele>238.6</ele>
        <time>2022-02-24T14:03:18Z</time>
      </trkpt>
      <trkpt lat="46.36935" lon="5.29148">
        <ele>238.8</ele>
        <time>2022-02-24T14:03:19Z</time>
      </trkpt>
      <trkpt lat="46.36913" lon="5.29124">
        <ele>238.4</ele>
        <time>2022-02-24T14:03:23Z</time>
      </trkpt>
      <trkpt lat="46.36899" lon="5.29105">
        <ele>238.4</ele>
        <time>2022-02-24T14:03:26Z</time>
      </trkpt>
      <trkpt lat="46.36883" lon="5.2909">
        <ele>238.2</ele>
        <time>2022-02-24T14:03:29Z</time>
      </trkpt>
      <trkpt lat="46.36866" lon="5.29078">
        <ele>238.2</ele>
        <time>2022-02-24T14:03:32Z</time>
      </trkpt>
      <trkpt lat="46.36848" lon="5.29071">
        <ele>238.2</ele>
        <time>2022-02-24T14:03:35Z</time>
      </trkpt>
      <trkpt lat="46.36808" lon="5.29069">
        <ele>237.6</ele>
        <time>2022-02-24T14:03:41Z</time>
      </trkpt>
      <trkpt lat="46.36796" lon="5.29072">
        <ele>237.4</ele>
        <time>2022-02-24T14:03:43Z</time>
      </trkpt>
      <trkpt lat="46.3678" lon="5.29076">
        <ele>237</ele>
        <time>2022-02-24T14:03:46Z</time>
      </trkpt>
      <trkpt lat="46.36774" lon="5.29076">
        <ele>236.8</ele>
        <time>2022-02-24T14:03:47Z</time>
      </trkpt>
      <trkpt lat="46.36768" lon="5.29073">
        <ele>236.8</ele>
        <time>2022-02-24T14:03:48Z</time>
      </trkpt>
      <trkpt lat="46.36759" lon="5.29063">
        <ele>236.6</ele>
        <time>2022-02-24T14:03:50Z</time>
      </trkpt>
      <trkpt lat="46.36751" lon="5.29054">
        <ele>236.4</ele>
        <time>2022-02-24T14:03:52Z</time>
      </trkpt>
      <trkpt lat="46.36727" lon="5.29025">
        <ele>236</ele>
        <time>2022-02-24T14:03:57Z</time>
      </trkpt>
      <trkpt lat="46.36712" lon="5.29017">
        <ele>235.8</ele>
        <time>2022-02-24T14:03:59Z</time>
      </trkpt>
      <trkpt lat="46.36707" lon="5.29017">
        <ele>235.8</ele>
        <time>2022-02-24T14:04:00Z</time>
      </trkpt>
      <trkpt lat="46.36699" lon="5.29017">
        <ele>235.8</ele>
        <time>2022-02-24T14:04:01Z</time>
      </trkpt>
      <trkpt lat="46.36671" lon="5.2902">
        <ele>235.6</ele>
        <time>2022-02-24T14:04:05Z</time>
      </trkpt>
      <trkpt lat="46.36613" lon="5.29028">
        <ele>235.4</ele>
        <time>2022-02-24T14:04:13Z</time>
      </trkpt>
      <trkpt lat="46.36599" lon="5.2903">
        <ele>235.4</ele>
        <time>2022-02-24T14:04:15Z</time>
      </trkpt>
      <trkpt lat="46.36557" lon="5.29036">
        <ele>235.4</ele>
        <time>2022-02-24T14:04:21Z</time>
      </trkpt>
      <trkpt lat="46.36536" lon="5.29039">
        <ele>235.2</ele>
        <time>2022-02-24T14:04:24Z</time>
      </trkpt>
      <trkpt lat="46.36483" lon="5.29043">
        <ele>235.4</ele>
        <time>2022-02-24T14:04:32Z</time>
      </trkpt>
      <trkpt lat="46.36429" lon="5.29046">
        <ele>235.6</ele>
        <time>2022-02-24T14:04:40Z</time>
      </trkpt>
      <trkpt lat="46.36404" lon="5.29049">
        <ele>235.6</ele>
        <time>2022-02-24T14:04:44Z</time>
      </trkpt>
      <trkpt lat="46.36355" lon="5.29057">
        <ele>235.6</ele>
        <time>2022-02-24T14:04:52Z</time>
      </trkpt>
      <trkpt lat="46.3631" lon="5.29067">
        <ele>235.2</ele>
        <time>2022-02-24T14:05:00Z</time>
      </trkpt>
      <trkpt lat="46.36271" lon="5.29076">
        <ele>236.8</ele>
        <time>2022-02-24T14:05:07Z</time>
      </trkpt>
      <trkpt lat="46.3626" lon="5.29078">
        <ele>237.4</ele>
        <time>2022-02-24T14:05:09Z</time>
      </trkpt>
      <trkpt lat="46.36251" lon="5.29086">
        <ele>237.8</ele>
        <time>2022-02-24T14:05:11Z</time>
      </trkpt>
      <trkpt lat="46.36247" lon="5.29093">
        <ele>238</ele>
        <time>2022-02-24T14:05:12Z</time>
      </trkpt>
      <trkpt lat="46.36245" lon="5.29098">
        <ele>238.2</ele>
        <time>2022-02-24T14:05:13Z</time>
      </trkpt>
      <trkpt lat="46.36238" lon="5.29112">
        <ele>238.6</ele>
        <time>2022-02-24T14:05:15Z</time>
      </trkpt>
      <trkpt lat="46.36229" lon="5.29121">
        <ele>238.8</ele>
        <time>2022-02-24T14:05:17Z</time>
      </trkpt>
      <trkpt lat="46.36221" lon="5.29124">
        <ele>239.2</ele>
        <time>2022-02-24T14:05:19Z</time>
      </trkpt>
      <trkpt lat="46.36209" lon="5.29128">
        <ele>239.2</ele>
        <time>2022-02-24T14:05:21Z</time>
      </trkpt>
      <trkpt lat="46.36204" lon="5.29137">
        <ele>239.4</ele>
        <time>2022-02-24T14:05:23Z</time>
      </trkpt>
      <trkpt lat="46.36202" lon="5.29146">
        <ele>239.6</ele>
        <time>2022-02-24T14:05:24Z</time>
      </trkpt>
      <trkpt lat="46.36203" lon="5.29154">
        <ele>239.6</ele>
        <time>2022-02-24T14:05:25Z</time>
      </trkpt>
      <trkpt lat="46.36206" lon="5.29186">
        <ele>239.8</ele>
        <time>2022-02-24T14:05:29Z</time>
      </trkpt>
      <trkpt lat="46.36209" lon="5.29197">
        <ele>239.8</ele>
        <time>2022-02-24T14:05:30Z</time>
      </trkpt>
      <trkpt lat="46.3622" lon="5.29228">
        <ele>239.4</ele>
        <time>2022-02-24T14:05:33Z</time>
      </trkpt>
      <trkpt lat="46.36232" lon="5.29279">
        <ele>237.4</ele>
        <time>2022-02-24T14:05:37Z</time>
      </trkpt>
      <trkpt lat="46.36236" lon="5.2931">
        <ele>235.6</ele>
        <time>2022-02-24T14:05:39Z</time>
      </trkpt>
      <trkpt lat="46.36239" lon="5.29334">
        <ele>234</ele>
        <time>2022-02-24T14:05:41Z</time>
      </trkpt>
      <trkpt lat="46.36241" lon="5.29347">
        <ele>233.2</ele>
        <time>2022-02-24T14:05:42Z</time>
      </trkpt>
      <trkpt lat="46.36242" lon="5.29363">
        <ele>233</ele>
        <time>2022-02-24T14:05:43Z</time>
      </trkpt>
      <trkpt lat="46.36249" lon="5.29411">
        <ele>232.2</ele>
        <time>2022-02-24T14:05:47Z</time>
      </trkpt>
      <trkpt lat="46.36253" lon="5.29442">
        <ele>232.2</ele>
        <time>2022-02-24T14:05:50Z</time>
      </trkpt>
      <trkpt lat="46.36248" lon="5.29461">
        <ele>232.4</ele>
        <time>2022-02-24T14:05:52Z</time>
      </trkpt>
      <trkpt lat="46.3624" lon="5.29468">
        <ele>232.8</ele>
        <time>2022-02-24T14:05:54Z</time>
      </trkpt>
      <trkpt lat="46.36235" lon="5.2947">
        <ele>233</ele>
        <time>2022-02-24T14:05:55Z</time>
      </trkpt>
      <trkpt lat="46.36226" lon="5.29475">
        <ele>233.6</ele>
        <time>2022-02-24T14:05:57Z</time>
      </trkpt>
      <trkpt lat="46.3622" lon="5.2948">
        <ele>234.2</ele>
        <time>2022-02-24T14:05:58Z</time>
      </trkpt>
      <trkpt lat="46.36212" lon="5.29487">
        <ele>235.4</ele>
        <time>2022-02-24T14:06:00Z</time>
      </trkpt>
      <trkpt lat="46.36199" lon="5.295">
        <ele>236.4</ele>
        <time>2022-02-24T14:06:03Z</time>
      </trkpt>
      <trkpt lat="46.36183" lon="5.29515">
        <ele>237.8</ele>
        <time>2022-02-24T14:06:07Z</time>
      </trkpt>
      <trkpt lat="46.36179" lon="5.29519">
        <ele>238</ele>
        <time>2022-02-24T14:06:08Z</time>
      </trkpt>
      <trkpt lat="46.36161" lon="5.29527">
        <ele>238.8</ele>
        <time>2022-02-24T14:06:11Z</time>
      </trkpt>
      <trkpt lat="46.36149" lon="5.29529">
        <ele>239</ele>
        <time>2022-02-24T14:06:13Z</time>
      </trkpt>
      <trkpt lat="46.36096" lon="5.29536">
        <ele>238</ele>
        <time>2022-02-24T14:06:20Z</time>
      </trkpt>
      <trkpt lat="46.36089" lon="5.29536">
        <ele>237.6</ele>
        <time>2022-02-24T14:06:21Z</time>
      </trkpt>
      <trkpt lat="46.36058" lon="5.29539">
        <ele>236.4</ele>
        <time>2022-02-24T14:06:25Z</time>
      </trkpt>
      <trkpt lat="46.36051" lon="5.2954">
        <ele>236.2</ele>
        <time>2022-02-24T14:06:26Z</time>
      </trkpt>
      <trkpt lat="46.35991" lon="5.29548">
        <ele>236.2</ele>
        <time>2022-02-24T14:06:34Z</time>
      </trkpt>
      <trkpt lat="46.35984" lon="5.29549">
        <ele>236.2</ele>
        <time>2022-02-24T14:06:35Z</time>
      </trkpt>
      <trkpt lat="46.35927" lon="5.29554">
        <ele>236.2</ele>
        <time>2022-02-24T14:06:43Z</time>
      </trkpt>
      <trkpt lat="46.35914" lon="5.29555">
        <ele>236.4</ele>
        <time>2022-02-24T14:06:45Z</time>
      </trkpt>
      <trkpt lat="46.35883" lon="5.2955">
        <ele>236.8</ele>
        <time>2022-02-24T14:06:50Z</time>
      </trkpt>
      <trkpt lat="46.35878" lon="5.29548">
        <ele>237</ele>
        <time>2022-02-24T14:06:51Z</time>
      </trkpt>
      <trkpt lat="46.35862" lon="5.29544">
        <ele>237.6</ele>
        <time>2022-02-24T14:06:54Z</time>
      </trkpt>
      <trkpt lat="46.35842" lon="5.29541">
        <ele>238.6</ele>
        <time>2022-02-24T14:06:58Z</time>
      </trkpt>
      <trkpt lat="46.3583" lon="5.2954">
        <ele>239.2</ele>
        <time>2022-02-24T14:07:00Z</time>
      </trkpt>
      <trkpt lat="46.35819" lon="5.29539">
        <ele>239.6</ele>
        <time>2022-02-24T14:07:02Z</time>
      </trkpt>
      <trkpt lat="46.35786" lon="5.29537">
        <ele>240.4</ele>
        <time>2022-02-24T14:07:08Z</time>
      </trkpt>
      <trkpt lat="46.35777" lon="5.29537">
        <ele>240.8</ele>
        <time>2022-02-24T14:07:10Z</time>
      </trkpt>
      <trkpt lat="46.35768" lon="5.29536">
        <ele>241</ele>
        <time>2022-02-24T14:07:12Z</time>
      </trkpt>
      <trkpt lat="46.35754" lon="5.29536">
        <ele>241.4</ele>
        <time>2022-02-24T14:07:15Z</time>
      </trkpt>
      <trkpt lat="46.35746" lon="5.29536">
        <ele>241.6</ele>
        <time>2022-02-24T14:07:17Z</time>
      </trkpt>
      <trkpt lat="46.35742" lon="5.29536">
        <ele>241.8</ele>
        <time>2022-02-24T14:07:18Z</time>
      </trkpt>
      <trkpt lat="46.35736" lon="5.29537">
        <ele>242</ele>
        <time>2022-02-24T14:07:19Z</time>
      </trkpt>
      <trkpt lat="46.35724" lon="5.2954">
        <ele>242.4</ele>
        <time>2022-02-24T14:07:22Z</time>
      </trkpt>
      <trkpt lat="46.3572" lon="5.29542">
        <ele>242.6</ele>
        <time>2022-02-24T14:07:23Z</time>
      </trkpt>
      <trkpt lat="46.35709" lon="5.29548">
        <ele>242.6</ele>
        <time>2022-02-24T14:07:25Z</time>
      </trkpt>
      <trkpt lat="46.357" lon="5.29556">
        <ele>243</ele>
        <time>2022-02-24T14:07:27Z</time>
      </trkpt>
      <trkpt lat="46.3569" lon="5.29566">
        <ele>243.4</ele>
        <time>2022-02-24T14:07:29Z</time>
      </trkpt>
      <trkpt lat="46.35655" lon="5.29596">
        <ele>243.8</ele>
        <time>2022-02-24T14:07:36Z</time>
      </trkpt>
      <trkpt lat="46.35608" lon="5.2962">
        <ele>243.8</ele>
        <time>2022-02-24T14:07:43Z</time>
      </trkpt>
      <trkpt lat="46.35572" lon="5.29636">
        <ele>243.6</ele>
        <time>2022-02-24T14:07:49Z</time>
      </trkpt>
      <trkpt lat="46.35516" lon="5.29647">
        <ele>243</ele>
        <time>2022-02-24T14:07:58Z</time>
      </trkpt>
      <trkpt lat="46.35509" lon="5.29649">
        <ele>243</ele>
        <time>2022-02-24T14:07:59Z</time>
      </trkpt>
      <trkpt lat="46.35497" lon="5.29657">
        <ele>242.8</ele>
        <time>2022-02-24T14:08:01Z</time>
      </trkpt>
      <trkpt lat="46.35479" lon="5.29688">
        <ele>242.6</ele>
        <time>2022-02-24T14:08:05Z</time>
      </trkpt>
      <trkpt lat="46.35468" lon="5.29694">
        <ele>242.6</ele>
        <time>2022-02-24T14:08:07Z</time>
      </trkpt>
      <trkpt lat="46.35443" lon="5.29688">
        <ele>242.4</ele>
        <time>2022-02-24T14:08:11Z</time>
      </trkpt>
      <trkpt lat="46.35405" lon="5.29675">
        <ele>242.4</ele>
        <time>2022-02-24T14:08:18Z</time>
      </trkpt>
      <trkpt lat="46.35362" lon="5.29662">
        <ele>242.8</ele>
        <time>2022-02-24T14:08:25Z</time>
      </trkpt>
      <trkpt lat="46.35307" lon="5.29647">
        <ele>242.8</ele>
        <time>2022-02-24T14:08:34Z</time>
      </trkpt>
      <trkpt lat="46.3525" lon="5.29642">
        <ele>242.8</ele>
        <time>2022-02-24T14:08:43Z</time>
      </trkpt>
      <trkpt lat="46.35198" lon="5.29648">
        <ele>242</ele>
        <time>2022-02-24T14:08:51Z</time>
      </trkpt>
      <trkpt lat="46.35192" lon="5.2965">
        <ele>241.8</ele>
        <time>2022-02-24T14:08:52Z</time>
      </trkpt>
      <trkpt lat="46.35149" lon="5.29656">
        <ele>241.6</ele>
        <time>2022-02-24T14:08:58Z</time>
      </trkpt>
      <trkpt lat="46.35128" lon="5.29658">
        <ele>240.6</ele>
        <time>2022-02-24T14:09:01Z</time>
      </trkpt>
      <trkpt lat="46.35103" lon="5.29661">
        <ele>239.2</ele>
        <time>2022-02-24T14:09:04Z</time>
      </trkpt>
      <trkpt lat="46.35081" lon="5.2966">
        <ele>238.8</ele>
        <time>2022-02-24T14:09:07Z</time>
      </trkpt>
      <trkpt lat="46.35051" lon="5.29647">
        <ele>238.8</ele>
        <time>2022-02-24T14:09:12Z</time>
      </trkpt>
      <trkpt lat="46.35025" lon="5.29636">
        <ele>239.2</ele>
        <time>2022-02-24T14:09:17Z</time>
      </trkpt>
      <trkpt lat="46.34993" lon="5.29632">
        <ele>239.8</ele>
        <time>2022-02-24T14:09:23Z</time>
      </trkpt>
      <trkpt lat="46.34983" lon="5.29632">
        <ele>240.4</ele>
        <time>2022-02-24T14:09:25Z</time>
      </trkpt>
      <trkpt lat="46.34977" lon="5.29634">
        <ele>240.6</ele>
        <time>2022-02-24T14:09:26Z</time>
      </trkpt>
      <trkpt lat="46.34968" lon="5.29638">
        <ele>241</ele>
        <time>2022-02-24T14:09:28Z</time>
      </trkpt>
      <trkpt lat="46.34962" lon="5.29642">
        <ele>241.4</ele>
        <time>2022-02-24T14:09:29Z</time>
      </trkpt>
      <trkpt lat="46.34952" lon="5.29651">
        <ele>242</ele>
        <time>2022-02-24T14:09:31Z</time>
      </trkpt>
      <trkpt lat="46.34948" lon="5.29656">
        <ele>242.2</ele>
        <time>2022-02-24T14:09:32Z</time>
      </trkpt>
      <trkpt lat="46.34943" lon="5.29661">
        <ele>242.2</ele>
        <time>2022-02-24T14:09:33Z</time>
      </trkpt>
      <trkpt lat="46.34929" lon="5.29666">
        <ele>242.4</ele>
        <time>2022-02-24T14:09:35Z</time>
      </trkpt>
      <trkpt lat="46.34905" lon="5.29656">
        <ele>242.4</ele>
        <time>2022-02-24T14:09:39Z</time>
      </trkpt>
      <trkpt lat="46.3488" lon="5.29637">
        <ele>242.2</ele>
        <time>2022-02-24T14:09:44Z</time>
      </trkpt>
      <trkpt lat="46.34875" lon="5.29634">
        <ele>242.2</ele>
        <time>2022-02-24T14:09:45Z</time>
      </trkpt>
      <trkpt lat="46.34832" lon="5.29615">
        <ele>242</ele>
        <time>2022-02-24T14:09:53Z</time>
      </trkpt>
      <trkpt lat="46.34795" lon="5.29614">
        <ele>242</ele>
        <time>2022-02-24T14:09:59Z</time>
      </trkpt>
      <trkpt lat="46.34746" lon="5.29624">
        <ele>242.2</ele>
        <time>2022-02-24T14:10:07Z</time>
      </trkpt>
      <trkpt lat="46.3472" lon="5.29641">
        <ele>241.8</ele>
        <time>2022-02-24T14:10:11Z</time>
      </trkpt>
      <trkpt lat="46.34706" lon="5.29645">
        <ele>241.4</ele>
        <time>2022-02-24T14:10:13Z</time>
      </trkpt>
      <trkpt lat="46.34698" lon="5.29644">
        <ele>241.4</ele>
        <time>2022-02-24T14:10:14Z</time>
      </trkpt>
      <trkpt lat="46.34684" lon="5.2964">
        <ele>241</ele>
        <time>2022-02-24T14:10:16Z</time>
      </trkpt>
      <trkpt lat="46.34649" lon="5.29634">
        <ele>239.8</ele>
        <time>2022-02-24T14:10:21Z</time>
      </trkpt>
      <trkpt lat="46.34595" lon="5.29621">
        <ele>239</ele>
        <time>2022-02-24T14:10:29Z</time>
      </trkpt>
      <trkpt lat="46.34588" lon="5.2962">
        <ele>239</ele>
        <time>2022-02-24T14:10:30Z</time>
      </trkpt>
      <trkpt lat="46.34542" lon="5.29613">
        <ele>238.8</ele>
        <time>2022-02-24T14:10:37Z</time>
      </trkpt>
      <trkpt lat="46.34529" lon="5.2961">
        <ele>238.8</ele>
        <time>2022-02-24T14:10:39Z</time>
      </trkpt>
      <trkpt lat="46.34476" lon="5.29599">
        <ele>239</ele>
        <time>2022-02-24T14:10:48Z</time>
      </trkpt>
      <trkpt lat="46.3447" lon="5.29596">
        <ele>239.2</ele>
        <time>2022-02-24T14:10:49Z</time>
      </trkpt>
      <trkpt lat="46.34461" lon="5.29587">
        <ele>239.4</ele>
        <time>2022-02-24T14:10:51Z</time>
      </trkpt>
      <trkpt lat="46.34458" lon="5.2958">
        <ele>239.6</ele>
        <time>2022-02-24T14:10:52Z</time>
      </trkpt>
      <trkpt lat="46.34457" lon="5.29573">
        <ele>239.6</ele>
        <time>2022-02-24T14:10:53Z</time>
      </trkpt>
      <trkpt lat="46.34457" lon="5.29558">
        <ele>239.8</ele>
        <time>2022-02-24T14:10:55Z</time>
      </trkpt>
      <trkpt lat="46.34458" lon="5.29551">
        <ele>240</ele>
        <time>2022-02-24T14:10:56Z</time>
      </trkpt>
      <trkpt lat="46.34462" lon="5.29529">
        <ele>241</ele>
        <time>2022-02-24T14:10:59Z</time>
      </trkpt>
      <trkpt lat="46.34463" lon="5.29522">
        <ele>241.2</ele>
        <time>2022-02-24T14:11:00Z</time>
      </trkpt>
      <trkpt lat="46.34467" lon="5.29491">
        <ele>242.2</ele>
        <time>2022-02-24T14:11:04Z</time>
      </trkpt>
      <trkpt lat="46.3447" lon="5.29476">
        <ele>242.4</ele>
        <time>2022-02-24T14:11:06Z</time>
      </trkpt>
      <trkpt lat="46.3447" lon="5.29468">
        <ele>242.4</ele>
        <time>2022-02-24T14:11:07Z</time>
      </trkpt>
      <trkpt lat="46.3447" lon="5.2946">
        <ele>242.8</ele>
        <time>2022-02-24T14:11:08Z</time>
      </trkpt>
      <trkpt lat="46.34467" lon="5.29447">
        <ele>243.2</ele>
        <time>2022-02-24T14:11:10Z</time>
      </trkpt>
      <trkpt lat="46.34464" lon="5.29442">
        <ele>243.4</ele>
        <time>2022-02-24T14:11:11Z</time>
      </trkpt>
      <trkpt lat="46.34445" lon="5.29416">
        <ele>243.6</ele>
        <time>2022-02-24T14:11:16Z</time>
      </trkpt>
      <trkpt lat="46.34431" lon="5.29385">
        <ele>243.6</ele>
        <time>2022-02-24T14:11:21Z</time>
      </trkpt>
      <trkpt lat="46.34425" lon="5.29373">
        <ele>243.6</ele>
        <time>2022-02-24T14:11:23Z</time>
      </trkpt>
      <trkpt lat="46.34418" lon="5.29361">
        <ele>243.6</ele>
        <time>2022-02-24T14:11:25Z</time>
      </trkpt>
      <trkpt lat="46.34408" lon="5.2935">
        <ele>243.6</ele>
        <time>2022-02-24T14:11:27Z</time>
      </trkpt>
      <trkpt lat="46.34397" lon="5.29342">
        <ele>243.6</ele>
        <time>2022-02-24T14:11:29Z</time>
      </trkpt>
      <trkpt lat="46.34384" lon="5.29337">
        <ele>243.6</ele>
        <time>2022-02-24T14:11:31Z</time>
      </trkpt>
      <trkpt lat="46.34364" lon="5.29331">
        <ele>243.4</ele>
        <time>2022-02-24T14:11:34Z</time>
      </trkpt>
      <trkpt lat="46.34351" lon="5.29323">
        <ele>243.2</ele>
        <time>2022-02-24T14:11:36Z</time>
      </trkpt>
      <trkpt lat="46.34327" lon="5.29305">
        <ele>242.6</ele>
        <time>2022-02-24T14:11:40Z</time>
      </trkpt>
      <trkpt lat="46.34314" lon="5.29298">
        <ele>242.2</ele>
        <time>2022-02-24T14:11:42Z</time>
      </trkpt>
      <trkpt lat="46.34262" lon="5.29284">
        <ele>241.2</ele>
        <time>2022-02-24T14:11:49Z</time>
      </trkpt>
      <trkpt lat="46.34255" lon="5.29282">
        <ele>241.2</ele>
        <time>2022-02-24T14:11:50Z</time>
      </trkpt>
      <trkpt lat="46.34215" lon="5.29267">
        <ele>241.2</ele>
        <time>2022-02-24T14:11:56Z</time>
      </trkpt>
      <trkpt lat="46.34193" lon="5.29259">
        <ele>241</ele>
        <time>2022-02-24T14:11:59Z</time>
      </trkpt>
      <trkpt lat="46.34178" lon="5.29259">
        <ele>240.8</ele>
        <time>2022-02-24T14:12:01Z</time>
      </trkpt>
      <trkpt lat="46.34141" lon="5.29265">
        <ele>240.2</ele>
        <time>2022-02-24T14:12:06Z</time>
      </trkpt>
      <trkpt lat="46.34119" lon="5.29271">
        <ele>240</ele>
        <time>2022-02-24T14:12:09Z</time>
      </trkpt>
      <trkpt lat="46.34112" lon="5.29275">
        <ele>240</ele>
        <time>2022-02-24T14:12:10Z</time>
      </trkpt>
      <trkpt lat="46.341" lon="5.29287">
        <ele>240</ele>
        <time>2022-02-24T14:12:12Z</time>
      </trkpt>
      <trkpt lat="46.34079" lon="5.29331">
        <ele>240.2</ele>
        <time>2022-02-24T14:12:17Z</time>
      </trkpt>
      <trkpt lat="46.34074" lon="5.2934">
        <ele>240.2</ele>
        <time>2022-02-24T14:12:18Z</time>
      </trkpt>
      <trkpt lat="46.34058" lon="5.2936">
        <ele>240.2</ele>
        <time>2022-02-24T14:12:21Z</time>
      </trkpt>
      <trkpt lat="46.34046" lon="5.29368">
        <ele>240.4</ele>
        <time>2022-02-24T14:12:23Z</time>
      </trkpt>
      <trkpt lat="46.3404" lon="5.29371">
        <ele>240.4</ele>
        <time>2022-02-24T14:12:24Z</time>
      </trkpt>
      <trkpt lat="46.34007" lon="5.29386">
        <ele>240.6</ele>
        <time>2022-02-24T14:12:30Z</time>
      </trkpt>
      <trkpt lat="46.34003" lon="5.2939">
        <ele>240.8</ele>
        <time>2022-02-24T14:12:31Z</time>
      </trkpt>
      <trkpt lat="46.33987" lon="5.29409">
        <ele>241.4</ele>
        <time>2022-02-24T14:12:35Z</time>
      </trkpt>
      <trkpt lat="46.3398" lon="5.29421">
        <ele>242</ele>
        <time>2022-02-24T14:12:37Z</time>
      </trkpt>
      <trkpt lat="46.33967" lon="5.29444">
        <ele>242.6</ele>
        <time>2022-02-24T14:12:41Z</time>
      </trkpt>
      <trkpt lat="46.33962" lon="5.29459">
        <ele>242.8</ele>
        <time>2022-02-24T14:12:43Z</time>
      </trkpt>
      <trkpt lat="46.33957" lon="5.29479">
        <ele>243.6</ele>
        <time>2022-02-24T14:12:46Z</time>
      </trkpt>
      <trkpt lat="46.33952" lon="5.29494">
        <ele>244</ele>
        <time>2022-02-24T14:12:48Z</time>
      </trkpt>
      <trkpt lat="46.33943" lon="5.29507">
        <ele>244.2</ele>
        <time>2022-02-24T14:12:50Z</time>
      </trkpt>
      <trkpt lat="46.3393" lon="5.29513">
        <ele>244.2</ele>
        <time>2022-02-24T14:12:52Z</time>
      </trkpt>
      <trkpt lat="46.33924" lon="5.29515">
        <ele>244.2</ele>
        <time>2022-02-24T14:12:53Z</time>
      </trkpt>
      <trkpt lat="46.33879" lon="5.29517">
        <ele>243.6</ele>
        <time>2022-02-24T14:13:00Z</time>
      </trkpt>
      <trkpt lat="46.33836" lon="5.29517">
        <ele>243</ele>
        <time>2022-02-24T14:13:07Z</time>
      </trkpt>
      <trkpt lat="46.33824" lon="5.29518">
        <ele>243</ele>
        <time>2022-02-24T14:13:09Z</time>
      </trkpt>
      <trkpt lat="46.33806" lon="5.29514">
        <ele>243</ele>
        <time>2022-02-24T14:13:12Z</time>
      </trkpt>
      <trkpt lat="46.338" lon="5.29512">
        <ele>243.2</ele>
        <time>2022-02-24T14:13:13Z</time>
      </trkpt>
      <trkpt lat="46.33768" lon="5.29488">
        <ele>243.4</ele>
        <time>2022-02-24T14:13:19Z</time>
      </trkpt>
      <trkpt lat="46.33725" lon="5.29438">
        <ele>243.2</ele>
        <time>2022-02-24T14:13:28Z</time>
      </trkpt>
      <trkpt lat="46.33695" lon="5.29393">
        <ele>243.4</ele>
        <time>2022-02-24T14:13:36Z</time>
      </trkpt>
      <trkpt lat="46.33686" lon="5.29381">
        <ele>243.8</ele>
        <time>2022-02-24T14:13:38Z</time>
      </trkpt>
      <trkpt lat="46.33672" lon="5.29369">
        <ele>244.4</ele>
        <time>2022-02-24T14:13:41Z</time>
      </trkpt>
      <trkpt lat="46.33662" lon="5.29365">
        <ele>244.4</ele>
        <time>2022-02-24T14:13:43Z</time>
      </trkpt>
      <trkpt lat="46.33644" lon="5.29364">
        <ele>244.6</ele>
        <time>2022-02-24T14:13:46Z</time>
      </trkpt>
      <trkpt lat="46.33609" lon="5.29371">
        <ele>244.6</ele>
        <time>2022-02-24T14:13:52Z</time>
      </trkpt>
      <trkpt lat="46.33572" lon="5.29364">
        <ele>245.2</ele>
        <time>2022-02-24T14:13:59Z</time>
      </trkpt>
      <trkpt lat="46.33517" lon="5.29344">
        <ele>245.4</ele>
        <time>2022-02-24T14:14:09Z</time>
      </trkpt>
      <trkpt lat="46.33474" lon="5.29326">
        <ele>244.8</ele>
        <time>2022-02-24T14:14:17Z</time>
      </trkpt>
      <trkpt lat="46.33463" lon="5.29319">
        <ele>244.6</ele>
        <time>2022-02-24T14:14:19Z</time>
      </trkpt>
      <trkpt lat="46.33433" lon="5.29293">
        <ele>243.8</ele>
        <time>2022-02-24T14:14:25Z</time>
      </trkpt>
      <trkpt lat="46.3343" lon="5.29289">
        <ele>243.8</ele>
        <time>2022-02-24T14:14:26Z</time>
      </trkpt>
      <trkpt lat="46.33427" lon="5.29285">
        <ele>243.8</ele>
        <time>2022-02-24T14:14:27Z</time>
      </trkpt>
      <trkpt lat="46.33425" lon="5.29278">
        <ele>243.8</ele>
        <time>2022-02-24T14:14:29Z</time>
      </trkpt>
      <trkpt lat="46.33425" lon="5.29276">
        <ele>243.8</ele>
        <time>2022-02-24T14:14:30Z</time>
      </trkpt>
      <trkpt lat="46.33424" lon="5.29276">
        <ele>243.8</ele>
        <time>2022-02-24T14:14:32Z</time>
      </trkpt>
      <trkpt lat="46.33424" lon="5.29276">
        <ele>244</ele>
        <time>2022-02-24T14:14:33Z</time>
      </trkpt>
      <trkpt lat="46.33423" lon="5.29273">
        <ele>243.6</ele>
        <time>2022-02-24T14:16:16Z</time>
      </trkpt>
      <trkpt lat="46.33419" lon="5.29274">
        <ele>243.6</ele>
        <time>2022-02-24T14:16:18Z</time>
      </trkpt>
      <trkpt lat="46.33411" lon="5.29291">
        <ele>243.8</ele>
        <time>2022-02-24T14:16:22Z</time>
      </trkpt>
      <trkpt lat="46.33395" lon="5.29332">
        <ele>243.4</ele>
        <time>2022-02-24T14:16:27Z</time>
      </trkpt>
      <trkpt lat="46.33375" lon="5.29384">
        <ele>243</ele>
        <time>2022-02-24T14:16:33Z</time>
      </trkpt>
      <trkpt lat="46.33365" lon="5.29421">
        <ele>243</ele>
        <time>2022-02-24T14:16:37Z</time>
      </trkpt>
      <trkpt lat="46.3336" lon="5.2944">
        <ele>242.6</ele>
        <time>2022-02-24T14:16:39Z</time>
      </trkpt>
      <trkpt lat="46.33349" lon="5.29496">
        <ele>242.2</ele>
        <time>2022-02-24T14:16:45Z</time>
      </trkpt>
      <trkpt lat="46.33339" lon="5.29561">
        <ele>241.8</ele>
        <time>2022-02-24T14:16:52Z</time>
      </trkpt>
      <trkpt lat="46.33336" lon="5.29577">
        <ele>241.8</ele>
        <time>2022-02-24T14:16:54Z</time>
      </trkpt>
      <trkpt lat="46.33323" lon="5.29655">
        <ele>241.4</ele>
        <time>2022-02-24T14:17:02Z</time>
      </trkpt>
      <trkpt lat="46.3332" lon="5.29676">
        <ele>240.8</ele>
        <time>2022-02-24T14:17:04Z</time>
      </trkpt>
      <trkpt lat="46.33313" lon="5.29721">
        <ele>240.2</ele>
        <time>2022-02-24T14:17:08Z</time>
      </trkpt>
      <trkpt lat="46.33308" lon="5.29753">
        <ele>239.8</ele>
        <time>2022-02-24T14:17:11Z</time>
      </trkpt>
      <trkpt lat="46.33307" lon="5.29763">
        <ele>239.6</ele>
        <time>2022-02-24T14:17:12Z</time>
      </trkpt>
      <trkpt lat="46.33298" lon="5.29818">
        <ele>238.8</ele>
        <time>2022-02-24T14:17:17Z</time>
      </trkpt>
      <trkpt lat="46.33296" lon="5.29829">
        <ele>238.6</ele>
        <time>2022-02-24T14:17:18Z</time>
      </trkpt>
      <trkpt lat="46.33283" lon="5.29904">
        <ele>237.8</ele>
        <time>2022-02-24T14:17:25Z</time>
      </trkpt>
      <trkpt lat="46.3328" lon="5.29926">
        <ele>237.6</ele>
        <time>2022-02-24T14:17:27Z</time>
      </trkpt>
      <trkpt lat="46.33268" lon="5.29995">
        <ele>236.6</ele>
        <time>2022-02-24T14:17:33Z</time>
      </trkpt>
      <trkpt lat="46.33267" lon="5.30004">
        <ele>236.4</ele>
        <time>2022-02-24T14:17:34Z</time>
      </trkpt>
      <trkpt lat="46.33254" lon="5.30082">
        <ele>236.2</ele>
        <time>2022-02-24T14:17:41Z</time>
      </trkpt>
      <trkpt lat="46.33243" lon="5.30153">
        <ele>236</ele>
        <time>2022-02-24T14:17:48Z</time>
      </trkpt>
      <trkpt lat="46.33232" lon="5.30221">
        <ele>236.2</ele>
        <time>2022-02-24T14:17:55Z</time>
      </trkpt>
      <trkpt lat="46.3323" lon="5.3023">
        <ele>236.2</ele>
        <time>2022-02-24T14:17:56Z</time>
      </trkpt>
      <trkpt lat="46.33217" lon="5.30294">
        <ele>235.2</ele>
        <time>2022-02-24T14:18:02Z</time>
      </trkpt>
      <trkpt lat="46.33213" lon="5.30318">
        <ele>234.2</ele>
        <time>2022-02-24T14:18:04Z</time>
      </trkpt>
      <trkpt lat="46.33202" lon="5.30368">
        <ele>232.8</ele>
        <time>2022-02-24T14:18:08Z</time>
      </trkpt>
      <trkpt lat="46.33192" lon="5.30421">
        <ele>231.6</ele>
        <time>2022-02-24T14:18:12Z</time>
      </trkpt>
      <trkpt lat="46.33184" lon="5.30462">
        <ele>230.6</ele>
        <time>2022-02-24T14:18:15Z</time>
      </trkpt>
      <trkpt lat="46.33182" lon="5.30473">
        <ele>230.6</ele>
        <time>2022-02-24T14:18:16Z</time>
      </trkpt>
      <trkpt lat="46.33173" lon="5.30519">
        <ele>229</ele>
        <time>2022-02-24T14:18:19Z</time>
      </trkpt>
      <trkpt lat="46.33164" lon="5.30562">
        <ele>227.8</ele>
        <time>2022-02-24T14:18:22Z</time>
      </trkpt>
      <trkpt lat="46.33161" lon="5.30577">
        <ele>227.6</ele>
        <time>2022-02-24T14:18:23Z</time>
      </trkpt>
      <trkpt lat="46.33152" lon="5.30618">
        <ele>226</ele>
        <time>2022-02-24T14:18:26Z</time>
      </trkpt>
      <trkpt lat="46.33146" lon="5.30646">
        <ele>223.8</ele>
        <time>2022-02-24T14:18:28Z</time>
      </trkpt>
      <trkpt lat="46.33144" lon="5.3066">
        <ele>222.6</ele>
        <time>2022-02-24T14:18:29Z</time>
      </trkpt>
      <trkpt lat="46.33141" lon="5.30673">
        <ele>222.2</ele>
        <time>2022-02-24T14:18:30Z</time>
      </trkpt>
      <trkpt lat="46.33133" lon="5.30715">
        <ele>221.4</ele>
        <time>2022-02-24T14:18:33Z</time>
      </trkpt>
      <trkpt lat="46.33123" lon="5.30762">
        <ele>221</ele>
        <time>2022-02-24T14:18:37Z</time>
      </trkpt>
      <trkpt lat="46.33108" lon="5.30843">
        <ele>221</ele>
        <time>2022-02-24T14:18:44Z</time>
      </trkpt>
      <trkpt lat="46.33093" lon="5.30921">
        <ele>220.6</ele>
        <time>2022-02-24T14:18:51Z</time>
      </trkpt>
      <trkpt lat="46.33092" lon="5.3093">
        <ele>220.6</ele>
        <time>2022-02-24T14:18:52Z</time>
      </trkpt>
      <trkpt lat="46.33083" lon="5.30974">
        <ele>220</ele>
        <time>2022-02-24T14:18:56Z</time>
      </trkpt>
      <trkpt lat="46.3307" lon="5.3104">
        <ele>219.4</ele>
        <time>2022-02-24T14:19:02Z</time>
      </trkpt>
      <trkpt lat="46.33059" lon="5.31098">
        <ele>219</ele>
        <time>2022-02-24T14:19:07Z</time>
      </trkpt>
      <trkpt lat="46.33052" lon="5.31129">
        <ele>218.6</ele>
        <time>2022-02-24T14:19:10Z</time>
      </trkpt>
      <trkpt lat="46.33044" lon="5.31162">
        <ele>217.8</ele>
        <time>2022-02-24T14:19:13Z</time>
      </trkpt>
      <trkpt lat="46.33035" lon="5.3121">
        <ele>216.8</ele>
        <time>2022-02-24T14:19:17Z</time>
      </trkpt>
      <trkpt lat="46.33021" lon="5.3128">
        <ele>216.4</ele>
        <time>2022-02-24T14:19:23Z</time>
      </trkpt>
      <trkpt lat="46.33013" lon="5.31311">
        <ele>216.2</ele>
        <time>2022-02-24T14:19:26Z</time>
      </trkpt>
      <trkpt lat="46.33009" lon="5.3132">
        <ele>216.2</ele>
        <time>2022-02-24T14:19:27Z</time>
      </trkpt>
      <trkpt lat="46.32999" lon="5.31335">
        <ele>215.8</ele>
        <time>2022-02-24T14:19:29Z</time>
      </trkpt>
      <trkpt lat="46.32993" lon="5.31342">
        <ele>215.6</ele>
        <time>2022-02-24T14:19:30Z</time>
      </trkpt>
      <trkpt lat="46.32987" lon="5.31347">
        <ele>215.6</ele>
        <time>2022-02-24T14:19:31Z</time>
      </trkpt>
      <trkpt lat="46.32976" lon="5.31359">
        <ele>215.6</ele>
        <time>2022-02-24T14:19:33Z</time>
      </trkpt>
      <trkpt lat="46.32973" lon="5.31367">
        <ele>215.6</ele>
        <time>2022-02-24T14:19:34Z</time>
      </trkpt>
      <trkpt lat="46.32971" lon="5.31375">
        <ele>215.6</ele>
        <time>2022-02-24T14:19:35Z</time>
      </trkpt>
      <trkpt lat="46.32973" lon="5.31393">
        <ele>215.6</ele>
        <time>2022-02-24T14:19:37Z</time>
      </trkpt>
      <trkpt lat="46.32983" lon="5.31407">
        <ele>216.2</ele>
        <time>2022-02-24T14:19:39Z</time>
      </trkpt>
      <trkpt lat="46.32987" lon="5.31416">
        <ele>216.2</ele>
        <time>2022-02-24T14:19:40Z</time>
      </trkpt>
      <trkpt lat="46.3299" lon="5.31425">
        <ele>216.4</ele>
        <time>2022-02-24T14:19:41Z</time>
      </trkpt>
      <trkpt lat="46.32996" lon="5.31456">
        <ele>216.6</ele>
        <time>2022-02-24T14:19:44Z</time>
      </trkpt>
      <trkpt lat="46.32998" lon="5.31467">
        <ele>216.6</ele>
        <time>2022-02-24T14:19:45Z</time>
      </trkpt>
      <trkpt lat="46.32999" lon="5.31477">
        <ele>216.6</ele>
        <time>2022-02-24T14:19:46Z</time>
      </trkpt>
      <trkpt lat="46.33" lon="5.3151">
        <ele>216.4</ele>
        <time>2022-02-24T14:19:49Z</time>
      </trkpt>
      <trkpt lat="46.3301" lon="5.31574">
        <ele>216.6</ele>
        <time>2022-02-24T14:19:55Z</time>
      </trkpt>
      <trkpt lat="46.33029" lon="5.31633">
        <ele>216.8</ele>
        <time>2022-02-24T14:20:01Z</time>
      </trkpt>
      <trkpt lat="46.33052" lon="5.31701">
        <ele>216</ele>
        <time>2022-02-24T14:20:08Z</time>
      </trkpt>
      <trkpt lat="46.33069" lon="5.31761">
        <ele>216</ele>
        <time>2022-02-24T14:20:14Z</time>
      </trkpt>
      <trkpt lat="46.33074" lon="5.31782">
        <ele>216</ele>
        <time>2022-02-24T14:20:16Z</time>
      </trkpt>
      <trkpt lat="46.33086" lon="5.31837">
        <ele>216.4</ele>
        <time>2022-02-24T14:20:21Z</time>
      </trkpt>
      <trkpt lat="46.33106" lon="5.31919">
        <ele>216.4</ele>
        <time>2022-02-24T14:20:29Z</time>
      </trkpt>
      <trkpt lat="46.33108" lon="5.31928">
        <ele>216.4</ele>
        <time>2022-02-24T14:20:30Z</time>
      </trkpt>
      <trkpt lat="46.33128" lon="5.31999">
        <ele>216.2</ele>
        <time>2022-02-24T14:20:37Z</time>
      </trkpt>
      <trkpt lat="46.33148" lon="5.32081">
        <ele>216.4</ele>
        <time>2022-02-24T14:20:45Z</time>
      </trkpt>
      <trkpt lat="46.33153" lon="5.32101">
        <ele>216.4</ele>
        <time>2022-02-24T14:20:47Z</time>
      </trkpt>
      <trkpt lat="46.3317" lon="5.3217">
        <ele>216.6</ele>
        <time>2022-02-24T14:20:54Z</time>
      </trkpt>
      <trkpt lat="46.33197" lon="5.32243">
        <ele>217</ele>
        <time>2022-02-24T14:21:02Z</time>
      </trkpt>
      <trkpt lat="46.33233" lon="5.32312">
        <ele>216.8</ele>
        <time>2022-02-24T14:21:10Z</time>
      </trkpt>
      <trkpt lat="46.33268" lon="5.32378">
        <ele>217.4</ele>
        <time>2022-02-24T14:21:18Z</time>
      </trkpt>
      <trkpt lat="46.33291" lon="5.3242">
        <ele>218</ele>
        <time>2022-02-24T14:21:23Z</time>
      </trkpt>
      <trkpt lat="46.33304" lon="5.32446">
        <ele>218.6</ele>
        <time>2022-02-24T14:21:26Z</time>
      </trkpt>
      <trkpt lat="46.3333" lon="5.32497">
        <ele>219.2</ele>
        <time>2022-02-24T14:21:32Z</time>
      </trkpt>
      <trkpt lat="46.3335" lon="5.32536">
        <ele>219.6</ele>
        <time>2022-02-24T14:21:37Z</time>
      </trkpt>
      <trkpt lat="46.33359" lon="5.32554">
        <ele>219.6</ele>
        <time>2022-02-24T14:21:39Z</time>
      </trkpt>
      <trkpt lat="46.33372" lon="5.32577">
        <ele>220.4</ele>
        <time>2022-02-24T14:21:42Z</time>
      </trkpt>
      <trkpt lat="46.33409" lon="5.32641">
        <ele>220.8</ele>
        <time>2022-02-24T14:21:50Z</time>
      </trkpt>
      <trkpt lat="46.33418" lon="5.32656">
        <ele>220.8</ele>
        <time>2022-02-24T14:21:52Z</time>
      </trkpt>
      <trkpt lat="46.3344" lon="5.32685">
        <ele>221</ele>
        <time>2022-02-24T14:21:56Z</time>
      </trkpt>
      <trkpt lat="46.33447" lon="5.32691">
        <ele>221</ele>
        <time>2022-02-24T14:21:57Z</time>
      </trkpt>
      <trkpt lat="46.33491" lon="5.32727">
        <ele>221.2</ele>
        <time>2022-02-24T14:22:04Z</time>
      </trkpt>
      <trkpt lat="46.33536" lon="5.32758">
        <ele>221</ele>
        <time>2022-02-24T14:22:11Z</time>
      </trkpt>
      <trkpt lat="46.3359" lon="5.32791">
        <ele>221</ele>
        <time>2022-02-24T14:22:19Z</time>
      </trkpt>
      <trkpt lat="46.33606" lon="5.328">
        <ele>221</ele>
        <time>2022-02-24T14:22:21Z</time>
      </trkpt>
      <trkpt lat="46.33613" lon="5.32806">
        <ele>220.8</ele>
        <time>2022-02-24T14:22:22Z</time>
      </trkpt>
      <trkpt lat="46.33631" lon="5.32827">
        <ele>220.6</ele>
        <time>2022-02-24T14:22:25Z</time>
      </trkpt>
      <trkpt lat="46.33637" lon="5.32835">
        <ele>220.4</ele>
        <time>2022-02-24T14:22:26Z</time>
      </trkpt>
      <trkpt lat="46.33649" lon="5.32862">
        <ele>220.2</ele>
        <time>2022-02-24T14:22:29Z</time>
      </trkpt>
      <trkpt lat="46.33668" lon="5.32925">
        <ele>220.2</ele>
        <time>2022-02-24T14:22:35Z</time>
      </trkpt>
      <trkpt lat="46.33673" lon="5.32955">
        <ele>220.2</ele>
        <time>2022-02-24T14:22:38Z</time>
      </trkpt>
      <trkpt lat="46.33674" lon="5.3298">
        <ele>220.2</ele>
        <time>2022-02-24T14:22:40Z</time>
      </trkpt>
      <trkpt lat="46.33673" lon="5.33038">
        <ele>219.4</ele>
        <time>2022-02-24T14:22:45Z</time>
      </trkpt>
      <trkpt lat="46.33672" lon="5.33084">
        <ele>219.2</ele>
        <time>2022-02-24T14:22:49Z</time>
      </trkpt>
      <trkpt lat="46.33673" lon="5.3317">
        <ele>219.2</ele>
        <time>2022-02-24T14:22:57Z</time>
      </trkpt>
      <trkpt lat="46.33675" lon="5.33183">
        <ele>219.2</ele>
        <time>2022-02-24T14:22:58Z</time>
      </trkpt>
      <trkpt lat="46.3368" lon="5.33204">
        <ele>219.4</ele>
        <time>2022-02-24T14:23:00Z</time>
      </trkpt>
      <trkpt lat="46.33691" lon="5.33234">
        <ele>219.6</ele>
        <time>2022-02-24T14:23:03Z</time>
      </trkpt>
      <trkpt lat="46.33712" lon="5.33284">
        <ele>219.2</ele>
        <time>2022-02-24T14:23:08Z</time>
      </trkpt>
      <trkpt lat="46.33715" lon="5.33292">
        <ele>219</ele>
        <time>2022-02-24T14:23:09Z</time>
      </trkpt>
      <trkpt lat="46.33742" lon="5.33361">
        <ele>218.8</ele>
        <time>2022-02-24T14:23:16Z</time>
      </trkpt>
      <trkpt lat="46.33764" lon="5.33419">
        <ele>218.6</ele>
        <time>2022-02-24T14:23:22Z</time>
      </trkpt>
      <trkpt lat="46.33772" lon="5.3345">
        <ele>218.6</ele>
        <time>2022-02-24T14:23:25Z</time>
      </trkpt>
      <trkpt lat="46.33776" lon="5.33471">
        <ele>218.8</ele>
        <time>2022-02-24T14:23:27Z</time>
      </trkpt>
      <trkpt lat="46.33777" lon="5.33492">
        <ele>218.8</ele>
        <time>2022-02-24T14:23:29Z</time>
      </trkpt>
      <trkpt lat="46.33778" lon="5.33575">
        <ele>219.8</ele>
        <time>2022-02-24T14:23:37Z</time>
      </trkpt>
      <trkpt lat="46.33777" lon="5.33635">
        <ele>220.4</ele>
        <time>2022-02-24T14:23:43Z</time>
      </trkpt>
      <trkpt lat="46.33777" lon="5.33654">
        <ele>220.6</ele>
        <time>2022-02-24T14:23:45Z</time>
      </trkpt>
      <trkpt lat="46.33775" lon="5.33706">
        <ele>221.2</ele>
        <time>2022-02-24T14:23:51Z</time>
      </trkpt>
      <trkpt lat="46.33775" lon="5.33714">
        <ele>221.4</ele>
        <time>2022-02-24T14:23:52Z</time>
      </trkpt>
      <trkpt lat="46.33774" lon="5.33737">
        <ele>221.8</ele>
        <time>2022-02-24T14:23:55Z</time>
      </trkpt>
      <trkpt lat="46.33772" lon="5.33751">
        <ele>222</ele>
        <time>2022-02-24T14:23:57Z</time>
      </trkpt>
      <trkpt lat="46.3377" lon="5.33764">
        <ele>222.6</ele>
        <time>2022-02-24T14:23:59Z</time>
      </trkpt>
      <trkpt lat="46.33766" lon="5.33798">
        <ele>224</ele>
        <time>2022-02-24T14:24:04Z</time>
      </trkpt>
      <trkpt lat="46.33764" lon="5.33829">
        <ele>225.4</ele>
        <time>2022-02-24T14:24:09Z</time>
      </trkpt>
      <trkpt lat="46.33762" lon="5.33853">
        <ele>226.6</ele>
        <time>2022-02-24T14:24:13Z</time>
      </trkpt>
      <trkpt lat="46.33758" lon="5.33882">
        <ele>227.6</ele>
        <time>2022-02-24T14:24:18Z</time>
      </trkpt>
      <trkpt lat="46.33758" lon="5.33888">
        <ele>227.8</ele>
        <time>2022-02-24T14:24:19Z</time>
      </trkpt>
      <trkpt lat="46.33757" lon="5.33909">
        <ele>228.6</ele>
        <time>2022-02-24T14:24:23Z</time>
      </trkpt>
      <trkpt lat="46.33757" lon="5.33929">
        <ele>230</ele>
        <time>2022-02-24T14:24:27Z</time>
      </trkpt>
      <trkpt lat="46.33757" lon="5.33934">
        <ele>230.2</ele>
        <time>2022-02-24T14:24:28Z</time>
      </trkpt>
      <trkpt lat="46.33758" lon="5.33948">
        <ele>231.2</ele>
        <time>2022-02-24T14:24:31Z</time>
      </trkpt>
      <trkpt lat="46.33761" lon="5.33972">
        <ele>232.2</ele>
        <time>2022-02-24T14:24:36Z</time>
      </trkpt>
      <trkpt lat="46.33762" lon="5.33977">
        <ele>232.4</ele>
        <time>2022-02-24T14:24:37Z</time>
      </trkpt>
      <trkpt lat="46.33764" lon="5.34">
        <ele>233.2</ele>
        <time>2022-02-24T14:24:42Z</time>
      </trkpt>
      <trkpt lat="46.33768" lon="5.34024">
        <ele>234.2</ele>
        <time>2022-02-24T14:24:47Z</time>
      </trkpt>
      <trkpt lat="46.33768" lon="5.34029">
        <ele>234.6</ele>
        <time>2022-02-24T14:24:48Z</time>
      </trkpt>
      <trkpt lat="46.33771" lon="5.34053">
        <ele>235.6</ele>
        <time>2022-02-24T14:24:53Z</time>
      </trkpt>
      <trkpt lat="46.33773" lon="5.34073">
        <ele>237</ele>
        <time>2022-02-24T14:24:57Z</time>
      </trkpt>
      <trkpt lat="46.33774" lon="5.34078">
        <ele>237.2</ele>
        <time>2022-02-24T14:24:58Z</time>
      </trkpt>
      <trkpt lat="46.33777" lon="5.34098">
        <ele>238.2</ele>
        <time>2022-02-24T14:25:02Z</time>
      </trkpt>
      <trkpt lat="46.33779" lon="5.34119">
        <ele>238.8</ele>
        <time>2022-02-24T14:25:06Z</time>
      </trkpt>
      <trkpt lat="46.3378" lon="5.34136">
        <ele>239.2</ele>
        <time>2022-02-24T14:25:09Z</time>
      </trkpt>
      <trkpt lat="46.33781" lon="5.34166">
        <ele>240</ele>
        <time>2022-02-24T14:25:14Z</time>
      </trkpt>
      <trkpt lat="46.33781" lon="5.34172">
        <ele>240</ele>
        <time>2022-02-24T14:25:15Z</time>
      </trkpt>
      <trkpt lat="46.33781" lon="5.34178">
        <ele>240</ele>
        <time>2022-02-24T14:25:16Z</time>
      </trkpt>
      <trkpt lat="46.33781" lon="5.34185">
        <ele>240.2</ele>
        <time>2022-02-24T14:25:17Z</time>
      </trkpt>
      <trkpt lat="46.3378" lon="5.34208">
        <ele>240.4</ele>
        <time>2022-02-24T14:25:20Z</time>
      </trkpt>
      <trkpt lat="46.33778" lon="5.34268">
        <ele>240.6</ele>
        <time>2022-02-24T14:25:27Z</time>
      </trkpt>
      <trkpt lat="46.33779" lon="5.34294">
        <ele>240.4</ele>
        <time>2022-02-24T14:25:30Z</time>
      </trkpt>
      <trkpt lat="46.33783" lon="5.34311">
        <ele>240.4</ele>
        <time>2022-02-24T14:25:32Z</time>
      </trkpt>
      <trkpt lat="46.338" lon="5.34348">
        <ele>240.4</ele>
        <time>2022-02-24T14:25:37Z</time>
      </trkpt>
      <trkpt lat="46.33819" lon="5.34379">
        <ele>241.2</ele>
        <time>2022-02-24T14:25:42Z</time>
      </trkpt>
      <trkpt lat="46.33829" lon="5.34396">
        <ele>242</ele>
        <time>2022-02-24T14:25:45Z</time>
      </trkpt>
      <trkpt lat="46.33837" lon="5.34411">
        <ele>242.4</ele>
        <time>2022-02-24T14:25:47Z</time>
      </trkpt>
      <trkpt lat="46.33852" lon="5.34447">
        <ele>243.2</ele>
        <time>2022-02-24T14:25:52Z</time>
      </trkpt>
      <trkpt lat="46.33855" lon="5.34463">
        <ele>243.4</ele>
        <time>2022-02-24T14:25:54Z</time>
      </trkpt>
      <trkpt lat="46.33858" lon="5.34488">
        <ele>243.8</ele>
        <time>2022-02-24T14:25:57Z</time>
      </trkpt>
      <trkpt lat="46.33858" lon="5.34558">
        <ele>244.4</ele>
        <time>2022-02-24T14:26:05Z</time>
      </trkpt>
      <trkpt lat="46.33858" lon="5.34614">
        <ele>244.8</ele>
        <time>2022-02-24T14:26:11Z</time>
      </trkpt>
      <trkpt lat="46.33856" lon="5.34631">
        <ele>245</ele>
        <time>2022-02-24T14:26:13Z</time>
      </trkpt>
      <trkpt lat="46.33851" lon="5.347">
        <ele>245.4</ele>
        <time>2022-02-24T14:26:20Z</time>
      </trkpt>
      <trkpt lat="46.33845" lon="5.34755">
        <ele>245.2</ele>
        <time>2022-02-24T14:26:26Z</time>
      </trkpt>
      <trkpt lat="46.3383" lon="5.34836">
        <ele>245.2</ele>
        <time>2022-02-24T14:26:35Z</time>
      </trkpt>
      <trkpt lat="46.33829" lon="5.34844">
        <ele>245.4</ele>
        <time>2022-02-24T14:26:36Z</time>
      </trkpt>
      <trkpt lat="46.33826" lon="5.34863">
        <ele>245.6</ele>
        <time>2022-02-24T14:26:38Z</time>
      </trkpt>
      <trkpt lat="46.3382" lon="5.34908">
        <ele>246</ele>
        <time>2022-02-24T14:26:43Z</time>
      </trkpt>
      <trkpt lat="46.33819" lon="5.34962">
        <ele>246.6</ele>
        <time>2022-02-24T14:26:49Z</time>
      </trkpt>
      <trkpt lat="46.33819" lon="5.34971">
        <ele>246.6</ele>
        <time>2022-02-24T14:26:50Z</time>
      </trkpt>
      <trkpt lat="46.3382" lon="5.35026">
        <ele>247</ele>
        <time>2022-02-24T14:26:56Z</time>
      </trkpt>
      <trkpt lat="46.33819" lon="5.35064">
        <ele>247</ele>
        <time>2022-02-24T14:27:00Z</time>
      </trkpt>
      <trkpt lat="46.33817" lon="5.3508">
        <ele>247.2</ele>
        <time>2022-02-24T14:27:02Z</time>
      </trkpt>
      <trkpt lat="46.33809" lon="5.3516">
        <ele>247.6</ele>
        <time>2022-02-24T14:27:11Z</time>
      </trkpt>
      <trkpt lat="46.33806" lon="5.35195">
        <ele>247.8</ele>
        <time>2022-02-24T14:27:15Z</time>
      </trkpt>
      <trkpt lat="46.33803" lon="5.35228">
        <ele>248.4</ele>
        <time>2022-02-24T14:27:19Z</time>
      </trkpt>
      <trkpt lat="46.33803" lon="5.35251">
        <ele>248.8</ele>
        <time>2022-02-24T14:27:22Z</time>
      </trkpt>
      <trkpt lat="46.33804" lon="5.35267">
        <ele>249</ele>
        <time>2022-02-24T14:27:24Z</time>
      </trkpt>
      <trkpt lat="46.33806" lon="5.35283">
        <ele>249.2</ele>
        <time>2022-02-24T14:27:26Z</time>
      </trkpt>
      <trkpt lat="46.33819" lon="5.35337">
        <ele>249.6</ele>
        <time>2022-02-24T14:27:33Z</time>
      </trkpt>
      <trkpt lat="46.33823" lon="5.35351">
        <ele>250.2</ele>
        <time>2022-02-24T14:27:35Z</time>
      </trkpt>
      <trkpt lat="46.33838" lon="5.354">
        <ele>251.4</ele>
        <time>2022-02-24T14:27:42Z</time>
      </trkpt>
      <trkpt lat="46.3384" lon="5.35408">
        <ele>251.4</ele>
        <time>2022-02-24T14:27:43Z</time>
      </trkpt>
      <trkpt lat="46.33848" lon="5.35437">
        <ele>252.4</ele>
        <time>2022-02-24T14:27:47Z</time>
      </trkpt>
      <trkpt lat="46.33853" lon="5.35456">
        <ele>253</ele>
        <time>2022-02-24T14:27:50Z</time>
      </trkpt>
      <trkpt lat="46.33858" lon="5.35471">
        <ele>253.4</ele>
        <time>2022-02-24T14:27:52Z</time>
      </trkpt>
      <trkpt lat="46.33872" lon="5.35521">
        <ele>254.4</ele>
        <time>2022-02-24T14:27:59Z</time>
      </trkpt>
      <trkpt lat="46.33874" lon="5.35529">
        <ele>254.8</ele>
        <time>2022-02-24T14:28:00Z</time>
      </trkpt>
      <trkpt lat="46.33883" lon="5.35576">
        <ele>255.6</ele>
        <time>2022-02-24T14:28:06Z</time>
      </trkpt>
      <trkpt lat="46.33884" lon="5.35584">
        <ele>256</ele>
        <time>2022-02-24T14:28:07Z</time>
      </trkpt>
      <trkpt lat="46.33888" lon="5.35623">
        <ele>256.4</ele>
        <time>2022-02-24T14:28:12Z</time>
      </trkpt>
      <trkpt lat="46.3389" lon="5.3568">
        <ele>257</ele>
        <time>2022-02-24T14:28:20Z</time>
      </trkpt>
      <trkpt lat="46.33891" lon="5.35685">
        <ele>257.4</ele>
        <time>2022-02-24T14:28:21Z</time>
      </trkpt>
      <trkpt lat="46.33889" lon="5.35708">
        <ele>258.4</ele>
        <time>2022-02-24T14:28:25Z</time>
      </trkpt>
      <trkpt lat="46.33889" lon="5.35733">
        <ele>259.4</ele>
        <time>2022-02-24T14:28:29Z</time>
      </trkpt>
      <trkpt lat="46.33892" lon="5.35767">
        <ele>260.2</ele>
        <time>2022-02-24T14:28:34Z</time>
      </trkpt>
      <trkpt lat="46.33893" lon="5.35773">
        <ele>260.6</ele>
        <time>2022-02-24T14:28:35Z</time>
      </trkpt>
      <trkpt lat="46.33899" lon="5.35812">
        <ele>261.6</ele>
        <time>2022-02-24T14:28:41Z</time>
      </trkpt>
      <trkpt lat="46.33902" lon="5.35824">
        <ele>262</ele>
        <time>2022-02-24T14:28:43Z</time>
      </trkpt>
      <trkpt lat="46.33905" lon="5.3584">
        <ele>262.4</ele>
        <time>2022-02-24T14:28:46Z</time>
      </trkpt>
      <trkpt lat="46.33907" lon="5.3585">
        <ele>263.2</ele>
        <time>2022-02-24T14:28:48Z</time>
      </trkpt>
      <trkpt lat="46.3391" lon="5.35861">
        <ele>263.6</ele>
        <time>2022-02-24T14:28:50Z</time>
      </trkpt>
      <trkpt lat="46.33914" lon="5.35876">
        <ele>264.2</ele>
        <time>2022-02-24T14:28:53Z</time>
      </trkpt>
      <trkpt lat="46.33922" lon="5.35902">
        <ele>265.4</ele>
        <time>2022-02-24T14:28:58Z</time>
      </trkpt>
      <trkpt lat="46.33923" lon="5.35907">
        <ele>265.6</ele>
        <time>2022-02-24T14:28:59Z</time>
      </trkpt>
      <trkpt lat="46.33927" lon="5.35918">
        <ele>266.2</ele>
        <time>2022-02-24T14:29:01Z</time>
      </trkpt>
      <trkpt lat="46.33928" lon="5.35923">
        <ele>266.6</ele>
        <time>2022-02-24T14:29:02Z</time>
      </trkpt>
      <trkpt lat="46.33937" lon="5.35948">
        <ele>267.6</ele>
        <time>2022-02-24T14:29:07Z</time>
      </trkpt>
      <trkpt lat="46.33939" lon="5.35953">
        <ele>267.6</ele>
        <time>2022-02-24T14:29:08Z</time>
      </trkpt>
      <trkpt lat="46.33948" lon="5.3598">
        <ele>268.8</ele>
        <time>2022-02-24T14:29:13Z</time>
      </trkpt>
      <trkpt lat="46.33955" lon="5.36">
        <ele>269.2</ele>
        <time>2022-02-24T14:29:17Z</time>
      </trkpt>
      <trkpt lat="46.3396" lon="5.36011">
        <ele>269.8</ele>
        <time>2022-02-24T14:29:19Z</time>
      </trkpt>
      <trkpt lat="46.33968" lon="5.36032">
        <ele>271</ele>
        <time>2022-02-24T14:29:23Z</time>
      </trkpt>
      <trkpt lat="46.33977" lon="5.36052">
        <ele>271.8</ele>
        <time>2022-02-24T14:29:27Z</time>
      </trkpt>
      <trkpt lat="46.33981" lon="5.3606">
        <ele>272.2</ele>
        <time>2022-02-24T14:29:29Z</time>
      </trkpt>
      <trkpt lat="46.33997" lon="5.36085">
        <ele>273.2</ele>
        <time>2022-02-24T14:29:35Z</time>
      </trkpt>
      <trkpt lat="46.34002" lon="5.36094">
        <ele>274</ele>
        <time>2022-02-24T14:29:37Z</time>
      </trkpt>
      <trkpt lat="46.34007" lon="5.36103">
        <ele>274.6</ele>
        <time>2022-02-24T14:29:39Z</time>
      </trkpt>
      <trkpt lat="46.34026" lon="5.36129">
        <ele>275.4</ele>
        <time>2022-02-24T14:29:44Z</time>
      </trkpt>
      <trkpt lat="46.34036" lon="5.3614">
        <ele>275.6</ele>
        <time>2022-02-24T14:29:46Z</time>
      </trkpt>
      <trkpt lat="46.34053" lon="5.36152">
        <ele>275.8</ele>
        <time>2022-02-24T14:29:49Z</time>
      </trkpt>
      <trkpt lat="46.34066" lon="5.36159">
        <ele>276</ele>
        <time>2022-02-24T14:29:51Z</time>
      </trkpt>
      <trkpt lat="46.34084" lon="5.36166">
        <ele>275.8</ele>
        <time>2022-02-24T14:29:54Z</time>
      </trkpt>
      <trkpt lat="46.34092" lon="5.36168">
        <ele>275.6</ele>
        <time>2022-02-24T14:29:55Z</time>
      </trkpt>
      <trkpt lat="46.34116" lon="5.36177">
        <ele>275.4</ele>
        <time>2022-02-24T14:29:59Z</time>
      </trkpt>
      <trkpt lat="46.34152" lon="5.36201">
        <ele>275.4</ele>
        <time>2022-02-24T14:30:05Z</time>
      </trkpt>
      <trkpt lat="46.34176" lon="5.36233">
        <ele>275.4</ele>
        <time>2022-02-24T14:30:10Z</time>
      </trkpt>
      <trkpt lat="46.3418" lon="5.36241">
        <ele>275.4</ele>
        <time>2022-02-24T14:30:11Z</time>
      </trkpt>
      <trkpt lat="46.34195" lon="5.36274">
        <ele>275.6</ele>
        <time>2022-02-24T14:30:15Z</time>
      </trkpt>
      <trkpt lat="46.34198" lon="5.36282">
        <ele>275.6</ele>
        <time>2022-02-24T14:30:16Z</time>
      </trkpt>
      <trkpt lat="46.34209" lon="5.36318">
        <ele>275.6</ele>
        <time>2022-02-24T14:30:20Z</time>
      </trkpt>
      <trkpt lat="46.34232" lon="5.36386">
        <ele>276.2</ele>
        <time>2022-02-24T14:30:28Z</time>
      </trkpt>
      <trkpt lat="46.34241" lon="5.36408">
        <ele>276.2</ele>
        <time>2022-02-24T14:30:31Z</time>
      </trkpt>
      <trkpt lat="46.34245" lon="5.36413">
        <ele>276.2</ele>
        <time>2022-02-24T14:30:32Z</time>
      </trkpt>
      <trkpt lat="46.3425" lon="5.36415">
        <ele>276.2</ele>
        <time>2022-02-24T14:30:33Z</time>
      </trkpt>
      <trkpt lat="46.34254" lon="5.36413">
        <ele>276.2</ele>
        <time>2022-02-24T14:30:34Z</time>
      </trkpt>
      <trkpt lat="46.34262" lon="5.364">
        <ele>276</ele>
        <time>2022-02-24T14:30:36Z</time>
      </trkpt>
      <trkpt lat="46.34265" lon="5.36391">
        <ele>276</ele>
        <time>2022-02-24T14:30:37Z</time>
      </trkpt>
      <trkpt lat="46.34267" lon="5.36379">
        <ele>275.8</ele>
        <time>2022-02-24T14:30:38Z</time>
      </trkpt>
      <trkpt lat="46.34268" lon="5.36354">
        <ele>275.4</ele>
        <time>2022-02-24T14:30:40Z</time>
      </trkpt>
      <trkpt lat="46.34268" lon="5.3634">
        <ele>275.2</ele>
        <time>2022-02-24T14:30:41Z</time>
      </trkpt>
      <trkpt lat="46.34265" lon="5.36311">
        <ele>274.2</ele>
        <time>2022-02-24T14:30:43Z</time>
      </trkpt>
      <trkpt lat="46.34263" lon="5.36296">
        <ele>273.8</ele>
        <time>2022-02-24T14:30:44Z</time>
      </trkpt>
      <trkpt lat="46.34262" lon="5.36281">
        <ele>272.6</ele>
        <time>2022-02-24T14:30:45Z</time>
      </trkpt>
      <trkpt lat="46.3426" lon="5.3625">
        <ele>271</ele>
        <time>2022-02-24T14:30:47Z</time>
      </trkpt>
      <trkpt lat="46.3426" lon="5.36218">
        <ele>269.8</ele>
        <time>2022-02-24T14:30:49Z</time>
      </trkpt>
      <trkpt lat="46.34262" lon="5.36198">
        <ele>268.8</ele>
        <time>2022-02-24T14:30:50Z</time>
      </trkpt>
      <trkpt lat="46.34266" lon="5.36182">
        <ele>268.2</ele>
        <time>2022-02-24T14:30:51Z</time>
      </trkpt>
      <trkpt lat="46.34269" lon="5.3617">
        <ele>267</ele>
        <time>2022-02-24T14:30:52Z</time>
      </trkpt>
      <trkpt lat="46.34274" lon="5.36155">
        <ele>266.4</ele>
        <time>2022-02-24T14:30:53Z</time>
      </trkpt>
      <trkpt lat="46.3428" lon="5.36141">
        <ele>265.6</ele>
        <time>2022-02-24T14:30:54Z</time>
      </trkpt>
      <trkpt lat="46.34287" lon="5.36128">
        <ele>264</ele>
        <time>2022-02-24T14:30:55Z</time>
      </trkpt>
      <trkpt lat="46.34292" lon="5.36114">
        <ele>263.4</ele>
        <time>2022-02-24T14:30:56Z</time>
      </trkpt>
      <trkpt lat="46.34296" lon="5.36098">
        <ele>262.4</ele>
        <time>2022-02-24T14:30:57Z</time>
      </trkpt>
      <trkpt lat="46.34296" lon="5.36082">
        <ele>262</ele>
        <time>2022-02-24T14:30:58Z</time>
      </trkpt>
      <trkpt lat="46.34292" lon="5.36063">
        <ele>261</ele>
        <time>2022-02-24T14:30:59Z</time>
      </trkpt>
      <trkpt lat="46.34284" lon="5.36037">
        <ele>259.6</ele>
        <time>2022-02-24T14:31:01Z</time>
      </trkpt>
      <trkpt lat="46.34279" lon="5.36021">
        <ele>259</ele>
        <time>2022-02-24T14:31:02Z</time>
      </trkpt>
      <trkpt lat="46.34277" lon="5.36004">
        <ele>257.8</ele>
        <time>2022-02-24T14:31:03Z</time>
      </trkpt>
      <trkpt lat="46.34279" lon="5.35984">
        <ele>257</ele>
        <time>2022-02-24T14:31:04Z</time>
      </trkpt>
      <trkpt lat="46.34283" lon="5.35968">
        <ele>256.4</ele>
        <time>2022-02-24T14:31:05Z</time>
      </trkpt>
      <trkpt lat="46.34289" lon="5.35956">
        <ele>255.6</ele>
        <time>2022-02-24T14:31:06Z</time>
      </trkpt>
      <trkpt lat="46.34294" lon="5.3594">
        <ele>255</ele>
        <time>2022-02-24T14:31:07Z</time>
      </trkpt>
      <trkpt lat="46.34301" lon="5.35925">
        <ele>253</ele>
        <time>2022-02-24T14:31:08Z</time>
      </trkpt>
      <trkpt lat="46.3431" lon="5.35891">
        <ele>251.2</ele>
        <time>2022-02-24T14:31:10Z</time>
      </trkpt>
      <trkpt lat="46.34314" lon="5.35862">
        <ele>249.8</ele>
        <time>2022-02-24T14:31:12Z</time>
      </trkpt>
      <trkpt lat="46.34316" lon="5.35844">
        <ele>248.8</ele>
        <time>2022-02-24T14:31:13Z</time>
      </trkpt>
      <trkpt lat="46.34322" lon="5.35809">
        <ele>247.4</ele>
        <time>2022-02-24T14:31:15Z</time>
      </trkpt>
      <trkpt lat="46.34331" lon="5.35774">
        <ele>246</ele>
        <time>2022-02-24T14:31:17Z</time>
      </trkpt>
      <trkpt lat="46.34336" lon="5.35757">
        <ele>244.6</ele>
        <time>2022-02-24T14:31:18Z</time>
      </trkpt>
      <trkpt lat="46.34353" lon="5.35707">
        <ele>242.8</ele>
        <time>2022-02-24T14:31:21Z</time>
      </trkpt>
      <trkpt lat="46.34358" lon="5.35692">
        <ele>241.8</ele>
        <time>2022-02-24T14:31:22Z</time>
      </trkpt>
      <trkpt lat="46.3437" lon="5.35657">
        <ele>240</ele>
        <time>2022-02-24T14:31:24Z</time>
      </trkpt>
      <trkpt lat="46.34376" lon="5.35641">
        <ele>239</ele>
        <time>2022-02-24T14:31:25Z</time>
      </trkpt>
      <trkpt lat="46.34383" lon="5.35625">
        <ele>237.8</ele>
        <time>2022-02-24T14:31:26Z</time>
      </trkpt>
      <trkpt lat="46.34397" lon="5.35598">
        <ele>236.8</ele>
        <time>2022-02-24T14:31:28Z</time>
      </trkpt>
      <trkpt lat="46.34407" lon="5.3558">
        <ele>235.6</ele>
        <time>2022-02-24T14:31:29Z</time>
      </trkpt>
      <trkpt lat="46.34422" lon="5.35554">
        <ele>234.4</ele>
        <time>2022-02-24T14:31:31Z</time>
      </trkpt>
      <trkpt lat="46.34432" lon="5.35535">
        <ele>234</ele>
        <time>2022-02-24T14:31:32Z</time>
      </trkpt>
      <trkpt lat="46.34439" lon="5.35518">
        <ele>233</ele>
        <time>2022-02-24T14:31:33Z</time>
      </trkpt>
      <trkpt lat="46.34445" lon="5.355">
        <ele>232</ele>
        <time>2022-02-24T14:31:34Z</time>
      </trkpt>
      <trkpt lat="46.34451" lon="5.35484">
        <ele>231.6</ele>
        <time>2022-02-24T14:31:35Z</time>
      </trkpt>
      <trkpt lat="46.34458" lon="5.35468">
        <ele>230.8</ele>
        <time>2022-02-24T14:31:36Z</time>
      </trkpt>
      <trkpt lat="46.34471" lon="5.35436">
        <ele>228.6</ele>
        <time>2022-02-24T14:31:38Z</time>
      </trkpt>
      <trkpt lat="46.34476" lon="5.35421">
        <ele>227.8</ele>
        <time>2022-02-24T14:31:39Z</time>
      </trkpt>
      <trkpt lat="46.34481" lon="5.35405">
        <ele>226.2</ele>
        <time>2022-02-24T14:31:40Z</time>
      </trkpt>
      <trkpt lat="46.34489" lon="5.35375">
        <ele>225</ele>
        <time>2022-02-24T14:31:42Z</time>
      </trkpt>
      <trkpt lat="46.34498" lon="5.35347">
        <ele>223.6</ele>
        <time>2022-02-24T14:31:44Z</time>
      </trkpt>
      <trkpt lat="46.34524" lon="5.35286">
        <ele>222.6</ele>
        <time>2022-02-24T14:31:49Z</time>
      </trkpt>
      <trkpt lat="46.34536" lon="5.35265">
        <ele>222.6</ele>
        <time>2022-02-24T14:31:51Z</time>
      </trkpt>
      <trkpt lat="46.34548" lon="5.35249">
        <ele>222.6</ele>
        <time>2022-02-24T14:31:53Z</time>
      </trkpt>
      <trkpt lat="46.34574" lon="5.35227">
        <ele>222.8</ele>
        <time>2022-02-24T14:31:57Z</time>
      </trkpt>
      <trkpt lat="46.34581" lon="5.35222">
        <ele>223</ele>
        <time>2022-02-24T14:31:58Z</time>
      </trkpt>
      <trkpt lat="46.34593" lon="5.35214">
        <ele>223.4</ele>
        <time>2022-02-24T14:32:00Z</time>
      </trkpt>
      <trkpt lat="46.34599" lon="5.3521">
        <ele>223.6</ele>
        <time>2022-02-24T14:32:01Z</time>
      </trkpt>
      <trkpt lat="46.34616" lon="5.35196">
        <ele>224.6</ele>
        <time>2022-02-24T14:32:04Z</time>
      </trkpt>
      <trkpt lat="46.34626" lon="5.35187">
        <ele>225.6</ele>
        <time>2022-02-24T14:32:06Z</time>
      </trkpt>
      <trkpt lat="46.34635" lon="5.35179">
        <ele>226.4</ele>
        <time>2022-02-24T14:32:08Z</time>
      </trkpt>
      <trkpt lat="46.3464" lon="5.35177">
        <ele>226.8</ele>
        <time>2022-02-24T14:32:09Z</time>
      </trkpt>
      <trkpt lat="46.34649" lon="5.35171">
        <ele>228</ele>
        <time>2022-02-24T14:32:11Z</time>
      </trkpt>
      <trkpt lat="46.34659" lon="5.35164">
        <ele>229.4</ele>
        <time>2022-02-24T14:32:13Z</time>
      </trkpt>
      <trkpt lat="46.34664" lon="5.35161">
        <ele>229.6</ele>
        <time>2022-02-24T14:32:14Z</time>
      </trkpt>
      <trkpt lat="46.34677" lon="5.35151">
        <ele>230.4</ele>
        <time>2022-02-24T14:32:17Z</time>
      </trkpt>
      <trkpt lat="46.34695" lon="5.3514">
        <ele>231.6</ele>
        <time>2022-02-24T14:32:21Z</time>
      </trkpt>
      <trkpt lat="46.34706" lon="5.35132">
        <ele>233.2</ele>
        <time>2022-02-24T14:32:24Z</time>
      </trkpt>
      <trkpt lat="46.34721" lon="5.35121">
        <ele>234.2</ele>
        <time>2022-02-24T14:32:28Z</time>
      </trkpt>
      <trkpt lat="46.34725" lon="5.35118">
        <ele>234.8</ele>
        <time>2022-02-24T14:32:29Z</time>
      </trkpt>
      <trkpt lat="46.34744" lon="5.35102">
        <ele>236.2</ele>
        <time>2022-02-24T14:32:35Z</time>
      </trkpt>
      <trkpt lat="46.34751" lon="5.35097">
        <ele>236.6</ele>
        <time>2022-02-24T14:32:37Z</time>
      </trkpt>
      <trkpt lat="46.34758" lon="5.35092">
        <ele>237.2</ele>
        <time>2022-02-24T14:32:39Z</time>
      </trkpt>
      <trkpt lat="46.34775" lon="5.35078">
        <ele>238.6</ele>
        <time>2022-02-24T14:32:44Z</time>
      </trkpt>
      <trkpt lat="46.34782" lon="5.35073">
        <ele>239.2</ele>
        <time>2022-02-24T14:32:46Z</time>
      </trkpt>
      <trkpt lat="46.34789" lon="5.35067">
        <ele>239.6</ele>
        <time>2022-02-24T14:32:48Z</time>
      </trkpt>
      <trkpt lat="46.34807" lon="5.35055">
        <ele>240.6</ele>
        <time>2022-02-24T14:32:53Z</time>
      </trkpt>
      <trkpt lat="46.34811" lon="5.35053">
        <ele>240.8</ele>
        <time>2022-02-24T14:32:54Z</time>
      </trkpt>
      <trkpt lat="46.34826" lon="5.35043">
        <ele>241.8</ele>
        <time>2022-02-24T14:32:58Z</time>
      </trkpt>
      <trkpt lat="46.34849" lon="5.35031">
        <ele>242.8</ele>
        <time>2022-02-24T14:33:04Z</time>
      </trkpt>
      <trkpt lat="46.3486" lon="5.35024">
        <ele>244</ele>
        <time>2022-02-24T14:33:07Z</time>
      </trkpt>
      <trkpt lat="46.34874" lon="5.35017">
        <ele>245</ele>
        <time>2022-02-24T14:33:11Z</time>
      </trkpt>
      <trkpt lat="46.34885" lon="5.35011">
        <ele>245.8</ele>
        <time>2022-02-24T14:33:14Z</time>
      </trkpt>
      <trkpt lat="46.34892" lon="5.35007">
        <ele>246</ele>
        <time>2022-02-24T14:33:16Z</time>
      </trkpt>
      <trkpt lat="46.34906" lon="5.34999">
        <ele>247.2</ele>
        <time>2022-02-24T14:33:20Z</time>
      </trkpt>
      <trkpt lat="46.34921" lon="5.34991">
        <ele>248.2</ele>
        <time>2022-02-24T14:33:24Z</time>
      </trkpt>
      <trkpt lat="46.34933" lon="5.34985">
        <ele>248.8</ele>
        <time>2022-02-24T14:33:27Z</time>
      </trkpt>
      <trkpt lat="46.3494" lon="5.34981">
        <ele>249.2</ele>
        <time>2022-02-24T14:33:29Z</time>
      </trkpt>
      <trkpt lat="46.34963" lon="5.34969">
        <ele>250.6</ele>
        <time>2022-02-24T14:33:35Z</time>
      </trkpt>
      <trkpt lat="46.34971" lon="5.34965">
        <ele>251.2</ele>
        <time>2022-02-24T14:33:37Z</time>
      </trkpt>
      <trkpt lat="46.34983" lon="5.34958">
        <ele>251.8</ele>
        <time>2022-02-24T14:33:40Z</time>
      </trkpt>
      <trkpt lat="46.34999" lon="5.34949">
        <ele>252.8</ele>
        <time>2022-02-24T14:33:44Z</time>
      </trkpt>
      <trkpt lat="46.35003" lon="5.34947">
        <ele>253</ele>
        <time>2022-02-24T14:33:45Z</time>
      </trkpt>
      <trkpt lat="46.35019" lon="5.34938">
        <ele>254</ele>
        <time>2022-02-24T14:33:49Z</time>
      </trkpt>
      <trkpt lat="46.35042" lon="5.34926">
        <ele>255</ele>
        <time>2022-02-24T14:33:54Z</time>
      </trkpt>
      <trkpt lat="46.3505" lon="5.34922">
        <ele>255.4</ele>
        <time>2022-02-24T14:33:56Z</time>
      </trkpt>
      <trkpt lat="46.35073" lon="5.3491">
        <ele>256.2</ele>
        <time>2022-02-24T14:34:01Z</time>
      </trkpt>
      <trkpt lat="46.35086" lon="5.34904">
        <ele>257</ele>
        <time>2022-02-24T14:34:04Z</time>
      </trkpt>
      <trkpt lat="46.35099" lon="5.34897">
        <ele>257.4</ele>
        <time>2022-02-24T14:34:07Z</time>
      </trkpt>
      <trkpt lat="46.35127" lon="5.34888">
        <ele>258.4</ele>
        <time>2022-02-24T14:34:13Z</time>
      </trkpt>
      <trkpt lat="46.35133" lon="5.34886">
        <ele>258.6</ele>
        <time>2022-02-24T14:34:14Z</time>
      </trkpt>
      <trkpt lat="46.35181" lon="5.34873">
        <ele>259.6</ele>
        <time>2022-02-24T14:34:23Z</time>
      </trkpt>
      <trkpt lat="46.35205" lon="5.34866">
        <ele>260.8</ele>
        <time>2022-02-24T14:34:28Z</time>
      </trkpt>
      <trkpt lat="46.3523" lon="5.34859">
        <ele>261.6</ele>
        <time>2022-02-24T14:34:33Z</time>
      </trkpt>
      <trkpt lat="46.3524" lon="5.34856">
        <ele>261.8</ele>
        <time>2022-02-24T14:34:35Z</time>
      </trkpt>
      <trkpt lat="46.35269" lon="5.34849">
        <ele>263.2</ele>
        <time>2022-02-24T14:34:41Z</time>
      </trkpt>
      <trkpt lat="46.35279" lon="5.34846">
        <ele>263.8</ele>
        <time>2022-02-24T14:34:43Z</time>
      </trkpt>
      <trkpt lat="46.35293" lon="5.34842">
        <ele>264.2</ele>
        <time>2022-02-24T14:34:46Z</time>
      </trkpt>
      <trkpt lat="46.35322" lon="5.34833">
        <ele>265</ele>
        <time>2022-02-24T14:34:52Z</time>
      </trkpt>
      <trkpt lat="46.35332" lon="5.34831">
        <ele>265.2</ele>
        <time>2022-02-24T14:34:54Z</time>
      </trkpt>
      <trkpt lat="46.35347" lon="5.34826">
        <ele>266.6</ele>
        <time>2022-02-24T14:34:57Z</time>
      </trkpt>
      <trkpt lat="46.3537" lon="5.34822">
        <ele>267.2</ele>
        <time>2022-02-24T14:35:01Z</time>
      </trkpt>
      <trkpt lat="46.3538" lon="5.3482">
        <ele>267.8</ele>
        <time>2022-02-24T14:35:03Z</time>
      </trkpt>
      <trkpt lat="46.35408" lon="5.34819">
        <ele>268.4</ele>
        <time>2022-02-24T14:35:08Z</time>
      </trkpt>
      <trkpt lat="46.35443" lon="5.34821">
        <ele>269.2</ele>
        <time>2022-02-24T14:35:14Z</time>
      </trkpt>
      <trkpt lat="46.3546" lon="5.34823">
        <ele>269.6</ele>
        <time>2022-02-24T14:35:17Z</time>
      </trkpt>
      <trkpt lat="46.35482" lon="5.34826">
        <ele>270.2</ele>
        <time>2022-02-24T14:35:21Z</time>
      </trkpt>
      <trkpt lat="46.3551" lon="5.34828">
        <ele>270.4</ele>
        <time>2022-02-24T14:35:26Z</time>
      </trkpt>
      <trkpt lat="46.35526" lon="5.34828">
        <ele>271.2</ele>
        <time>2022-02-24T14:35:29Z</time>
      </trkpt>
      <trkpt lat="46.35554" lon="5.34827">
        <ele>272.4</ele>
        <time>2022-02-24T14:35:34Z</time>
      </trkpt>
      <trkpt lat="46.35559" lon="5.34826">
        <ele>272.4</ele>
        <time>2022-02-24T14:35:35Z</time>
      </trkpt>
      <trkpt lat="46.35579" lon="5.34825">
        <ele>273.4</ele>
        <time>2022-02-24T14:35:39Z</time>
      </trkpt>
      <trkpt lat="46.35595" lon="5.34824">
        <ele>274</ele>
        <time>2022-02-24T14:35:42Z</time>
      </trkpt>
      <trkpt lat="46.35604" lon="5.34823">
        <ele>275</ele>
        <time>2022-02-24T14:35:44Z</time>
      </trkpt>
      <trkpt lat="46.35632" lon="5.3482">
        <ele>276.2</ele>
        <time>2022-02-24T14:35:50Z</time>
      </trkpt>
      <trkpt lat="46.35646" lon="5.34816">
        <ele>278</ele>
        <time>2022-02-24T14:35:53Z</time>
      </trkpt>
      <trkpt lat="46.35665" lon="5.34807">
        <ele>279.2</ele>
        <time>2022-02-24T14:35:57Z</time>
      </trkpt>
      <trkpt lat="46.3567" lon="5.34804">
        <ele>279.2</ele>
        <time>2022-02-24T14:35:58Z</time>
      </trkpt>
      <trkpt lat="46.35688" lon="5.3479">
        <ele>280.2</ele>
        <time>2022-02-24T14:36:02Z</time>
      </trkpt>
      <trkpt lat="46.35719" lon="5.34769">
        <ele>281.2</ele>
        <time>2022-02-24T14:36:08Z</time>
      </trkpt>
      <trkpt lat="46.35764" lon="5.34738">
        <ele>281.2</ele>
        <time>2022-02-24T14:36:15Z</time>
      </trkpt>
      <trkpt lat="46.35812" lon="5.34705">
        <ele>280.6</ele>
        <time>2022-02-24T14:36:22Z</time>
      </trkpt>
      <trkpt lat="46.35867" lon="5.34667">
        <ele>279.8</ele>
        <time>2022-02-24T14:36:30Z</time>
      </trkpt>
      <trkpt lat="46.35878" lon="5.34659">
        <ele>280.4</ele>
        <time>2022-02-24T14:36:32Z</time>
      </trkpt>
      <trkpt lat="46.35922" lon="5.34631">
        <ele>281.4</ele>
        <time>2022-02-24T14:36:39Z</time>
      </trkpt>
      <trkpt lat="46.35928" lon="5.34627">
        <ele>281.6</ele>
        <time>2022-02-24T14:36:40Z</time>
      </trkpt>
      <trkpt lat="46.35978" lon="5.34592">
        <ele>282.4</ele>
        <time>2022-02-24T14:36:48Z</time>
      </trkpt>
      <trkpt lat="46.36028" lon="5.34559">
        <ele>283.2</ele>
        <time>2022-02-24T14:36:55Z</time>
      </trkpt>
      <trkpt lat="46.36054" lon="5.34551">
        <ele>282.4</ele>
        <time>2022-02-24T14:36:58Z</time>
      </trkpt>
      <trkpt lat="46.36072" lon="5.3455">
        <ele>281.6</ele>
        <time>2022-02-24T14:37:00Z</time>
      </trkpt>
      <trkpt lat="46.36081" lon="5.3455">
        <ele>280.6</ele>
        <time>2022-02-24T14:37:01Z</time>
      </trkpt>
      <trkpt lat="46.36101" lon="5.34548">
        <ele>279.4</ele>
        <time>2022-02-24T14:37:03Z</time>
      </trkpt>
      <trkpt lat="46.36121" lon="5.34544">
        <ele>278.2</ele>
        <time>2022-02-24T14:37:05Z</time>
      </trkpt>
      <trkpt lat="46.36153" lon="5.34539">
        <ele>276.8</ele>
        <time>2022-02-24T14:37:08Z</time>
      </trkpt>
      <trkpt lat="46.36164" lon="5.3454">
        <ele>276.6</ele>
        <time>2022-02-24T14:37:09Z</time>
      </trkpt>
      <trkpt lat="46.36186" lon="5.34547">
        <ele>275.8</ele>
        <time>2022-02-24T14:37:11Z</time>
      </trkpt>
      <trkpt lat="46.36197" lon="5.34552">
        <ele>275.4</ele>
        <time>2022-02-24T14:37:12Z</time>
      </trkpt>
      <trkpt lat="46.36208" lon="5.34559">
        <ele>274.6</ele>
        <time>2022-02-24T14:37:13Z</time>
      </trkpt>
      <trkpt lat="46.36216" lon="5.34569">
        <ele>273.8</ele>
        <time>2022-02-24T14:37:14Z</time>
      </trkpt>
      <trkpt lat="46.3622" lon="5.34581">
        <ele>272.8</ele>
        <time>2022-02-24T14:37:15Z</time>
      </trkpt>
      <trkpt lat="46.36222" lon="5.34595">
        <ele>272.2</ele>
        <time>2022-02-24T14:37:16Z</time>
      </trkpt>
      <trkpt lat="46.3622" lon="5.3461">
        <ele>270.8</ele>
        <time>2022-02-24T14:37:17Z</time>
      </trkpt>
      <trkpt lat="46.36215" lon="5.34625">
        <ele>270</ele>
        <time>2022-02-24T14:37:18Z</time>
      </trkpt>
      <trkpt lat="46.36209" lon="5.34638">
        <ele>268.8</ele>
        <time>2022-02-24T14:37:19Z</time>
      </trkpt>
      <trkpt lat="46.36192" lon="5.34661">
        <ele>267.8</ele>
        <time>2022-02-24T14:37:21Z</time>
      </trkpt>
      <trkpt lat="46.36185" lon="5.34674">
        <ele>266.8</ele>
        <time>2022-02-24T14:37:22Z</time>
      </trkpt>
      <trkpt lat="46.3618" lon="5.34689">
        <ele>266.4</ele>
        <time>2022-02-24T14:37:23Z</time>
      </trkpt>
      <trkpt lat="46.36177" lon="5.34702">
        <ele>265.2</ele>
        <time>2022-02-24T14:37:24Z</time>
      </trkpt>
      <trkpt lat="46.36176" lon="5.34714">
        <ele>264</ele>
        <time>2022-02-24T14:37:25Z</time>
      </trkpt>
      <trkpt lat="46.36178" lon="5.34728">
        <ele>263</ele>
        <time>2022-02-24T14:37:26Z</time>
      </trkpt>
      <trkpt lat="46.36193" lon="5.34739">
        <ele>262.2</ele>
        <time>2022-02-24T14:37:28Z</time>
      </trkpt>
      <trkpt lat="46.36202" lon="5.34741">
        <ele>261.8</ele>
        <time>2022-02-24T14:37:29Z</time>
      </trkpt>
      <trkpt lat="46.36213" lon="5.34741">
        <ele>261.6</ele>
        <time>2022-02-24T14:37:30Z</time>
      </trkpt>
      <trkpt lat="46.36226" lon="5.34738">
        <ele>261</ele>
        <time>2022-02-24T14:37:31Z</time>
      </trkpt>
      <trkpt lat="46.36245" lon="5.34731">
        <ele>260.8</ele>
        <time>2022-02-24T14:37:33Z</time>
      </trkpt>
      <trkpt lat="46.36277" lon="5.34721">
        <ele>259</ele>
        <time>2022-02-24T14:37:36Z</time>
      </trkpt>
      <trkpt lat="46.36309" lon="5.34724">
        <ele>258</ele>
        <time>2022-02-24T14:37:39Z</time>
      </trkpt>
      <trkpt lat="46.36333" lon="5.34729">
        <ele>256.8</ele>
        <time>2022-02-24T14:37:41Z</time>
      </trkpt>
      <trkpt lat="46.36345" lon="5.34731">
        <ele>255.6</ele>
        <time>2022-02-24T14:37:42Z</time>
      </trkpt>
      <trkpt lat="46.36365" lon="5.34734">
        <ele>255</ele>
        <time>2022-02-24T14:37:44Z</time>
      </trkpt>
      <trkpt lat="46.36379" lon="5.34735">
        <ele>254.4</ele>
        <time>2022-02-24T14:37:45Z</time>
      </trkpt>
      <trkpt lat="46.36401" lon="5.34736">
        <ele>253</ele>
        <time>2022-02-24T14:37:47Z</time>
      </trkpt>
      <trkpt lat="46.3642" lon="5.34739">
        <ele>251.4</ele>
        <time>2022-02-24T14:37:49Z</time>
      </trkpt>
      <trkpt lat="46.36431" lon="5.34741">
        <ele>251</ele>
        <time>2022-02-24T14:37:50Z</time>
      </trkpt>
      <trkpt lat="46.36443" lon="5.34742">
        <ele>250</ele>
        <time>2022-02-24T14:37:51Z</time>
      </trkpt>
      <trkpt lat="46.36473" lon="5.3474">
        <ele>248.6</ele>
        <time>2022-02-24T14:37:54Z</time>
      </trkpt>
      <trkpt lat="46.36483" lon="5.34737">
        <ele>248.4</ele>
        <time>2022-02-24T14:37:55Z</time>
      </trkpt>
      <trkpt lat="46.3651" lon="5.34726">
        <ele>248.4</ele>
        <time>2022-02-24T14:37:58Z</time>
      </trkpt>
      <trkpt lat="46.36545" lon="5.34703">
        <ele>249.6</ele>
        <time>2022-02-24T14:38:03Z</time>
      </trkpt>
      <trkpt lat="46.36551" lon="5.34697">
        <ele>250</ele>
        <time>2022-02-24T14:38:04Z</time>
      </trkpt>
      <trkpt lat="46.36563" lon="5.34681">
        <ele>250.8</ele>
        <time>2022-02-24T14:38:06Z</time>
      </trkpt>
      <trkpt lat="46.36569" lon="5.34673">
        <ele>251.4</ele>
        <time>2022-02-24T14:38:07Z</time>
      </trkpt>
      <trkpt lat="46.36586" lon="5.34649">
        <ele>252</ele>
        <time>2022-02-24T14:38:10Z</time>
      </trkpt>
      <trkpt lat="46.36599" lon="5.34639">
        <ele>252.2</ele>
        <time>2022-02-24T14:38:12Z</time>
      </trkpt>
      <trkpt lat="46.36628" lon="5.34627">
        <ele>253</ele>
        <time>2022-02-24T14:38:16Z</time>
      </trkpt>
      <trkpt lat="46.36635" lon="5.34626">
        <ele>253</ele>
        <time>2022-02-24T14:38:17Z</time>
      </trkpt>
      <trkpt lat="46.36691" lon="5.34622">
        <ele>254</ele>
        <time>2022-02-24T14:38:25Z</time>
      </trkpt>
      <trkpt lat="46.36698" lon="5.34621">
        <ele>254</ele>
        <time>2022-02-24T14:38:26Z</time>
      </trkpt>
      <trkpt lat="46.36705" lon="5.34621">
        <ele>254.2</ele>
        <time>2022-02-24T14:38:27Z</time>
      </trkpt>
      <trkpt lat="46.36731" lon="5.34619">
        <ele>255.2</ele>
        <time>2022-02-24T14:38:31Z</time>
      </trkpt>
      <trkpt lat="46.36756" lon="5.34613">
        <ele>255.6</ele>
        <time>2022-02-24T14:38:35Z</time>
      </trkpt>
      <trkpt lat="46.36777" lon="5.34604">
        <ele>256.2</ele>
        <time>2022-02-24T14:38:39Z</time>
      </trkpt>
      <trkpt lat="46.36792" lon="5.34595">
        <ele>257</ele>
        <time>2022-02-24T14:38:42Z</time>
      </trkpt>
      <trkpt lat="46.36803" lon="5.34589">
        <ele>257.2</ele>
        <time>2022-02-24T14:38:44Z</time>
      </trkpt>
      <trkpt lat="46.36838" lon="5.34569">
        <ele>258.2</ele>
        <time>2022-02-24T14:38:51Z</time>
      </trkpt>
      <trkpt lat="46.36843" lon="5.34567">
        <ele>258.4</ele>
        <time>2022-02-24T14:38:52Z</time>
      </trkpt>
      <trkpt lat="46.36862" lon="5.34555">
        <ele>259.4</ele>
        <time>2022-02-24T14:38:56Z</time>
      </trkpt>
      <trkpt lat="46.36884" lon="5.34543">
        <ele>259.8</ele>
        <time>2022-02-24T14:39:00Z</time>
      </trkpt>
      <trkpt lat="46.36918" lon="5.34527">
        <ele>260.4</ele>
        <time>2022-02-24T14:39:06Z</time>
      </trkpt>
      <trkpt lat="46.36941" lon="5.34516">
        <ele>260.6</ele>
        <time>2022-02-24T14:39:10Z</time>
      </trkpt>
      <trkpt lat="46.36989" lon="5.3449">
        <ele>261.4</ele>
        <time>2022-02-24T14:39:19Z</time>
      </trkpt>
      <trkpt lat="46.37019" lon="5.34469">
        <ele>262.6</ele>
        <time>2022-02-24T14:39:25Z</time>
      </trkpt>
      <trkpt lat="46.37031" lon="5.34464">
        <ele>263</ele>
        <time>2022-02-24T14:39:27Z</time>
      </trkpt>
      <trkpt lat="46.3707" lon="5.34454">
        <ele>263</ele>
        <time>2022-02-24T14:39:33Z</time>
      </trkpt>
      <trkpt lat="46.37106" lon="5.3445">
        <ele>262.4</ele>
        <time>2022-02-24T14:39:38Z</time>
      </trkpt>
      <trkpt lat="46.37138" lon="5.34451">
        <ele>261</ele>
        <time>2022-02-24T14:39:42Z</time>
      </trkpt>
      <trkpt lat="46.37147" lon="5.34453">
        <ele>260.8</ele>
        <time>2022-02-24T14:39:43Z</time>
      </trkpt>
      <trkpt lat="46.37165" lon="5.3446">
        <ele>260.4</ele>
        <time>2022-02-24T14:39:45Z</time>
      </trkpt>
      <trkpt lat="46.37181" lon="5.34468">
        <ele>260</ele>
        <time>2022-02-24T14:39:47Z</time>
      </trkpt>
      <trkpt lat="46.37187" lon="5.34471">
        <ele>259.8</ele>
        <time>2022-02-24T14:39:48Z</time>
      </trkpt>
      <trkpt lat="46.37244" lon="5.34494">
        <ele>259.6</ele>
        <time>2022-02-24T14:39:55Z</time>
      </trkpt>
      <trkpt lat="46.37275" lon="5.34487">
        <ele>260.2</ele>
        <time>2022-02-24T14:39:59Z</time>
      </trkpt>
      <trkpt lat="46.37305" lon="5.34474">
        <ele>261.2</ele>
        <time>2022-02-24T14:40:04Z</time>
      </trkpt>
      <trkpt lat="46.37316" lon="5.3447">
        <ele>261.6</ele>
        <time>2022-02-24T14:40:06Z</time>
      </trkpt>
      <trkpt lat="46.3733" lon="5.34463">
        <ele>262.8</ele>
        <time>2022-02-24T14:40:09Z</time>
      </trkpt>
      <trkpt lat="46.37339" lon="5.34458">
        <ele>263.4</ele>
        <time>2022-02-24T14:40:11Z</time>
      </trkpt>
      <trkpt lat="46.37345" lon="5.34452">
        <ele>264.2</ele>
        <time>2022-02-24T14:40:13Z</time>
      </trkpt>
      <trkpt lat="46.37352" lon="5.34445">
        <ele>265</ele>
        <time>2022-02-24T14:40:15Z</time>
      </trkpt>
      <trkpt lat="46.37356" lon="5.34442">
        <ele>265.2</ele>
        <time>2022-02-24T14:40:16Z</time>
      </trkpt>
      <trkpt lat="46.3736" lon="5.34439">
        <ele>265.4</ele>
        <time>2022-02-24T14:40:17Z</time>
      </trkpt>
      <trkpt lat="46.37372" lon="5.34434">
        <ele>266.2</ele>
        <time>2022-02-24T14:40:20Z</time>
      </trkpt>
      <trkpt lat="46.37376" lon="5.34433">
        <ele>266.6</ele>
        <time>2022-02-24T14:40:21Z</time>
      </trkpt>
      <trkpt lat="46.3738" lon="5.34432">
        <ele>267</ele>
        <time>2022-02-24T14:40:22Z</time>
      </trkpt>
      <trkpt lat="46.37388" lon="5.34433">
        <ele>267.4</ele>
        <time>2022-02-24T14:40:24Z</time>
      </trkpt>
      <trkpt lat="46.37401" lon="5.34439">
        <ele>268</ele>
        <time>2022-02-24T14:40:27Z</time>
      </trkpt>
      <trkpt lat="46.37416" lon="5.34447">
        <ele>269.2</ele>
        <time>2022-02-24T14:40:31Z</time>
      </trkpt>
      <trkpt lat="46.37435" lon="5.34456">
        <ele>270.4</ele>
        <time>2022-02-24T14:40:36Z</time>
      </trkpt>
      <trkpt lat="46.37454" lon="5.34465">
        <ele>271.6</ele>
        <time>2022-02-24T14:40:41Z</time>
      </trkpt>
      <trkpt lat="46.37472" lon="5.3447">
        <ele>272.6</ele>
        <time>2022-02-24T14:40:45Z</time>
      </trkpt>
      <trkpt lat="46.37476" lon="5.34471">
        <ele>272.8</ele>
        <time>2022-02-24T14:40:46Z</time>
      </trkpt>
      <trkpt lat="46.37512" lon="5.34481">
        <ele>273.4</ele>
        <time>2022-02-24T14:40:54Z</time>
      </trkpt>
      <trkpt lat="46.37525" lon="5.34484">
        <ele>273.8</ele>
        <time>2022-02-24T14:40:57Z</time>
      </trkpt>
      <trkpt lat="46.37553" lon="5.3449">
        <ele>274.4</ele>
        <time>2022-02-24T14:41:03Z</time>
      </trkpt>
      <trkpt lat="46.37567" lon="5.34493">
        <ele>275.2</ele>
        <time>2022-02-24T14:41:06Z</time>
      </trkpt>
      <trkpt lat="46.376" lon="5.34502">
        <ele>275.6</ele>
        <time>2022-02-24T14:41:13Z</time>
      </trkpt>
      <trkpt lat="46.37628" lon="5.34511">
        <ele>276.2</ele>
        <time>2022-02-24T14:41:19Z</time>
      </trkpt>
      <trkpt lat="46.37639" lon="5.34515">
        <ele>276.6</ele>
        <time>2022-02-24T14:41:21Z</time>
      </trkpt>
      <trkpt lat="46.37647" lon="5.34519">
        <ele>277.4</ele>
        <time>2022-02-24T14:41:23Z</time>
      </trkpt>
      <trkpt lat="46.37673" lon="5.34531">
        <ele>278.4</ele>
        <time>2022-02-24T14:41:29Z</time>
      </trkpt>
      <trkpt lat="46.377" lon="5.34541">
        <ele>279.6</ele>
        <time>2022-02-24T14:41:36Z</time>
      </trkpt>
      <trkpt lat="46.37708" lon="5.34543">
        <ele>280.2</ele>
        <time>2022-02-24T14:41:38Z</time>
      </trkpt>
      <trkpt lat="46.37719" lon="5.34546">
        <ele>280.6</ele>
        <time>2022-02-24T14:41:41Z</time>
      </trkpt>
      <trkpt lat="46.37735" lon="5.34548">
        <ele>281.8</ele>
        <time>2022-02-24T14:41:45Z</time>
      </trkpt>
      <trkpt lat="46.37742" lon="5.34549">
        <ele>282.4</ele>
        <time>2022-02-24T14:41:47Z</time>
      </trkpt>
      <trkpt lat="46.3775" lon="5.3455">
        <ele>282.8</ele>
        <time>2022-02-24T14:41:49Z</time>
      </trkpt>
      <trkpt lat="46.37771" lon="5.34553">
        <ele>284</ele>
        <time>2022-02-24T14:41:54Z</time>
      </trkpt>
      <trkpt lat="46.37791" lon="5.34555">
        <ele>285.4</ele>
        <time>2022-02-24T14:41:59Z</time>
      </trkpt>
      <trkpt lat="46.37811" lon="5.34557">
        <ele>286.4</ele>
        <time>2022-02-24T14:42:04Z</time>
      </trkpt>
      <trkpt lat="46.37817" lon="5.34557">
        <ele>286.8</ele>
        <time>2022-02-24T14:42:06Z</time>
      </trkpt>
      <trkpt lat="46.37828" lon="5.34558">
        <ele>287.4</ele>
        <time>2022-02-24T14:42:09Z</time>
      </trkpt>
      <trkpt lat="46.37843" lon="5.34559">
        <ele>288.6</ele>
        <time>2022-02-24T14:42:13Z</time>
      </trkpt>
      <trkpt lat="46.3785" lon="5.34559">
        <ele>288.8</ele>
        <time>2022-02-24T14:42:15Z</time>
      </trkpt>
      <trkpt lat="46.37858" lon="5.34559">
        <ele>289.6</ele>
        <time>2022-02-24T14:42:17Z</time>
      </trkpt>
      <trkpt lat="46.37868" lon="5.34559">
        <ele>290.6</ele>
        <time>2022-02-24T14:42:20Z</time>
      </trkpt>
      <trkpt lat="46.37885" lon="5.34558">
        <ele>291.8</ele>
        <time>2022-02-24T14:42:24Z</time>
      </trkpt>
      <trkpt lat="46.37889" lon="5.34558">
        <ele>291.8</ele>
        <time>2022-02-24T14:42:25Z</time>
      </trkpt>
      <trkpt lat="46.37906" lon="5.34558">
        <ele>292.8</ele>
        <time>2022-02-24T14:42:29Z</time>
      </trkpt>
      <trkpt lat="46.37929" lon="5.34558">
        <ele>294</ele>
        <time>2022-02-24T14:42:34Z</time>
      </trkpt>
      <trkpt lat="46.37939" lon="5.34557">
        <ele>294.6</ele>
        <time>2022-02-24T14:42:36Z</time>
      </trkpt>
      <trkpt lat="46.37951" lon="5.34557">
        <ele>295</ele>
        <time>2022-02-24T14:42:39Z</time>
      </trkpt>
      <trkpt lat="46.37966" lon="5.34558">
        <ele>295.6</ele>
        <time>2022-02-24T14:42:42Z</time>
      </trkpt>
      <trkpt lat="46.3798" lon="5.34564">
        <ele>296</ele>
        <time>2022-02-24T14:42:45Z</time>
      </trkpt>
      <trkpt lat="46.37984" lon="5.34565">
        <ele>296</ele>
        <time>2022-02-24T14:42:46Z</time>
      </trkpt>
      <trkpt lat="46.38003" lon="5.34571">
        <ele>296.6</ele>
        <time>2022-02-24T14:42:50Z</time>
      </trkpt>
      <trkpt lat="46.38014" lon="5.34572">
        <ele>296.8</ele>
        <time>2022-02-24T14:42:52Z</time>
      </trkpt>
      <trkpt lat="46.38019" lon="5.34571">
        <ele>296.8</ele>
        <time>2022-02-24T14:42:53Z</time>
      </trkpt>
      <trkpt lat="46.38042" lon="5.34565">
        <ele>296.8</ele>
        <time>2022-02-24T14:42:57Z</time>
      </trkpt>
      <trkpt lat="46.38071" lon="5.34557">
        <ele>296.6</ele>
        <time>2022-02-24T14:43:02Z</time>
      </trkpt>
      <trkpt lat="46.38077" lon="5.34558">
        <ele>296.4</ele>
        <time>2022-02-24T14:43:03Z</time>
      </trkpt>
      <trkpt lat="46.38081" lon="5.3456">
        <ele>296.4</ele>
        <time>2022-02-24T14:43:04Z</time>
      </trkpt>
      <trkpt lat="46.3809" lon="5.34575">
        <ele>296.2</ele>
        <time>2022-02-24T14:43:06Z</time>
      </trkpt>
      <trkpt lat="46.38107" lon="5.34622">
        <ele>296.2</ele>
        <time>2022-02-24T14:43:12Z</time>
      </trkpt>
      <trkpt lat="46.3812" lon="5.34672">
        <ele>297</ele>
        <time>2022-02-24T14:43:18Z</time>
      </trkpt>
      <trkpt lat="46.38123" lon="5.34682">
        <ele>297.2</ele>
        <time>2022-02-24T14:43:19Z</time>
      </trkpt>
      <trkpt lat="46.38132" lon="5.34713">
        <ele>297.6</ele>
        <time>2022-02-24T14:43:23Z</time>
      </trkpt>
      <trkpt lat="46.38135" lon="5.3472">
        <ele>297.8</ele>
        <time>2022-02-24T14:43:24Z</time>
      </trkpt>
      <trkpt lat="46.38142" lon="5.34728">
        <ele>298.2</ele>
        <time>2022-02-24T14:43:26Z</time>
      </trkpt>
      <trkpt lat="46.38146" lon="5.34729">
        <ele>298.2</ele>
        <time>2022-02-24T14:43:27Z</time>
      </trkpt>
      <trkpt lat="46.3815" lon="5.34727">
        <ele>298.6</ele>
        <time>2022-02-24T14:43:28Z</time>
      </trkpt>
      <trkpt lat="46.3818" lon="5.34716">
        <ele>299.2</ele>
        <time>2022-02-24T14:43:33Z</time>
      </trkpt>
      <trkpt lat="46.38186" lon="5.34714">
        <ele>299.2</ele>
        <time>2022-02-24T14:43:34Z</time>
      </trkpt>
      <trkpt lat="46.38222" lon="5.34702">
        <ele>299.8</ele>
        <time>2022-02-24T14:43:40Z</time>
      </trkpt>
      <trkpt lat="46.38269" lon="5.34688">
        <ele>300</ele>
        <time>2022-02-24T14:43:47Z</time>
      </trkpt>
      <trkpt lat="46.38295" lon="5.3468">
        <ele>300.2</ele>
        <time>2022-02-24T14:43:51Z</time>
      </trkpt>
      <trkpt lat="46.38315" lon="5.34672">
        <ele>300.2</ele>
        <time>2022-02-24T14:43:55Z</time>
      </trkpt>
      <trkpt lat="46.38326" lon="5.34662">
        <ele>299.8</ele>
        <time>2022-02-24T14:43:57Z</time>
      </trkpt>
      <trkpt lat="46.3833" lon="5.34656">
        <ele>299.8</ele>
        <time>2022-02-24T14:43:58Z</time>
      </trkpt>
      <trkpt lat="46.38333" lon="5.34652">
        <ele>299.8</ele>
        <time>2022-02-24T14:43:59Z</time>
      </trkpt>
      <trkpt lat="46.38345" lon="5.34649">
        <ele>299.8</ele>
        <time>2022-02-24T14:44:01Z</time>
      </trkpt>
      <trkpt lat="46.38356" lon="5.34657">
        <ele>299.8</ele>
        <time>2022-02-24T14:44:03Z</time>
      </trkpt>
      <trkpt lat="46.3836" lon="5.34663">
        <ele>299.8</ele>
        <time>2022-02-24T14:44:04Z</time>
      </trkpt>
      <trkpt lat="46.38364" lon="5.34667">
        <ele>299.8</ele>
        <time>2022-02-24T14:44:05Z</time>
      </trkpt>
      <trkpt lat="46.38375" lon="5.34671">
        <ele>299.8</ele>
        <time>2022-02-24T14:44:07Z</time>
      </trkpt>
      <trkpt lat="46.38384" lon="5.34671">
        <ele>299.8</ele>
        <time>2022-02-24T14:44:09Z</time>
      </trkpt>
      <trkpt lat="46.38389" lon="5.34667">
        <ele>299.6</ele>
        <time>2022-02-24T14:44:10Z</time>
      </trkpt>
      <trkpt lat="46.38395" lon="5.3466">
        <ele>299.4</ele>
        <time>2022-02-24T14:44:11Z</time>
      </trkpt>
      <trkpt lat="46.38405" lon="5.34648">
        <ele>299.4</ele>
        <time>2022-02-24T14:44:13Z</time>
      </trkpt>
      <trkpt lat="46.3841" lon="5.34636">
        <ele>299.4</ele>
        <time>2022-02-24T14:44:14Z</time>
      </trkpt>
      <trkpt lat="46.38416" lon="5.34616">
        <ele>298.8</ele>
        <time>2022-02-24T14:44:16Z</time>
      </trkpt>
      <trkpt lat="46.3842" lon="5.34601">
        <ele>297.4</ele>
        <time>2022-02-24T14:44:18Z</time>
      </trkpt>
      <trkpt lat="46.38425" lon="5.3459">
        <ele>296.4</ele>
        <time>2022-02-24T14:44:20Z</time>
      </trkpt>
      <trkpt lat="46.38427" lon="5.34587">
        <ele>295.4</ele>
        <time>2022-02-24T14:44:21Z</time>
      </trkpt>
      <trkpt lat="46.3843" lon="5.34586">
        <ele>293.8</ele>
        <time>2022-02-24T14:44:23Z</time>
      </trkpt>
      <trkpt lat="46.3843" lon="5.34586">
        <ele>293.4</ele>
        <time>2022-02-24T14:44:24Z</time>
      </trkpt>
      <trkpt lat="46.3843" lon="5.34586">
        <ele>293</ele>
        <time>2022-02-24T14:44:25Z</time>
      </trkpt>
      <trkpt lat="46.38435" lon="5.34584">
        <ele>291.8</ele>
        <time>2022-02-24T14:44:40Z</time>
      </trkpt>
      <trkpt lat="46.38444" lon="5.34583">
        <ele>291.6</ele>
        <time>2022-02-24T14:44:42Z</time>
      </trkpt>
      <trkpt lat="46.38454" lon="5.34581">
        <ele>291.6</ele>
        <time>2022-02-24T14:44:44Z</time>
      </trkpt>
      <trkpt lat="46.38464" lon="5.34581">
        <ele>291.4</ele>
        <time>2022-02-24T14:44:46Z</time>
      </trkpt>
      <trkpt lat="46.38473" lon="5.34582">
        <ele>290.6</ele>
        <time>2022-02-24T14:44:48Z</time>
      </trkpt>
      <trkpt lat="46.38484" lon="5.34583">
        <ele>290</ele>
        <time>2022-02-24T14:44:51Z</time>
      </trkpt>
      <trkpt lat="46.38492" lon="5.34578">
        <ele>289.8</ele>
        <time>2022-02-24T14:44:53Z</time>
      </trkpt>
      <trkpt lat="46.38493" lon="5.34574">
        <ele>289.8</ele>
        <time>2022-02-24T14:44:54Z</time>
      </trkpt>
      <trkpt lat="46.38492" lon="5.34568">
        <ele>289.8</ele>
        <time>2022-02-24T14:44:55Z</time>
      </trkpt>
      <trkpt lat="46.3849" lon="5.3456">
        <ele>289.6</ele>
        <time>2022-02-24T14:44:56Z</time>
      </trkpt>
      <trkpt lat="46.38486" lon="5.34549">
        <ele>289.6</ele>
        <time>2022-02-24T14:44:57Z</time>
      </trkpt>
      <trkpt lat="46.38475" lon="5.34521">
        <ele>288.4</ele>
        <time>2022-02-24T14:45:00Z</time>
      </trkpt>
      <trkpt lat="46.38461" lon="5.34485">
        <ele>287.4</ele>
        <time>2022-02-24T14:45:03Z</time>
      </trkpt>
      <trkpt lat="46.38457" lon="5.34472">
        <ele>286.4</ele>
        <time>2022-02-24T14:45:04Z</time>
      </trkpt>
      <trkpt lat="46.3845" lon="5.34446">
        <ele>285.4</ele>
        <time>2022-02-24T14:45:06Z</time>
      </trkpt>
      <trkpt lat="46.3845" lon="5.34416">
        <ele>284.2</ele>
        <time>2022-02-24T14:45:08Z</time>
      </trkpt>
      <trkpt lat="46.38458" lon="5.34391">
        <ele>283.2</ele>
        <time>2022-02-24T14:45:10Z</time>
      </trkpt>
      <trkpt lat="46.38468" lon="5.34379">
        <ele>282.6</ele>
        <time>2022-02-24T14:45:11Z</time>
      </trkpt>
      <trkpt lat="46.38476" lon="5.34373">
        <ele>282.2</ele>
        <time>2022-02-24T14:45:12Z</time>
      </trkpt>
      <trkpt lat="46.38486" lon="5.34368">
        <ele>281.6</ele>
        <time>2022-02-24T14:45:13Z</time>
      </trkpt>
      <trkpt lat="46.38497" lon="5.34362">
        <ele>280.6</ele>
        <time>2022-02-24T14:45:14Z</time>
      </trkpt>
      <trkpt lat="46.38518" lon="5.34349">
        <ele>279.4</ele>
        <time>2022-02-24T14:45:16Z</time>
      </trkpt>
      <trkpt lat="46.38543" lon="5.34335">
        <ele>278</ele>
        <time>2022-02-24T14:45:18Z</time>
      </trkpt>
      <trkpt lat="46.38552" lon="5.34329">
        <ele>277.4</ele>
        <time>2022-02-24T14:45:19Z</time>
      </trkpt>
      <trkpt lat="46.38566" lon="5.34322">
        <ele>276.6</ele>
        <time>2022-02-24T14:45:20Z</time>
      </trkpt>
      <trkpt lat="46.38577" lon="5.34315">
        <ele>275.4</ele>
        <time>2022-02-24T14:45:21Z</time>
      </trkpt>
      <trkpt lat="46.38601" lon="5.34301">
        <ele>273.6</ele>
        <time>2022-02-24T14:45:23Z</time>
      </trkpt>
      <trkpt lat="46.38625" lon="5.34287">
        <ele>272.2</ele>
        <time>2022-02-24T14:45:25Z</time>
      </trkpt>
      <trkpt lat="46.3865" lon="5.34273">
        <ele>270</ele>
        <time>2022-02-24T14:45:27Z</time>
      </trkpt>
      <trkpt lat="46.3866" lon="5.34268">
        <ele>268.6</ele>
        <time>2022-02-24T14:45:28Z</time>
      </trkpt>
      <trkpt lat="46.38673" lon="5.34261">
        <ele>268.2</ele>
        <time>2022-02-24T14:45:29Z</time>
      </trkpt>
      <trkpt lat="46.38688" lon="5.34253">
        <ele>267</ele>
        <time>2022-02-24T14:45:30Z</time>
      </trkpt>
      <trkpt lat="46.387" lon="5.34245">
        <ele>266</ele>
        <time>2022-02-24T14:45:31Z</time>
      </trkpt>
      <trkpt lat="46.38711" lon="5.34235">
        <ele>264.6</ele>
        <time>2022-02-24T14:45:32Z</time>
      </trkpt>
      <trkpt lat="46.3872" lon="5.34225">
        <ele>264.2</ele>
        <time>2022-02-24T14:45:33Z</time>
      </trkpt>
      <trkpt lat="46.38731" lon="5.34208">
        <ele>262.6</ele>
        <time>2022-02-24T14:45:34Z</time>
      </trkpt>
      <trkpt lat="46.38739" lon="5.34191">
        <ele>262.4</ele>
        <time>2022-02-24T14:45:35Z</time>
      </trkpt>
      <trkpt lat="46.38745" lon="5.34174">
        <ele>261.6</ele>
        <time>2022-02-24T14:45:36Z</time>
      </trkpt>
      <trkpt lat="46.38751" lon="5.34156">
        <ele>260.4</ele>
        <time>2022-02-24T14:45:37Z</time>
      </trkpt>
      <trkpt lat="46.38756" lon="5.34143">
        <ele>259.8</ele>
        <time>2022-02-24T14:45:38Z</time>
      </trkpt>
      <trkpt lat="46.38765" lon="5.34124">
        <ele>258.8</ele>
        <time>2022-02-24T14:45:39Z</time>
      </trkpt>
      <trkpt lat="46.38781" lon="5.34094">
        <ele>257.2</ele>
        <time>2022-02-24T14:45:41Z</time>
      </trkpt>
      <trkpt lat="46.38796" lon="5.34068">
        <ele>255.2</ele>
        <time>2022-02-24T14:45:43Z</time>
      </trkpt>
      <trkpt lat="46.38804" lon="5.34053">
        <ele>254.2</ele>
        <time>2022-02-24T14:45:44Z</time>
      </trkpt>
      <trkpt lat="46.38821" lon="5.34021">
        <ele>252.6</ele>
        <time>2022-02-24T14:45:46Z</time>
      </trkpt>
      <trkpt lat="46.38835" lon="5.33995">
        <ele>251.4</ele>
        <time>2022-02-24T14:45:48Z</time>
      </trkpt>
      <trkpt lat="46.38851" lon="5.33962">
        <ele>250.2</ele>
        <time>2022-02-24T14:45:50Z</time>
      </trkpt>
      <trkpt lat="46.38872" lon="5.33921">
        <ele>248.8</ele>
        <time>2022-02-24T14:45:53Z</time>
      </trkpt>
      <trkpt lat="46.3889" lon="5.33888">
        <ele>247.8</ele>
        <time>2022-02-24T14:45:55Z</time>
      </trkpt>
      <trkpt lat="46.38905" lon="5.33863">
        <ele>246</ele>
        <time>2022-02-24T14:45:57Z</time>
      </trkpt>
      <trkpt lat="46.38915" lon="5.33847">
        <ele>245.2</ele>
        <time>2022-02-24T14:45:58Z</time>
      </trkpt>
      <trkpt lat="46.38922" lon="5.33837">
        <ele>244.2</ele>
        <time>2022-02-24T14:45:59Z</time>
      </trkpt>
      <trkpt lat="46.38939" lon="5.3381">
        <ele>242.8</ele>
        <time>2022-02-24T14:46:01Z</time>
      </trkpt>
      <trkpt lat="46.38947" lon="5.33797">
        <ele>241.8</ele>
        <time>2022-02-24T14:46:02Z</time>
      </trkpt>
      <trkpt lat="46.38972" lon="5.33751">
        <ele>240.6</ele>
        <time>2022-02-24T14:46:05Z</time>
      </trkpt>
      <trkpt lat="46.38985" lon="5.33721">
        <ele>239.4</ele>
        <time>2022-02-24T14:46:07Z</time>
      </trkpt>
      <trkpt lat="46.38998" lon="5.33693">
        <ele>238</ele>
        <time>2022-02-24T14:46:09Z</time>
      </trkpt>
      <trkpt lat="46.39013" lon="5.33664">
        <ele>237</ele>
        <time>2022-02-24T14:46:11Z</time>
      </trkpt>
      <trkpt lat="46.39023" lon="5.33647">
        <ele>236.6</ele>
        <time>2022-02-24T14:46:12Z</time>
      </trkpt>
      <trkpt lat="46.39032" lon="5.33633">
        <ele>236</ele>
        <time>2022-02-24T14:46:13Z</time>
      </trkpt>
      <trkpt lat="46.39056" lon="5.33598">
        <ele>234.6</ele>
        <time>2022-02-24T14:46:16Z</time>
      </trkpt>
      <trkpt lat="46.39074" lon="5.33571">
        <ele>233.6</ele>
        <time>2022-02-24T14:46:18Z</time>
      </trkpt>
      <trkpt lat="46.39083" lon="5.33558">
        <ele>233.4</ele>
        <time>2022-02-24T14:46:19Z</time>
      </trkpt>
      <trkpt lat="46.39098" lon="5.33533">
        <ele>232.4</ele>
        <time>2022-02-24T14:46:21Z</time>
      </trkpt>
      <trkpt lat="46.39124" lon="5.33483">
        <ele>231.4</ele>
        <time>2022-02-24T14:46:25Z</time>
      </trkpt>
      <trkpt lat="46.39149" lon="5.33433">
        <ele>230.2</ele>
        <time>2022-02-24T14:46:29Z</time>
      </trkpt>
      <trkpt lat="46.39154" lon="5.3342">
        <ele>230</ele>
        <time>2022-02-24T14:46:30Z</time>
      </trkpt>
      <trkpt lat="46.39185" lon="5.33339">
        <ele>229.2</ele>
        <time>2022-02-24T14:46:36Z</time>
      </trkpt>
      <trkpt lat="46.39189" lon="5.33328">
        <ele>229.4</ele>
        <time>2022-02-24T14:46:37Z</time>
      </trkpt>
      <trkpt lat="46.39213" lon="5.33283">
        <ele>229.4</ele>
        <time>2022-02-24T14:46:41Z</time>
      </trkpt>
      <trkpt lat="46.39221" lon="5.33272">
        <ele>229.2</ele>
        <time>2022-02-24T14:46:42Z</time>
      </trkpt>
      <trkpt lat="46.39251" lon="5.33228">
        <ele>228.2</ele>
        <time>2022-02-24T14:46:46Z</time>
      </trkpt>
      <trkpt lat="46.39259" lon="5.33216">
        <ele>227.4</ele>
        <time>2022-02-24T14:46:47Z</time>
      </trkpt>
      <trkpt lat="46.39266" lon="5.33204">
        <ele>226.4</ele>
        <time>2022-02-24T14:46:48Z</time>
      </trkpt>
      <trkpt lat="46.3928" lon="5.33182">
        <ele>225</ele>
        <time>2022-02-24T14:46:50Z</time>
      </trkpt>
      <trkpt lat="46.39302" lon="5.33149">
        <ele>224</ele>
        <time>2022-02-24T14:46:53Z</time>
      </trkpt>
      <trkpt lat="46.39309" lon="5.33139">
        <ele>223.8</ele>
        <time>2022-02-24T14:46:54Z</time>
      </trkpt>
      <trkpt lat="46.39355" lon="5.33083">
        <ele>222.8</ele>
        <time>2022-02-24T14:47:00Z</time>
      </trkpt>
      <trkpt lat="46.39362" lon="5.33073">
        <ele>222.8</ele>
        <time>2022-02-24T14:47:01Z</time>
      </trkpt>
      <trkpt lat="46.39372" lon="5.33051">
        <ele>222.8</ele>
        <time>2022-02-24T14:47:03Z</time>
      </trkpt>
      <trkpt lat="46.39377" lon="5.33026">
        <ele>222.6</ele>
        <time>2022-02-24T14:47:05Z</time>
      </trkpt>
      <trkpt lat="46.39376" lon="5.33013">
        <ele>222.4</ele>
        <time>2022-02-24T14:47:06Z</time>
      </trkpt>
      <trkpt lat="46.39375" lon="5.33001">
        <ele>222.4</ele>
        <time>2022-02-24T14:47:07Z</time>
      </trkpt>
      <trkpt lat="46.39366" lon="5.32964">
        <ele>222.4</ele>
        <time>2022-02-24T14:47:10Z</time>
      </trkpt>
      <trkpt lat="46.39361" lon="5.32942">
        <ele>222.2</ele>
        <time>2022-02-24T14:47:12Z</time>
      </trkpt>
      <trkpt lat="46.39358" lon="5.32919">
        <ele>222.2</ele>
        <time>2022-02-24T14:47:14Z</time>
      </trkpt>
      <trkpt lat="46.39358" lon="5.32909">
        <ele>222.4</ele>
        <time>2022-02-24T14:47:15Z</time>
      </trkpt>
      <trkpt lat="46.3936" lon="5.32891">
        <ele>222.4</ele>
        <time>2022-02-24T14:47:17Z</time>
      </trkpt>
      <trkpt lat="46.39368" lon="5.32883">
        <ele>222.8</ele>
        <time>2022-02-24T14:47:19Z</time>
      </trkpt>
      <trkpt lat="46.39377" lon="5.32888">
        <ele>223.4</ele>
        <time>2022-02-24T14:47:21Z</time>
      </trkpt>
      <trkpt lat="46.39382" lon="5.32892">
        <ele>223.8</ele>
        <time>2022-02-24T14:47:22Z</time>
      </trkpt>
      <trkpt lat="46.39388" lon="5.32898">
        <ele>224.2</ele>
        <time>2022-02-24T14:47:23Z</time>
      </trkpt>
      <trkpt lat="46.39394" lon="5.32902">
        <ele>225</ele>
        <time>2022-02-24T14:47:24Z</time>
      </trkpt>
      <trkpt lat="46.394" lon="5.32904">
        <ele>225.2</ele>
        <time>2022-02-24T14:47:25Z</time>
      </trkpt>
      <trkpt lat="46.39405" lon="5.32906">
        <ele>225.4</ele>
        <time>2022-02-24T14:47:26Z</time>
      </trkpt>
      <trkpt lat="46.39411" lon="5.32907">
        <ele>225.6</ele>
        <time>2022-02-24T14:47:27Z</time>
      </trkpt>
      <trkpt lat="46.39429" lon="5.32906">
        <ele>226</ele>
        <time>2022-02-24T14:47:30Z</time>
      </trkpt>
      <trkpt lat="46.39433" lon="5.32905">
        <ele>226.2</ele>
        <time>2022-02-24T14:47:31Z</time>
      </trkpt>
      <trkpt lat="46.39459" lon="5.32897">
        <ele>227.4</ele>
        <time>2022-02-24T14:47:36Z</time>
      </trkpt>
      <trkpt lat="46.3947" lon="5.32893">
        <ele>228.2</ele>
        <time>2022-02-24T14:47:38Z</time>
      </trkpt>
      <trkpt lat="46.39478" lon="5.32889">
        <ele>228.8</ele>
        <time>2022-02-24T14:47:40Z</time>
      </trkpt>
      <trkpt lat="46.39496" lon="5.32882">
        <ele>230</ele>
        <time>2022-02-24T14:47:44Z</time>
      </trkpt>
      <trkpt lat="46.395" lon="5.32881">
        <ele>230.2</ele>
        <time>2022-02-24T14:47:45Z</time>
      </trkpt>
      <trkpt lat="46.39518" lon="5.32875">
        <ele>231.2</ele>
        <time>2022-02-24T14:47:49Z</time>
      </trkpt>
      <trkpt lat="46.39538" lon="5.32867">
        <ele>232.2</ele>
        <time>2022-02-24T14:47:53Z</time>
      </trkpt>
      <trkpt lat="46.39542" lon="5.32866">
        <ele>232.6</ele>
        <time>2022-02-24T14:47:54Z</time>
      </trkpt>
      <trkpt lat="46.39576" lon="5.32846">
        <ele>233.4</ele>
        <time>2022-02-24T14:48:00Z</time>
      </trkpt>
      <trkpt lat="46.39616" lon="5.32829">
        <ele>233.4</ele>
        <time>2022-02-24T14:48:07Z</time>
      </trkpt>
      <trkpt lat="46.39661" lon="5.32817">
        <ele>234.2</ele>
        <time>2022-02-24T14:48:15Z</time>
      </trkpt>
      <trkpt lat="46.39665" lon="5.32816">
        <ele>234.4</ele>
        <time>2022-02-24T14:48:16Z</time>
      </trkpt>
      <trkpt lat="46.39684" lon="5.32806">
        <ele>235.4</ele>
        <time>2022-02-24T14:48:20Z</time>
      </trkpt>
      <trkpt lat="46.39697" lon="5.32799">
        <ele>236.2</ele>
        <time>2022-02-24T14:48:23Z</time>
      </trkpt>
      <trkpt lat="46.39705" lon="5.32795">
        <ele>236.6</ele>
        <time>2022-02-24T14:48:25Z</time>
      </trkpt>
      <trkpt lat="46.39723" lon="5.32784">
        <ele>237.8</ele>
        <time>2022-02-24T14:48:29Z</time>
      </trkpt>
      <trkpt lat="46.39736" lon="5.32777">
        <ele>238.6</ele>
        <time>2022-02-24T14:48:32Z</time>
      </trkpt>
      <trkpt lat="46.39745" lon="5.32772">
        <ele>238.8</ele>
        <time>2022-02-24T14:48:34Z</time>
      </trkpt>
      <trkpt lat="46.39766" lon="5.3276">
        <ele>239.8</ele>
        <time>2022-02-24T14:48:39Z</time>
      </trkpt>
      <trkpt lat="46.39785" lon="5.32751">
        <ele>240.8</ele>
        <time>2022-02-24T14:48:43Z</time>
      </trkpt>
      <trkpt lat="46.39788" lon="5.32749">
        <ele>241.2</ele>
        <time>2022-02-24T14:48:44Z</time>
      </trkpt>
      <trkpt lat="46.39818" lon="5.32735">
        <ele>242.2</ele>
        <time>2022-02-24T14:48:50Z</time>
      </trkpt>
      <trkpt lat="46.39847" lon="5.32722">
        <ele>243.4</ele>
        <time>2022-02-24T14:48:56Z</time>
      </trkpt>
      <trkpt lat="46.39867" lon="5.32713">
        <ele>244</ele>
        <time>2022-02-24T14:49:00Z</time>
      </trkpt>
      <trkpt lat="46.39877" lon="5.32709">
        <ele>244.4</ele>
        <time>2022-02-24T14:49:02Z</time>
      </trkpt>
      <trkpt lat="46.39912" lon="5.32693">
        <ele>245.4</ele>
        <time>2022-02-24T14:49:09Z</time>
      </trkpt>
      <trkpt lat="46.39917" lon="5.32691">
        <ele>245.6</ele>
        <time>2022-02-24T14:49:10Z</time>
      </trkpt>
      <trkpt lat="46.39945" lon="5.32678">
        <ele>246.6</ele>
        <time>2022-02-24T14:49:16Z</time>
      </trkpt>
      <trkpt lat="46.39962" lon="5.3267">
        <ele>247</ele>
        <time>2022-02-24T14:49:19Z</time>
      </trkpt>
      <trkpt lat="46.39998" lon="5.32654">
        <ele>247.6</ele>
        <time>2022-02-24T14:49:26Z</time>
      </trkpt>
      <trkpt lat="46.40014" lon="5.32646">
        <ele>248</ele>
        <time>2022-02-24T14:49:29Z</time>
      </trkpt>
      <trkpt lat="46.40044" lon="5.32631">
        <ele>248.8</ele>
        <time>2022-02-24T14:49:35Z</time>
      </trkpt>
      <trkpt lat="46.40051" lon="5.32628">
        <ele>248.8</ele>
        <time>2022-02-24T14:49:36Z</time>
      </trkpt>
      <trkpt lat="46.40062" lon="5.32629">
        <ele>248.8</ele>
        <time>2022-02-24T14:49:38Z</time>
      </trkpt>
      <trkpt lat="46.40071" lon="5.3264">
        <ele>248.6</ele>
        <time>2022-02-24T14:49:40Z</time>
      </trkpt>
      <trkpt lat="46.40077" lon="5.32669">
        <ele>248.8</ele>
        <time>2022-02-24T14:49:43Z</time>
      </trkpt>
      <trkpt lat="46.40092" lon="5.32722">
        <ele>249</ele>
        <time>2022-02-24T14:49:49Z</time>
      </trkpt>
      <trkpt lat="46.40116" lon="5.32779">
        <ele>249.2</ele>
        <time>2022-02-24T14:49:56Z</time>
      </trkpt>
      <trkpt lat="46.40143" lon="5.32842">
        <ele>249.8</ele>
        <time>2022-02-24T14:50:04Z</time>
      </trkpt>
      <trkpt lat="46.40146" lon="5.32849">
        <ele>250</ele>
        <time>2022-02-24T14:50:05Z</time>
      </trkpt>
      <trkpt lat="46.40178" lon="5.32919">
        <ele>250.4</ele>
        <time>2022-02-24T14:50:14Z</time>
      </trkpt>
      <trkpt lat="46.40182" lon="5.32927">
        <ele>250.4</ele>
        <time>2022-02-24T14:50:15Z</time>
      </trkpt>
      <trkpt lat="46.40212" lon="5.32976">
        <ele>250.2</ele>
        <time>2022-02-24T14:50:22Z</time>
      </trkpt>
      <trkpt lat="46.40247" lon="5.33027">
        <ele>250</ele>
        <time>2022-02-24T14:50:30Z</time>
      </trkpt>
      <trkpt lat="46.40283" lon="5.3308">
        <ele>250.8</ele>
        <time>2022-02-24T14:50:38Z</time>
      </trkpt>
      <trkpt lat="46.40302" lon="5.33107">
        <ele>250.8</ele>
        <time>2022-02-24T14:50:42Z</time>
      </trkpt>
      <trkpt lat="46.4032" lon="5.33136">
        <ele>250.8</ele>
        <time>2022-02-24T14:50:46Z</time>
      </trkpt>
      <trkpt lat="46.40347" lon="5.33174">
        <ele>250.6</ele>
        <time>2022-02-24T14:50:51Z</time>
      </trkpt>
      <trkpt lat="46.40371" lon="5.33206">
        <ele>249.8</ele>
        <time>2022-02-24T14:50:55Z</time>
      </trkpt>
      <trkpt lat="46.40389" lon="5.33228">
        <ele>249</ele>
        <time>2022-02-24T14:50:58Z</time>
      </trkpt>
      <trkpt lat="46.40403" lon="5.33245">
        <ele>248.8</ele>
        <time>2022-02-24T14:51:00Z</time>
      </trkpt>
      <trkpt lat="46.40432" lon="5.33273">
        <ele>248.2</ele>
        <time>2022-02-24T14:51:04Z</time>
      </trkpt>
      <trkpt lat="46.40445" lon="5.33283">
        <ele>247.6</ele>
        <time>2022-02-24T14:51:06Z</time>
      </trkpt>
      <trkpt lat="46.40471" lon="5.33297">
        <ele>247.2</ele>
        <time>2022-02-24T14:51:09Z</time>
      </trkpt>
      <trkpt lat="46.40494" lon="5.33309">
        <ele>246.8</ele>
        <time>2022-02-24T14:51:12Z</time>
      </trkpt>
      <trkpt lat="46.40507" lon="5.33322">
        <ele>246.6</ele>
        <time>2022-02-24T14:51:14Z</time>
      </trkpt>
      <trkpt lat="46.40524" lon="5.33341">
        <ele>246.6</ele>
        <time>2022-02-24T14:51:17Z</time>
      </trkpt>
      <trkpt lat="46.40538" lon="5.3335">
        <ele>247.2</ele>
        <time>2022-02-24T14:51:19Z</time>
      </trkpt>
      <trkpt lat="46.40572" lon="5.33371">
        <ele>248.8</ele>
        <time>2022-02-24T14:51:25Z</time>
      </trkpt>
      <trkpt lat="46.40584" lon="5.33378">
        <ele>249.4</ele>
        <time>2022-02-24T14:51:27Z</time>
      </trkpt>
      <trkpt lat="46.40599" lon="5.33388">
        <ele>250</ele>
        <time>2022-02-24T14:51:30Z</time>
      </trkpt>
      <trkpt lat="46.40616" lon="5.33398">
        <ele>251.2</ele>
        <time>2022-02-24T14:51:33Z</time>
      </trkpt>
      <trkpt lat="46.40635" lon="5.33412">
        <ele>252.2</ele>
        <time>2022-02-24T14:51:37Z</time>
      </trkpt>
      <trkpt lat="46.4064" lon="5.33415">
        <ele>252.6</ele>
        <time>2022-02-24T14:51:38Z</time>
      </trkpt>
      <trkpt lat="46.4066" lon="5.33428">
        <ele>253.8</ele>
        <time>2022-02-24T14:51:42Z</time>
      </trkpt>
      <trkpt lat="46.40669" lon="5.33433">
        <ele>254.4</ele>
        <time>2022-02-24T14:51:44Z</time>
      </trkpt>
      <trkpt lat="46.40679" lon="5.3344">
        <ele>255</ele>
        <time>2022-02-24T14:51:46Z</time>
      </trkpt>
      <trkpt lat="46.407" lon="5.33452">
        <ele>256</ele>
        <time>2022-02-24T14:51:50Z</time>
      </trkpt>
      <trkpt lat="46.40714" lon="5.33461">
        <ele>256.6</ele>
        <time>2022-02-24T14:51:53Z</time>
      </trkpt>
      <trkpt lat="46.40731" lon="5.3347">
        <ele>257.2</ele>
        <time>2022-02-24T14:51:56Z</time>
      </trkpt>
      <trkpt lat="46.40756" lon="5.33485">
        <ele>257.8</ele>
        <time>2022-02-24T14:52:01Z</time>
      </trkpt>
      <trkpt lat="46.40767" lon="5.3349">
        <ele>258.4</ele>
        <time>2022-02-24T14:52:03Z</time>
      </trkpt>
      <trkpt lat="46.40799" lon="5.335">
        <ele>259.6</ele>
        <time>2022-02-24T14:52:09Z</time>
      </trkpt>
      <trkpt lat="46.40826" lon="5.33509">
        <ele>260.6</ele>
        <time>2022-02-24T14:52:14Z</time>
      </trkpt>
      <trkpt lat="46.40848" lon="5.33515">
        <ele>261.4</ele>
        <time>2022-02-24T14:52:18Z</time>
      </trkpt>
      <trkpt lat="46.40857" lon="5.33518">
        <ele>261.8</ele>
        <time>2022-02-24T14:52:20Z</time>
      </trkpt>
      <trkpt lat="46.40879" lon="5.33523">
        <ele>263</ele>
        <time>2022-02-24T14:52:24Z</time>
      </trkpt>
      <trkpt lat="46.40904" lon="5.33529">
        <ele>263.6</ele>
        <time>2022-02-24T14:52:29Z</time>
      </trkpt>
      <trkpt lat="46.40915" lon="5.33532">
        <ele>264</ele>
        <time>2022-02-24T14:52:31Z</time>
      </trkpt>
      <trkpt lat="46.40948" lon="5.3354">
        <ele>265</ele>
        <time>2022-02-24T14:52:37Z</time>
      </trkpt>
      <trkpt lat="46.40954" lon="5.33542">
        <ele>265.2</ele>
        <time>2022-02-24T14:52:38Z</time>
      </trkpt>
      <trkpt lat="46.41004" lon="5.33556">
        <ele>264.8</ele>
        <time>2022-02-24T14:52:45Z</time>
      </trkpt>
      <trkpt lat="46.41035" lon="5.33564">
        <ele>264</ele>
        <time>2022-02-24T14:52:49Z</time>
      </trkpt>
      <trkpt lat="46.41063" lon="5.33574">
        <ele>263.2</ele>
        <time>2022-02-24T14:52:52Z</time>
      </trkpt>
      <trkpt lat="46.41079" lon="5.33581">
        <ele>262.8</ele>
        <time>2022-02-24T14:52:54Z</time>
      </trkpt>
      <trkpt lat="46.41108" lon="5.33597">
        <ele>261.8</ele>
        <time>2022-02-24T14:52:57Z</time>
      </trkpt>
      <trkpt lat="46.41115" lon="5.33602">
        <ele>261.2</ele>
        <time>2022-02-24T14:52:58Z</time>
      </trkpt>
      <trkpt lat="46.41134" lon="5.33616">
        <ele>260.2</ele>
        <time>2022-02-24T14:53:00Z</time>
      </trkpt>
      <trkpt lat="46.41167" lon="5.33644">
        <ele>259.4</ele>
        <time>2022-02-24T14:53:04Z</time>
      </trkpt>
      <trkpt lat="46.41175" lon="5.33651">
        <ele>259.2</ele>
        <time>2022-02-24T14:53:05Z</time>
      </trkpt>
      <trkpt lat="46.41225" lon="5.33697">
        <ele>259</ele>
        <time>2022-02-24T14:53:12Z</time>
      </trkpt>
      <trkpt lat="46.41233" lon="5.33705">
        <ele>259.2</ele>
        <time>2022-02-24T14:53:13Z</time>
      </trkpt>
      <trkpt lat="46.41265" lon="5.33735">
        <ele>260.4</ele>
        <time>2022-02-24T14:53:18Z</time>
      </trkpt>
      <trkpt lat="46.41276" lon="5.33746">
        <ele>260.8</ele>
        <time>2022-02-24T14:53:20Z</time>
      </trkpt>
      <trkpt lat="46.41295" lon="5.33768">
        <ele>261.4</ele>
        <time>2022-02-24T14:53:23Z</time>
      </trkpt>
      <trkpt lat="46.41312" lon="5.33785">
        <ele>261.8</ele>
        <time>2022-02-24T14:53:26Z</time>
      </trkpt>
      <trkpt lat="46.41317" lon="5.33789">
        <ele>262</ele>
        <time>2022-02-24T14:53:27Z</time>
      </trkpt>
      <trkpt lat="46.41335" lon="5.338">
        <ele>262.8</ele>
        <time>2022-02-24T14:53:30Z</time>
      </trkpt>
      <trkpt lat="46.41341" lon="5.33802">
        <ele>263</ele>
        <time>2022-02-24T14:53:31Z</time>
      </trkpt>
      <trkpt lat="46.41367" lon="5.33809">
        <ele>264.4</ele>
        <time>2022-02-24T14:53:35Z</time>
      </trkpt>
      <trkpt lat="46.41388" lon="5.33816">
        <ele>265</ele>
        <time>2022-02-24T14:53:38Z</time>
      </trkpt>
      <trkpt lat="46.41393" lon="5.33817">
        <ele>265.4</ele>
        <time>2022-02-24T14:53:39Z</time>
      </trkpt>
      <trkpt lat="46.41418" lon="5.33824">
        <ele>266.6</ele>
        <time>2022-02-24T14:53:43Z</time>
      </trkpt>
      <trkpt lat="46.41434" lon="5.33829">
        <ele>267.4</ele>
        <time>2022-02-24T14:53:46Z</time>
      </trkpt>
      <trkpt lat="46.41444" lon="5.33833">
        <ele>267.8</ele>
        <time>2022-02-24T14:53:48Z</time>
      </trkpt>
      <trkpt lat="46.4146" lon="5.3384">
        <ele>268.8</ele>
        <time>2022-02-24T14:53:51Z</time>
      </trkpt>
      <trkpt lat="46.41468" lon="5.33845">
        <ele>269.2</ele>
        <time>2022-02-24T14:53:53Z</time>
      </trkpt>
      <trkpt lat="46.41481" lon="5.33856">
        <ele>269.8</ele>
        <time>2022-02-24T14:53:56Z</time>
      </trkpt>
      <trkpt lat="46.41499" lon="5.33868">
        <ele>271</ele>
        <time>2022-02-24T14:54:00Z</time>
      </trkpt>
      <trkpt lat="46.41503" lon="5.3387">
        <ele>271.2</ele>
        <time>2022-02-24T14:54:01Z</time>
      </trkpt>
      <trkpt lat="46.41536" lon="5.33878">
        <ele>272.2</ele>
        <time>2022-02-24T14:54:08Z</time>
      </trkpt>
      <trkpt lat="46.41572" lon="5.33884">
        <ele>273.2</ele>
        <time>2022-02-24T14:54:16Z</time>
      </trkpt>
      <trkpt lat="46.41597" lon="5.33888">
        <ele>273.8</ele>
        <time>2022-02-24T14:54:21Z</time>
      </trkpt>
      <trkpt lat="46.41603" lon="5.33887">
        <ele>274</ele>
        <time>2022-02-24T14:54:22Z</time>
      </trkpt>
      <trkpt lat="46.41615" lon="5.33885">
        <ele>274</ele>
        <time>2022-02-24T14:54:24Z</time>
      </trkpt>
      <trkpt lat="46.41639" lon="5.33879">
        <ele>274</ele>
        <time>2022-02-24T14:54:28Z</time>
      </trkpt>
      <trkpt lat="46.41651" lon="5.3388">
        <ele>273.8</ele>
        <time>2022-02-24T14:54:30Z</time>
      </trkpt>
      <trkpt lat="46.41696" lon="5.33877">
        <ele>272.4</ele>
        <time>2022-02-24T14:54:36Z</time>
      </trkpt>
      <trkpt lat="46.41702" lon="5.33875">
        <ele>271.8</ele>
        <time>2022-02-24T14:54:37Z</time>
      </trkpt>
      <trkpt lat="46.41737" lon="5.33863">
        <ele>270.8</ele>
        <time>2022-02-24T14:54:41Z</time>
      </trkpt>
      <trkpt lat="46.41748" lon="5.33861">
        <ele>270.4</ele>
        <time>2022-02-24T14:54:42Z</time>
      </trkpt>
      <trkpt lat="46.41759" lon="5.33862">
        <ele>269.4</ele>
        <time>2022-02-24T14:54:43Z</time>
      </trkpt>
      <trkpt lat="46.41782" lon="5.33867">
        <ele>268.6</ele>
        <time>2022-02-24T14:54:45Z</time>
      </trkpt>
      <trkpt lat="46.41791" lon="5.3387">
        <ele>268</ele>
        <time>2022-02-24T14:54:46Z</time>
      </trkpt>
      <trkpt lat="46.41816" lon="5.33876">
        <ele>266</ele>
        <time>2022-02-24T14:54:48Z</time>
      </trkpt>
      <trkpt lat="46.41843" lon="5.33881">
        <ele>264.2</ele>
        <time>2022-02-24T14:54:50Z</time>
      </trkpt>
      <trkpt lat="46.41856" lon="5.33882">
        <ele>263.8</ele>
        <time>2022-02-24T14:54:51Z</time>
      </trkpt>
      <trkpt lat="46.41869" lon="5.33881">
        <ele>263</ele>
        <time>2022-02-24T14:54:52Z</time>
      </trkpt>
      <trkpt lat="46.41902" lon="5.33878">
        <ele>260.6</ele>
        <time>2022-02-24T14:54:55Z</time>
      </trkpt>
      <trkpt lat="46.41912" lon="5.33875">
        <ele>260</ele>
        <time>2022-02-24T14:54:56Z</time>
      </trkpt>
      <trkpt lat="46.41923" lon="5.33873">
        <ele>259.2</ele>
        <time>2022-02-24T14:54:57Z</time>
      </trkpt>
      <trkpt lat="46.41934" lon="5.33872">
        <ele>259</ele>
        <time>2022-02-24T14:54:58Z</time>
      </trkpt>
      <trkpt lat="46.41956" lon="5.33873">
        <ele>258.6</ele>
        <time>2022-02-24T14:55:00Z</time>
      </trkpt>
      <trkpt lat="46.41967" lon="5.33876">
        <ele>258.6</ele>
        <time>2022-02-24T14:55:01Z</time>
      </trkpt>
      <trkpt lat="46.41986" lon="5.33886">
        <ele>258.6</ele>
        <time>2022-02-24T14:55:03Z</time>
      </trkpt>
      <trkpt lat="46.42006" lon="5.33898">
        <ele>258.6</ele>
        <time>2022-02-24T14:55:05Z</time>
      </trkpt>
      <trkpt lat="46.42025" lon="5.33902">
        <ele>259.2</ele>
        <time>2022-02-24T14:55:07Z</time>
      </trkpt>
      <trkpt lat="46.42032" lon="5.33903">
        <ele>260.2</ele>
        <time>2022-02-24T14:55:08Z</time>
      </trkpt>
      <trkpt lat="46.42043" lon="5.33902">
        <ele>261.2</ele>
        <time>2022-02-24T14:55:09Z</time>
      </trkpt>
      <trkpt lat="46.4206" lon="5.33902">
        <ele>262.6</ele>
        <time>2022-02-24T14:55:11Z</time>
      </trkpt>
      <trkpt lat="46.42076" lon="5.33902">
        <ele>263.8</ele>
        <time>2022-02-24T14:55:13Z</time>
      </trkpt>
      <trkpt lat="46.42096" lon="5.33905">
        <ele>264.4</ele>
        <time>2022-02-24T14:55:15Z</time>
      </trkpt>
      <trkpt lat="46.42103" lon="5.33908">
        <ele>264.6</ele>
        <time>2022-02-24T14:55:16Z</time>
      </trkpt>
      <trkpt lat="46.42131" lon="5.33922">
        <ele>264.8</ele>
        <time>2022-02-24T14:55:19Z</time>
      </trkpt>
      <trkpt lat="46.42171" lon="5.33939">
        <ele>265.4</ele>
        <time>2022-02-24T14:55:24Z</time>
      </trkpt>
      <trkpt lat="46.42188" lon="5.33937">
        <ele>265.4</ele>
        <time>2022-02-24T14:55:26Z</time>
      </trkpt>
      <trkpt lat="46.42196" lon="5.33933">
        <ele>265.4</ele>
        <time>2022-02-24T14:55:27Z</time>
      </trkpt>
      <trkpt lat="46.42206" lon="5.33925">
        <ele>265.2</ele>
        <time>2022-02-24T14:55:28Z</time>
      </trkpt>
      <trkpt lat="46.4222" lon="5.33905">
        <ele>264.8</ele>
        <time>2022-02-24T14:55:30Z</time>
      </trkpt>
      <trkpt lat="46.42244" lon="5.33857">
        <ele>263.2</ele>
        <time>2022-02-24T14:55:34Z</time>
      </trkpt>
      <trkpt lat="46.42249" lon="5.33848">
        <ele>263</ele>
        <time>2022-02-24T14:55:35Z</time>
      </trkpt>
      <trkpt lat="46.42255" lon="5.33835">
        <ele>262.2</ele>
        <time>2022-02-24T14:55:36Z</time>
      </trkpt>
      <trkpt lat="46.42267" lon="5.33811">
        <ele>261</ele>
        <time>2022-02-24T14:55:38Z</time>
      </trkpt>
      <trkpt lat="46.42284" lon="5.33775">
        <ele>260.2</ele>
        <time>2022-02-24T14:55:41Z</time>
      </trkpt>
      <trkpt lat="46.4229" lon="5.33764">
        <ele>260</ele>
        <time>2022-02-24T14:55:42Z</time>
      </trkpt>
      <trkpt lat="46.42297" lon="5.3375">
        <ele>259.4</ele>
        <time>2022-02-24T14:55:43Z</time>
      </trkpt>
      <trkpt lat="46.4231" lon="5.33732">
        <ele>258.2</ele>
        <time>2022-02-24T14:55:45Z</time>
      </trkpt>
      <trkpt lat="46.42317" lon="5.33722">
        <ele>257.4</ele>
        <time>2022-02-24T14:55:46Z</time>
      </trkpt>
      <trkpt lat="46.42327" lon="5.33711">
        <ele>256.4</ele>
        <time>2022-02-24T14:55:47Z</time>
      </trkpt>
      <trkpt lat="46.42345" lon="5.33697">
        <ele>255.8</ele>
        <time>2022-02-24T14:55:49Z</time>
      </trkpt>
      <trkpt lat="46.42353" lon="5.33691">
        <ele>255.4</ele>
        <time>2022-02-24T14:55:50Z</time>
      </trkpt>
      <trkpt lat="46.42373" lon="5.33679">
        <ele>254</ele>
        <time>2022-02-24T14:55:52Z</time>
      </trkpt>
      <trkpt lat="46.42383" lon="5.33676">
        <ele>253.6</ele>
        <time>2022-02-24T14:55:53Z</time>
      </trkpt>
      <trkpt lat="46.42392" lon="5.33675">
        <ele>253</ele>
        <time>2022-02-24T14:55:54Z</time>
      </trkpt>
      <trkpt lat="46.42403" lon="5.33676">
        <ele>252.6</ele>
        <time>2022-02-24T14:55:55Z</time>
      </trkpt>
      <trkpt lat="46.42423" lon="5.33683">
        <ele>251.6</ele>
        <time>2022-02-24T14:55:57Z</time>
      </trkpt>
      <trkpt lat="46.42442" lon="5.33695">
        <ele>250.4</ele>
        <time>2022-02-24T14:55:59Z</time>
      </trkpt>
      <trkpt lat="46.4247" lon="5.33717">
        <ele>249.4</ele>
        <time>2022-02-24T14:56:02Z</time>
      </trkpt>
      <trkpt lat="46.42477" lon="5.33723">
        <ele>249.2</ele>
        <time>2022-02-24T14:56:03Z</time>
      </trkpt>
      <trkpt lat="46.42522" lon="5.33758">
        <ele>248.4</ele>
        <time>2022-02-24T14:56:08Z</time>
      </trkpt>
      <trkpt lat="46.42544" lon="5.33773">
        <ele>248.2</ele>
        <time>2022-02-24T14:56:10Z</time>
      </trkpt>
      <trkpt lat="46.42566" lon="5.33786">
        <ele>247</ele>
        <time>2022-02-24T14:56:12Z</time>
      </trkpt>
      <trkpt lat="46.42575" lon="5.33791">
        <ele>246.2</ele>
        <time>2022-02-24T14:56:13Z</time>
      </trkpt>
      <trkpt lat="46.42589" lon="5.33796">
        <ele>245.8</ele>
        <time>2022-02-24T14:56:14Z</time>
      </trkpt>
      <trkpt lat="46.426" lon="5.33798">
        <ele>244.6</ele>
        <time>2022-02-24T14:56:15Z</time>
      </trkpt>
      <trkpt lat="46.42612" lon="5.33799">
        <ele>243.8</ele>
        <time>2022-02-24T14:56:16Z</time>
      </trkpt>
      <trkpt lat="46.42621" lon="5.33799">
        <ele>242.6</ele>
        <time>2022-02-24T14:56:17Z</time>
      </trkpt>
      <trkpt lat="46.42643" lon="5.33798">
        <ele>241.4</ele>
        <time>2022-02-24T14:56:19Z</time>
      </trkpt>
      <trkpt lat="46.42666" lon="5.33795">
        <ele>240.8</ele>
        <time>2022-02-24T14:56:21Z</time>
      </trkpt>
      <trkpt lat="46.42718" lon="5.33798">
        <ele>240.6</ele>
        <time>2022-02-24T14:56:26Z</time>
      </trkpt>
      <trkpt lat="46.42739" lon="5.33807">
        <ele>240.6</ele>
        <time>2022-02-24T14:56:28Z</time>
      </trkpt>
      <trkpt lat="46.42756" lon="5.33817">
        <ele>240.6</ele>
        <time>2022-02-24T14:56:30Z</time>
      </trkpt>
      <trkpt lat="46.42789" lon="5.3383">
        <ele>239.6</ele>
        <time>2022-02-24T14:56:33Z</time>
      </trkpt>
      <trkpt lat="46.428" lon="5.33832">
        <ele>239.2</ele>
        <time>2022-02-24T14:56:34Z</time>
      </trkpt>
      <trkpt lat="46.42823" lon="5.33835">
        <ele>237.6</ele>
        <time>2022-02-24T14:56:36Z</time>
      </trkpt>
      <trkpt lat="46.42849" lon="5.33838">
        <ele>236</ele>
        <time>2022-02-24T14:56:38Z</time>
      </trkpt>
      <trkpt lat="46.42868" lon="5.33839">
        <ele>234.6</ele>
        <time>2022-02-24T14:56:40Z</time>
      </trkpt>
      <trkpt lat="46.42931" lon="5.33848">
        <ele>234</ele>
        <time>2022-02-24T14:56:46Z</time>
      </trkpt>
      <trkpt lat="46.42967" lon="5.3387">
        <ele>234.4</ele>
        <time>2022-02-24T14:56:50Z</time>
      </trkpt>
      <trkpt lat="46.43016" lon="5.33907">
        <ele>235.2</ele>
        <time>2022-02-24T14:56:56Z</time>
      </trkpt>
      <trkpt lat="46.43038" lon="5.33927">
        <ele>235.6</ele>
        <time>2022-02-24T14:56:59Z</time>
      </trkpt>
      <trkpt lat="46.43066" lon="5.33955">
        <ele>235.8</ele>
        <time>2022-02-24T14:57:03Z</time>
      </trkpt>
      <trkpt lat="46.43105" lon="5.33994">
        <ele>235.8</ele>
        <time>2022-02-24T14:57:09Z</time>
      </trkpt>
      <trkpt lat="46.43136" lon="5.3404">
        <ele>235.8</ele>
        <time>2022-02-24T14:57:15Z</time>
      </trkpt>
      <trkpt lat="46.43149" lon="5.34062">
        <ele>235.8</ele>
        <time>2022-02-24T14:57:19Z</time>
      </trkpt>
      <trkpt lat="46.43172" lon="5.34094">
        <ele>235.2</ele>
        <time>2022-02-24T14:57:24Z</time>
      </trkpt>
      <trkpt lat="46.43195" lon="5.34124">
        <ele>234.4</ele>
        <time>2022-02-24T14:57:28Z</time>
      </trkpt>
      <trkpt lat="46.43207" lon="5.34136">
        <ele>234</ele>
        <time>2022-02-24T14:57:30Z</time>
      </trkpt>
      <trkpt lat="46.43257" lon="5.34184">
        <ele>233.6</ele>
        <time>2022-02-24T14:57:38Z</time>
      </trkpt>
      <trkpt lat="46.43296" lon="5.34216">
        <ele>234</ele>
        <time>2022-02-24T14:57:45Z</time>
      </trkpt>
      <trkpt lat="46.43323" lon="5.34235">
        <ele>235.4</ele>
        <time>2022-02-24T14:57:50Z</time>
      </trkpt>
      <trkpt lat="46.43328" lon="5.34237">
        <ele>235.6</ele>
        <time>2022-02-24T14:57:51Z</time>
      </trkpt>
      <trkpt lat="46.43343" lon="5.34244">
        <ele>236.6</ele>
        <time>2022-02-24T14:57:54Z</time>
      </trkpt>
      <trkpt lat="46.43354" lon="5.34248">
        <ele>237.8</ele>
        <time>2022-02-24T14:57:56Z</time>
      </trkpt>
      <trkpt lat="46.43359" lon="5.34249">
        <ele>238</ele>
        <time>2022-02-24T14:57:57Z</time>
      </trkpt>
      <trkpt lat="46.43364" lon="5.3425">
        <ele>238.4</ele>
        <time>2022-02-24T14:57:58Z</time>
      </trkpt>
      <trkpt lat="46.43385" lon="5.34257">
        <ele>239</ele>
        <time>2022-02-24T14:58:02Z</time>
      </trkpt>
      <trkpt lat="46.43404" lon="5.34263">
        <ele>240.6</ele>
        <time>2022-02-24T14:58:07Z</time>
      </trkpt>
      <trkpt lat="46.43409" lon="5.34265">
        <ele>241</ele>
        <time>2022-02-24T14:58:08Z</time>
      </trkpt>
      <trkpt lat="46.43412" lon="5.34266">
        <ele>241.6</ele>
        <time>2022-02-24T14:58:09Z</time>
      </trkpt>
      <trkpt lat="46.43424" lon="5.34269">
        <ele>242.8</ele>
        <time>2022-02-24T14:58:12Z</time>
      </trkpt>
      <trkpt lat="46.4343" lon="5.34269">
        <ele>243.4</ele>
        <time>2022-02-24T14:58:14Z</time>
      </trkpt>
      <trkpt lat="46.43433" lon="5.3427">
        <ele>243.8</ele>
        <time>2022-02-24T14:58:15Z</time>
      </trkpt>
      <trkpt lat="46.43443" lon="5.34271">
        <ele>245</ele>
        <time>2022-02-24T14:58:18Z</time>
      </trkpt>
      <trkpt lat="46.43448" lon="5.34269">
        <ele>245.6</ele>
        <time>2022-02-24T14:58:20Z</time>
      </trkpt>
      <trkpt lat="46.4345" lon="5.3426">
        <ele>246.2</ele>
        <time>2022-02-24T14:58:22Z</time>
      </trkpt>
      <trkpt lat="46.43451" lon="5.34254">
        <ele>247.2</ele>
        <time>2022-02-24T14:58:23Z</time>
      </trkpt>
      <trkpt lat="46.43452" lon="5.34248">
        <ele>247.6</ele>
        <time>2022-02-24T14:58:24Z</time>
      </trkpt>
      <trkpt lat="46.43459" lon="5.34209">
        <ele>248.2</ele>
        <time>2022-02-24T14:58:30Z</time>
      </trkpt>
      <trkpt lat="46.43461" lon="5.34202">
        <ele>248.2</ele>
        <time>2022-02-24T14:58:31Z</time>
      </trkpt>
      <trkpt lat="46.43467" lon="5.34175">
        <ele>248.2</ele>
        <time>2022-02-24T14:58:35Z</time>
      </trkpt>
      <trkpt lat="46.43472" lon="5.34126">
        <ele>248.2</ele>
        <time>2022-02-24T14:58:41Z</time>
      </trkpt>
      <trkpt lat="46.43477" lon="5.34072">
        <ele>247.2</ele>
        <time>2022-02-24T14:58:47Z</time>
      </trkpt>
      <trkpt lat="46.4348" lon="5.34043">
        <ele>246.6</ele>
        <time>2022-02-24T14:58:50Z</time>
      </trkpt>
      <trkpt lat="46.43483" lon="5.34003">
        <ele>246.2</ele>
        <time>2022-02-24T14:58:54Z</time>
      </trkpt>
      <trkpt lat="46.43487" lon="5.3396">
        <ele>245.4</ele>
        <time>2022-02-24T14:58:58Z</time>
      </trkpt>
      <trkpt lat="46.43488" lon="5.33948">
        <ele>245.2</ele>
        <time>2022-02-24T14:58:59Z</time>
      </trkpt>
      <trkpt lat="46.43492" lon="5.33899">
        <ele>244.2</ele>
        <time>2022-02-24T14:59:03Z</time>
      </trkpt>
      <trkpt lat="46.43494" lon="5.33885">
        <ele>243.2</ele>
        <time>2022-02-24T14:59:04Z</time>
      </trkpt>
      <trkpt lat="46.43495" lon="5.33875">
        <ele>242.8</ele>
        <time>2022-02-24T14:59:05Z</time>
      </trkpt>
      <trkpt lat="46.43496" lon="5.33864">
        <ele>242</ele>
        <time>2022-02-24T14:59:06Z</time>
      </trkpt>
      <trkpt lat="46.435" lon="5.33826">
        <ele>240.4</ele>
        <time>2022-02-24T14:59:09Z</time>
      </trkpt>
      <trkpt lat="46.43502" lon="5.338">
        <ele>239.6</ele>
        <time>2022-02-24T14:59:11Z</time>
      </trkpt>
      <trkpt lat="46.43504" lon="5.33788">
        <ele>239</ele>
        <time>2022-02-24T14:59:12Z</time>
      </trkpt>
      <trkpt lat="46.43509" lon="5.3377">
        <ele>237.4</ele>
        <time>2022-02-24T14:59:14Z</time>
      </trkpt>
      <trkpt lat="46.43512" lon="5.33758">
        <ele>236.2</ele>
        <time>2022-02-24T14:59:16Z</time>
      </trkpt>
      <trkpt lat="46.43512" lon="5.33753">
        <ele>236</ele>
        <time>2022-02-24T14:59:17Z</time>
      </trkpt>
      <trkpt lat="46.43511" lon="5.33747">
        <ele>235.8</ele>
        <time>2022-02-24T14:59:18Z</time>
      </trkpt>
      <trkpt lat="46.43502" lon="5.33733">
        <ele>235.4</ele>
        <time>2022-02-24T14:59:20Z</time>
      </trkpt>
      <trkpt lat="46.43498" lon="5.33727">
        <ele>235.2</ele>
        <time>2022-02-24T14:59:21Z</time>
      </trkpt>
      <trkpt lat="46.43477" lon="5.33688">
        <ele>233.8</ele>
        <time>2022-02-24T14:59:25Z</time>
      </trkpt>
      <trkpt lat="46.43466" lon="5.33651">
        <ele>232.6</ele>
        <time>2022-02-24T14:59:28Z</time>
      </trkpt>
      <trkpt lat="46.43464" lon="5.33637">
        <ele>232.2</ele>
        <time>2022-02-24T14:59:29Z</time>
      </trkpt>
      <trkpt lat="46.43462" lon="5.33609">
        <ele>231.6</ele>
        <time>2022-02-24T14:59:31Z</time>
      </trkpt>
      <trkpt lat="46.43462" lon="5.33595">
        <ele>230.8</ele>
        <time>2022-02-24T14:59:32Z</time>
      </trkpt>
      <trkpt lat="46.43462" lon="5.3358">
        <ele>230.6</ele>
        <time>2022-02-24T14:59:33Z</time>
      </trkpt>
      <trkpt lat="46.43465" lon="5.33563">
        <ele>230.2</ele>
        <time>2022-02-24T14:59:34Z</time>
      </trkpt>
      <trkpt lat="46.43471" lon="5.33539">
        <ele>229.4</ele>
        <time>2022-02-24T14:59:36Z</time>
      </trkpt>
      <trkpt lat="46.43478" lon="5.33525">
        <ele>229.2</ele>
        <time>2022-02-24T14:59:37Z</time>
      </trkpt>
      <trkpt lat="46.4349" lon="5.33506">
        <ele>228.2</ele>
        <time>2022-02-24T14:59:39Z</time>
      </trkpt>
      <trkpt lat="46.43497" lon="5.33497">
        <ele>228</ele>
        <time>2022-02-24T14:59:40Z</time>
      </trkpt>
      <trkpt lat="46.43533" lon="5.33453">
        <ele>227</ele>
        <time>2022-02-24T14:59:45Z</time>
      </trkpt>
      <trkpt lat="46.43542" lon="5.33446">
        <ele>227</ele>
        <time>2022-02-24T14:59:46Z</time>
      </trkpt>
      <trkpt lat="46.43551" lon="5.33443">
        <ele>227</ele>
        <time>2022-02-24T14:59:47Z</time>
      </trkpt>
      <trkpt lat="46.43567" lon="5.33444">
        <ele>227</ele>
        <time>2022-02-24T14:59:49Z</time>
      </trkpt>
      <trkpt lat="46.43607" lon="5.3345">
        <ele>227</ele>
        <time>2022-02-24T14:59:54Z</time>
      </trkpt>
      <trkpt lat="46.43668" lon="5.33448">
        <ele>227.2</ele>
        <time>2022-02-24T15:00:01Z</time>
      </trkpt>
      <trkpt lat="46.43677" lon="5.33447">
        <ele>227</ele>
        <time>2022-02-24T15:00:02Z</time>
      </trkpt>
      <trkpt lat="46.43736" lon="5.33445">
        <ele>226.8</ele>
        <time>2022-02-24T15:00:09Z</time>
      </trkpt>
      <trkpt lat="46.43795" lon="5.33436">
        <ele>226.8</ele>
        <time>2022-02-24T15:00:16Z</time>
      </trkpt>
      <trkpt lat="46.43851" lon="5.33436">
        <ele>226.6</ele>
        <time>2022-02-24T15:00:23Z</time>
      </trkpt>
      <trkpt lat="46.43861" lon="5.33437">
        <ele>226.8</ele>
        <time>2022-02-24T15:00:24Z</time>
      </trkpt>
      <trkpt lat="46.43905" lon="5.33451">
        <ele>227</ele>
        <time>2022-02-24T15:00:30Z</time>
      </trkpt>
      <trkpt lat="46.43958" lon="5.33483">
        <ele>227.6</ele>
        <time>2022-02-24T15:00:38Z</time>
      </trkpt>
      <trkpt lat="46.44005" lon="5.33509">
        <ele>228</ele>
        <time>2022-02-24T15:00:45Z</time>
      </trkpt>
      <trkpt lat="46.44019" lon="5.33514">
        <ele>228</ele>
        <time>2022-02-24T15:00:47Z</time>
      </trkpt>
      <trkpt lat="46.44047" lon="5.33525">
        <ele>228.2</ele>
        <time>2022-02-24T15:00:51Z</time>
      </trkpt>
      <trkpt lat="46.44054" lon="5.3353">
        <ele>228.4</ele>
        <time>2022-02-24T15:00:52Z</time>
      </trkpt>
      <trkpt lat="46.44064" lon="5.33544">
        <ele>228.4</ele>
        <time>2022-02-24T15:00:54Z</time>
      </trkpt>
      <trkpt lat="46.44071" lon="5.33573">
        <ele>228.4</ele>
        <time>2022-02-24T15:00:57Z</time>
      </trkpt>
      <trkpt lat="46.4408" lon="5.336">
        <ele>228.8</ele>
        <time>2022-02-24T15:01:00Z</time>
      </trkpt>
      <trkpt lat="46.44085" lon="5.33608">
        <ele>228.8</ele>
        <time>2022-02-24T15:01:01Z</time>
      </trkpt>
      <trkpt lat="46.44101" lon="5.33629">
        <ele>229</ele>
        <time>2022-02-24T15:01:04Z</time>
      </trkpt>
      <trkpt lat="46.44124" lon="5.33656">
        <ele>229.2</ele>
        <time>2022-02-24T15:01:08Z</time>
      </trkpt>
      <trkpt lat="46.44171" lon="5.33708">
        <ele>229.4</ele>
        <time>2022-02-24T15:01:16Z</time>
      </trkpt>
      <trkpt lat="46.44213" lon="5.33746">
        <ele>229.6</ele>
        <time>2022-02-24T15:01:23Z</time>
      </trkpt>
      <trkpt lat="46.44219" lon="5.3375">
        <ele>229.8</ele>
        <time>2022-02-24T15:01:24Z</time>
      </trkpt>
      <trkpt lat="46.44251" lon="5.33769">
        <ele>230</ele>
        <time>2022-02-24T15:01:29Z</time>
      </trkpt>
      <trkpt lat="46.44262" lon="5.33768">
        <ele>230.2</ele>
        <time>2022-02-24T15:01:31Z</time>
      </trkpt>
      <trkpt lat="46.44276" lon="5.33749">
        <ele>230.6</ele>
        <time>2022-02-24T15:01:34Z</time>
      </trkpt>
      <trkpt lat="46.44306" lon="5.33698">
        <ele>230.6</ele>
        <time>2022-02-24T15:01:41Z</time>
      </trkpt>
      <trkpt lat="46.44326" lon="5.33662">
        <ele>231.2</ele>
        <time>2022-02-24T15:01:46Z</time>
      </trkpt>
      <trkpt lat="46.44336" lon="5.33639">
        <ele>231.6</ele>
        <time>2022-02-24T15:01:49Z</time>
      </trkpt>
      <trkpt lat="46.44341" lon="5.33622">
        <ele>232</ele>
        <time>2022-02-24T15:01:51Z</time>
      </trkpt>
      <trkpt lat="46.44344" lon="5.33606">
        <ele>232.2</ele>
        <time>2022-02-24T15:01:53Z</time>
      </trkpt>
      <trkpt lat="46.44344" lon="5.33597">
        <ele>232.4</ele>
        <time>2022-02-24T15:01:54Z</time>
      </trkpt>
      <trkpt lat="46.44346" lon="5.33562">
        <ele>232.6</ele>
        <time>2022-02-24T15:01:58Z</time>
      </trkpt>
      <trkpt lat="46.44343" lon="5.33537">
        <ele>233</ele>
        <time>2022-02-24T15:02:01Z</time>
      </trkpt>
      <trkpt lat="46.44339" lon="5.33514">
        <ele>233.2</ele>
        <time>2022-02-24T15:02:04Z</time>
      </trkpt>
      <trkpt lat="46.44333" lon="5.33493">
        <ele>234</ele>
        <time>2022-02-24T15:02:07Z</time>
      </trkpt>
      <trkpt lat="46.4433" lon="5.33486">
        <ele>233.8</ele>
        <time>2022-02-24T15:02:08Z</time>
      </trkpt>
      <trkpt lat="46.44314" lon="5.33455">
        <ele>234.4</ele>
        <time>2022-02-24T15:02:13Z</time>
      </trkpt>
      <trkpt lat="46.44311" lon="5.3345">
        <ele>234.6</ele>
        <time>2022-02-24T15:02:14Z</time>
      </trkpt>
      <trkpt lat="46.44287" lon="5.33421">
        <ele>235.8</ele>
        <time>2022-02-24T15:02:20Z</time>
      </trkpt>
      <trkpt lat="46.44283" lon="5.33416">
        <ele>236.2</ele>
        <time>2022-02-24T15:02:21Z</time>
      </trkpt>
      <trkpt lat="46.44264" lon="5.33393">
        <ele>236.8</ele>
        <time>2022-02-24T15:02:26Z</time>
      </trkpt>
      <trkpt lat="46.44246" lon="5.3337">
        <ele>237.8</ele>
        <time>2022-02-24T15:02:31Z</time>
      </trkpt>
      <trkpt lat="46.44231" lon="5.33354">
        <ele>238.4</ele>
        <time>2022-02-24T15:02:35Z</time>
      </trkpt>
      <trkpt lat="46.44215" lon="5.33339">
        <ele>238.8</ele>
        <time>2022-02-24T15:02:39Z</time>
      </trkpt>
      <trkpt lat="46.4419" lon="5.33318">
        <ele>240</ele>
        <time>2022-02-24T15:02:45Z</time>
      </trkpt>
      <trkpt lat="46.44178" lon="5.33306">
        <ele>240.4</ele>
        <time>2022-02-24T15:02:48Z</time>
      </trkpt>
      <trkpt lat="46.44161" lon="5.33282">
        <ele>241.2</ele>
        <time>2022-02-24T15:02:53Z</time>
      </trkpt>
      <trkpt lat="46.44153" lon="5.33265">
        <ele>241.6</ele>
        <time>2022-02-24T15:02:56Z</time>
      </trkpt>
      <trkpt lat="46.44151" lon="5.33251">
        <ele>242</ele>
        <time>2022-02-24T15:02:58Z</time>
      </trkpt>
      <trkpt lat="46.44153" lon="5.33245">
        <ele>242</ele>
        <time>2022-02-24T15:02:59Z</time>
      </trkpt>
      <trkpt lat="46.44156" lon="5.33238">
        <ele>242</ele>
        <time>2022-02-24T15:03:00Z</time>
      </trkpt>
      <trkpt lat="46.44165" lon="5.33228">
        <ele>242.2</ele>
        <time>2022-02-24T15:03:02Z</time>
      </trkpt>
      <trkpt lat="46.44171" lon="5.33223">
        <ele>242.2</ele>
        <time>2022-02-24T15:03:03Z</time>
      </trkpt>
      <trkpt lat="46.44202" lon="5.33199">
        <ele>242.2</ele>
        <time>2022-02-24T15:03:08Z</time>
      </trkpt>
      <trkpt lat="46.44216" lon="5.33191">
        <ele>241.8</ele>
        <time>2022-02-24T15:03:10Z</time>
      </trkpt>
      <trkpt lat="46.44231" lon="5.33186">
        <ele>241.6</ele>
        <time>2022-02-24T15:03:12Z</time>
      </trkpt>
      <trkpt lat="46.44246" lon="5.33185">
        <ele>241.2</ele>
        <time>2022-02-24T15:03:14Z</time>
      </trkpt>
      <trkpt lat="46.44277" lon="5.33184">
        <ele>240.4</ele>
        <time>2022-02-24T15:03:18Z</time>
      </trkpt>
      <trkpt lat="46.44314" lon="5.33189">
        <ele>240.4</ele>
        <time>2022-02-24T15:03:23Z</time>
      </trkpt>
      <trkpt lat="46.44327" lon="5.33197">
        <ele>240.8</ele>
        <time>2022-02-24T15:03:25Z</time>
      </trkpt>
      <trkpt lat="46.44339" lon="5.33207">
        <ele>241</ele>
        <time>2022-02-24T15:03:27Z</time>
      </trkpt>
      <trkpt lat="46.44369" lon="5.33238">
        <ele>242</ele>
        <time>2022-02-24T15:03:33Z</time>
      </trkpt>
      <trkpt lat="46.44373" lon="5.33244">
        <ele>242.6</ele>
        <time>2022-02-24T15:03:34Z</time>
      </trkpt>
      <trkpt lat="46.44392" lon="5.33266">
        <ele>243.6</ele>
        <time>2022-02-24T15:03:38Z</time>
      </trkpt>
      <trkpt lat="46.44406" lon="5.33282">
        <ele>244</ele>
        <time>2022-02-24T15:03:41Z</time>
      </trkpt>
      <trkpt lat="46.44426" lon="5.33304">
        <ele>244.8</ele>
        <time>2022-02-24T15:03:45Z</time>
      </trkpt>
      <trkpt lat="46.44458" lon="5.33337">
        <ele>245.6</ele>
        <time>2022-02-24T15:03:51Z</time>
      </trkpt>
      <trkpt lat="46.44477" lon="5.33361">
        <ele>245.6</ele>
        <time>2022-02-24T15:03:55Z</time>
      </trkpt>
      <trkpt lat="46.44481" lon="5.33368">
        <ele>245.6</ele>
        <time>2022-02-24T15:03:56Z</time>
      </trkpt>
      <trkpt lat="46.44511" lon="5.33439">
        <ele>245.6</ele>
        <time>2022-02-24T15:04:04Z</time>
      </trkpt>
      <trkpt lat="46.44538" lon="5.33514">
        <ele>245.6</ele>
        <time>2022-02-24T15:04:12Z</time>
      </trkpt>
      <trkpt lat="46.44549" lon="5.33542">
        <ele>245.8</ele>
        <time>2022-02-24T15:04:15Z</time>
      </trkpt>
      <trkpt lat="46.44577" lon="5.33619">
        <ele>246</ele>
        <time>2022-02-24T15:04:23Z</time>
      </trkpt>
      <trkpt lat="46.44581" lon="5.33628">
        <ele>246</ele>
        <time>2022-02-24T15:04:24Z</time>
      </trkpt>
      <trkpt lat="46.44599" lon="5.33679">
        <ele>247</ele>
        <time>2022-02-24T15:04:30Z</time>
      </trkpt>
      <trkpt lat="46.44602" lon="5.33687">
        <ele>246.8</ele>
        <time>2022-02-24T15:04:31Z</time>
      </trkpt>
      <trkpt lat="46.44614" lon="5.33715">
        <ele>248.2</ele>
        <time>2022-02-24T15:04:35Z</time>
      </trkpt>
      <trkpt lat="46.44619" lon="5.33728">
        <ele>249</ele>
        <time>2022-02-24T15:04:37Z</time>
      </trkpt>
      <trkpt lat="46.44622" lon="5.33735">
        <ele>249.6</ele>
        <time>2022-02-24T15:04:38Z</time>
      </trkpt>
      <trkpt lat="46.44631" lon="5.3376">
        <ele>250.8</ele>
        <time>2022-02-24T15:04:42Z</time>
      </trkpt>
      <trkpt lat="46.44637" lon="5.33776">
        <ele>251.8</ele>
        <time>2022-02-24T15:04:45Z</time>
      </trkpt>
      <trkpt lat="46.44639" lon="5.33782">
        <ele>252</ele>
        <time>2022-02-24T15:04:46Z</time>
      </trkpt>
      <trkpt lat="46.44646" lon="5.338">
        <ele>253.2</ele>
        <time>2022-02-24T15:04:49Z</time>
      </trkpt>
      <trkpt lat="46.44655" lon="5.33822">
        <ele>254.4</ele>
        <time>2022-02-24T15:04:53Z</time>
      </trkpt>
      <trkpt lat="46.44667" lon="5.33841">
        <ele>255.2</ele>
        <time>2022-02-24T15:04:57Z</time>
      </trkpt>
      <trkpt lat="46.44671" lon="5.33844">
        <ele>255.6</ele>
        <time>2022-02-24T15:04:58Z</time>
      </trkpt>
      <trkpt lat="46.44674" lon="5.33847">
        <ele>255.6</ele>
        <time>2022-02-24T15:04:59Z</time>
      </trkpt>
      <trkpt lat="46.44687" lon="5.33855">
        <ele>256</ele>
        <time>2022-02-24T15:05:02Z</time>
      </trkpt>
      <trkpt lat="46.44708" lon="5.33863">
        <ele>256.2</ele>
        <time>2022-02-24T15:05:06Z</time>
      </trkpt>
      <trkpt lat="46.44745" lon="5.3388">
        <ele>256.6</ele>
        <time>2022-02-24T15:05:13Z</time>
      </trkpt>
      <trkpt lat="46.44749" lon="5.33881">
        <ele>256.6</ele>
        <time>2022-02-24T15:05:14Z</time>
      </trkpt>
      <trkpt lat="46.44758" lon="5.33886">
        <ele>256.8</ele>
        <time>2022-02-24T15:05:16Z</time>
      </trkpt>
      <trkpt lat="46.44764" lon="5.33894">
        <ele>257</ele>
        <time>2022-02-24T15:05:18Z</time>
      </trkpt>
      <trkpt lat="46.44767" lon="5.33911">
        <ele>257.6</ele>
        <time>2022-02-24T15:05:21Z</time>
      </trkpt>
      <trkpt lat="46.44767" lon="5.33917">
        <ele>258</ele>
        <time>2022-02-24T15:05:22Z</time>
      </trkpt>
      <trkpt lat="46.44768" lon="5.33934">
        <ele>258.8</ele>
        <time>2022-02-24T15:05:26Z</time>
      </trkpt>
      <trkpt lat="46.44768" lon="5.33935">
        <ele>258.8</ele>
        <time>2022-02-24T15:05:27Z</time>
      </trkpt>
      <trkpt lat="46.44768" lon="5.33935">
        <ele>258.8</ele>
        <time>2022-02-24T15:05:29Z</time>
      </trkpt>
      <trkpt lat="46.44768" lon="5.33944">
        <ele>259</ele>
        <time>2022-02-24T15:06:14Z</time>
      </trkpt>
      <trkpt lat="46.44769" lon="5.33949">
        <ele>259</ele>
        <time>2022-02-24T15:06:15Z</time>
      </trkpt>
      <trkpt lat="46.44774" lon="5.33986">
        <ele>258.8</ele>
        <time>2022-02-24T15:06:20Z</time>
      </trkpt>
      <trkpt lat="46.44782" lon="5.34033">
        <ele>257.8</ele>
        <time>2022-02-24T15:06:25Z</time>
      </trkpt>
      <trkpt lat="46.44786" lon="5.34055">
        <ele>257.4</ele>
        <time>2022-02-24T15:06:27Z</time>
      </trkpt>
      <trkpt lat="46.44792" lon="5.34091">
        <ele>256</ele>
        <time>2022-02-24T15:06:30Z</time>
      </trkpt>
      <trkpt lat="46.44794" lon="5.34115">
        <ele>254.8</ele>
        <time>2022-02-24T15:06:32Z</time>
      </trkpt>
      <trkpt lat="46.44795" lon="5.34133">
        <ele>254</ele>
        <time>2022-02-24T15:06:34Z</time>
      </trkpt>
      <trkpt lat="46.44797" lon="5.34138">
        <ele>253.6</ele>
        <time>2022-02-24T15:06:35Z</time>
      </trkpt>
      <trkpt lat="46.44802" lon="5.3414">
        <ele>253</ele>
        <time>2022-02-24T15:06:36Z</time>
      </trkpt>
      <trkpt lat="46.44811" lon="5.34136">
        <ele>252.4</ele>
        <time>2022-02-24T15:06:38Z</time>
      </trkpt>
      <trkpt lat="46.44815" lon="5.34131">
        <ele>252.2</ele>
        <time>2022-02-24T15:06:39Z</time>
      </trkpt>
      <trkpt lat="46.44839" lon="5.34104">
        <ele>251.8</ele>
        <time>2022-02-24T15:06:44Z</time>
      </trkpt>
      <trkpt lat="46.44857" lon="5.34095">
        <ele>251.8</ele>
        <time>2022-02-24T15:06:47Z</time>
      </trkpt>
      <trkpt lat="46.44868" lon="5.34092">
        <ele>252</ele>
        <time>2022-02-24T15:06:49Z</time>
      </trkpt>
      <trkpt lat="46.44912" lon="5.34096">
        <ele>253.6</ele>
        <time>2022-02-24T15:06:57Z</time>
      </trkpt>
      <trkpt lat="46.44933" lon="5.34102">
        <ele>254.6</ele>
        <time>2022-02-24T15:07:01Z</time>
      </trkpt>
      <trkpt lat="46.44953" lon="5.34108">
        <ele>255.8</ele>
        <time>2022-02-24T15:07:05Z</time>
      </trkpt>
      <trkpt lat="46.44977" lon="5.34114">
        <ele>257.2</ele>
        <time>2022-02-24T15:07:10Z</time>
      </trkpt>
      <trkpt lat="46.44995" lon="5.3412">
        <ele>258</ele>
        <time>2022-02-24T15:07:14Z</time>
      </trkpt>
      <trkpt lat="46.45005" lon="5.34122">
        <ele>258.2</ele>
        <time>2022-02-24T15:07:16Z</time>
      </trkpt>
      <trkpt lat="46.45023" lon="5.34123">
        <ele>259.4</ele>
        <time>2022-02-24T15:07:20Z</time>
      </trkpt>
      <trkpt lat="46.45032" lon="5.34123">
        <ele>259.6</ele>
        <time>2022-02-24T15:07:22Z</time>
      </trkpt>
      <trkpt lat="46.4505" lon="5.34122">
        <ele>260.4</ele>
        <time>2022-02-24T15:07:26Z</time>
      </trkpt>
      <trkpt lat="46.45073" lon="5.34118">
        <ele>261.6</ele>
        <time>2022-02-24T15:07:31Z</time>
      </trkpt>
      <trkpt lat="46.45083" lon="5.34116">
        <ele>262</ele>
        <time>2022-02-24T15:07:33Z</time>
      </trkpt>
      <trkpt lat="46.45109" lon="5.34112">
        <ele>262.8</ele>
        <time>2022-02-24T15:07:38Z</time>
      </trkpt>
      <trkpt lat="46.4513" lon="5.34108">
        <ele>263.2</ele>
        <time>2022-02-24T15:07:42Z</time>
      </trkpt>
      <trkpt lat="46.45178" lon="5.34097">
        <ele>263.2</ele>
        <time>2022-02-24T15:07:50Z</time>
      </trkpt>
      <trkpt lat="46.4523" lon="5.34086">
        <ele>262.6</ele>
        <time>2022-02-24T15:07:57Z</time>
      </trkpt>
      <trkpt lat="46.45287" lon="5.34074">
        <ele>261.4</ele>
        <time>2022-02-24T15:08:04Z</time>
      </trkpt>
      <trkpt lat="46.45303" lon="5.34071">
        <ele>260.4</ele>
        <time>2022-02-24T15:08:06Z</time>
      </trkpt>
      <trkpt lat="46.45344" lon="5.34064">
        <ele>259.8</ele>
        <time>2022-02-24T15:08:11Z</time>
      </trkpt>
      <trkpt lat="46.45394" lon="5.34055">
        <ele>259.2</ele>
        <time>2022-02-24T15:08:17Z</time>
      </trkpt>
      <trkpt lat="46.45412" lon="5.34053">
        <ele>258.8</ele>
        <time>2022-02-24T15:08:19Z</time>
      </trkpt>
      <trkpt lat="46.4543" lon="5.34051">
        <ele>258.2</ele>
        <time>2022-02-24T15:08:21Z</time>
      </trkpt>
      <trkpt lat="46.45448" lon="5.34046">
        <ele>257.4</ele>
        <time>2022-02-24T15:08:23Z</time>
      </trkpt>
      <trkpt lat="46.45457" lon="5.34043">
        <ele>257</ele>
        <time>2022-02-24T15:08:24Z</time>
      </trkpt>
      <trkpt lat="46.45467" lon="5.34039">
        <ele>256.8</ele>
        <time>2022-02-24T15:08:25Z</time>
      </trkpt>
      <trkpt lat="46.45487" lon="5.34028">
        <ele>256.6</ele>
        <time>2022-02-24T15:08:27Z</time>
      </trkpt>
      <trkpt lat="46.45496" lon="5.3402">
        <ele>256</ele>
        <time>2022-02-24T15:08:28Z</time>
      </trkpt>
      <trkpt lat="46.45523" lon="5.33993">
        <ele>255.2</ele>
        <time>2022-02-24T15:08:31Z</time>
      </trkpt>
      <trkpt lat="46.4554" lon="5.33971">
        <ele>254.4</ele>
        <time>2022-02-24T15:08:33Z</time>
      </trkpt>
      <trkpt lat="46.45555" lon="5.33947">
        <ele>253.2</ele>
        <time>2022-02-24T15:08:35Z</time>
      </trkpt>
      <trkpt lat="46.45561" lon="5.33934">
        <ele>252.8</ele>
        <time>2022-02-24T15:08:36Z</time>
      </trkpt>
      <trkpt lat="46.45574" lon="5.33906">
        <ele>251</ele>
        <time>2022-02-24T15:08:38Z</time>
      </trkpt>
      <trkpt lat="46.45587" lon="5.33877">
        <ele>249.8</ele>
        <time>2022-02-24T15:08:40Z</time>
      </trkpt>
      <trkpt lat="46.4561" lon="5.33832">
        <ele>248.6</ele>
        <time>2022-02-24T15:08:43Z</time>
      </trkpt>
      <trkpt lat="46.45621" lon="5.33803">
        <ele>247.2</ele>
        <time>2022-02-24T15:08:45Z</time>
      </trkpt>
      <trkpt lat="46.45633" lon="5.33774">
        <ele>245.8</ele>
        <time>2022-02-24T15:08:47Z</time>
      </trkpt>
      <trkpt lat="46.45645" lon="5.33746">
        <ele>245.2</ele>
        <time>2022-02-24T15:08:49Z</time>
      </trkpt>
      <trkpt lat="46.45659" lon="5.3372">
        <ele>244.6</ele>
        <time>2022-02-24T15:08:51Z</time>
      </trkpt>
      <trkpt lat="46.45671" lon="5.33694">
        <ele>244.4</ele>
        <time>2022-02-24T15:08:53Z</time>
      </trkpt>
      <trkpt lat="46.45691" lon="5.33639">
        <ele>243.6</ele>
        <time>2022-02-24T15:08:57Z</time>
      </trkpt>
      <trkpt lat="46.457" lon="5.33612">
        <ele>243.2</ele>
        <time>2022-02-24T15:08:59Z</time>
      </trkpt>
      <trkpt lat="46.45732" lon="5.33535">
        <ele>242.4</ele>
        <time>2022-02-24T15:09:05Z</time>
      </trkpt>
      <trkpt lat="46.45749" lon="5.33495">
        <ele>241.2</ele>
        <time>2022-02-24T15:09:08Z</time>
      </trkpt>
      <trkpt lat="46.45759" lon="5.33469">
        <ele>240</ele>
        <time>2022-02-24T15:09:10Z</time>
      </trkpt>
      <trkpt lat="46.45774" lon="5.33433">
        <ele>239.4</ele>
        <time>2022-02-24T15:09:13Z</time>
      </trkpt>
      <trkpt lat="46.45788" lon="5.33397">
        <ele>238.8</ele>
        <time>2022-02-24T15:09:16Z</time>
      </trkpt>
      <trkpt lat="46.45799" lon="5.33374">
        <ele>238.6</ele>
        <time>2022-02-24T15:09:18Z</time>
      </trkpt>
      <trkpt lat="46.45832" lon="5.33309">
        <ele>238.6</ele>
        <time>2022-02-24T15:09:24Z</time>
      </trkpt>
      <trkpt lat="46.45872" lon="5.33243">
        <ele>238.2</ele>
        <time>2022-02-24T15:09:31Z</time>
      </trkpt>
      <trkpt lat="46.45914" lon="5.33197">
        <ele>238</ele>
        <time>2022-02-24T15:09:37Z</time>
      </trkpt>
      <trkpt lat="46.45962" lon="5.33146">
        <ele>237.8</ele>
        <time>2022-02-24T15:09:44Z</time>
      </trkpt>
      <trkpt lat="46.4597" lon="5.33138">
        <ele>237.8</ele>
        <time>2022-02-24T15:09:45Z</time>
      </trkpt>
      <trkpt lat="46.45985" lon="5.33123">
        <ele>237.8</ele>
        <time>2022-02-24T15:09:47Z</time>
      </trkpt>
      <trkpt lat="46.46035" lon="5.33076">
        <ele>236.6</ele>
        <time>2022-02-24T15:09:54Z</time>
      </trkpt>
      <trkpt lat="46.46075" lon="5.33038">
        <ele>236.4</ele>
        <time>2022-02-24T15:10:00Z</time>
      </trkpt>
      <trkpt lat="46.46118" lon="5.33008">
        <ele>236.6</ele>
        <time>2022-02-24T15:10:06Z</time>
      </trkpt>
      <trkpt lat="46.46171" lon="5.32974">
        <ele>235.8</ele>
        <time>2022-02-24T15:10:13Z</time>
      </trkpt>
      <trkpt lat="46.46179" lon="5.32968">
        <ele>235.6</ele>
        <time>2022-02-24T15:10:14Z</time>
      </trkpt>
      <trkpt lat="46.46208" lon="5.32944">
        <ele>235.4</ele>
        <time>2022-02-24T15:10:18Z</time>
      </trkpt>
      <trkpt lat="46.46214" lon="5.32936">
        <ele>235.4</ele>
        <time>2022-02-24T15:10:19Z</time>
      </trkpt>
      <trkpt lat="46.46238" lon="5.32901">
        <ele>235</ele>
        <time>2022-02-24T15:10:23Z</time>
      </trkpt>
      <trkpt lat="46.46249" lon="5.32884">
        <ele>235</ele>
        <time>2022-02-24T15:10:25Z</time>
      </trkpt>
      <trkpt lat="46.46281" lon="5.32837">
        <ele>235</ele>
        <time>2022-02-24T15:10:31Z</time>
      </trkpt>
      <trkpt lat="46.46286" lon="5.3283">
        <ele>235.2</ele>
        <time>2022-02-24T15:10:32Z</time>
      </trkpt>
      <trkpt lat="46.46307" lon="5.32798">
        <ele>235.4</ele>
        <time>2022-02-24T15:10:36Z</time>
      </trkpt>
      <trkpt lat="46.46316" lon="5.32779">
        <ele>235.4</ele>
        <time>2022-02-24T15:10:38Z</time>
      </trkpt>
      <trkpt lat="46.46321" lon="5.32757">
        <ele>235.4</ele>
        <time>2022-02-24T15:10:40Z</time>
      </trkpt>
      <trkpt lat="46.46323" lon="5.32746">
        <ele>235.4</ele>
        <time>2022-02-24T15:10:41Z</time>
      </trkpt>
      <trkpt lat="46.46326" lon="5.32712">
        <ele>235.4</ele>
        <time>2022-02-24T15:10:44Z</time>
      </trkpt>
      <trkpt lat="46.46325" lon="5.32629">
        <ele>235</ele>
        <time>2022-02-24T15:10:51Z</time>
      </trkpt>
      <trkpt lat="46.46326" lon="5.32607">
        <ele>234.8</ele>
        <time>2022-02-24T15:10:53Z</time>
      </trkpt>
      <trkpt lat="46.46329" lon="5.32585">
        <ele>234.6</ele>
        <time>2022-02-24T15:10:55Z</time>
      </trkpt>
      <trkpt lat="46.46336" lon="5.32555">
        <ele>234.6</ele>
        <time>2022-02-24T15:10:58Z</time>
      </trkpt>
      <trkpt lat="46.46355" lon="5.32502">
        <ele>234.6</ele>
        <time>2022-02-24T15:11:04Z</time>
      </trkpt>
      <trkpt lat="46.46379" lon="5.32442">
        <ele>235.2</ele>
        <time>2022-02-24T15:11:11Z</time>
      </trkpt>
      <trkpt lat="46.46405" lon="5.3238">
        <ele>235.4</ele>
        <time>2022-02-24T15:11:18Z</time>
      </trkpt>
      <trkpt lat="46.46422" lon="5.32347">
        <ele>235.6</ele>
        <time>2022-02-24T15:11:22Z</time>
      </trkpt>
      <trkpt lat="46.46441" lon="5.32313">
        <ele>235.8</ele>
        <time>2022-02-24T15:11:26Z</time>
      </trkpt>
      <trkpt lat="46.46472" lon="5.32254">
        <ele>235.4</ele>
        <time>2022-02-24T15:11:33Z</time>
      </trkpt>
      <trkpt lat="46.46476" lon="5.32246">
        <ele>235.4</ele>
        <time>2022-02-24T15:11:34Z</time>
      </trkpt>
      <trkpt lat="46.46495" lon="5.32213">
        <ele>235.4</ele>
        <time>2022-02-24T15:11:38Z</time>
      </trkpt>
      <trkpt lat="46.46523" lon="5.32161">
        <ele>235</ele>
        <time>2022-02-24T15:11:44Z</time>
      </trkpt>
      <trkpt lat="46.46556" lon="5.32101">
        <ele>234.8</ele>
        <time>2022-02-24T15:11:51Z</time>
      </trkpt>
      <trkpt lat="46.46593" lon="5.32034">
        <ele>234.6</ele>
        <time>2022-02-24T15:11:59Z</time>
      </trkpt>
      <trkpt lat="46.46629" lon="5.31968">
        <ele>234.8</ele>
        <time>2022-02-24T15:12:07Z</time>
      </trkpt>
      <trkpt lat="46.46633" lon="5.31962">
        <ele>234.8</ele>
        <time>2022-02-24T15:12:08Z</time>
      </trkpt>
      <trkpt lat="46.46661" lon="5.31927">
        <ele>234.4</ele>
        <time>2022-02-24T15:12:13Z</time>
      </trkpt>
      <trkpt lat="46.46668" lon="5.31921">
        <ele>234.2</ele>
        <time>2022-02-24T15:12:14Z</time>
      </trkpt>
      <trkpt lat="46.46717" lon="5.3188">
        <ele>233.8</ele>
        <time>2022-02-24T15:12:21Z</time>
      </trkpt>
      <trkpt lat="46.46724" lon="5.31875">
        <ele>233.6</ele>
        <time>2022-02-24T15:12:22Z</time>
      </trkpt>
      <trkpt lat="46.46737" lon="5.31864">
        <ele>233.4</ele>
        <time>2022-02-24T15:12:24Z</time>
      </trkpt>
      <trkpt lat="46.46767" lon="5.31833">
        <ele>233</ele>
        <time>2022-02-24T15:12:29Z</time>
      </trkpt>
      <trkpt lat="46.46811" lon="5.31778">
        <ele>233</ele>
        <time>2022-02-24T15:12:37Z</time>
      </trkpt>
      <trkpt lat="46.46816" lon="5.31772">
        <ele>233.2</ele>
        <time>2022-02-24T15:12:38Z</time>
      </trkpt>
      <trkpt lat="46.46828" lon="5.31758">
        <ele>233.4</ele>
        <time>2022-02-24T15:12:40Z</time>
      </trkpt>
      <trkpt lat="46.46844" lon="5.3174">
        <ele>233.4</ele>
        <time>2022-02-24T15:12:43Z</time>
      </trkpt>
      <trkpt lat="46.46887" lon="5.31689">
        <ele>233.8</ele>
        <time>2022-02-24T15:12:51Z</time>
      </trkpt>
      <trkpt lat="46.46917" lon="5.31654">
        <ele>234</ele>
        <time>2022-02-24T15:12:57Z</time>
      </trkpt>
      <trkpt lat="46.46931" lon="5.31637">
        <ele>234.4</ele>
        <time>2022-02-24T15:13:00Z</time>
      </trkpt>
      <trkpt lat="46.46943" lon="5.31624">
        <ele>234.6</ele>
        <time>2022-02-24T15:13:02Z</time>
      </trkpt>
      <trkpt lat="46.46976" lon="5.31581">
        <ele>235</ele>
        <time>2022-02-24T15:13:08Z</time>
      </trkpt>
      <trkpt lat="46.46986" lon="5.31566">
        <ele>235</ele>
        <time>2022-02-24T15:13:10Z</time>
      </trkpt>
      <trkpt lat="46.47004" lon="5.31544">
        <ele>235</ele>
        <time>2022-02-24T15:13:13Z</time>
      </trkpt>
      <trkpt lat="46.47023" lon="5.31522">
        <ele>235</ele>
        <time>2022-02-24T15:13:16Z</time>
      </trkpt>
      <trkpt lat="46.47041" lon="5.31498">
        <ele>234.4</ele>
        <time>2022-02-24T15:13:19Z</time>
      </trkpt>
      <trkpt lat="46.47066" lon="5.31465">
        <ele>234</ele>
        <time>2022-02-24T15:13:23Z</time>
      </trkpt>
      <trkpt lat="46.47078" lon="5.31453">
        <ele>233.8</ele>
        <time>2022-02-24T15:13:25Z</time>
      </trkpt>
      <trkpt lat="46.47084" lon="5.31445">
        <ele>233.6</ele>
        <time>2022-02-24T15:13:26Z</time>
      </trkpt>
      <trkpt lat="46.47095" lon="5.31429">
        <ele>233.4</ele>
        <time>2022-02-24T15:13:28Z</time>
      </trkpt>
      <trkpt lat="46.47118" lon="5.31397">
        <ele>232.8</ele>
        <time>2022-02-24T15:13:32Z</time>
      </trkpt>
      <trkpt lat="46.47129" lon="5.3138">
        <ele>232.8</ele>
        <time>2022-02-24T15:13:34Z</time>
      </trkpt>
      <trkpt lat="46.4716" lon="5.31332">
        <ele>232.8</ele>
        <time>2022-02-24T15:13:40Z</time>
      </trkpt>
      <trkpt lat="46.47165" lon="5.31325">
        <ele>232.8</ele>
        <time>2022-02-24T15:13:41Z</time>
      </trkpt>
      <trkpt lat="46.47176" lon="5.31308">
        <ele>232.8</ele>
        <time>2022-02-24T15:13:43Z</time>
      </trkpt>
      <trkpt lat="46.47188" lon="5.31292">
        <ele>232.8</ele>
        <time>2022-02-24T15:13:45Z</time>
      </trkpt>
      <trkpt lat="46.47217" lon="5.31251">
        <ele>232.6</ele>
        <time>2022-02-24T15:13:50Z</time>
      </trkpt>
      <trkpt lat="46.47225" lon="5.31244">
        <ele>232.6</ele>
        <time>2022-02-24T15:13:51Z</time>
      </trkpt>
      <trkpt lat="46.47231" lon="5.31236">
        <ele>232.6</ele>
        <time>2022-02-24T15:13:52Z</time>
      </trkpt>
      <trkpt lat="46.47237" lon="5.31228">
        <ele>232</ele>
        <time>2022-02-24T15:13:53Z</time>
      </trkpt>
      <trkpt lat="46.47252" lon="5.31214">
        <ele>231.6</ele>
        <time>2022-02-24T15:13:55Z</time>
      </trkpt>
      <trkpt lat="46.4727" lon="5.31181">
        <ele>231.4</ele>
        <time>2022-02-24T15:13:59Z</time>
      </trkpt>
      <trkpt lat="46.47282" lon="5.31162">
        <ele>231.4</ele>
        <time>2022-02-24T15:14:01Z</time>
      </trkpt>
      <trkpt lat="46.47308" lon="5.31118">
        <ele>231</ele>
        <time>2022-02-24T15:14:06Z</time>
      </trkpt>
      <trkpt lat="46.4734" lon="5.31079">
        <ele>230.6</ele>
        <time>2022-02-24T15:14:11Z</time>
      </trkpt>
      <trkpt lat="46.47378" lon="5.31048">
        <ele>229.8</ele>
        <time>2022-02-24T15:14:16Z</time>
      </trkpt>
      <trkpt lat="46.47422" lon="5.3102">
        <ele>229</ele>
        <time>2022-02-24T15:14:21Z</time>
      </trkpt>
      <trkpt lat="46.47431" lon="5.31014">
        <ele>228.2</ele>
        <time>2022-02-24T15:14:22Z</time>
      </trkpt>
      <trkpt lat="46.47459" lon="5.30995">
        <ele>227</ele>
        <time>2022-02-24T15:14:25Z</time>
      </trkpt>
      <trkpt lat="46.47468" lon="5.30989">
        <ele>227</ele>
        <time>2022-02-24T15:14:26Z</time>
      </trkpt>
      <trkpt lat="46.47487" lon="5.30977">
        <ele>225.8</ele>
        <time>2022-02-24T15:14:28Z</time>
      </trkpt>
      <trkpt lat="46.47532" lon="5.3095">
        <ele>224.8</ele>
        <time>2022-02-24T15:14:33Z</time>
      </trkpt>
      <trkpt lat="46.47573" lon="5.30925">
        <ele>225</ele>
        <time>2022-02-24T15:14:38Z</time>
      </trkpt>
      <trkpt lat="46.47617" lon="5.30906">
        <ele>226</ele>
        <time>2022-02-24T15:14:44Z</time>
      </trkpt>
      <trkpt lat="46.47644" lon="5.30896">
        <ele>226.8</ele>
        <time>2022-02-24T15:14:48Z</time>
      </trkpt>
      <trkpt lat="46.47658" lon="5.30893">
        <ele>227</ele>
        <time>2022-02-24T15:14:50Z</time>
      </trkpt>
      <trkpt lat="46.47685" lon="5.30898">
        <ele>228</ele>
        <time>2022-02-24T15:14:54Z</time>
      </trkpt>
      <trkpt lat="46.47692" lon="5.30901">
        <ele>228.2</ele>
        <time>2022-02-24T15:14:55Z</time>
      </trkpt>
      <trkpt lat="46.47705" lon="5.30906">
        <ele>229.2</ele>
        <time>2022-02-24T15:14:57Z</time>
      </trkpt>
      <trkpt lat="46.47738" lon="5.30911">
        <ele>230.2</ele>
        <time>2022-02-24T15:15:02Z</time>
      </trkpt>
      <trkpt lat="46.47744" lon="5.30911">
        <ele>230.4</ele>
        <time>2022-02-24T15:15:03Z</time>
      </trkpt>
      <trkpt lat="46.47761" lon="5.30905">
        <ele>231.6</ele>
        <time>2022-02-24T15:15:06Z</time>
      </trkpt>
      <trkpt lat="46.47767" lon="5.30902">
        <ele>231.8</ele>
        <time>2022-02-24T15:15:07Z</time>
      </trkpt>
      <trkpt lat="46.47772" lon="5.30897">
        <ele>232.4</ele>
        <time>2022-02-24T15:15:08Z</time>
      </trkpt>
      <trkpt lat="46.47776" lon="5.30892">
        <ele>232.6</ele>
        <time>2022-02-24T15:15:09Z</time>
      </trkpt>
      <trkpt lat="46.47786" lon="5.3088">
        <ele>233.4</ele>
        <time>2022-02-24T15:15:11Z</time>
      </trkpt>
      <trkpt lat="46.4779" lon="5.30874">
        <ele>233.8</ele>
        <time>2022-02-24T15:15:12Z</time>
      </trkpt>
      <trkpt lat="46.47811" lon="5.30838">
        <ele>234.8</ele>
        <time>2022-02-24T15:15:17Z</time>
      </trkpt>
      <trkpt lat="46.47816" lon="5.30832">
        <ele>235</ele>
        <time>2022-02-24T15:15:18Z</time>
      </trkpt>
      <trkpt lat="46.47838" lon="5.30811">
        <ele>235</ele>
        <time>2022-02-24T15:15:22Z</time>
      </trkpt>
      <trkpt lat="46.47845" lon="5.30807">
        <ele>235</ele>
        <time>2022-02-24T15:15:23Z</time>
      </trkpt>
      <trkpt lat="46.47853" lon="5.30805">
        <ele>235</ele>
        <time>2022-02-24T15:15:24Z</time>
      </trkpt>
      <trkpt lat="46.47869" lon="5.30803">
        <ele>234.6</ele>
        <time>2022-02-24T15:15:26Z</time>
      </trkpt>
      <trkpt lat="46.47878" lon="5.30804">
        <ele>234.4</ele>
        <time>2022-02-24T15:15:27Z</time>
      </trkpt>
      <trkpt lat="46.47887" lon="5.30806">
        <ele>233.6</ele>
        <time>2022-02-24T15:15:28Z</time>
      </trkpt>
      <trkpt lat="46.47924" lon="5.30818">
        <ele>232.4</ele>
        <time>2022-02-24T15:15:32Z</time>
      </trkpt>
      <trkpt lat="46.47934" lon="5.3082">
        <ele>231.4</ele>
        <time>2022-02-24T15:15:33Z</time>
      </trkpt>
      <trkpt lat="46.47944" lon="5.30821">
        <ele>230.6</ele>
        <time>2022-02-24T15:15:34Z</time>
      </trkpt>
      <trkpt lat="46.47955" lon="5.3082">
        <ele>230</ele>
        <time>2022-02-24T15:15:35Z</time>
      </trkpt>
      <trkpt lat="46.47966" lon="5.30818">
        <ele>229.6</ele>
        <time>2022-02-24T15:15:36Z</time>
      </trkpt>
      <trkpt lat="46.47984" lon="5.30812">
        <ele>228</ele>
        <time>2022-02-24T15:15:38Z</time>
      </trkpt>
      <trkpt lat="46.48003" lon="5.30801">
        <ele>226.8</ele>
        <time>2022-02-24T15:15:40Z</time>
      </trkpt>
      <trkpt lat="46.48043" lon="5.30779">
        <ele>226.4</ele>
        <time>2022-02-24T15:15:45Z</time>
      </trkpt>
      <trkpt lat="46.48086" lon="5.30756">
        <ele>228.2</ele>
        <time>2022-02-24T15:15:51Z</time>
      </trkpt>
      <trkpt lat="46.48102" lon="5.30748">
        <ele>228.6</ele>
        <time>2022-02-24T15:15:53Z</time>
      </trkpt>
      <trkpt lat="46.48161" lon="5.30714">
        <ele>228.8</ele>
        <time>2022-02-24T15:16:01Z</time>
      </trkpt>
      <trkpt lat="46.48209" lon="5.30689">
        <ele>228.2</ele>
        <time>2022-02-24T15:16:07Z</time>
      </trkpt>
      <trkpt lat="46.48218" lon="5.30687">
        <ele>227.8</ele>
        <time>2022-02-24T15:16:08Z</time>
      </trkpt>
      <trkpt lat="46.48256" lon="5.30692">
        <ele>227</ele>
        <time>2022-02-24T15:16:12Z</time>
      </trkpt>
      <trkpt lat="46.48281" lon="5.30699">
        <ele>225.8</ele>
        <time>2022-02-24T15:16:15Z</time>
      </trkpt>
      <trkpt lat="46.48299" lon="5.30702">
        <ele>224.8</ele>
        <time>2022-02-24T15:16:17Z</time>
      </trkpt>
      <trkpt lat="46.48308" lon="5.30702">
        <ele>224.6</ele>
        <time>2022-02-24T15:16:18Z</time>
      </trkpt>
      <trkpt lat="46.48317" lon="5.307">
        <ele>224.4</ele>
        <time>2022-02-24T15:16:19Z</time>
      </trkpt>
      <trkpt lat="46.48334" lon="5.30692">
        <ele>224</ele>
        <time>2022-02-24T15:16:21Z</time>
      </trkpt>
      <trkpt lat="46.48371" lon="5.3066">
        <ele>224</ele>
        <time>2022-02-24T15:16:26Z</time>
      </trkpt>
      <trkpt lat="46.4842" lon="5.30612">
        <ele>224.6</ele>
        <time>2022-02-24T15:16:33Z</time>
      </trkpt>
      <trkpt lat="46.48433" lon="5.30598">
        <ele>224.6</ele>
        <time>2022-02-24T15:16:35Z</time>
      </trkpt>
      <trkpt lat="46.48479" lon="5.30555">
        <ele>225.2</ele>
        <time>2022-02-24T15:16:42Z</time>
      </trkpt>
      <trkpt lat="46.48509" lon="5.30524">
        <ele>226</ele>
        <time>2022-02-24T15:16:47Z</time>
      </trkpt>
      <trkpt lat="46.48515" lon="5.30518">
        <ele>226.2</ele>
        <time>2022-02-24T15:16:48Z</time>
      </trkpt>
      <trkpt lat="46.48543" lon="5.30497">
        <ele>226.8</ele>
        <time>2022-02-24T15:16:53Z</time>
      </trkpt>
      <trkpt lat="46.48549" lon="5.30494">
        <ele>226.8</ele>
        <time>2022-02-24T15:16:54Z</time>
      </trkpt>
      <trkpt lat="46.48554" lon="5.30494">
        <ele>227</ele>
        <time>2022-02-24T15:16:55Z</time>
      </trkpt>
      <trkpt lat="46.48561" lon="5.30504">
        <ele>227</ele>
        <time>2022-02-24T15:16:57Z</time>
      </trkpt>
      <trkpt lat="46.48559" lon="5.30519">
        <ele>227</ele>
        <time>2022-02-24T15:16:59Z</time>
      </trkpt>
      <trkpt lat="46.48557" lon="5.30528">
        <ele>227</ele>
        <time>2022-02-24T15:17:00Z</time>
      </trkpt>
      <trkpt lat="46.4855" lon="5.3058">
        <ele>226</ele>
        <time>2022-02-24T15:17:05Z</time>
      </trkpt>
      <trkpt lat="46.48541" lon="5.30649">
        <ele>225</ele>
        <time>2022-02-24T15:17:11Z</time>
      </trkpt>
      <trkpt lat="46.48541" lon="5.30659">
        <ele>224.6</ele>
        <time>2022-02-24T15:17:12Z</time>
      </trkpt>
      <trkpt lat="46.48542" lon="5.30672">
        <ele>224.2</ele>
        <time>2022-02-24T15:17:13Z</time>
      </trkpt>
      <trkpt lat="46.48544" lon="5.30687">
        <ele>223.6</ele>
        <time>2022-02-24T15:17:14Z</time>
      </trkpt>
      <trkpt lat="46.48549" lon="5.3071">
        <ele>222.8</ele>
        <time>2022-02-24T15:17:16Z</time>
      </trkpt>
      <trkpt lat="46.48559" lon="5.30732">
        <ele>222.2</ele>
        <time>2022-02-24T15:17:18Z</time>
      </trkpt>
      <trkpt lat="46.48565" lon="5.30742">
        <ele>221.8</ele>
        <time>2022-02-24T15:17:19Z</time>
      </trkpt>
      <trkpt lat="46.48574" lon="5.30752">
        <ele>221.6</ele>
        <time>2022-02-24T15:17:20Z</time>
      </trkpt>
      <trkpt lat="46.4858" lon="5.30758">
        <ele>221</ele>
        <time>2022-02-24T15:17:21Z</time>
      </trkpt>
      <trkpt lat="46.48596" lon="5.30775">
        <ele>220.4</ele>
        <time>2022-02-24T15:17:23Z</time>
      </trkpt>
      <trkpt lat="46.48604" lon="5.30782">
        <ele>219.8</ele>
        <time>2022-02-24T15:17:24Z</time>
      </trkpt>
      <trkpt lat="46.48619" lon="5.30794">
        <ele>218.8</ele>
        <time>2022-02-24T15:17:26Z</time>
      </trkpt>
      <trkpt lat="46.48646" lon="5.30811">
        <ele>218</ele>
        <time>2022-02-24T15:17:29Z</time>
      </trkpt>
      <trkpt lat="46.48683" lon="5.30834">
        <ele>217.8</ele>
        <time>2022-02-24T15:17:34Z</time>
      </trkpt>
      <trkpt lat="46.48702" lon="5.30847">
        <ele>218.2</ele>
        <time>2022-02-24T15:17:37Z</time>
      </trkpt>
      <trkpt lat="46.48707" lon="5.30854">
        <ele>218.4</ele>
        <time>2022-02-24T15:17:38Z</time>
      </trkpt>
      <trkpt lat="46.48712" lon="5.30861">
        <ele>218.8</ele>
        <time>2022-02-24T15:17:39Z</time>
      </trkpt>
      <trkpt lat="46.48717" lon="5.30878">
        <ele>219.6</ele>
        <time>2022-02-24T15:17:41Z</time>
      </trkpt>
      <trkpt lat="46.48717" lon="5.30898">
        <ele>219.8</ele>
        <time>2022-02-24T15:17:43Z</time>
      </trkpt>
      <trkpt lat="46.48714" lon="5.30906">
        <ele>220</ele>
        <time>2022-02-24T15:17:44Z</time>
      </trkpt>
      <trkpt lat="46.4871" lon="5.30911">
        <ele>220</ele>
        <time>2022-02-24T15:17:45Z</time>
      </trkpt>
      <trkpt lat="46.487" lon="5.30925">
        <ele>220.2</ele>
        <time>2022-02-24T15:17:47Z</time>
      </trkpt>
      <trkpt lat="46.48696" lon="5.30932">
        <ele>220.2</ele>
        <time>2022-02-24T15:17:48Z</time>
      </trkpt>
      <trkpt lat="46.48694" lon="5.30937">
        <ele>220.4</ele>
        <time>2022-02-24T15:17:49Z</time>
      </trkpt>
      <trkpt lat="46.48683" lon="5.3096">
        <ele>221.2</ele>
        <time>2022-02-24T15:17:52Z</time>
      </trkpt>
      <trkpt lat="46.48677" lon="5.30973">
        <ele>222.2</ele>
        <time>2022-02-24T15:17:54Z</time>
      </trkpt>
      <trkpt lat="46.48673" lon="5.30982">
        <ele>222.6</ele>
        <time>2022-02-24T15:17:55Z</time>
      </trkpt>
      <trkpt lat="46.48659" lon="5.3101">
        <ele>223.6</ele>
        <time>2022-02-24T15:17:59Z</time>
      </trkpt>
      <trkpt lat="46.48648" lon="5.31032">
        <ele>223.8</ele>
        <time>2022-02-24T15:18:02Z</time>
      </trkpt>
      <trkpt lat="46.48618" lon="5.31093">
        <ele>223</ele>
        <time>2022-02-24T15:18:09Z</time>
      </trkpt>
      <trkpt lat="46.48608" lon="5.31112">
        <ele>222.6</ele>
        <time>2022-02-24T15:18:11Z</time>
      </trkpt>
      <trkpt lat="46.48593" lon="5.31143">
        <ele>221</ele>
        <time>2022-02-24T15:18:14Z</time>
      </trkpt>
      <trkpt lat="46.48579" lon="5.31172">
        <ele>220.2</ele>
        <time>2022-02-24T15:18:17Z</time>
      </trkpt>
      <trkpt lat="46.48568" lon="5.31194">
        <ele>219.8</ele>
        <time>2022-02-24T15:18:19Z</time>
      </trkpt>
      <trkpt lat="46.48554" lon="5.31226">
        <ele>219.2</ele>
        <time>2022-02-24T15:18:22Z</time>
      </trkpt>
      <trkpt lat="46.4855" lon="5.31237">
        <ele>218.8</ele>
        <time>2022-02-24T15:18:23Z</time>
      </trkpt>
      <trkpt lat="46.48548" lon="5.31247">
        <ele>218.8</ele>
        <time>2022-02-24T15:18:24Z</time>
      </trkpt>
      <trkpt lat="46.48547" lon="5.31271">
        <ele>218.4</ele>
        <time>2022-02-24T15:18:26Z</time>
      </trkpt>
      <trkpt lat="46.48551" lon="5.31318">
        <ele>217.6</ele>
        <time>2022-02-24T15:18:30Z</time>
      </trkpt>
      <trkpt lat="46.48556" lon="5.31355">
        <ele>217</ele>
        <time>2022-02-24T15:18:33Z</time>
      </trkpt>
      <trkpt lat="46.48563" lon="5.31375">
        <ele>216.8</ele>
        <time>2022-02-24T15:18:35Z</time>
      </trkpt>
      <trkpt lat="46.4857" lon="5.31386">
        <ele>216.2</ele>
        <time>2022-02-24T15:18:36Z</time>
      </trkpt>
      <trkpt lat="46.48586" lon="5.31403">
        <ele>215</ele>
        <time>2022-02-24T15:18:38Z</time>
      </trkpt>
      <trkpt lat="46.48591" lon="5.31411">
        <ele>214.6</ele>
        <time>2022-02-24T15:18:39Z</time>
      </trkpt>
      <trkpt lat="46.48598" lon="5.31421">
        <ele>214.2</ele>
        <time>2022-02-24T15:18:40Z</time>
      </trkpt>
      <trkpt lat="46.48605" lon="5.31435">
        <ele>213.6</ele>
        <time>2022-02-24T15:18:41Z</time>
      </trkpt>
      <trkpt lat="46.48611" lon="5.31458">
        <ele>212.6</ele>
        <time>2022-02-24T15:18:43Z</time>
      </trkpt>
      <trkpt lat="46.48611" lon="5.31487">
        <ele>211.4</ele>
        <time>2022-02-24T15:18:45Z</time>
      </trkpt>
      <trkpt lat="46.48613" lon="5.31499">
        <ele>210.8</ele>
        <time>2022-02-24T15:18:46Z</time>
      </trkpt>
      <trkpt lat="46.4862" lon="5.31518">
        <ele>210.2</ele>
        <time>2022-02-24T15:18:48Z</time>
      </trkpt>
      <trkpt lat="46.48626" lon="5.31526">
        <ele>210</ele>
        <time>2022-02-24T15:18:49Z</time>
      </trkpt>
      <trkpt lat="46.48657" lon="5.31567">
        <ele>210</ele>
        <time>2022-02-24T15:18:54Z</time>
      </trkpt>
      <trkpt lat="46.48693" lon="5.31615">
        <ele>210.2</ele>
        <time>2022-02-24T15:19:00Z</time>
      </trkpt>
      <trkpt lat="46.48699" lon="5.31623">
        <ele>210.4</ele>
        <time>2022-02-24T15:19:01Z</time>
      </trkpt>
      <trkpt lat="46.48706" lon="5.3163">
        <ele>210.4</ele>
        <time>2022-02-24T15:19:02Z</time>
      </trkpt>
      <trkpt lat="46.48718" lon="5.31646">
        <ele>210.4</ele>
        <time>2022-02-24T15:19:04Z</time>
      </trkpt>
      <trkpt lat="46.4876" lon="5.31702">
        <ele>210.4</ele>
        <time>2022-02-24T15:19:11Z</time>
      </trkpt>
      <trkpt lat="46.48771" lon="5.31721">
        <ele>210.2</ele>
        <time>2022-02-24T15:19:13Z</time>
      </trkpt>
      <trkpt lat="46.48775" lon="5.31732">
        <ele>210.2</ele>
        <time>2022-02-24T15:19:14Z</time>
      </trkpt>
      <trkpt lat="46.48777" lon="5.31744">
        <ele>210.2</ele>
        <time>2022-02-24T15:19:15Z</time>
      </trkpt>
      <trkpt lat="46.48779" lon="5.31769">
        <ele>210.2</ele>
        <time>2022-02-24T15:19:17Z</time>
      </trkpt>
      <trkpt lat="46.48782" lon="5.31817">
        <ele>209.8</ele>
        <time>2022-02-24T15:19:21Z</time>
      </trkpt>
      <trkpt lat="46.48784" lon="5.31828">
        <ele>209.8</ele>
        <time>2022-02-24T15:19:22Z</time>
      </trkpt>
      <trkpt lat="46.48789" lon="5.31838">
        <ele>209.8</ele>
        <time>2022-02-24T15:19:23Z</time>
      </trkpt>
      <trkpt lat="46.48802" lon="5.3185">
        <ele>209.6</ele>
        <time>2022-02-24T15:19:25Z</time>
      </trkpt>
      <trkpt lat="46.48824" lon="5.31862">
        <ele>209.4</ele>
        <time>2022-02-24T15:19:28Z</time>
      </trkpt>
      <trkpt lat="46.48831" lon="5.31869">
        <ele>209.2</ele>
        <time>2022-02-24T15:19:29Z</time>
      </trkpt>
      <trkpt lat="46.48835" lon="5.31878">
        <ele>209.2</ele>
        <time>2022-02-24T15:19:30Z</time>
      </trkpt>
      <trkpt lat="46.48841" lon="5.31898">
        <ele>209.2</ele>
        <time>2022-02-24T15:19:32Z</time>
      </trkpt>
      <trkpt lat="46.48847" lon="5.31971">
        <ele>210.2</ele>
        <time>2022-02-24T15:19:39Z</time>
      </trkpt>
      <trkpt lat="46.48844" lon="5.32019">
        <ele>211</ele>
        <time>2022-02-24T15:19:44Z</time>
      </trkpt>
      <trkpt lat="46.48842" lon="5.32029">
        <ele>211.4</ele>
        <time>2022-02-24T15:19:45Z</time>
      </trkpt>
      <trkpt lat="46.48829" lon="5.32101">
        <ele>211.8</ele>
        <time>2022-02-24T15:19:53Z</time>
      </trkpt>
      <trkpt lat="46.48826" lon="5.32118">
        <ele>212.4</ele>
        <time>2022-02-24T15:19:55Z</time>
      </trkpt>
      <trkpt lat="46.48823" lon="5.32143">
        <ele>212.8</ele>
        <time>2022-02-24T15:19:58Z</time>
      </trkpt>
      <trkpt lat="46.48823" lon="5.3216">
        <ele>213</ele>
        <time>2022-02-24T15:20:00Z</time>
      </trkpt>
      <trkpt lat="46.48824" lon="5.32169">
        <ele>213.4</ele>
        <time>2022-02-24T15:20:01Z</time>
      </trkpt>
      <trkpt lat="46.48832" lon="5.32224">
        <ele>214.4</ele>
        <time>2022-02-24T15:20:08Z</time>
      </trkpt>
      <trkpt lat="46.48845" lon="5.32253">
        <ele>215</ele>
        <time>2022-02-24T15:20:12Z</time>
      </trkpt>
      <trkpt lat="46.48865" lon="5.32282">
        <ele>215.2</ele>
        <time>2022-02-24T15:20:16Z</time>
      </trkpt>
      <trkpt lat="46.48898" lon="5.32334">
        <ele>213.6</ele>
        <time>2022-02-24T15:20:21Z</time>
      </trkpt>
      <trkpt lat="46.48903" lon="5.32344">
        <ele>212.6</ele>
        <time>2022-02-24T15:20:22Z</time>
      </trkpt>
      <trkpt lat="46.48913" lon="5.3237">
        <ele>210.6</ele>
        <time>2022-02-24T15:20:24Z</time>
      </trkpt>
      <trkpt lat="46.48917" lon="5.32384">
        <ele>210.2</ele>
        <time>2022-02-24T15:20:25Z</time>
      </trkpt>
      <trkpt lat="46.48921" lon="5.32397">
        <ele>209.6</ele>
        <time>2022-02-24T15:20:26Z</time>
      </trkpt>
      <trkpt lat="46.48931" lon="5.32433">
        <ele>208.6</ele>
        <time>2022-02-24T15:20:29Z</time>
      </trkpt>
      <trkpt lat="46.48934" lon="5.32444">
        <ele>208</ele>
        <time>2022-02-24T15:20:30Z</time>
      </trkpt>
      <trkpt lat="46.4895" lon="5.32498">
        <ele>207.6</ele>
        <time>2022-02-24T15:20:35Z</time>
      </trkpt>
      <trkpt lat="46.48955" lon="5.3252">
        <ele>207.4</ele>
        <time>2022-02-24T15:20:37Z</time>
      </trkpt>
      <trkpt lat="46.48954" lon="5.32544">
        <ele>207.6</ele>
        <time>2022-02-24T15:20:39Z</time>
      </trkpt>
      <trkpt lat="46.48951" lon="5.32552">
        <ele>207.4</ele>
        <time>2022-02-24T15:20:40Z</time>
      </trkpt>
      <trkpt lat="46.48946" lon="5.32561">
        <ele>207.4</ele>
        <time>2022-02-24T15:20:41Z</time>
      </trkpt>
      <trkpt lat="46.48936" lon="5.32576">
        <ele>207.6</ele>
        <time>2022-02-24T15:20:43Z</time>
      </trkpt>
      <trkpt lat="46.48923" lon="5.32596">
        <ele>208</ele>
        <time>2022-02-24T15:20:46Z</time>
      </trkpt>
      <trkpt lat="46.48917" lon="5.32612">
        <ele>208.4</ele>
        <time>2022-02-24T15:20:48Z</time>
      </trkpt>
      <trkpt lat="46.48916" lon="5.3262">
        <ele>208.8</ele>
        <time>2022-02-24T15:20:49Z</time>
      </trkpt>
      <trkpt lat="46.48916" lon="5.32636">
        <ele>209.6</ele>
        <time>2022-02-24T15:20:51Z</time>
      </trkpt>
      <trkpt lat="46.48919" lon="5.32649">
        <ele>210.2</ele>
        <time>2022-02-24T15:20:53Z</time>
      </trkpt>
      <trkpt lat="46.48921" lon="5.32654">
        <ele>210.4</ele>
        <time>2022-02-24T15:20:54Z</time>
      </trkpt>
      <trkpt lat="46.48931" lon="5.32669">
        <ele>211.4</ele>
        <time>2022-02-24T15:20:57Z</time>
      </trkpt>
      <trkpt lat="46.48935" lon="5.32673">
        <ele>212</ele>
        <time>2022-02-24T15:20:58Z</time>
      </trkpt>
      <trkpt lat="46.48943" lon="5.32682">
        <ele>212.8</ele>
        <time>2022-02-24T15:21:00Z</time>
      </trkpt>
      <trkpt lat="46.48954" lon="5.32693">
        <ele>213.8</ele>
        <time>2022-02-24T15:21:03Z</time>
      </trkpt>
      <trkpt lat="46.48965" lon="5.32701">
        <ele>214.6</ele>
        <time>2022-02-24T15:21:06Z</time>
      </trkpt>
      <trkpt lat="46.48968" lon="5.32703">
        <ele>215</ele>
        <time>2022-02-24T15:21:07Z</time>
      </trkpt>
      <trkpt lat="46.48984" lon="5.32708">
        <ele>216</ele>
        <time>2022-02-24T15:21:11Z</time>
      </trkpt>
      <trkpt lat="46.48988" lon="5.32709">
        <ele>216.4</ele>
        <time>2022-02-24T15:21:12Z</time>
      </trkpt>
      <trkpt lat="46.49" lon="5.32709">
        <ele>217.2</ele>
        <time>2022-02-24T15:21:15Z</time>
      </trkpt>
      <trkpt lat="46.49014" lon="5.32708">
        <ele>218.4</ele>
        <time>2022-02-24T15:21:19Z</time>
      </trkpt>
      <trkpt lat="46.49018" lon="5.32708">
        <ele>218.8</ele>
        <time>2022-02-24T15:21:20Z</time>
      </trkpt>
      <trkpt lat="46.49033" lon="5.32707">
        <ele>219.6</ele>
        <time>2022-02-24T15:21:24Z</time>
      </trkpt>
      <trkpt lat="46.49044" lon="5.32704">
        <ele>220.2</ele>
        <time>2022-02-24T15:21:27Z</time>
      </trkpt>
      <trkpt lat="46.49053" lon="5.32701">
        <ele>220.8</ele>
        <time>2022-02-24T15:21:30Z</time>
      </trkpt>
      <trkpt lat="46.49067" lon="5.32699">
        <ele>221.8</ele>
        <time>2022-02-24T15:21:34Z</time>
      </trkpt>
      <trkpt lat="46.4907" lon="5.32699">
        <ele>222</ele>
        <time>2022-02-24T15:21:35Z</time>
      </trkpt>
      <trkpt lat="46.49087" lon="5.32696">
        <ele>223</ele>
        <time>2022-02-24T15:21:40Z</time>
      </trkpt>
      <trkpt lat="46.49091" lon="5.32696">
        <ele>223.2</ele>
        <time>2022-02-24T15:21:41Z</time>
      </trkpt>
      <trkpt lat="46.4911" lon="5.32699">
        <ele>224</ele>
        <time>2022-02-24T15:21:46Z</time>
      </trkpt>
      <trkpt lat="46.49113" lon="5.32701">
        <ele>224.2</ele>
        <time>2022-02-24T15:21:47Z</time>
      </trkpt>
      <trkpt lat="46.49123" lon="5.32714">
        <ele>224.6</ele>
        <time>2022-02-24T15:21:50Z</time>
      </trkpt>
      <trkpt lat="46.49126" lon="5.32719">
        <ele>225</ele>
        <time>2022-02-24T15:21:51Z</time>
      </trkpt>
      <trkpt lat="46.4913" lon="5.32731">
        <ele>225.4</ele>
        <time>2022-02-24T15:21:53Z</time>
      </trkpt>
      <trkpt lat="46.49136" lon="5.32764">
        <ele>226</ele>
        <time>2022-02-24T15:21:58Z</time>
      </trkpt>
      <trkpt lat="46.49142" lon="5.32803">
        <ele>226.2</ele>
        <time>2022-02-24T15:22:03Z</time>
      </trkpt>
      <trkpt lat="46.49141" lon="5.32823">
        <ele>226.2</ele>
        <time>2022-02-24T15:22:05Z</time>
      </trkpt>
      <trkpt lat="46.49138" lon="5.3284">
        <ele>226</ele>
        <time>2022-02-24T15:22:07Z</time>
      </trkpt>
      <trkpt lat="46.49125" lon="5.32894">
        <ele>225.2</ele>
        <time>2022-02-24T15:22:13Z</time>
      </trkpt>
      <trkpt lat="46.49123" lon="5.3292">
        <ele>224.8</ele>
        <time>2022-02-24T15:22:16Z</time>
      </trkpt>
      <trkpt lat="46.49123" lon="5.32939">
        <ele>224.8</ele>
        <time>2022-02-24T15:22:18Z</time>
      </trkpt>
      <trkpt lat="46.49123" lon="5.32957">
        <ele>225</ele>
        <time>2022-02-24T15:22:20Z</time>
      </trkpt>
      <trkpt lat="46.49124" lon="5.32982">
        <ele>225</ele>
        <time>2022-02-24T15:22:23Z</time>
      </trkpt>
      <trkpt lat="46.49126" lon="5.33015">
        <ele>225.4</ele>
        <time>2022-02-24T15:22:27Z</time>
      </trkpt>
      <trkpt lat="46.49127" lon="5.33025">
        <ele>225.6</ele>
        <time>2022-02-24T15:22:28Z</time>
      </trkpt>
      <trkpt lat="46.49129" lon="5.33032">
        <ele>225.8</ele>
        <time>2022-02-24T15:22:29Z</time>
      </trkpt>
      <trkpt lat="46.49131" lon="5.33048">
        <ele>226</ele>
        <time>2022-02-24T15:22:31Z</time>
      </trkpt>
      <trkpt lat="46.49133" lon="5.33055">
        <ele>226.4</ele>
        <time>2022-02-24T15:22:32Z</time>
      </trkpt>
      <trkpt lat="46.49155" lon="5.33109">
        <ele>226.8</ele>
        <time>2022-02-24T15:22:39Z</time>
      </trkpt>
      <trkpt lat="46.49163" lon="5.33121">
        <ele>226.8</ele>
        <time>2022-02-24T15:22:41Z</time>
      </trkpt>
      <trkpt lat="46.49169" lon="5.33126">
        <ele>226.8</ele>
        <time>2022-02-24T15:22:43Z</time>
      </trkpt>
      <trkpt lat="46.49177" lon="5.33135">
        <ele>227</ele>
        <time>2022-02-24T15:22:47Z</time>
      </trkpt>
      <trkpt lat="46.4919" lon="5.33149">
        <ele>227</ele>
        <time>2022-02-24T15:22:51Z</time>
      </trkpt>
      <trkpt lat="46.49216" lon="5.33173">
        <ele>227</ele>
        <time>2022-02-24T15:22:57Z</time>
      </trkpt>
      <trkpt lat="46.49242" lon="5.33196">
        <ele>227.2</ele>
        <time>2022-02-24T15:23:02Z</time>
      </trkpt>
      <trkpt lat="46.49252" lon="5.33208">
        <ele>227.2</ele>
        <time>2022-02-24T15:23:04Z</time>
      </trkpt>
      <trkpt lat="46.49259" lon="5.33221">
        <ele>227.4</ele>
        <time>2022-02-24T15:23:06Z</time>
      </trkpt>
      <trkpt lat="46.49262" lon="5.33229">
        <ele>227.4</ele>
        <time>2022-02-24T15:23:07Z</time>
      </trkpt>
      <trkpt lat="46.49264" lon="5.33237">
        <ele>227.6</ele>
        <time>2022-02-24T15:23:08Z</time>
      </trkpt>
      <trkpt lat="46.49273" lon="5.33274">
        <ele>228.2</ele>
        <time>2022-02-24T15:23:12Z</time>
      </trkpt>
      <trkpt lat="46.49277" lon="5.33302">
        <ele>228.4</ele>
        <time>2022-02-24T15:23:15Z</time>
      </trkpt>
      <trkpt lat="46.49286" lon="5.33347">
        <ele>229.4</ele>
        <time>2022-02-24T15:23:20Z</time>
      </trkpt>
      <trkpt lat="46.4929" lon="5.33364">
        <ele>229.8</ele>
        <time>2022-02-24T15:23:22Z</time>
      </trkpt>
      <trkpt lat="46.493" lon="5.33414">
        <ele>230.6</ele>
        <time>2022-02-24T15:23:28Z</time>
      </trkpt>
      <trkpt lat="46.49304" lon="5.33439">
        <ele>230.8</ele>
        <time>2022-02-24T15:23:31Z</time>
      </trkpt>
      <trkpt lat="46.49311" lon="5.33484">
        <ele>231.4</ele>
        <time>2022-02-24T15:23:36Z</time>
      </trkpt>
      <trkpt lat="46.49317" lon="5.33553">
        <ele>231.6</ele>
        <time>2022-02-24T15:23:43Z</time>
      </trkpt>
      <trkpt lat="46.49314" lon="5.33573">
        <ele>231.2</ele>
        <time>2022-02-24T15:23:45Z</time>
      </trkpt>
      <trkpt lat="46.49308" lon="5.33601">
        <ele>231</ele>
        <time>2022-02-24T15:23:48Z</time>
      </trkpt>
      <trkpt lat="46.49302" lon="5.33659">
        <ele>231</ele>
        <time>2022-02-24T15:23:54Z</time>
      </trkpt>
      <trkpt lat="46.49299" lon="5.33726">
        <ele>231.4</ele>
        <time>2022-02-24T15:24:01Z</time>
      </trkpt>
      <trkpt lat="46.49298" lon="5.33735">
        <ele>231.4</ele>
        <time>2022-02-24T15:24:02Z</time>
      </trkpt>
      <trkpt lat="46.49292" lon="5.33772">
        <ele>231.8</ele>
        <time>2022-02-24T15:24:06Z</time>
      </trkpt>
      <trkpt lat="46.4929" lon="5.33781">
        <ele>232</ele>
        <time>2022-02-24T15:24:07Z</time>
      </trkpt>
      <trkpt lat="46.49277" lon="5.33844">
        <ele>232.8</ele>
        <time>2022-02-24T15:24:14Z</time>
      </trkpt>
      <trkpt lat="46.49272" lon="5.33872">
        <ele>233</ele>
        <time>2022-02-24T15:24:17Z</time>
      </trkpt>
      <trkpt lat="46.49266" lon="5.33901">
        <ele>233</ele>
        <time>2022-02-24T15:24:20Z</time>
      </trkpt>
      <trkpt lat="46.49252" lon="5.33971">
        <ele>233</ele>
        <time>2022-02-24T15:24:27Z</time>
      </trkpt>
      <trkpt lat="46.49236" lon="5.3405">
        <ele>233</ele>
        <time>2022-02-24T15:24:35Z</time>
      </trkpt>
      <trkpt lat="46.49234" lon="5.3406">
        <ele>233</ele>
        <time>2022-02-24T15:24:36Z</time>
      </trkpt>
      <trkpt lat="46.49224" lon="5.34119">
        <ele>232.8</ele>
        <time>2022-02-24T15:24:41Z</time>
      </trkpt>
      <trkpt lat="46.49213" lon="5.34169">
        <ele>231.4</ele>
        <time>2022-02-24T15:24:45Z</time>
      </trkpt>
      <trkpt lat="46.49203" lon="5.34219">
        <ele>230.2</ele>
        <time>2022-02-24T15:24:49Z</time>
      </trkpt>
      <trkpt lat="46.49201" lon="5.34232">
        <ele>230</ele>
        <time>2022-02-24T15:24:50Z</time>
      </trkpt>
      <trkpt lat="46.49187" lon="5.34298">
        <ele>229.8</ele>
        <time>2022-02-24T15:24:56Z</time>
      </trkpt>
      <trkpt lat="46.49177" lon="5.34355">
        <ele>230.6</ele>
        <time>2022-02-24T15:25:02Z</time>
      </trkpt>
      <trkpt lat="46.49161" lon="5.34432">
        <ele>231</ele>
        <time>2022-02-24T15:25:09Z</time>
      </trkpt>
      <trkpt lat="46.49148" lon="5.34503">
        <ele>229.6</ele>
        <time>2022-02-24T15:25:15Z</time>
      </trkpt>
      <trkpt lat="46.49136" lon="5.34565">
        <ele>229.4</ele>
        <time>2022-02-24T15:25:21Z</time>
      </trkpt>
      <trkpt lat="46.49126" lon="5.34624">
        <ele>230</ele>
        <time>2022-02-24T15:25:27Z</time>
      </trkpt>
      <trkpt lat="46.49113" lon="5.34693">
        <ele>229.8</ele>
        <time>2022-02-24T15:25:33Z</time>
      </trkpt>
      <trkpt lat="46.49104" lon="5.34737">
        <ele>229.8</ele>
        <time>2022-02-24T15:25:37Z</time>
      </trkpt>
      <trkpt lat="46.49101" lon="5.34757">
        <ele>229.8</ele>
        <time>2022-02-24T15:25:39Z</time>
      </trkpt>
      <trkpt lat="46.49089" lon="5.34813">
        <ele>230.2</ele>
        <time>2022-02-24T15:25:45Z</time>
      </trkpt>
      <trkpt lat="46.49079" lon="5.34857">
        <ele>230.8</ele>
        <time>2022-02-24T15:25:50Z</time>
      </trkpt>
      <trkpt lat="46.49078" lon="5.34866">
        <ele>231.2</ele>
        <time>2022-02-24T15:25:51Z</time>
      </trkpt>
      <trkpt lat="46.49076" lon="5.34875">
        <ele>231.2</ele>
        <time>2022-02-24T15:25:52Z</time>
      </trkpt>
      <trkpt lat="46.49066" lon="5.34926">
        <ele>232.2</ele>
        <time>2022-02-24T15:25:58Z</time>
      </trkpt>
      <trkpt lat="46.49062" lon="5.34951">
        <ele>232.4</ele>
        <time>2022-02-24T15:26:01Z</time>
      </trkpt>
      <trkpt lat="46.49052" lon="5.34999">
        <ele>233.2</ele>
        <time>2022-02-24T15:26:07Z</time>
      </trkpt>
      <trkpt lat="46.4905" lon="5.35008">
        <ele>233.4</ele>
        <time>2022-02-24T15:26:08Z</time>
      </trkpt>
      <trkpt lat="46.49048" lon="5.35023">
        <ele>233.8</ele>
        <time>2022-02-24T15:26:10Z</time>
      </trkpt>
      <trkpt lat="46.49043" lon="5.35053">
        <ele>234.2</ele>
        <time>2022-02-24T15:26:14Z</time>
      </trkpt>
      <trkpt lat="46.4904" lon="5.35068">
        <ele>234.6</ele>
        <time>2022-02-24T15:26:16Z</time>
      </trkpt>
      <trkpt lat="46.49036" lon="5.35092">
        <ele>235.4</ele>
        <time>2022-02-24T15:26:19Z</time>
      </trkpt>
      <trkpt lat="46.49032" lon="5.35116">
        <ele>235.8</ele>
        <time>2022-02-24T15:26:22Z</time>
      </trkpt>
      <trkpt lat="46.4903" lon="5.35124">
        <ele>236</ele>
        <time>2022-02-24T15:26:23Z</time>
      </trkpt>
      <trkpt lat="46.49021" lon="5.35144">
        <ele>236.6</ele>
        <time>2022-02-24T15:26:26Z</time>
      </trkpt>
      <trkpt lat="46.49009" lon="5.35172">
        <ele>236.8</ele>
        <time>2022-02-24T15:26:30Z</time>
      </trkpt>
      <trkpt lat="46.4899" lon="5.35212">
        <ele>236.8</ele>
        <time>2022-02-24T15:26:35Z</time>
      </trkpt>
      <trkpt lat="46.48963" lon="5.35271">
        <ele>235.8</ele>
        <time>2022-02-24T15:26:41Z</time>
      </trkpt>
      <trkpt lat="46.48959" lon="5.3528">
        <ele>235.4</ele>
        <time>2022-02-24T15:26:42Z</time>
      </trkpt>
      <trkpt lat="46.48933" lon="5.35337">
        <ele>234.4</ele>
        <time>2022-02-24T15:26:48Z</time>
      </trkpt>
      <trkpt lat="46.48924" lon="5.35358">
        <ele>234.2</ele>
        <time>2022-02-24T15:26:50Z</time>
      </trkpt>
      <trkpt lat="46.48893" lon="5.35428">
        <ele>234.2</ele>
        <time>2022-02-24T15:26:58Z</time>
      </trkpt>
      <trkpt lat="46.48888" lon="5.35438">
        <ele>234.2</ele>
        <time>2022-02-24T15:26:59Z</time>
      </trkpt>
      <trkpt lat="46.48863" lon="5.35494">
        <ele>235</ele>
        <time>2022-02-24T15:27:06Z</time>
      </trkpt>
      <trkpt lat="46.48845" lon="5.35535">
        <ele>235.6</ele>
        <time>2022-02-24T15:27:11Z</time>
      </trkpt>
      <trkpt lat="46.48823" lon="5.35587">
        <ele>235.8</ele>
        <time>2022-02-24T15:27:17Z</time>
      </trkpt>
      <trkpt lat="46.48791" lon="5.35658">
        <ele>235.8</ele>
        <time>2022-02-24T15:27:25Z</time>
      </trkpt>
      <trkpt lat="46.4876" lon="5.3573">
        <ele>235.4</ele>
        <time>2022-02-24T15:27:33Z</time>
      </trkpt>
      <trkpt lat="46.48752" lon="5.35747">
        <ele>235.4</ele>
        <time>2022-02-24T15:27:35Z</time>
      </trkpt>
      <trkpt lat="46.48722" lon="5.35818">
        <ele>235.8</ele>
        <time>2022-02-24T15:27:44Z</time>
      </trkpt>
      <trkpt lat="46.48702" lon="5.3587">
        <ele>236.6</ele>
        <time>2022-02-24T15:27:51Z</time>
      </trkpt>
      <trkpt lat="46.48682" lon="5.35933">
        <ele>237.2</ele>
        <time>2022-02-24T15:27:59Z</time>
      </trkpt>
      <trkpt lat="46.48678" lon="5.35958">
        <ele>237.8</ele>
        <time>2022-02-24T15:28:02Z</time>
      </trkpt>
      <trkpt lat="46.48672" lon="5.35999">
        <ele>238.8</ele>
        <time>2022-02-24T15:28:07Z</time>
      </trkpt>
      <trkpt lat="46.48671" lon="5.36008">
        <ele>238.8</ele>
        <time>2022-02-24T15:28:08Z</time>
      </trkpt>
      <trkpt lat="46.48661" lon="5.36062">
        <ele>239</ele>
        <time>2022-02-24T15:28:14Z</time>
      </trkpt>
      <trkpt lat="46.48649" lon="5.36113">
        <ele>237.6</ele>
        <time>2022-02-24T15:28:19Z</time>
      </trkpt>
      <trkpt lat="46.48647" lon="5.36123">
        <ele>237.2</ele>
        <time>2022-02-24T15:28:20Z</time>
      </trkpt>
      <trkpt lat="46.4864" lon="5.36164">
        <ele>236.8</ele>
        <time>2022-02-24T15:28:24Z</time>
      </trkpt>
      <trkpt lat="46.48639" lon="5.36175">
        <ele>236.8</ele>
        <time>2022-02-24T15:28:25Z</time>
      </trkpt>
      <trkpt lat="46.48634" lon="5.36242">
        <ele>237</ele>
        <time>2022-02-24T15:28:32Z</time>
      </trkpt>
      <trkpt lat="46.48625" lon="5.363">
        <ele>237.8</ele>
        <time>2022-02-24T15:28:39Z</time>
      </trkpt>
      <trkpt lat="46.48618" lon="5.36312">
        <ele>238.4</ele>
        <time>2022-02-24T15:28:41Z</time>
      </trkpt>
      <trkpt lat="46.48614" lon="5.36315">
        <ele>238.4</ele>
        <time>2022-02-24T15:28:42Z</time>
      </trkpt>
      <trkpt lat="46.4861" lon="5.36318">
        <ele>238.8</ele>
        <time>2022-02-24T15:28:43Z</time>
      </trkpt>
      <trkpt lat="46.48596" lon="5.36322">
        <ele>239.6</ele>
        <time>2022-02-24T15:28:46Z</time>
      </trkpt>
      <trkpt lat="46.48591" lon="5.36323">
        <ele>240</ele>
        <time>2022-02-24T15:28:47Z</time>
      </trkpt>
      <trkpt lat="46.48567" lon="5.36325">
        <ele>241.2</ele>
        <time>2022-02-24T15:28:52Z</time>
      </trkpt>
      <trkpt lat="46.48553" lon="5.36326">
        <ele>241.6</ele>
        <time>2022-02-24T15:28:55Z</time>
      </trkpt>
      <trkpt lat="46.48533" lon="5.3633">
        <ele>242.4</ele>
        <time>2022-02-24T15:28:59Z</time>
      </trkpt>
      <trkpt lat="46.48518" lon="5.36333">
        <ele>243.2</ele>
        <time>2022-02-24T15:29:02Z</time>
      </trkpt>
      <trkpt lat="46.48508" lon="5.36334">
        <ele>243.4</ele>
        <time>2022-02-24T15:29:04Z</time>
      </trkpt>
      <trkpt lat="46.48471" lon="5.36341">
        <ele>244</ele>
        <time>2022-02-24T15:29:11Z</time>
      </trkpt>
      <trkpt lat="46.48431" lon="5.36348">
        <ele>244.4</ele>
        <time>2022-02-24T15:29:18Z</time>
      </trkpt>
      <trkpt lat="46.48398" lon="5.36366">
        <ele>244.2</ele>
        <time>2022-02-24T15:29:24Z</time>
      </trkpt>
      <trkpt lat="46.48357" lon="5.36411">
        <ele>244.4</ele>
        <time>2022-02-24T15:29:33Z</time>
      </trkpt>
      <trkpt lat="46.48323" lon="5.36447">
        <ele>245.6</ele>
        <time>2022-02-24T15:29:41Z</time>
      </trkpt>
      <trkpt lat="46.48319" lon="5.36451">
        <ele>245.6</ele>
        <time>2022-02-24T15:29:42Z</time>
      </trkpt>
      <trkpt lat="46.48292" lon="5.36481">
        <ele>246.8</ele>
        <time>2022-02-24T15:29:49Z</time>
      </trkpt>
      <trkpt lat="46.48289" lon="5.36486">
        <ele>247</ele>
        <time>2022-02-24T15:29:50Z</time>
      </trkpt>
      <trkpt lat="46.48273" lon="5.36503">
        <ele>247.8</ele>
        <time>2022-02-24T15:29:54Z</time>
      </trkpt>
      <trkpt lat="46.48255" lon="5.36524">
        <ele>248.8</ele>
        <time>2022-02-24T15:29:59Z</time>
      </trkpt>
      <trkpt lat="46.48219" lon="5.36559">
        <ele>249.8</ele>
        <time>2022-02-24T15:30:08Z</time>
      </trkpt>
      <trkpt lat="46.48209" lon="5.3656">
        <ele>250</ele>
        <time>2022-02-24T15:30:10Z</time>
      </trkpt>
      <trkpt lat="46.482" lon="5.3656">
        <ele>250.2</ele>
        <time>2022-02-24T15:30:12Z</time>
      </trkpt>
      <trkpt lat="46.48192" lon="5.36567">
        <ele>250.4</ele>
        <time>2022-02-24T15:30:14Z</time>
      </trkpt>
      <trkpt lat="46.48189" lon="5.36571">
        <ele>250.6</ele>
        <time>2022-02-24T15:30:15Z</time>
      </trkpt>
      <trkpt lat="46.48186" lon="5.36577">
        <ele>250.6</ele>
        <time>2022-02-24T15:30:16Z</time>
      </trkpt>
      <trkpt lat="46.4818" lon="5.36599">
        <ele>251</ele>
        <time>2022-02-24T15:30:19Z</time>
      </trkpt>
      <trkpt lat="46.48177" lon="5.36604">
        <ele>251</ele>
        <time>2022-02-24T15:30:20Z</time>
      </trkpt>
      <trkpt lat="46.48174" lon="5.36609">
        <ele>251.2</ele>
        <time>2022-02-24T15:30:21Z</time>
      </trkpt>
      <trkpt lat="46.48155" lon="5.36632">
        <ele>251.8</ele>
        <time>2022-02-24T15:30:26Z</time>
      </trkpt>
      <trkpt lat="46.48134" lon="5.36646">
        <ele>251.8</ele>
        <time>2022-02-24T15:30:31Z</time>
      </trkpt>
      <trkpt lat="46.48116" lon="5.36666">
        <ele>251.8</ele>
        <time>2022-02-24T15:30:35Z</time>
      </trkpt>
      <trkpt lat="46.4811" lon="5.36675">
        <ele>252.2</ele>
        <time>2022-02-24T15:30:37Z</time>
      </trkpt>
      <trkpt lat="46.48102" lon="5.36684">
        <ele>252.6</ele>
        <time>2022-02-24T15:30:40Z</time>
      </trkpt>
      <trkpt lat="46.481" lon="5.36688">
        <ele>252.6</ele>
        <time>2022-02-24T15:30:41Z</time>
      </trkpt>
      <trkpt lat="46.48101" lon="5.36698">
        <ele>252.8</ele>
        <time>2022-02-24T15:30:43Z</time>
      </trkpt>
      <trkpt lat="46.48106" lon="5.36704">
        <ele>253.2</ele>
        <time>2022-02-24T15:30:45Z</time>
      </trkpt>
      <trkpt lat="46.48114" lon="5.36711">
        <ele>253.6</ele>
        <time>2022-02-24T15:30:47Z</time>
      </trkpt>
      <trkpt lat="46.48136" lon="5.36729">
        <ele>254.4</ele>
        <time>2022-02-24T15:30:53Z</time>
      </trkpt>
      <trkpt lat="46.48143" lon="5.36735">
        <ele>254.6</ele>
        <time>2022-02-24T15:30:55Z</time>
      </trkpt>
      <trkpt lat="46.48153" lon="5.36743">
        <ele>255.4</ele>
        <time>2022-02-24T15:30:58Z</time>
      </trkpt>
      <trkpt lat="46.48171" lon="5.36757">
        <ele>256.2</ele>
        <time>2022-02-24T15:31:03Z</time>
      </trkpt>
      <trkpt lat="46.48178" lon="5.36763">
        <ele>256.6</ele>
        <time>2022-02-24T15:31:05Z</time>
      </trkpt>
      <trkpt lat="46.48194" lon="5.36778">
        <ele>257.8</ele>
        <time>2022-02-24T15:31:10Z</time>
      </trkpt>
      <trkpt lat="46.48201" lon="5.36783">
        <ele>258.4</ele>
        <time>2022-02-24T15:31:12Z</time>
      </trkpt>
      <trkpt lat="46.48208" lon="5.36788">
        <ele>258.8</ele>
        <time>2022-02-24T15:31:14Z</time>
      </trkpt>
      <trkpt lat="46.48224" lon="5.36802">
        <ele>259.8</ele>
        <time>2022-02-24T15:31:19Z</time>
      </trkpt>
      <trkpt lat="46.48235" lon="5.36811">
        <ele>260.4</ele>
        <time>2022-02-24T15:31:22Z</time>
      </trkpt>
      <trkpt lat="46.48245" lon="5.36819">
        <ele>261</ele>
        <time>2022-02-24T15:31:25Z</time>
      </trkpt>
      <trkpt lat="46.48261" lon="5.36834">
        <ele>262.2</ele>
        <time>2022-02-24T15:31:30Z</time>
      </trkpt>
    </trkseg>
  </trk>
</gpx>